<?xml version="1.0" encoding="UTF-8" standalone="no" ?>
<gpx xmlns="http://www.topografix.com/GPX/1/1" xmlns:xsi="http://www.w3.org/2001/XMLSchema-instance" xsi:schemaLocation="http://www.topografix.com/GPX/1/1 http://www.topografix.com/GPX/1/1/gpx.xsd" version="1.1" creator="VisuGPX - https://www.visugpx.com">
  <metadata>
    <name>Ascension des Vosges J3 30 mai 2025 à 07-00-42.gpx</name>
  </metadata>
  <trk>
    <name><![CDATA[30 mai 2025 à 07:00:42]]></name>
    <extensions>
      <line xmlns="http://www.topografix.com/GPX/gpx_style/0/2">
        <color>0000FF</color>
        <width>4</width>
      </line>
    </extensions>
    <trkseg>
      <trkpt lat="47.86848" lon="6.8706">
        <ele>1165.0088410638</ele>
        <time>2025-05-30T05:00:42.000Z</time>
      </trkpt>
      <trkpt lat="47.86848" lon="6.87061">
        <ele>1165.0001355054</ele>
        <time>2025-05-30T05:00:43.000Z</time>
      </trkpt>
      <trkpt lat="47.86844" lon="6.87064">
        <ele>1164.9039493073</ele>
        <time>2025-05-30T05:01:00.000Z</time>
      </trkpt>
      <trkpt lat="47.86841" lon="6.8707">
        <ele>1164.9855870401</ele>
        <time>2025-05-30T05:01:06.000Z</time>
      </trkpt>
      <trkpt lat="47.86841" lon="6.87077">
        <ele>1165.0995861443</ele>
        <time>2025-05-30T05:01:11.000Z</time>
      </trkpt>
      <trkpt lat="47.86837" lon="6.8708">
        <ele>1164.9360193791</ele>
        <time>2025-05-30T05:01:17.000Z</time>
      </trkpt>
      <trkpt lat="47.86838" lon="6.87088">
        <ele>1165.044463485</ele>
        <time>2025-05-30T05:01:21.000Z</time>
      </trkpt>
      <trkpt lat="47.86837" lon="6.87103">
        <ele>1164.9085395951</ele>
        <time>2025-05-30T05:01:32.000Z</time>
      </trkpt>
      <trkpt lat="47.86837" lon="6.87114">
        <ele>1164.8990522756</ele>
        <time>2025-05-30T05:01:45.000Z</time>
      </trkpt>
      <trkpt lat="47.86838" lon="6.87132">
        <ele>1165.2796458164</ele>
        <time>2025-05-30T05:01:57.000Z</time>
      </trkpt>
      <trkpt lat="47.86841" lon="6.87138">
        <ele>1165.6617133806</ele>
        <time>2025-05-30T05:02:01.000Z</time>
      </trkpt>
      <trkpt lat="47.86842" lon="6.87149">
        <ele>1165.6432181826</ele>
        <time>2025-05-30T05:02:09.000Z</time>
      </trkpt>
      <trkpt lat="47.86841" lon="6.87155">
        <ele>1165.4051925763</ele>
        <time>2025-05-30T05:02:14.000Z</time>
      </trkpt>
      <trkpt lat="47.86844" lon="6.87163">
        <ele>1164.8680137753</ele>
        <time>2025-05-30T05:02:20.000Z</time>
      </trkpt>
      <trkpt lat="47.86849" lon="6.87173">
        <ele>1164.1803521094</ele>
        <time>2025-05-30T05:02:43.000Z</time>
      </trkpt>
      <trkpt lat="47.8685" lon="6.87182">
        <ele>1163.2963586523</ele>
        <time>2025-05-30T05:02:51.000Z</time>
      </trkpt>
      <trkpt lat="47.86855" lon="6.87188">
        <ele>1162.5531994608</ele>
        <time>2025-05-30T05:02:57.000Z</time>
      </trkpt>
      <trkpt lat="47.86861" lon="6.87205">
        <ele>1160.4288830679</ele>
        <time>2025-05-30T05:03:11.000Z</time>
      </trkpt>
      <trkpt lat="47.86862" lon="6.87212">
        <ele>1159.6647197442</ele>
        <time>2025-05-30T05:03:16.000Z</time>
      </trkpt>
      <trkpt lat="47.8686" lon="6.87219">
        <ele>1159.5589205479</ele>
        <time>2025-05-30T05:03:20.000Z</time>
      </trkpt>
      <trkpt lat="47.86857" lon="6.87225">
        <ele>1159.6545303519</ele>
        <time>2025-05-30T05:03:24.000Z</time>
      </trkpt>
      <trkpt lat="47.86856" lon="6.87245">
        <ele>1158.9627682181</ele>
        <time>2025-05-30T05:03:35.000Z</time>
      </trkpt>
      <trkpt lat="47.86856" lon="6.87253">
        <ele>1158.7625897135</ele>
        <time>2025-05-30T05:03:39.000Z</time>
      </trkpt>
      <trkpt lat="47.86854" lon="6.87259">
        <ele>1158.5952752355</ele>
        <time>2025-05-30T05:03:43.000Z</time>
      </trkpt>
      <trkpt lat="47.86853" lon="6.87277">
        <ele>1158.0108560716</ele>
        <time>2025-05-30T05:03:55.000Z</time>
      </trkpt>
      <trkpt lat="47.8685" lon="6.87284">
        <ele>1157.649828335</ele>
        <time>2025-05-30T05:04:00.000Z</time>
      </trkpt>
      <trkpt lat="47.86848" lon="6.87289">
        <ele>1157.3545664886</ele>
        <time>2025-05-30T05:04:04.000Z</time>
      </trkpt>
      <trkpt lat="47.86851" lon="6.87296">
        <ele>1156.885297175</ele>
        <time>2025-05-30T05:04:08.000Z</time>
      </trkpt>
      <trkpt lat="47.86855" lon="6.87302">
        <ele>1156.3213287236</ele>
        <time>2025-05-30T05:04:13.000Z</time>
      </trkpt>
      <trkpt lat="47.86857" lon="6.8731">
        <ele>1155.6898325092</ele>
        <time>2025-05-30T05:04:17.000Z</time>
      </trkpt>
      <trkpt lat="47.86857" lon="6.87325">
        <ele>1154.5805942574</ele>
        <time>2025-05-30T05:04:24.000Z</time>
      </trkpt>
      <trkpt lat="47.86854" lon="6.87334">
        <ele>1154.2432817931</ele>
        <time>2025-05-30T05:04:31.000Z</time>
      </trkpt>
      <trkpt lat="47.86851" lon="6.87348">
        <ele>1153.4942378084</ele>
        <time>2025-05-30T05:04:40.000Z</time>
      </trkpt>
      <trkpt lat="47.86851" lon="6.87355">
        <ele>1153.1144464253</ele>
        <time>2025-05-30T05:04:44.000Z</time>
      </trkpt>
      <trkpt lat="47.86848" lon="6.87379">
        <ele>1151.8770688717</ele>
        <time>2025-05-30T05:04:59.000Z</time>
      </trkpt>
      <trkpt lat="47.86845" lon="6.87385">
        <ele>1151.6666010253</ele>
        <time>2025-05-30T05:05:04.000Z</time>
      </trkpt>
      <trkpt lat="47.86843" lon="6.87392">
        <ele>1151.3525796549</ele>
        <time>2025-05-30T05:05:08.000Z</time>
      </trkpt>
      <trkpt lat="47.86832" lon="6.8744">
        <ele>1145.9433756278</ele>
        <time>2025-05-30T05:05:41.000Z</time>
      </trkpt>
      <trkpt lat="47.86837" lon="6.87457">
        <ele>1144.3238888876</ele>
        <time>2025-05-30T05:05:53.000Z</time>
      </trkpt>
      <trkpt lat="47.86841" lon="6.87461">
        <ele>1144.2560988744</ele>
        <time>2025-05-30T05:05:58.000Z</time>
      </trkpt>
      <trkpt lat="47.8685" lon="6.87472">
        <ele>1141.9861972625</ele>
        <time>2025-05-30T05:06:09.000Z</time>
      </trkpt>
      <trkpt lat="47.86852" lon="6.87478">
        <ele>1140.5872791486</ele>
        <time>2025-05-30T05:06:12.000Z</time>
      </trkpt>
      <trkpt lat="47.8685" lon="6.87483">
        <ele>1139.0666435518</ele>
        <time>2025-05-30T05:06:16.000Z</time>
      </trkpt>
      <trkpt lat="47.86851" lon="6.8749">
        <ele>1137.4476415682</ele>
        <time>2025-05-30T05:06:21.000Z</time>
      </trkpt>
      <trkpt lat="47.86854" lon="6.87498">
        <ele>1136.0931512934</ele>
        <time>2025-05-30T05:06:28.000Z</time>
      </trkpt>
      <trkpt lat="47.86851" lon="6.87506">
        <ele>1134.5163025218</ele>
        <time>2025-05-30T05:06:35.000Z</time>
      </trkpt>
      <trkpt lat="47.86853" lon="6.87521">
        <ele>1132.2429234458</ele>
        <time>2025-05-30T05:06:46.000Z</time>
      </trkpt>
      <trkpt lat="47.86855" lon="6.87531">
        <ele>1130.999546125</ele>
        <time>2025-05-30T05:06:54.000Z</time>
      </trkpt>
      <trkpt lat="47.86862" lon="6.87543">
        <ele>1129.6767497682</ele>
        <time>2025-05-30T05:07:03.000Z</time>
      </trkpt>
      <trkpt lat="47.86865" lon="6.87548">
        <ele>1129.2041539084</ele>
        <time>2025-05-30T05:07:07.000Z</time>
      </trkpt>
      <trkpt lat="47.86869" lon="6.87567">
        <ele>1126.1892849207</ele>
        <time>2025-05-30T05:07:23.000Z</time>
      </trkpt>
      <trkpt lat="47.86869" lon="6.87581">
        <ele>1123.6942680638</ele>
        <time>2025-05-30T05:07:33.000Z</time>
      </trkpt>
      <trkpt lat="47.86872" lon="6.87602">
        <ele>1120.1713750897</ele>
        <time>2025-05-30T05:07:46.000Z</time>
      </trkpt>
      <trkpt lat="47.86866" lon="6.87625">
        <ele>1115.1239894539</ele>
        <time>2025-05-30T05:07:59.000Z</time>
      </trkpt>
      <trkpt lat="47.86866" lon="6.87645">
        <ele>1112.3347606886</ele>
        <time>2025-05-30T05:08:15.000Z</time>
      </trkpt>
      <trkpt lat="47.86869" lon="6.8765">
        <ele>1112.1753336672</ele>
        <time>2025-05-30T05:08:19.000Z</time>
      </trkpt>
      <trkpt lat="47.86873" lon="6.87654">
        <ele>1112.507493295</ele>
        <time>2025-05-30T05:08:24.000Z</time>
      </trkpt>
      <trkpt lat="47.86879" lon="6.87661">
        <ele>1112.9069521925</ele>
        <time>2025-05-30T05:08:31.000Z</time>
      </trkpt>
      <trkpt lat="47.86881" lon="6.87668">
        <ele>1112.3087114628</ele>
        <time>2025-05-30T05:08:35.000Z</time>
      </trkpt>
      <trkpt lat="47.86885" lon="6.87676">
        <ele>1111.5124540658</ele>
        <time>2025-05-30T05:08:42.000Z</time>
      </trkpt>
      <trkpt lat="47.86885" lon="6.87683">
        <ele>1110.7875401325</ele>
        <time>2025-05-30T05:08:45.000Z</time>
      </trkpt>
      <trkpt lat="47.86885" lon="6.87691">
        <ele>1109.914353709</ele>
        <time>2025-05-30T05:08:48.000Z</time>
      </trkpt>
      <trkpt lat="47.86886" lon="6.87706">
        <ele>1108.5011837809</ele>
        <time>2025-05-30T05:08:56.000Z</time>
      </trkpt>
      <trkpt lat="47.86883" lon="6.87715">
        <ele>1107.6138012214</ele>
        <time>2025-05-30T05:09:02.000Z</time>
      </trkpt>
      <trkpt lat="47.8688" lon="6.87721">
        <ele>1106.8967326455</ele>
        <time>2025-05-30T05:09:07.000Z</time>
      </trkpt>
      <trkpt lat="47.8688" lon="6.87728">
        <ele>1106.5844633451</ele>
        <time>2025-05-30T05:09:11.000Z</time>
      </trkpt>
      <trkpt lat="47.86878" lon="6.87743">
        <ele>1105.3120945887</ele>
        <time>2025-05-30T05:09:21.000Z</time>
      </trkpt>
      <trkpt lat="47.86882" lon="6.87756">
        <ele>1105.4470385422</ele>
        <time>2025-05-30T05:09:29.000Z</time>
      </trkpt>
      <trkpt lat="47.86883" lon="6.8777">
        <ele>1104.9644208209</ele>
        <time>2025-05-30T05:09:37.000Z</time>
      </trkpt>
      <trkpt lat="47.86882" lon="6.878">
        <ele>1103.8781857504</ele>
        <time>2025-05-30T05:09:55.000Z</time>
      </trkpt>
      <trkpt lat="47.86888" lon="6.87844">
        <ele>1104.4720854135</ele>
        <time>2025-05-30T05:10:21.000Z</time>
      </trkpt>
      <trkpt lat="47.8689" lon="6.87875">
        <ele>1105.5721184323</ele>
        <time>2025-05-30T05:10:42.000Z</time>
      </trkpt>
      <trkpt lat="47.86901" lon="6.87909">
        <ele>1111.9385936404</ele>
        <time>2025-05-30T05:11:04.000Z</time>
      </trkpt>
      <trkpt lat="47.86904" lon="6.8796">
        <ele>1113.2869327327</ele>
        <time>2025-05-30T05:11:34.000Z</time>
      </trkpt>
      <trkpt lat="47.86912" lon="6.87988">
        <ele>1115.7067129739</ele>
        <time>2025-05-30T05:11:51.000Z</time>
      </trkpt>
      <trkpt lat="47.86915" lon="6.87993">
        <ele>1116.51559539</ele>
        <time>2025-05-30T05:11:54.000Z</time>
      </trkpt>
      <trkpt lat="47.86918" lon="6.87997">
        <ele>1117.7566653473</ele>
        <time>2025-05-30T05:11:58.000Z</time>
      </trkpt>
      <trkpt lat="47.86931" lon="6.88029">
        <ele>1122.448822969</ele>
        <time>2025-05-30T05:12:18.000Z</time>
      </trkpt>
      <trkpt lat="47.86931" lon="6.88058">
        <ele>1123.8960358821</ele>
        <time>2025-05-30T05:12:31.000Z</time>
      </trkpt>
      <trkpt lat="47.86928" lon="6.88072">
        <ele>1123.5310989643</ele>
        <time>2025-05-30T05:12:38.000Z</time>
      </trkpt>
      <trkpt lat="47.86928" lon="6.88079">
        <ele>1123.8386603855</ele>
        <time>2025-05-30T05:12:41.000Z</time>
      </trkpt>
      <trkpt lat="47.86926" lon="6.88102">
        <ele>1122.747391325</ele>
        <time>2025-05-30T05:12:53.000Z</time>
      </trkpt>
      <trkpt lat="47.86926" lon="6.88109">
        <ele>1122.384819726</ele>
        <time>2025-05-30T05:12:57.000Z</time>
      </trkpt>
      <trkpt lat="47.86925" lon="6.88123">
        <ele>1120.9495091081</ele>
        <time>2025-05-30T05:13:04.000Z</time>
      </trkpt>
      <trkpt lat="47.86927" lon="6.88138">
        <ele>1119.9766323817</ele>
        <time>2025-05-30T05:13:12.000Z</time>
      </trkpt>
      <trkpt lat="47.86927" lon="6.88145">
        <ele>1119.1685425711</ele>
        <time>2025-05-30T05:13:17.000Z</time>
      </trkpt>
      <trkpt lat="47.86929" lon="6.88153">
        <ele>1119.3155559379</ele>
        <time>2025-05-30T05:13:21.000Z</time>
      </trkpt>
      <trkpt lat="47.8693" lon="6.88168">
        <ele>1119.6284076478</ele>
        <time>2025-05-30T05:13:29.000Z</time>
      </trkpt>
      <trkpt lat="47.86931" lon="6.88174">
        <ele>1120.3912962565</ele>
        <time>2025-05-30T05:13:32.000Z</time>
      </trkpt>
      <trkpt lat="47.86932" lon="6.88181">
        <ele>1120.6348887885</ele>
        <time>2025-05-30T05:13:36.000Z</time>
      </trkpt>
      <trkpt lat="47.8693" lon="6.88198">
        <ele>1120.1502220202</ele>
        <time>2025-05-30T05:13:44.000Z</time>
      </trkpt>
      <trkpt lat="47.86931" lon="6.88218">
        <ele>1121.1303107969</ele>
        <time>2025-05-30T05:13:53.000Z</time>
      </trkpt>
      <trkpt lat="47.8694" lon="6.88266">
        <ele>1122.5161554974</ele>
        <time>2025-05-30T05:14:18.000Z</time>
      </trkpt>
      <trkpt lat="47.86943" lon="6.88272">
        <ele>1123.2279499011</ele>
        <time>2025-05-30T05:14:22.000Z</time>
      </trkpt>
      <trkpt lat="47.86946" lon="6.88277">
        <ele>1123.9414771388</ele>
        <time>2025-05-30T05:14:24.000Z</time>
      </trkpt>
      <trkpt lat="47.86947" lon="6.88284">
        <ele>1123.7813359194</ele>
        <time>2025-05-30T05:14:28.000Z</time>
      </trkpt>
      <trkpt lat="47.8695" lon="6.8829">
        <ele>1123.9607767167</ele>
        <time>2025-05-30T05:14:32.000Z</time>
      </trkpt>
      <trkpt lat="47.86963" lon="6.88319">
        <ele>1124.2074289953</ele>
        <time>2025-05-30T05:14:49.000Z</time>
      </trkpt>
      <trkpt lat="47.86969" lon="6.88337">
        <ele>1122.1396929573</ele>
        <time>2025-05-30T05:14:59.000Z</time>
      </trkpt>
      <trkpt lat="47.86993" lon="6.88387">
        <ele>1122.8646242371</ele>
        <time>2025-05-30T05:15:31.000Z</time>
      </trkpt>
      <trkpt lat="47.86998" lon="6.884">
        <ele>1122.7347823794</ele>
        <time>2025-05-30T05:15:39.000Z</time>
      </trkpt>
      <trkpt lat="47.87" lon="6.88408">
        <ele>1121.9979932607</ele>
        <time>2025-05-30T05:15:43.000Z</time>
      </trkpt>
      <trkpt lat="47.87003" lon="6.88415">
        <ele>1122.0349685512</ele>
        <time>2025-05-30T05:15:47.000Z</time>
      </trkpt>
      <trkpt lat="47.87011" lon="6.88449">
        <ele>1119.6004807478</ele>
        <time>2025-05-30T05:16:05.000Z</time>
      </trkpt>
      <trkpt lat="47.8701" lon="6.88456">
        <ele>1118.933522835</ele>
        <time>2025-05-30T05:16:08.000Z</time>
      </trkpt>
      <trkpt lat="47.87019" lon="6.88507">
        <ele>1123.3150086177</ele>
        <time>2025-05-30T05:16:32.000Z</time>
      </trkpt>
      <trkpt lat="47.87019" lon="6.88514">
        <ele>1123.2772565063</ele>
        <time>2025-05-30T05:16:35.000Z</time>
      </trkpt>
      <trkpt lat="47.87021" lon="6.88522">
        <ele>1124.1690343477</ele>
        <time>2025-05-30T05:16:57.000Z</time>
      </trkpt>
      <trkpt lat="47.87026" lon="6.8859">
        <ele>1119.9349457253</ele>
        <time>2025-05-30T05:17:31.000Z</time>
      </trkpt>
      <trkpt lat="47.87028" lon="6.88618">
        <ele>1118.2024606936</ele>
        <time>2025-05-30T05:17:45.000Z</time>
      </trkpt>
      <trkpt lat="47.87029" lon="6.88624">
        <ele>1118.0469318399</ele>
        <time>2025-05-30T05:17:49.000Z</time>
      </trkpt>
      <trkpt lat="47.87028" lon="6.88634">
        <ele>1117.476039564</ele>
        <time>2025-05-30T05:17:53.000Z</time>
      </trkpt>
      <trkpt lat="47.87031" lon="6.88648">
        <ele>1118.803914078</ele>
        <time>2025-05-30T05:18:00.000Z</time>
      </trkpt>
      <trkpt lat="47.87032" lon="6.88654">
        <ele>1119.016628507</ele>
        <time>2025-05-30T05:18:04.000Z</time>
      </trkpt>
      <trkpt lat="47.87033" lon="6.88662">
        <ele>1119.6957290968</ele>
        <time>2025-05-30T05:18:08.000Z</time>
      </trkpt>
      <trkpt lat="47.87035" lon="6.88668">
        <ele>1120.2300287338</ele>
        <time>2025-05-30T05:18:11.000Z</time>
      </trkpt>
      <trkpt lat="47.87037" lon="6.88677">
        <ele>1121.0839020351</ele>
        <time>2025-05-30T05:18:15.000Z</time>
      </trkpt>
      <trkpt lat="47.87037" lon="6.88691">
        <ele>1120.5462993171</ele>
        <time>2025-05-30T05:18:22.000Z</time>
      </trkpt>
      <trkpt lat="47.87035" lon="6.88697">
        <ele>1119.2677981857</ele>
        <time>2025-05-30T05:18:25.000Z</time>
      </trkpt>
      <trkpt lat="47.87042" lon="6.88762">
        <ele>1115.7587757994</ele>
        <time>2025-05-30T05:18:55.000Z</time>
      </trkpt>
      <trkpt lat="47.87049" lon="6.88791">
        <ele>1115.1636960124</ele>
        <time>2025-05-30T05:19:10.000Z</time>
      </trkpt>
      <trkpt lat="47.87061" lon="6.88831">
        <ele>1114.2792449404</ele>
        <time>2025-05-30T05:19:32.000Z</time>
      </trkpt>
      <trkpt lat="47.87062" lon="6.88839">
        <ele>1113.4543126655</ele>
        <time>2025-05-30T05:19:37.000Z</time>
      </trkpt>
      <trkpt lat="47.87055" lon="6.88906">
        <ele>1106.0542619018</ele>
        <time>2025-05-30T05:20:10.000Z</time>
      </trkpt>
      <trkpt lat="47.87044" lon="6.88947">
        <ele>1102.2669585005</ele>
        <time>2025-05-30T05:20:33.000Z</time>
      </trkpt>
      <trkpt lat="47.87044" lon="6.88956">
        <ele>1102.0034778648</ele>
        <time>2025-05-30T05:20:36.000Z</time>
      </trkpt>
      <trkpt lat="47.87039" lon="6.88977">
        <ele>1100.8189539316</ele>
        <time>2025-05-30T05:20:47.000Z</time>
      </trkpt>
      <trkpt lat="47.87035" lon="6.89">
        <ele>1101.762085968</ele>
        <time>2025-05-30T05:20:59.000Z</time>
      </trkpt>
      <trkpt lat="47.87024" lon="6.89042">
        <ele>1103.7528819572</ele>
        <time>2025-05-30T05:21:21.000Z</time>
      </trkpt>
      <trkpt lat="47.87023" lon="6.89057">
        <ele>1104.1067600697</ele>
        <time>2025-05-30T05:21:29.000Z</time>
      </trkpt>
      <trkpt lat="47.87012" lon="6.89098">
        <ele>1101.7596937116</ele>
        <time>2025-05-30T05:21:52.000Z</time>
      </trkpt>
      <trkpt lat="47.87012" lon="6.89105">
        <ele>1101.9584696234</ele>
        <time>2025-05-30T05:21:56.000Z</time>
      </trkpt>
      <trkpt lat="47.8701" lon="6.89111">
        <ele>1101.7258433264</ele>
        <time>2025-05-30T05:22:00.000Z</time>
      </trkpt>
      <trkpt lat="47.87007" lon="6.89127">
        <ele>1102.1137070121</ele>
        <time>2025-05-30T05:22:08.000Z</time>
      </trkpt>
      <trkpt lat="47.87005" lon="6.89134">
        <ele>1102.2910690685</ele>
        <time>2025-05-30T05:22:12.000Z</time>
      </trkpt>
      <trkpt lat="47.87002" lon="6.89141">
        <ele>1102.4328424079</ele>
        <time>2025-05-30T05:22:16.000Z</time>
      </trkpt>
      <trkpt lat="47.87002" lon="6.89148">
        <ele>1103.2332526525</ele>
        <time>2025-05-30T05:22:20.000Z</time>
      </trkpt>
      <trkpt lat="47.86995" lon="6.89169">
        <ele>1104.5601436779</ele>
        <time>2025-05-30T05:22:31.000Z</time>
      </trkpt>
      <trkpt lat="47.87001" lon="6.89175">
        <ele>1106.1104188899</ele>
        <time>2025-05-30T05:22:49.000Z</time>
      </trkpt>
      <trkpt lat="47.87007" lon="6.89178">
        <ele>1107.5369840138</ele>
        <time>2025-05-30T05:22:52.000Z</time>
      </trkpt>
      <trkpt lat="47.8701" lon="6.89181">
        <ele>1107.983859424</ele>
        <time>2025-05-30T05:22:57.000Z</time>
      </trkpt>
      <trkpt lat="47.87018" lon="6.89189">
        <ele>1109.346717677</ele>
        <time>2025-05-30T05:23:07.000Z</time>
      </trkpt>
      <trkpt lat="47.87022" lon="6.89198">
        <ele>1110.6227033935</ele>
        <time>2025-05-30T05:23:14.000Z</time>
      </trkpt>
      <trkpt lat="47.87028" lon="6.89208">
        <ele>1112.123622539</ele>
        <time>2025-05-30T05:23:21.000Z</time>
      </trkpt>
      <trkpt lat="47.87041" lon="6.89241">
        <ele>1116.2142511576</ele>
        <time>2025-05-30T05:23:42.000Z</time>
      </trkpt>
      <trkpt lat="47.87048" lon="6.8925">
        <ele>1116.7315238002</ele>
        <time>2025-05-30T05:23:51.000Z</time>
      </trkpt>
      <trkpt lat="47.87053" lon="6.89264">
        <ele>1117.0248018433</ele>
        <time>2025-05-30T05:23:59.000Z</time>
      </trkpt>
      <trkpt lat="47.87059" lon="6.89295">
        <ele>1117.1463356395</ele>
        <time>2025-05-30T05:24:18.000Z</time>
      </trkpt>
      <trkpt lat="47.87061" lon="6.89301">
        <ele>1116.8814432646</ele>
        <time>2025-05-30T05:24:21.000Z</time>
      </trkpt>
      <trkpt lat="47.87062" lon="6.89308">
        <ele>1116.8667125686</ele>
        <time>2025-05-30T05:24:25.000Z</time>
      </trkpt>
      <trkpt lat="47.87062" lon="6.89316">
        <ele>1117.5541794905</ele>
        <time>2025-05-30T05:24:29.000Z</time>
      </trkpt>
      <trkpt lat="47.87059" lon="6.89331">
        <ele>1119.854402567</ele>
        <time>2025-05-30T05:24:36.000Z</time>
      </trkpt>
      <trkpt lat="47.87061" lon="6.89338">
        <ele>1120.175075862</ele>
        <time>2025-05-30T05:24:39.000Z</time>
      </trkpt>
      <trkpt lat="47.87063" lon="6.89344">
        <ele>1120.0463957583</ele>
        <time>2025-05-30T05:24:44.000Z</time>
      </trkpt>
      <trkpt lat="47.87066" lon="6.89349">
        <ele>1119.3616330662</ele>
        <time>2025-05-30T05:24:46.000Z</time>
      </trkpt>
      <trkpt lat="47.87084" lon="6.894">
        <ele>1118.5209937597</ele>
        <time>2025-05-30T05:25:17.000Z</time>
      </trkpt>
      <trkpt lat="47.87087" lon="6.89405">
        <ele>1117.9121012741</ele>
        <time>2025-05-30T05:25:20.000Z</time>
      </trkpt>
      <trkpt lat="47.87089" lon="6.89414">
        <ele>1118.2027592356</ele>
        <time>2025-05-30T05:25:25.000Z</time>
      </trkpt>
      <trkpt lat="47.87094" lon="6.89416">
        <ele>1116.9440012812</ele>
        <time>2025-05-30T05:25:29.000Z</time>
      </trkpt>
      <trkpt lat="47.87097" lon="6.89421">
        <ele>1116.2413989482</ele>
        <time>2025-05-30T05:25:33.000Z</time>
      </trkpt>
      <trkpt lat="47.871" lon="6.89428">
        <ele>1116.0401124152</ele>
        <time>2025-05-30T05:25:37.000Z</time>
      </trkpt>
      <trkpt lat="47.87105" lon="6.8943">
        <ele>1114.4917874148</ele>
        <time>2025-05-30T05:25:41.000Z</time>
      </trkpt>
      <trkpt lat="47.8711" lon="6.89444">
        <ele>1115.131914142</ele>
        <time>2025-05-30T05:25:51.000Z</time>
      </trkpt>
      <trkpt lat="47.87115" lon="6.89445">
        <ele>1113.370193337</ele>
        <time>2025-05-30T05:25:55.000Z</time>
      </trkpt>
      <trkpt lat="47.87119" lon="6.89449">
        <ele>1112.5039522271</ele>
        <time>2025-05-30T05:26:00.000Z</time>
      </trkpt>
      <trkpt lat="47.87121" lon="6.89455">
        <ele>1112.658726579</ele>
        <time>2025-05-30T05:26:04.000Z</time>
      </trkpt>
      <trkpt lat="47.87138" lon="6.89472">
        <ele>1108.9415591387</ele>
        <time>2025-05-30T05:26:22.000Z</time>
      </trkpt>
      <trkpt lat="47.87144" lon="6.89479">
        <ele>1107.6092107536</ele>
        <time>2025-05-30T05:26:29.000Z</time>
      </trkpt>
      <trkpt lat="47.87155" lon="6.89486">
        <ele>1103.6440805837</ele>
        <time>2025-05-30T05:26:41.000Z</time>
      </trkpt>
      <trkpt lat="47.8716" lon="6.89484">
        <ele>1100.5747733261</ele>
        <time>2025-05-30T05:26:45.000Z</time>
      </trkpt>
      <trkpt lat="47.87164" lon="6.89489">
        <ele>1099.5646372232</ele>
        <time>2025-05-30T05:26:49.000Z</time>
      </trkpt>
      <trkpt lat="47.87174" lon="6.89486">
        <ele>1093.1706819198</ele>
        <time>2025-05-30T05:26:57.000Z</time>
      </trkpt>
      <trkpt lat="47.87189" lon="6.89485">
        <ele>1086.5792943318</ele>
        <time>2025-05-30T05:27:13.000Z</time>
      </trkpt>
      <trkpt lat="47.87193" lon="6.89482">
        <ele>1083.8485807687</ele>
        <time>2025-05-30T05:27:17.000Z</time>
      </trkpt>
      <trkpt lat="47.87197" lon="6.89485">
        <ele>1082.9585972225</ele>
        <time>2025-05-30T05:27:31.000Z</time>
      </trkpt>
      <trkpt lat="47.87196" lon="6.89489">
        <ele>1085.0297113787</ele>
        <time>2025-05-30T05:27:56.000Z</time>
      </trkpt>
      <trkpt lat="47.87192" lon="6.89485">
        <ele>1084.9794857292</ele>
        <time>2025-05-30T05:28:24.000Z</time>
      </trkpt>
      <trkpt lat="47.87192" lon="6.89493">
        <ele>1088.0293798096</ele>
        <time>2025-05-30T05:28:48.000Z</time>
      </trkpt>
      <trkpt lat="47.87195" lon="6.89503">
        <ele>1090.2030205527</ele>
        <time>2025-05-30T05:29:12.000Z</time>
      </trkpt>
      <trkpt lat="47.87197" lon="6.89511">
        <ele>1091.8224597909</ele>
        <time>2025-05-30T05:29:16.000Z</time>
      </trkpt>
      <trkpt lat="47.87202" lon="6.89519">
        <ele>1091.6035338796</ele>
        <time>2025-05-30T05:29:23.000Z</time>
      </trkpt>
      <trkpt lat="47.8721" lon="6.89528">
        <ele>1089.6670652794</ele>
        <time>2025-05-30T05:29:31.000Z</time>
      </trkpt>
      <trkpt lat="47.87215" lon="6.89539">
        <ele>1086.6276430224</ele>
        <time>2025-05-30T05:29:38.000Z</time>
      </trkpt>
      <trkpt lat="47.87223" lon="6.89546">
        <ele>1087.0531610968</ele>
        <time>2025-05-30T05:29:45.000Z</time>
      </trkpt>
      <trkpt lat="47.87231" lon="6.89558">
        <ele>1085.404810409</ele>
        <time>2025-05-30T05:29:55.000Z</time>
      </trkpt>
      <trkpt lat="47.87238" lon="6.89564">
        <ele>1082.9612143949</ele>
        <time>2025-05-30T05:30:02.000Z</time>
      </trkpt>
      <trkpt lat="47.87241" lon="6.89569">
        <ele>1082.1574834291</ele>
        <time>2025-05-30T05:30:07.000Z</time>
      </trkpt>
      <trkpt lat="47.87246" lon="6.89571">
        <ele>1079.6852929005</ele>
        <time>2025-05-30T05:30:10.000Z</time>
      </trkpt>
      <trkpt lat="47.87258" lon="6.89586">
        <ele>1076.1905019453</ele>
        <time>2025-05-30T05:30:24.000Z</time>
      </trkpt>
      <trkpt lat="47.87263" lon="6.8959">
        <ele>1074.7303529978</ele>
        <time>2025-05-30T05:30:28.000Z</time>
      </trkpt>
      <trkpt lat="47.87267" lon="6.89595">
        <ele>1073.9623007541</ele>
        <time>2025-05-30T05:30:36.000Z</time>
      </trkpt>
      <trkpt lat="47.87276" lon="6.89601">
        <ele>1070.6644653294</ele>
        <time>2025-05-30T05:30:45.000Z</time>
      </trkpt>
      <trkpt lat="47.87279" lon="6.89606">
        <ele>1070.1394913307</ele>
        <time>2025-05-30T05:30:48.000Z</time>
      </trkpt>
      <trkpt lat="47.87296" lon="6.89618">
        <ele>1064.2427418483</ele>
        <time>2025-05-30T05:31:02.000Z</time>
      </trkpt>
      <trkpt lat="47.87309" lon="6.89632">
        <ele>1060.6346200791</ele>
        <time>2025-05-30T05:31:17.000Z</time>
      </trkpt>
      <trkpt lat="47.87314" lon="6.89636">
        <ele>1058.5034771314</ele>
        <time>2025-05-30T05:31:21.000Z</time>
      </trkpt>
      <trkpt lat="47.87334" lon="6.89668">
        <ele>1049.7668438191</ele>
        <time>2025-05-30T05:31:44.000Z</time>
      </trkpt>
      <trkpt lat="47.87339" lon="6.89697">
        <ele>1044.9894642142</ele>
        <time>2025-05-30T05:32:02.000Z</time>
      </trkpt>
      <trkpt lat="47.87332" lon="6.89717">
        <ele>1045.1483756531</ele>
        <time>2025-05-30T05:32:16.000Z</time>
      </trkpt>
      <trkpt lat="47.87335" lon="6.8971">
        <ele>1044.8234072012</ele>
        <time>2025-05-30T05:32:32.000Z</time>
      </trkpt>
      <trkpt lat="47.87344" lon="6.89704">
        <ele>1041.5537006495</ele>
        <time>2025-05-30T05:32:44.000Z</time>
      </trkpt>
      <trkpt lat="47.87346" lon="6.89698">
        <ele>1041.1466167398</ele>
        <time>2025-05-30T05:32:48.000Z</time>
      </trkpt>
      <trkpt lat="47.87349" lon="6.89684">
        <ele>1041.232252249</ele>
        <time>2025-05-30T05:32:59.000Z</time>
      </trkpt>
      <trkpt lat="47.8735" lon="6.89669">
        <ele>1041.8285040506</ele>
        <time>2025-05-30T05:33:10.000Z</time>
      </trkpt>
      <trkpt lat="47.87353" lon="6.89655">
        <ele>1040.1382922005</ele>
        <time>2025-05-30T05:33:18.000Z</time>
      </trkpt>
      <trkpt lat="47.87353" lon="6.89642">
        <ele>1039.5375693956</ele>
        <time>2025-05-30T05:33:26.000Z</time>
      </trkpt>
      <trkpt lat="47.87356" lon="6.89631">
        <ele>1036.609647899</ele>
        <time>2025-05-30T05:33:34.000Z</time>
      </trkpt>
      <trkpt lat="47.87355" lon="6.89622">
        <ele>1035.3292412202</ele>
        <time>2025-05-30T05:33:42.000Z</time>
      </trkpt>
      <trkpt lat="47.87358" lon="6.89617">
        <ele>1032.5852771126</ele>
        <time>2025-05-30T05:33:46.000Z</time>
      </trkpt>
      <trkpt lat="47.87362" lon="6.89621">
        <ele>1031.2917088848</ele>
        <time>2025-05-30T05:33:50.000Z</time>
      </trkpt>
      <trkpt lat="47.87367" lon="6.89623">
        <ele>1028.6781131735</ele>
        <time>2025-05-30T05:33:53.000Z</time>
      </trkpt>
      <trkpt lat="47.87373" lon="6.8963">
        <ele>1026.679012197</ele>
        <time>2025-05-30T05:34:01.000Z</time>
      </trkpt>
      <trkpt lat="47.87387" lon="6.89639">
        <ele>1020.111757473</ele>
        <time>2025-05-30T05:34:17.000Z</time>
      </trkpt>
      <trkpt lat="47.87391" lon="6.89644">
        <ele>1019.0299415024</ele>
        <time>2025-05-30T05:34:21.000Z</time>
      </trkpt>
      <trkpt lat="47.87402" lon="6.89663">
        <ele>1016.3981922863</ele>
        <time>2025-05-30T05:34:40.000Z</time>
      </trkpt>
      <trkpt lat="47.87406" lon="6.8967">
        <ele>1015.393335969</ele>
        <time>2025-05-30T05:34:47.000Z</time>
      </trkpt>
      <trkpt lat="47.87409" lon="6.89674">
        <ele>1013.8815956198</ele>
        <time>2025-05-30T05:34:51.000Z</time>
      </trkpt>
      <trkpt lat="47.87412" lon="6.89682">
        <ele>1012.304661782</ele>
        <time>2025-05-30T05:34:59.000Z</time>
      </trkpt>
      <trkpt lat="47.87413" lon="6.89693">
        <ele>1011.9945979351</ele>
        <time>2025-05-30T05:35:07.000Z</time>
      </trkpt>
      <trkpt lat="47.87411" lon="6.897">
        <ele>1012.3308213105</ele>
        <time>2025-05-30T05:35:11.000Z</time>
      </trkpt>
      <trkpt lat="47.87413" lon="6.89715">
        <ele>1009.0773764564</ele>
        <time>2025-05-30T05:35:23.000Z</time>
      </trkpt>
      <trkpt lat="47.87413" lon="6.89726">
        <ele>1007.4359853333</ele>
        <time>2025-05-30T05:35:29.000Z</time>
      </trkpt>
      <trkpt lat="47.87408" lon="6.89748">
        <ele>1004.2794385784</ele>
        <time>2025-05-30T05:35:43.000Z</time>
      </trkpt>
      <trkpt lat="47.87412" lon="6.89743">
        <ele>1003.2271305747</ele>
        <time>2025-05-30T05:35:51.000Z</time>
      </trkpt>
      <trkpt lat="47.8742" lon="6.89735">
        <ele>1000.576586898</ele>
        <time>2025-05-30T05:36:00.000Z</time>
      </trkpt>
      <trkpt lat="47.87425" lon="6.89728">
        <ele>999.7421015414</ele>
        <time>2025-05-30T05:36:08.000Z</time>
      </trkpt>
      <trkpt lat="47.87447" lon="6.89713">
        <ele>988.55048918729</ele>
        <time>2025-05-30T05:36:39.000Z</time>
      </trkpt>
      <trkpt lat="47.87453" lon="6.89715">
        <ele>984.58203050676</ele>
        <time>2025-05-30T05:36:43.000Z</time>
      </trkpt>
      <trkpt lat="47.87455" lon="6.8972">
        <ele>982.44371099986</ele>
        <time>2025-05-30T05:36:46.000Z</time>
      </trkpt>
      <trkpt lat="47.87455" lon="6.89735">
        <ele>979.8090441337</ele>
        <time>2025-05-30T05:36:55.000Z</time>
      </trkpt>
      <trkpt lat="47.87448" lon="6.89756">
        <ele>979.08341327054</ele>
        <time>2025-05-30T05:37:12.000Z</time>
      </trkpt>
      <trkpt lat="47.87445" lon="6.8978">
        <ele>974.67566249695</ele>
        <time>2025-05-30T05:37:28.000Z</time>
      </trkpt>
      <trkpt lat="47.87443" lon="6.89787">
        <ele>973.80161957938</ele>
        <time>2025-05-30T05:37:32.000Z</time>
      </trkpt>
      <trkpt lat="47.87437" lon="6.89794">
        <ele>974.08424260327</ele>
        <time>2025-05-30T05:37:39.000Z</time>
      </trkpt>
      <trkpt lat="47.87433" lon="6.89804">
        <ele>972.66504745088</ele>
        <time>2025-05-30T05:37:46.000Z</time>
      </trkpt>
      <trkpt lat="47.87426" lon="6.89815">
        <ele>971.69471322826</ele>
        <time>2025-05-30T05:37:56.000Z</time>
      </trkpt>
      <trkpt lat="47.87406" lon="6.89825">
        <ele>974.3986361008</ele>
        <time>2025-05-30T05:38:13.000Z</time>
      </trkpt>
      <trkpt lat="47.87391" lon="6.89853">
        <ele>966.54816016466</ele>
        <time>2025-05-30T05:38:33.000Z</time>
      </trkpt>
      <trkpt lat="47.87387" lon="6.89857">
        <ele>966.55676980623</ele>
        <time>2025-05-30T05:38:37.000Z</time>
      </trkpt>
      <trkpt lat="47.8738" lon="6.89868">
        <ele>965.43412826014</ele>
        <time>2025-05-30T05:38:47.000Z</time>
      </trkpt>
      <trkpt lat="47.87368" lon="6.89905">
        <ele>961.01075131949</ele>
        <time>2025-05-30T05:39:14.000Z</time>
      </trkpt>
      <trkpt lat="47.8737" lon="6.89916">
        <ele>958.9536965414</ele>
        <time>2025-05-30T05:39:23.000Z</time>
      </trkpt>
      <trkpt lat="47.87373" lon="6.89921">
        <ele>958.07846537012</ele>
        <time>2025-05-30T05:39:27.000Z</time>
      </trkpt>
      <trkpt lat="47.87378" lon="6.89924">
        <ele>956.24338653541</ele>
        <time>2025-05-30T05:39:35.000Z</time>
      </trkpt>
      <trkpt lat="47.87388" lon="6.89919">
        <ele>952.37923937391</ele>
        <time>2025-05-30T05:39:51.000Z</time>
      </trkpt>
      <trkpt lat="47.87397" lon="6.8991">
        <ele>950.64314145567</ele>
        <time>2025-05-30T05:40:01.000Z</time>
      </trkpt>
      <trkpt lat="47.87413" lon="6.89906">
        <ele>945.98318049064</ele>
        <time>2025-05-30T05:40:17.000Z</time>
      </trkpt>
      <trkpt lat="47.8743" lon="6.89907">
        <ele>940.73692030228</ele>
        <time>2025-05-30T05:40:32.000Z</time>
      </trkpt>
      <trkpt lat="47.8745" lon="6.89903">
        <ele>935.56338597321</ele>
        <time>2025-05-30T05:40:50.000Z</time>
      </trkpt>
      <trkpt lat="47.87454" lon="6.89907">
        <ele>933.98378553941</ele>
        <time>2025-05-30T05:40:55.000Z</time>
      </trkpt>
      <trkpt lat="47.8747" lon="6.8991">
        <ele>930.739497991</ele>
        <time>2025-05-30T05:41:11.000Z</time>
      </trkpt>
      <trkpt lat="47.87474" lon="6.89913">
        <ele>929.58195578732</ele>
        <time>2025-05-30T05:41:17.000Z</time>
      </trkpt>
      <trkpt lat="47.87477" lon="6.8992">
        <ele>928.8471661733</ele>
        <time>2025-05-30T05:41:21.000Z</time>
      </trkpt>
      <trkpt lat="47.8747" lon="6.89934">
        <ele>929.46697454776</ele>
        <time>2025-05-30T05:41:27.000Z</time>
      </trkpt>
      <trkpt lat="47.8747" lon="6.89949">
        <ele>929.43158121173</ele>
        <time>2025-05-30T05:41:34.000Z</time>
      </trkpt>
      <trkpt lat="47.87473" lon="6.89956">
        <ele>929.569354359</ele>
        <time>2025-05-30T05:41:37.000Z</time>
      </trkpt>
      <trkpt lat="47.87481" lon="6.89965">
        <ele>929.1966247039</ele>
        <time>2025-05-30T05:41:45.000Z</time>
      </trkpt>
      <trkpt lat="47.87491" lon="6.89969">
        <ele>928.3918700466</ele>
        <time>2025-05-30T05:41:52.000Z</time>
      </trkpt>
      <trkpt lat="47.87501" lon="6.89976">
        <ele>927.34193730711</ele>
        <time>2025-05-30T05:42:02.000Z</time>
      </trkpt>
      <trkpt lat="47.87513" lon="6.89978">
        <ele>925.97096564509</ele>
        <time>2025-05-30T05:42:13.000Z</time>
      </trkpt>
      <trkpt lat="47.87517" lon="6.89982">
        <ele>925.67761790595</ele>
        <time>2025-05-30T05:42:17.000Z</time>
      </trkpt>
      <trkpt lat="47.87532" lon="6.89984">
        <ele>923.19529152942</ele>
        <time>2025-05-30T05:42:29.000Z</time>
      </trkpt>
      <trkpt lat="47.87549" lon="6.89993">
        <ele>922.47804443628</ele>
        <time>2025-05-30T05:42:43.000Z</time>
      </trkpt>
      <trkpt lat="47.87553" lon="6.89996">
        <ele>922.81108180434</ele>
        <time>2025-05-30T05:42:47.000Z</time>
      </trkpt>
      <trkpt lat="47.87572" lon="6.9">
        <ele>920.13213834828</ele>
        <time>2025-05-30T05:43:02.000Z</time>
      </trkpt>
      <trkpt lat="47.87584" lon="6.89996">
        <ele>916.62641799022</ele>
        <time>2025-05-30T05:43:12.000Z</time>
      </trkpt>
      <trkpt lat="47.87601" lon="6.89987">
        <ele>910.15401187151</ele>
        <time>2025-05-30T05:43:28.000Z</time>
      </trkpt>
      <trkpt lat="47.8761" lon="6.8999">
        <ele>908.58189655905</ele>
        <time>2025-05-30T05:43:34.000Z</time>
      </trkpt>
      <trkpt lat="47.87621" lon="6.90003">
        <ele>909.5277802211</ele>
        <time>2025-05-30T05:43:44.000Z</time>
      </trkpt>
      <trkpt lat="47.87624" lon="6.90009">
        <ele>910.62996309279</ele>
        <time>2025-05-30T05:43:47.000Z</time>
      </trkpt>
      <trkpt lat="47.87628" lon="6.90012">
        <ele>910.23935307153</ele>
        <time>2025-05-30T05:43:50.000Z</time>
      </trkpt>
      <trkpt lat="47.87631" lon="6.90017">
        <ele>911.06889627185</ele>
        <time>2025-05-30T05:43:54.000Z</time>
      </trkpt>
      <trkpt lat="47.87643" lon="6.90024">
        <ele>910.19550581206</ele>
        <time>2025-05-30T05:44:08.000Z</time>
      </trkpt>
      <trkpt lat="47.87652" lon="6.90017">
        <ele>905.67211635872</ele>
        <time>2025-05-30T05:44:17.000Z</time>
      </trkpt>
      <trkpt lat="47.87659" lon="6.90008">
        <ele>901.13415461157</ele>
        <time>2025-05-30T05:44:25.000Z</time>
      </trkpt>
      <trkpt lat="47.87668" lon="6.90002">
        <ele>898.34634493629</ele>
        <time>2025-05-30T05:44:32.000Z</time>
      </trkpt>
      <trkpt lat="47.87678" lon="6.90001">
        <ele>896.92580456903</ele>
        <time>2025-05-30T05:44:40.000Z</time>
      </trkpt>
      <trkpt lat="47.87683" lon="6.90003">
        <ele>897.24004255398</ele>
        <time>2025-05-30T05:44:44.000Z</time>
      </trkpt>
      <trkpt lat="47.877" lon="6.90016">
        <ele>900.79368862346</ele>
        <time>2025-05-30T05:44:59.000Z</time>
      </trkpt>
      <trkpt lat="47.87705" lon="6.90018">
        <ele>901.06515938488</ele>
        <time>2025-05-30T05:45:04.000Z</time>
      </trkpt>
      <trkpt lat="47.87709" lon="6.90022">
        <ele>901.3361051736</ele>
        <time>2025-05-30T05:45:07.000Z</time>
      </trkpt>
      <trkpt lat="47.87714" lon="6.90024">
        <ele>900.8559352959</ele>
        <time>2025-05-30T05:45:11.000Z</time>
      </trkpt>
      <trkpt lat="47.87751" lon="6.90051">
        <ele>902.26861790322</ele>
        <time>2025-05-30T05:45:45.000Z</time>
      </trkpt>
      <trkpt lat="47.87764" lon="6.90065">
        <ele>903.2701868702</ele>
        <time>2025-05-30T05:45:55.000Z</time>
      </trkpt>
      <trkpt lat="47.87771" lon="6.90075">
        <ele>904.5836893415</ele>
        <time>2025-05-30T05:46:02.000Z</time>
      </trkpt>
      <trkpt lat="47.8779" lon="6.90099">
        <ele>903.66601240129</ele>
        <time>2025-05-30T05:46:20.000Z</time>
      </trkpt>
      <trkpt lat="47.87814" lon="6.90154">
        <ele>903.70192410626</ele>
        <time>2025-05-30T05:46:55.000Z</time>
      </trkpt>
      <trkpt lat="47.87821" lon="6.9018">
        <ele>903.96425613372</ele>
        <time>2025-05-30T05:47:10.000Z</time>
      </trkpt>
      <trkpt lat="47.87825" lon="6.90185">
        <ele>903.31142641599</ele>
        <time>2025-05-30T05:47:13.000Z</time>
      </trkpt>
      <trkpt lat="47.8783" lon="6.90189">
        <ele>902.35526586892</ele>
        <time>2025-05-30T05:47:18.000Z</time>
      </trkpt>
      <trkpt lat="47.87837" lon="6.9019">
        <ele>900.96912072794</ele>
        <time>2025-05-30T05:47:24.000Z</time>
      </trkpt>
      <trkpt lat="47.8787" lon="6.90184">
        <ele>895.54820502877</ele>
        <time>2025-05-30T05:47:52.000Z</time>
      </trkpt>
      <trkpt lat="47.87876" lon="6.90184">
        <ele>895.16165570266</ele>
        <time>2025-05-30T05:47:56.000Z</time>
      </trkpt>
      <trkpt lat="47.8788" lon="6.90182">
        <ele>894.45384104439</ele>
        <time>2025-05-30T05:48:00.000Z</time>
      </trkpt>
      <trkpt lat="47.87884" lon="6.90182">
        <ele>894.06054580476</ele>
        <time>2025-05-30T05:48:04.000Z</time>
      </trkpt>
      <trkpt lat="47.87911" lon="6.90167">
        <ele>888.83659230408</ele>
        <time>2025-05-30T05:48:27.000Z</time>
      </trkpt>
      <trkpt lat="47.87916" lon="6.90165">
        <ele>888.01351359745</ele>
        <time>2025-05-30T05:48:31.000Z</time>
      </trkpt>
      <trkpt lat="47.87935" lon="6.90166">
        <ele>887.09018680486</ele>
        <time>2025-05-30T05:48:45.000Z</time>
      </trkpt>
      <trkpt lat="47.8794" lon="6.90167">
        <ele>887.0636618602</ele>
        <time>2025-05-30T05:48:49.000Z</time>
      </trkpt>
      <trkpt lat="47.8795" lon="6.90173">
        <ele>888.47504968558</ele>
        <time>2025-05-30T05:48:57.000Z</time>
      </trkpt>
      <trkpt lat="47.87954" lon="6.90174">
        <ele>888.34566588264</ele>
        <time>2025-05-30T05:49:02.000Z</time>
      </trkpt>
      <trkpt lat="47.87994" lon="6.90191">
        <ele>889.75905985088</ele>
        <time>2025-05-30T05:49:34.000Z</time>
      </trkpt>
      <trkpt lat="47.87999" lon="6.90192">
        <ele>888.86794947425</ele>
        <time>2025-05-30T05:49:37.000Z</time>
      </trkpt>
      <trkpt lat="47.88036" lon="6.90216">
        <ele>886.5774299365</ele>
        <time>2025-05-30T05:50:06.000Z</time>
      </trkpt>
      <trkpt lat="47.88044" lon="6.90225">
        <ele>886.06654177346</ele>
        <time>2025-05-30T05:50:13.000Z</time>
      </trkpt>
      <trkpt lat="47.88049" lon="6.90227">
        <ele>884.61995534916</ele>
        <time>2025-05-30T05:50:16.000Z</time>
      </trkpt>
      <trkpt lat="47.88053" lon="6.90231">
        <ele>884.07059747518</ele>
        <time>2025-05-30T05:50:20.000Z</time>
      </trkpt>
      <trkpt lat="47.88057" lon="6.90238">
        <ele>884.34072315398</ele>
        <time>2025-05-30T05:50:24.000Z</time>
      </trkpt>
      <trkpt lat="47.88061" lon="6.90242">
        <ele>883.51831972599</ele>
        <time>2025-05-30T05:50:27.000Z</time>
      </trkpt>
      <trkpt lat="47.88066" lon="6.90254">
        <ele>884.49111697578</ele>
        <time>2025-05-30T05:50:34.000Z</time>
      </trkpt>
      <trkpt lat="47.88065" lon="6.90262">
        <ele>886.79968080349</ele>
        <time>2025-05-30T05:50:38.000Z</time>
      </trkpt>
      <trkpt lat="47.88065" lon="6.90269">
        <ele>888.25452395249</ele>
        <time>2025-05-30T05:50:40.000Z</time>
      </trkpt>
      <trkpt lat="47.88067" lon="6.90274">
        <ele>888.60920286704</ele>
        <time>2025-05-30T05:50:43.000Z</time>
      </trkpt>
      <trkpt lat="47.88073" lon="6.90286">
        <ele>888.3834261559</ele>
        <time>2025-05-30T05:50:50.000Z</time>
      </trkpt>
      <trkpt lat="47.88077" lon="6.90304">
        <ele>890.2294432499</ele>
        <time>2025-05-30T05:51:00.000Z</time>
      </trkpt>
      <trkpt lat="47.88083" lon="6.90315">
        <ele>890.03663950486</ele>
        <time>2025-05-30T05:51:09.000Z</time>
      </trkpt>
      <trkpt lat="47.88089" lon="6.90317">
        <ele>889.34666813561</ele>
        <time>2025-05-30T05:51:13.000Z</time>
      </trkpt>
      <trkpt lat="47.88092" lon="6.90321">
        <ele>889.57798908155</ele>
        <time>2025-05-30T05:51:17.000Z</time>
      </trkpt>
      <trkpt lat="47.88102" lon="6.90317">
        <ele>887.05962393839</ele>
        <time>2025-05-30T05:51:25.000Z</time>
      </trkpt>
      <trkpt lat="47.88106" lon="6.90309">
        <ele>884.8916278695</ele>
        <time>2025-05-30T05:51:29.000Z</time>
      </trkpt>
      <trkpt lat="47.88111" lon="6.90306">
        <ele>884.08482441681</ele>
        <time>2025-05-30T05:51:32.000Z</time>
      </trkpt>
      <trkpt lat="47.88114" lon="6.90302">
        <ele>883.16766280596</ele>
        <time>2025-05-30T05:51:36.000Z</time>
      </trkpt>
      <trkpt lat="47.8812" lon="6.90296">
        <ele>881.65885910405</ele>
        <time>2025-05-30T05:51:42.000Z</time>
      </trkpt>
      <trkpt lat="47.88136" lon="6.90287">
        <ele>880.67003887917</ele>
        <time>2025-05-30T05:51:57.000Z</time>
      </trkpt>
      <trkpt lat="47.88141" lon="6.90282">
        <ele>880.20518007027</ele>
        <time>2025-05-30T05:52:01.000Z</time>
      </trkpt>
      <trkpt lat="47.88145" lon="6.9028">
        <ele>880.29663925087</ele>
        <time>2025-05-30T05:52:06.000Z</time>
      </trkpt>
      <trkpt lat="47.88151" lon="6.90276">
        <ele>880.82072615667</ele>
        <time>2025-05-30T05:52:08.000Z</time>
      </trkpt>
      <trkpt lat="47.88155" lon="6.90271">
        <ele>880.85008743741</ele>
        <time>2025-05-30T05:52:11.000Z</time>
      </trkpt>
      <trkpt lat="47.88162" lon="6.90265">
        <ele>881.98740515192</ele>
        <time>2025-05-30T05:52:17.000Z</time>
      </trkpt>
      <trkpt lat="47.88165" lon="6.90244">
        <ele>880.44870933155</ele>
        <time>2025-05-30T05:52:29.000Z</time>
      </trkpt>
      <trkpt lat="47.88165" lon="6.90229">
        <ele>879.3971225641</ele>
        <time>2025-05-30T05:52:37.000Z</time>
      </trkpt>
      <trkpt lat="47.88168" lon="6.90207">
        <ele>879.96434397008</ele>
        <time>2025-05-30T05:52:49.000Z</time>
      </trkpt>
      <trkpt lat="47.88174" lon="6.90193">
        <ele>881.70679221133</ele>
        <time>2025-05-30T05:53:01.000Z</time>
      </trkpt>
      <trkpt lat="47.88178" lon="6.90176">
        <ele>882.48081481741</ele>
        <time>2025-05-30T05:53:13.000Z</time>
      </trkpt>
      <trkpt lat="47.88181" lon="6.90172">
        <ele>883.25190902059</ele>
        <time>2025-05-30T05:53:17.000Z</time>
      </trkpt>
      <trkpt lat="47.88186" lon="6.90162">
        <ele>884.78028417365</ele>
        <time>2025-05-30T05:53:26.000Z</time>
      </trkpt>
      <trkpt lat="47.88187" lon="6.90155">
        <ele>885.09386790808</ele>
        <time>2025-05-30T05:53:30.000Z</time>
      </trkpt>
      <trkpt lat="47.88189" lon="6.90147">
        <ele>885.91166975312</ele>
        <time>2025-05-30T05:53:34.000Z</time>
      </trkpt>
      <trkpt lat="47.8819" lon="6.90141">
        <ele>886.45156045584</ele>
        <time>2025-05-30T05:53:38.000Z</time>
      </trkpt>
      <trkpt lat="47.88193" lon="6.90135">
        <ele>887.52997141387</ele>
        <time>2025-05-30T05:53:41.000Z</time>
      </trkpt>
      <trkpt lat="47.8819" lon="6.90124">
        <ele>887.43554653703</ele>
        <time>2025-05-30T05:53:49.000Z</time>
      </trkpt>
      <trkpt lat="47.88188" lon="6.90117">
        <ele>887.07769654729</ele>
        <time>2025-05-30T05:54:10.000Z</time>
      </trkpt>
      <trkpt lat="47.88183" lon="6.90122">
        <ele>885.39995310301</ele>
        <time>2025-05-30T05:54:39.000Z</time>
      </trkpt>
      <trkpt lat="47.88179" lon="6.90114">
        <ele>884.39265140616</ele>
        <time>2025-05-30T05:54:55.000Z</time>
      </trkpt>
      <trkpt lat="47.88178" lon="6.90107">
        <ele>884.71963330656</ele>
        <time>2025-05-30T05:54:59.000Z</time>
      </trkpt>
      <trkpt lat="47.88173" lon="6.90079">
        <ele>885.3546112193</ele>
        <time>2025-05-30T05:55:19.000Z</time>
      </trkpt>
      <trkpt lat="47.88156" lon="6.90051">
        <ele>882.13629154438</ele>
        <time>2025-05-30T05:55:40.000Z</time>
      </trkpt>
      <trkpt lat="47.88145" lon="6.90018">
        <ele>880.82302072464</ele>
        <time>2025-05-30T05:56:00.000Z</time>
      </trkpt>
      <trkpt lat="47.88145" lon="6.90011">
        <ele>881.25172398744</ele>
        <time>2025-05-30T05:56:03.000Z</time>
      </trkpt>
      <trkpt lat="47.88145" lon="6.90005">
        <ele>881.80444478952</ele>
        <time>2025-05-30T05:56:06.000Z</time>
      </trkpt>
      <trkpt lat="47.88141" lon="6.89998">
        <ele>881.33361030902</ele>
        <time>2025-05-30T05:56:10.000Z</time>
      </trkpt>
      <trkpt lat="47.88138" lon="6.89985">
        <ele>881.39278827518</ele>
        <time>2025-05-30T05:56:17.000Z</time>
      </trkpt>
      <trkpt lat="47.88136" lon="6.8998">
        <ele>880.84713527476</ele>
        <time>2025-05-30T05:56:21.000Z</time>
      </trkpt>
      <trkpt lat="47.88135" lon="6.89973">
        <ele>880.95079176592</ele>
        <time>2025-05-30T05:56:24.000Z</time>
      </trkpt>
      <trkpt lat="47.88133" lon="6.89967">
        <ele>880.61368488463</ele>
        <time>2025-05-30T05:56:28.000Z</time>
      </trkpt>
      <trkpt lat="47.88132" lon="6.8996">
        <ele>880.29628454472</ele>
        <time>2025-05-30T05:56:32.000Z</time>
      </trkpt>
      <trkpt lat="47.88129" lon="6.89945">
        <ele>880.28909936472</ele>
        <time>2025-05-30T05:56:41.000Z</time>
      </trkpt>
      <trkpt lat="47.88115" lon="6.89908">
        <ele>880.8110652313</ele>
        <time>2025-05-30T05:57:04.000Z</time>
      </trkpt>
      <trkpt lat="47.88105" lon="6.89893">
        <ele>879.92254284639</ele>
        <time>2025-05-30T05:57:14.000Z</time>
      </trkpt>
      <trkpt lat="47.88103" lon="6.89886">
        <ele>880.66172406568</ele>
        <time>2025-05-30T05:57:18.000Z</time>
      </trkpt>
      <trkpt lat="47.881" lon="6.89881">
        <ele>880.27275136695</ele>
        <time>2025-05-30T05:57:21.000Z</time>
      </trkpt>
      <trkpt lat="47.8809" lon="6.89849">
        <ele>879.66123736003</ele>
        <time>2025-05-30T05:57:43.000Z</time>
      </trkpt>
      <trkpt lat="47.88089" lon="6.89837">
        <ele>879.57391580078</ele>
        <time>2025-05-30T05:58:15.000Z</time>
      </trkpt>
      <trkpt lat="47.88088" lon="6.89821">
        <ele>878.97926639614</ele>
        <time>2025-05-30T05:58:21.000Z</time>
      </trkpt>
      <trkpt lat="47.88089" lon="6.89813">
        <ele>878.97902744872</ele>
        <time>2025-05-30T05:58:24.000Z</time>
      </trkpt>
      <trkpt lat="47.88093" lon="6.89786">
        <ele>880.66511896777</ele>
        <time>2025-05-30T05:58:36.000Z</time>
      </trkpt>
      <trkpt lat="47.88095" lon="6.8978">
        <ele>881.61916319146</ele>
        <time>2025-05-30T05:58:40.000Z</time>
      </trkpt>
      <trkpt lat="47.88094" lon="6.89773">
        <ele>881.60376135788</ele>
        <time>2025-05-30T05:58:44.000Z</time>
      </trkpt>
      <trkpt lat="47.88092" lon="6.89752">
        <ele>881.24622228155</ele>
        <time>2025-05-30T05:58:55.000Z</time>
      </trkpt>
      <trkpt lat="47.88091" lon="6.89745">
        <ele>880.95397455096</ele>
        <time>2025-05-30T05:58:58.000Z</time>
      </trkpt>
      <trkpt lat="47.88088" lon="6.89723">
        <ele>880.32226106201</ele>
        <time>2025-05-30T05:59:09.000Z</time>
      </trkpt>
      <trkpt lat="47.88089" lon="6.89715">
        <ele>880.46240907437</ele>
        <time>2025-05-30T05:59:13.000Z</time>
      </trkpt>
      <trkpt lat="47.88088" lon="6.89708">
        <ele>880.00678649515</ele>
        <time>2025-05-30T05:59:17.000Z</time>
      </trkpt>
      <trkpt lat="47.8809" lon="6.89692">
        <ele>881.04452122348</ele>
        <time>2025-05-30T05:59:26.000Z</time>
      </trkpt>
      <trkpt lat="47.88089" lon="6.89686">
        <ele>880.5297259897</ele>
        <time>2025-05-30T05:59:30.000Z</time>
      </trkpt>
      <trkpt lat="47.88091" lon="6.89679">
        <ele>881.39997496961</ele>
        <time>2025-05-30T05:59:33.000Z</time>
      </trkpt>
      <trkpt lat="47.88092" lon="6.89672">
        <ele>881.75113145248</ele>
        <time>2025-05-30T05:59:37.000Z</time>
      </trkpt>
      <trkpt lat="47.88091" lon="6.89665">
        <ele>881.29970247393</ele>
        <time>2025-05-30T05:59:39.000Z</time>
      </trkpt>
      <trkpt lat="47.88086" lon="6.8965">
        <ele>878.2633227166</ele>
        <time>2025-05-30T05:59:44.000Z</time>
      </trkpt>
      <trkpt lat="47.88078" lon="6.89612">
        <ele>872.21109786378</ele>
        <time>2025-05-30T06:00:03.000Z</time>
      </trkpt>
      <trkpt lat="47.88077" lon="6.89604">
        <ele>871.50142498324</ele>
        <time>2025-05-30T06:00:06.000Z</time>
      </trkpt>
      <trkpt lat="47.88076" lon="6.89591">
        <ele>870.27614278421</ele>
        <time>2025-05-30T06:00:13.000Z</time>
      </trkpt>
      <trkpt lat="47.88075" lon="6.89584">
        <ele>869.71878269576</ele>
        <time>2025-05-30T06:00:16.000Z</time>
      </trkpt>
      <trkpt lat="47.88078" lon="6.89545">
        <ele>869.95069409092</ele>
        <time>2025-05-30T06:00:33.000Z</time>
      </trkpt>
      <trkpt lat="47.88082" lon="6.89531">
        <ele>871.2966736916</ele>
        <time>2025-05-30T06:00:40.000Z</time>
      </trkpt>
      <trkpt lat="47.88088" lon="6.89517">
        <ele>873.01891327894</ele>
        <time>2025-05-30T06:00:48.000Z</time>
      </trkpt>
      <trkpt lat="47.88097" lon="6.89503">
        <ele>874.4502714749</ele>
        <time>2025-05-30T06:00:57.000Z</time>
      </trkpt>
      <trkpt lat="47.88104" lon="6.89491">
        <ele>874.36232592143</ele>
        <time>2025-05-30T06:01:04.000Z</time>
      </trkpt>
      <trkpt lat="47.88107" lon="6.89487">
        <ele>874.46457190351</ele>
        <time>2025-05-30T06:01:07.000Z</time>
      </trkpt>
      <trkpt lat="47.88118" lon="6.89464">
        <ele>870.91037104719</ele>
        <time>2025-05-30T06:01:20.000Z</time>
      </trkpt>
      <trkpt lat="47.88146" lon="6.8942">
        <ele>861.14321426127</ele>
        <time>2025-05-30T06:01:53.000Z</time>
      </trkpt>
      <trkpt lat="47.88178" lon="6.89386">
        <ele>857.40833138874</ele>
        <time>2025-05-30T06:02:25.000Z</time>
      </trkpt>
      <trkpt lat="47.88182" lon="6.89382">
        <ele>857.27666106396</ele>
        <time>2025-05-30T06:02:29.000Z</time>
      </trkpt>
      <trkpt lat="47.88192" lon="6.89364">
        <ele>854.37332825691</ele>
        <time>2025-05-30T06:02:41.000Z</time>
      </trkpt>
      <trkpt lat="47.88195" lon="6.8936">
        <ele>854.26616544565</ele>
        <time>2025-05-30T06:02:45.000Z</time>
      </trkpt>
      <trkpt lat="47.88211" lon="6.89316">
        <ele>844.68849968653</ele>
        <time>2025-05-30T06:03:13.000Z</time>
      </trkpt>
      <trkpt lat="47.88222" lon="6.89305">
        <ele>843.65961239182</ele>
        <time>2025-05-30T06:03:25.000Z</time>
      </trkpt>
      <trkpt lat="47.88249" lon="6.89302">
        <ele>849.7999131111</ele>
        <time>2025-05-30T06:03:51.000Z</time>
      </trkpt>
      <trkpt lat="47.88254" lon="6.89299">
        <ele>849.80871300879</ele>
        <time>2025-05-30T06:03:55.000Z</time>
      </trkpt>
      <trkpt lat="47.88269" lon="6.89296">
        <ele>850.51357264654</ele>
        <time>2025-05-30T06:04:06.000Z</time>
      </trkpt>
      <trkpt lat="47.88294" lon="6.89283">
        <ele>848.89283271846</ele>
        <time>2025-05-30T06:04:29.000Z</time>
      </trkpt>
      <trkpt lat="47.88299" lon="6.89279">
        <ele>848.56705667125</ele>
        <time>2025-05-30T06:04:34.000Z</time>
      </trkpt>
      <trkpt lat="47.88304" lon="6.89272">
        <ele>847.37734490861</ele>
        <time>2025-05-30T06:04:40.000Z</time>
      </trkpt>
      <trkpt lat="47.88311" lon="6.89261">
        <ele>845.63562973435</ele>
        <time>2025-05-30T06:04:48.000Z</time>
      </trkpt>
      <trkpt lat="47.88319" lon="6.89242">
        <ele>843.44356617851</ele>
        <time>2025-05-30T06:05:00.000Z</time>
      </trkpt>
      <trkpt lat="47.88321" lon="6.89236">
        <ele>842.39045629846</ele>
        <time>2025-05-30T06:05:04.000Z</time>
      </trkpt>
      <trkpt lat="47.88326" lon="6.89205">
        <ele>836.56810828717</ele>
        <time>2025-05-30T06:05:23.000Z</time>
      </trkpt>
      <trkpt lat="47.88331" lon="6.89192">
        <ele>834.59059712198</ele>
        <time>2025-05-30T06:05:32.000Z</time>
      </trkpt>
      <trkpt lat="47.88335" lon="6.89187">
        <ele>834.46317029703</ele>
        <time>2025-05-30T06:05:37.000Z</time>
      </trkpt>
      <trkpt lat="47.88348" lon="6.89183">
        <ele>836.21754083252</ele>
        <time>2025-05-30T06:05:49.000Z</time>
      </trkpt>
      <trkpt lat="47.88357" lon="6.89176">
        <ele>836.53481402926</ele>
        <time>2025-05-30T06:05:59.000Z</time>
      </trkpt>
      <trkpt lat="47.88376" lon="6.89154">
        <ele>835.35938238889</ele>
        <time>2025-05-30T06:06:20.000Z</time>
      </trkpt>
      <trkpt lat="47.88385" lon="6.89138">
        <ele>834.54918071159</ele>
        <time>2025-05-30T06:06:31.000Z</time>
      </trkpt>
      <trkpt lat="47.88408" lon="6.8909">
        <ele>829.71015639632</ele>
        <time>2025-05-30T06:07:05.000Z</time>
      </trkpt>
      <trkpt lat="47.8841" lon="6.89085">
        <ele>829.23754597575</ele>
        <time>2025-05-30T06:07:09.000Z</time>
      </trkpt>
      <trkpt lat="47.88424" lon="6.89039">
        <ele>823.46282496932</ele>
        <time>2025-05-30T06:07:40.000Z</time>
      </trkpt>
      <trkpt lat="47.88427" lon="6.89026">
        <ele>822.14644142939</ele>
        <time>2025-05-30T06:07:48.000Z</time>
      </trkpt>
      <trkpt lat="47.8844" lon="6.88981">
        <ele>819.27239103017</ele>
        <time>2025-05-30T06:08:18.000Z</time>
      </trkpt>
      <trkpt lat="47.88442" lon="6.88974">
        <ele>818.5505668768</ele>
        <time>2025-05-30T06:08:23.000Z</time>
      </trkpt>
      <trkpt lat="47.8846" lon="6.88924">
        <ele>816.22116104673</ele>
        <time>2025-05-30T06:08:58.000Z</time>
      </trkpt>
      <trkpt lat="47.88468" lon="6.88905">
        <ele>815.29981348742</ele>
        <time>2025-05-30T06:09:10.000Z</time>
      </trkpt>
      <trkpt lat="47.88469" lon="6.88899">
        <ele>814.78899554149</ele>
        <time>2025-05-30T06:09:13.000Z</time>
      </trkpt>
      <trkpt lat="47.8849" lon="6.88847">
        <ele>810.32055849442</ele>
        <time>2025-05-30T06:09:47.000Z</time>
      </trkpt>
      <trkpt lat="47.88497" lon="6.88827">
        <ele>808.77358806423</ele>
        <time>2025-05-30T06:10:00.000Z</time>
      </trkpt>
      <trkpt lat="47.88501" lon="6.88824">
        <ele>809.01793088289</ele>
        <time>2025-05-30T06:10:04.000Z</time>
      </trkpt>
      <trkpt lat="47.88516" lon="6.88794">
        <ele>805.28924348466</ele>
        <time>2025-05-30T06:10:26.000Z</time>
      </trkpt>
      <trkpt lat="47.8852" lon="6.88785">
        <ele>803.93690377562</ele>
        <time>2025-05-30T06:10:33.000Z</time>
      </trkpt>
      <trkpt lat="47.88524" lon="6.88777">
        <ele>802.88615976583</ele>
        <time>2025-05-30T06:10:37.000Z</time>
      </trkpt>
      <trkpt lat="47.88527" lon="6.88771">
        <ele>802.23848980405</ele>
        <time>2025-05-30T06:10:41.000Z</time>
      </trkpt>
      <trkpt lat="47.8854" lon="6.8874">
        <ele>798.61101899216</ele>
        <time>2025-05-30T06:10:59.000Z</time>
      </trkpt>
      <trkpt lat="47.88545" lon="6.88738">
        <ele>798.78825638673</ele>
        <time>2025-05-30T06:11:04.000Z</time>
      </trkpt>
      <trkpt lat="47.88553" lon="6.8874">
        <ele>799.95669794116</ele>
        <time>2025-05-30T06:11:10.000Z</time>
      </trkpt>
      <trkpt lat="47.88571" lon="6.88751">
        <ele>801.97180114593</ele>
        <time>2025-05-30T06:11:26.000Z</time>
      </trkpt>
      <trkpt lat="47.88589" lon="6.88754">
        <ele>801.15356563152</ele>
        <time>2025-05-30T06:11:41.000Z</time>
      </trkpt>
      <trkpt lat="47.88599" lon="6.88755">
        <ele>800.46705948263</ele>
        <time>2025-05-30T06:11:51.000Z</time>
      </trkpt>
      <trkpt lat="47.88634" lon="6.88776">
        <ele>798.76610468607</ele>
        <time>2025-05-30T06:12:21.000Z</time>
      </trkpt>
      <trkpt lat="47.88659" lon="6.888">
        <ele>796.02095445297</ele>
        <time>2025-05-30T06:13:01.000Z</time>
      </trkpt>
      <trkpt lat="47.88682" lon="6.88829">
        <ele>792.16672902529</ele>
        <time>2025-05-30T06:13:32.000Z</time>
      </trkpt>
      <trkpt lat="47.88688" lon="6.88826">
        <ele>789.57419581986</ele>
        <time>2025-05-30T06:13:35.000Z</time>
      </trkpt>
      <trkpt lat="47.88697" lon="6.88818">
        <ele>785.09361250992</ele>
        <time>2025-05-30T06:13:39.000Z</time>
      </trkpt>
      <trkpt lat="47.88706" lon="6.88814">
        <ele>782.07566491167</ele>
        <time>2025-05-30T06:13:41.000Z</time>
      </trkpt>
      <trkpt lat="47.88714" lon="6.88812">
        <ele>779.47152136497</ele>
        <time>2025-05-30T06:13:47.000Z</time>
      </trkpt>
      <trkpt lat="47.88755" lon="6.88825">
        <ele>771.25313387402</ele>
        <time>2025-05-30T06:14:22.000Z</time>
      </trkpt>
      <trkpt lat="47.88764" lon="6.88833">
        <ele>768.6007659399</ele>
        <time>2025-05-30T06:14:31.000Z</time>
      </trkpt>
      <trkpt lat="47.88769" lon="6.88835">
        <ele>766.58590003434</ele>
        <time>2025-05-30T06:14:34.000Z</time>
      </trkpt>
      <trkpt lat="47.88771" lon="6.88841">
        <ele>765.95682785116</ele>
        <time>2025-05-30T06:14:37.000Z</time>
      </trkpt>
      <trkpt lat="47.88779" lon="6.88859">
        <ele>764.94269486293</ele>
        <time>2025-05-30T06:14:48.000Z</time>
      </trkpt>
      <trkpt lat="47.88784" lon="6.88861">
        <ele>763.02816986539</ele>
        <time>2025-05-30T06:14:52.000Z</time>
      </trkpt>
      <trkpt lat="47.8879" lon="6.88864">
        <ele>761.29331341591</ele>
        <time>2025-05-30T06:14:58.000Z</time>
      </trkpt>
      <trkpt lat="47.88801" lon="6.88879">
        <ele>758.91141994502</ele>
        <time>2025-05-30T06:15:10.000Z</time>
      </trkpt>
      <trkpt lat="47.88806" lon="6.88893">
        <ele>759.42927525123</ele>
        <time>2025-05-30T06:15:20.000Z</time>
      </trkpt>
      <trkpt lat="47.88809" lon="6.88898">
        <ele>759.27105751764</ele>
        <time>2025-05-30T06:15:23.000Z</time>
      </trkpt>
      <trkpt lat="47.88834" lon="6.88928">
        <ele>755.90705936258</ele>
        <time>2025-05-30T06:15:47.000Z</time>
      </trkpt>
      <trkpt lat="47.88841" lon="6.88931">
        <ele>754.13049371688</ele>
        <time>2025-05-30T06:15:54.000Z</time>
      </trkpt>
      <trkpt lat="47.88857" lon="6.88939">
        <ele>749.74547866675</ele>
        <time>2025-05-30T06:16:08.000Z</time>
      </trkpt>
      <trkpt lat="47.88874" lon="6.88955">
        <ele>745.24488832748</ele>
        <time>2025-05-30T06:16:25.000Z</time>
      </trkpt>
      <trkpt lat="47.88876" lon="6.8897">
        <ele>746.37322022654</ele>
        <time>2025-05-30T06:16:32.000Z</time>
      </trkpt>
      <trkpt lat="47.88876" lon="6.88977">
        <ele>747.25012496433</ele>
        <time>2025-05-30T06:16:37.000Z</time>
      </trkpt>
      <trkpt lat="47.88876" lon="6.88985">
        <ele>747.69419154344</ele>
        <time>2025-05-30T06:16:40.000Z</time>
      </trkpt>
      <trkpt lat="47.88877" lon="6.88991">
        <ele>747.71994241992</ele>
        <time>2025-05-30T06:16:44.000Z</time>
      </trkpt>
      <trkpt lat="47.8888" lon="6.89042">
        <ele>747.65001919315</ele>
        <time>2025-05-30T06:17:13.000Z</time>
      </trkpt>
      <trkpt lat="47.88879" lon="6.89049">
        <ele>748.42196345149</ele>
        <time>2025-05-30T06:17:17.000Z</time>
      </trkpt>
      <trkpt lat="47.8888" lon="6.89056">
        <ele>748.07198728559</ele>
        <time>2025-05-30T06:17:20.000Z</time>
      </trkpt>
      <trkpt lat="47.88877" lon="6.89071">
        <ele>750.36311392336</ele>
        <time>2025-05-30T06:17:28.000Z</time>
      </trkpt>
      <trkpt lat="47.88876" lon="6.89104">
        <ele>751.20097378362</ele>
        <time>2025-05-30T06:17:46.000Z</time>
      </trkpt>
      <trkpt lat="47.88873" lon="6.89127">
        <ele>752.92351825466</ele>
        <time>2025-05-30T06:17:59.000Z</time>
      </trkpt>
      <trkpt lat="47.88873" lon="6.89134">
        <ele>752.59729461023</ele>
        <time>2025-05-30T06:18:02.000Z</time>
      </trkpt>
      <trkpt lat="47.88874" lon="6.8914">
        <ele>751.40853037648</ele>
        <time>2025-05-30T06:18:06.000Z</time>
      </trkpt>
      <trkpt lat="47.88873" lon="6.89199">
        <ele>750.61798804859</ele>
        <time>2025-05-30T06:18:39.000Z</time>
      </trkpt>
      <trkpt lat="47.88876" lon="6.89245">
        <ele>746.89626020011</ele>
        <time>2025-05-30T06:19:03.000Z</time>
      </trkpt>
      <trkpt lat="47.88884" lon="6.89283">
        <ele>740.12529235794</ele>
        <time>2025-05-30T06:19:25.000Z</time>
      </trkpt>
      <trkpt lat="47.88893" lon="6.89301">
        <ele>735.5633080174</ele>
        <time>2025-05-30T06:19:35.000Z</time>
      </trkpt>
      <trkpt lat="47.88896" lon="6.89305">
        <ele>733.83757784676</ele>
        <time>2025-05-30T06:19:38.000Z</time>
      </trkpt>
      <trkpt lat="47.88897" lon="6.89314">
        <ele>733.74443902114</ele>
        <time>2025-05-30T06:19:44.000Z</time>
      </trkpt>
      <trkpt lat="47.889" lon="6.89319">
        <ele>732.40204252095</ele>
        <time>2025-05-30T06:19:47.000Z</time>
      </trkpt>
      <trkpt lat="47.88904" lon="6.89323">
        <ele>730.59021664377</ele>
        <time>2025-05-30T06:19:50.000Z</time>
      </trkpt>
      <trkpt lat="47.88911" lon="6.89357">
        <ele>732.09380067665</ele>
        <time>2025-05-30T06:20:09.000Z</time>
      </trkpt>
      <trkpt lat="47.88916" lon="6.89388">
        <ele>734.91845068131</ele>
        <time>2025-05-30T06:20:24.000Z</time>
      </trkpt>
      <trkpt lat="47.88919" lon="6.89394">
        <ele>734.96582765512</ele>
        <time>2025-05-30T06:20:28.000Z</time>
      </trkpt>
      <trkpt lat="47.88923" lon="6.89398">
        <ele>732.69928506011</ele>
        <time>2025-05-30T06:20:31.000Z</time>
      </trkpt>
      <trkpt lat="47.88928" lon="6.894">
        <ele>729.8631431879</ele>
        <time>2025-05-30T06:20:34.000Z</time>
      </trkpt>
      <trkpt lat="47.88932" lon="6.89403">
        <ele>728.35699671985</ele>
        <time>2025-05-30T06:20:38.000Z</time>
      </trkpt>
      <trkpt lat="47.88936" lon="6.89409">
        <ele>728.24210268757</ele>
        <time>2025-05-30T06:20:41.000Z</time>
      </trkpt>
      <trkpt lat="47.88945" lon="6.89428">
        <ele>728.71198797703</ele>
        <time>2025-05-30T06:20:56.000Z</time>
      </trkpt>
      <trkpt lat="47.88952" lon="6.89492">
        <ele>740.91590060368</ele>
        <time>2025-05-30T06:21:29.000Z</time>
      </trkpt>
      <trkpt lat="47.88953" lon="6.89501">
        <ele>741.30630668888</ele>
        <time>2025-05-30T06:21:32.000Z</time>
      </trkpt>
      <trkpt lat="47.88959" lon="6.89529">
        <ele>742.68234494196</ele>
        <time>2025-05-30T06:21:46.000Z</time>
      </trkpt>
      <trkpt lat="47.88959" lon="6.89543">
        <ele>743.92536068299</ele>
        <time>2025-05-30T06:21:54.000Z</time>
      </trkpt>
      <trkpt lat="47.88958" lon="6.8955">
        <ele>744.7010663323</ele>
        <time>2025-05-30T06:21:58.000Z</time>
      </trkpt>
      <trkpt lat="47.88957" lon="6.89582">
        <ele>745.23682006621</ele>
        <time>2025-05-30T06:22:18.000Z</time>
      </trkpt>
      <trkpt lat="47.88957" lon="6.89597">
        <ele>744.68398040262</ele>
        <time>2025-05-30T06:22:25.000Z</time>
      </trkpt>
      <trkpt lat="47.88957" lon="6.89604">
        <ele>744.46061595973</ele>
        <time>2025-05-30T06:22:28.000Z</time>
      </trkpt>
      <trkpt lat="47.88958" lon="6.89611">
        <ele>744.20999204489</ele>
        <time>2025-05-30T06:22:32.000Z</time>
      </trkpt>
      <trkpt lat="47.88958" lon="6.89632">
        <ele>743.60963903056</ele>
        <time>2025-05-30T06:22:43.000Z</time>
      </trkpt>
      <trkpt lat="47.8896" lon="6.89638">
        <ele>744.05712459454</ele>
        <time>2025-05-30T06:22:47.000Z</time>
      </trkpt>
      <trkpt lat="47.88961" lon="6.89648">
        <ele>744.87444964716</ele>
        <time>2025-05-30T06:22:57.000Z</time>
      </trkpt>
      <trkpt lat="47.88964" lon="6.89654">
        <ele>745.4503374408</ele>
        <time>2025-05-30T06:23:02.000Z</time>
      </trkpt>
      <trkpt lat="47.88964" lon="6.89662">
        <ele>746.33830924261</ele>
        <time>2025-05-30T06:23:07.000Z</time>
      </trkpt>
      <trkpt lat="47.88961" lon="6.8966">
        <ele>746.09381627721</ele>
        <time>2025-05-30T06:23:21.000Z</time>
      </trkpt>
      <trkpt lat="47.88962" lon="6.89651">
        <ele>745.15918812063</ele>
        <time>2025-05-30T06:23:29.000Z</time>
      </trkpt>
      <trkpt lat="47.88962" lon="6.89643">
        <ele>744.48625095482</ele>
        <time>2025-05-30T06:23:33.000Z</time>
      </trkpt>
      <trkpt lat="47.88978" lon="6.89624">
        <ele>746.12803149698</ele>
        <time>2025-05-30T06:23:56.000Z</time>
      </trkpt>
      <trkpt lat="47.88981" lon="6.8961">
        <ele>747.34995180124</ele>
        <time>2025-05-30T06:24:03.000Z</time>
      </trkpt>
      <trkpt lat="47.88986" lon="6.89615">
        <ele>748.67358659075</ele>
        <time>2025-05-30T06:24:10.000Z</time>
      </trkpt>
      <trkpt lat="47.88984" lon="6.89621">
        <ele>748.10784114581</ele>
        <time>2025-05-30T06:24:14.000Z</time>
      </trkpt>
      <trkpt lat="47.88986" lon="6.89628">
        <ele>748.49259913193</ele>
        <time>2025-05-30T06:24:19.000Z</time>
      </trkpt>
      <trkpt lat="47.88987" lon="6.89635">
        <ele>748.88144881302</ele>
        <time>2025-05-30T06:24:24.000Z</time>
      </trkpt>
      <trkpt lat="47.8899" lon="6.89647">
        <ele>751.20831074011</ele>
        <time>2025-05-30T06:24:34.000Z</time>
      </trkpt>
      <trkpt lat="47.88988" lon="6.89657">
        <ele>751.23754659495</ele>
        <time>2025-05-30T06:24:41.000Z</time>
      </trkpt>
      <trkpt lat="47.88987" lon="6.89666">
        <ele>751.62495559688</ele>
        <time>2025-05-30T06:24:46.000Z</time>
      </trkpt>
      <trkpt lat="47.88985" lon="6.89672">
        <ele>751.91920376239</ele>
        <time>2025-05-30T06:24:51.000Z</time>
      </trkpt>
      <trkpt lat="47.88984" lon="6.8968">
        <ele>752.65865758839</ele>
        <time>2025-05-30T06:24:54.000Z</time>
      </trkpt>
      <trkpt lat="47.88984" lon="6.89686">
        <ele>753.49064416327</ele>
        <time>2025-05-30T06:24:59.000Z</time>
      </trkpt>
      <trkpt lat="47.88983" lon="6.89702">
        <ele>754.89282129461</ele>
        <time>2025-05-30T06:25:06.000Z</time>
      </trkpt>
      <trkpt lat="47.88985" lon="6.89709">
        <ele>755.86509940499</ele>
        <time>2025-05-30T06:25:11.000Z</time>
      </trkpt>
      <trkpt lat="47.88986" lon="6.89716">
        <ele>756.61980683934</ele>
        <time>2025-05-30T06:25:16.000Z</time>
      </trkpt>
      <trkpt lat="47.88987" lon="6.89723">
        <ele>757.36796322346</ele>
        <time>2025-05-30T06:25:20.000Z</time>
      </trkpt>
      <trkpt lat="47.88991" lon="6.89738">
        <ele>757.69187788581</ele>
        <time>2025-05-30T06:25:35.000Z</time>
      </trkpt>
      <trkpt lat="47.88994" lon="6.89754">
        <ele>757.23412129863</ele>
        <time>2025-05-30T06:25:43.000Z</time>
      </trkpt>
      <trkpt lat="47.89001" lon="6.89755">
        <ele>759.38760519065</ele>
        <time>2025-05-30T06:25:51.000Z</time>
      </trkpt>
      <trkpt lat="47.88999" lon="6.89771">
        <ele>756.30990416193</ele>
        <time>2025-05-30T06:25:58.000Z</time>
      </trkpt>
      <trkpt lat="47.89003" lon="6.8978">
        <ele>756.04649957558</ele>
        <time>2025-05-30T06:26:04.000Z</time>
      </trkpt>
      <trkpt lat="47.89007" lon="6.89781">
        <ele>757.74891700153</ele>
        <time>2025-05-30T06:26:07.000Z</time>
      </trkpt>
      <trkpt lat="47.89012" lon="6.89778">
        <ele>760.00950000808</ele>
        <time>2025-05-30T06:26:11.000Z</time>
      </trkpt>
      <trkpt lat="47.89018" lon="6.89779">
        <ele>762.73455992063</ele>
        <time>2025-05-30T06:26:13.000Z</time>
      </trkpt>
      <trkpt lat="47.89018" lon="6.89789">
        <ele>761.00714933202</ele>
        <time>2025-05-30T06:26:18.000Z</time>
      </trkpt>
      <trkpt lat="47.89031" lon="6.89803">
        <ele>765.41103571737</ele>
        <time>2025-05-30T06:26:39.000Z</time>
      </trkpt>
      <trkpt lat="47.89026" lon="6.89794">
        <ele>764.33116993187</ele>
        <time>2025-05-30T06:26:51.000Z</time>
      </trkpt>
      <trkpt lat="47.8903" lon="6.89755">
        <ele>772.08648007241</ele>
        <time>2025-05-30T06:27:20.000Z</time>
      </trkpt>
      <trkpt lat="47.89028" lon="6.89746">
        <ele>771.54237206881</ele>
        <time>2025-05-30T06:27:26.000Z</time>
      </trkpt>
      <trkpt lat="47.8903" lon="6.89737">
        <ele>772.8762413883</ele>
        <time>2025-05-30T06:27:35.000Z</time>
      </trkpt>
      <trkpt lat="47.89034" lon="6.8973">
        <ele>774.86118795522</ele>
        <time>2025-05-30T06:27:43.000Z</time>
      </trkpt>
      <trkpt lat="47.89032" lon="6.89724">
        <ele>773.95690460785</ele>
        <time>2025-05-30T06:27:46.000Z</time>
      </trkpt>
      <trkpt lat="47.89035" lon="6.89714">
        <ele>774.37008988051</ele>
        <time>2025-05-30T06:28:01.000Z</time>
      </trkpt>
      <trkpt lat="47.8904" lon="6.89714">
        <ele>776.8950296162</ele>
        <time>2025-05-30T06:28:05.000Z</time>
      </trkpt>
      <trkpt lat="47.89053" lon="6.89728">
        <ele>783.04845813941</ele>
        <time>2025-05-30T06:28:15.000Z</time>
      </trkpt>
      <trkpt lat="47.89063" lon="6.89732">
        <ele>787.31029854202</ele>
        <time>2025-05-30T06:28:26.000Z</time>
      </trkpt>
      <trkpt lat="47.89067" lon="6.8974">
        <ele>788.74896395174</ele>
        <time>2025-05-30T06:28:35.000Z</time>
      </trkpt>
      <trkpt lat="47.89071" lon="6.89741">
        <ele>790.47265762766</ele>
        <time>2025-05-30T06:28:40.000Z</time>
      </trkpt>
      <trkpt lat="47.89073" lon="6.89747">
        <ele>791.70590806941</ele>
        <time>2025-05-30T06:28:45.000Z</time>
      </trkpt>
      <trkpt lat="47.89079" lon="6.89751">
        <ele>793.59662032077</ele>
        <time>2025-05-30T06:28:54.000Z</time>
      </trkpt>
      <trkpt lat="47.89097" lon="6.89748">
        <ele>799.64146104348</ele>
        <time>2025-05-30T06:29:17.000Z</time>
      </trkpt>
      <trkpt lat="47.89115" lon="6.89762">
        <ele>801.6271431077</ele>
        <time>2025-05-30T06:29:34.000Z</time>
      </trkpt>
      <trkpt lat="47.89116" lon="6.89769">
        <ele>801.34731502998</ele>
        <time>2025-05-30T06:29:37.000Z</time>
      </trkpt>
      <trkpt lat="47.89117" lon="6.89778">
        <ele>800.93390710851</ele>
        <time>2025-05-30T06:29:41.000Z</time>
      </trkpt>
      <trkpt lat="47.89115" lon="6.89801">
        <ele>799.82055243215</ele>
        <time>2025-05-30T06:29:51.000Z</time>
      </trkpt>
      <trkpt lat="47.89115" lon="6.89808">
        <ele>799.64176942704</ele>
        <time>2025-05-30T06:29:54.000Z</time>
      </trkpt>
      <trkpt lat="47.8912" lon="6.89814">
        <ele>799.76822472118</ele>
        <time>2025-05-30T06:29:59.000Z</time>
      </trkpt>
      <trkpt lat="47.8914" lon="6.89831">
        <ele>800.72626393968</ele>
        <time>2025-05-30T06:30:23.000Z</time>
      </trkpt>
      <trkpt lat="47.89148" lon="6.89842">
        <ele>802.88952885942</ele>
        <time>2025-05-30T06:30:34.000Z</time>
      </trkpt>
      <trkpt lat="47.89152" lon="6.89843">
        <ele>803.26105021421</ele>
        <time>2025-05-30T06:30:38.000Z</time>
      </trkpt>
      <trkpt lat="47.89171" lon="6.89858">
        <ele>807.86901625465</ele>
        <time>2025-05-30T06:30:58.000Z</time>
      </trkpt>
      <trkpt lat="47.89176" lon="6.89861">
        <ele>808.92225745399</ele>
        <time>2025-05-30T06:31:01.000Z</time>
      </trkpt>
      <trkpt lat="47.89182" lon="6.89865">
        <ele>810.19447291594</ele>
        <time>2025-05-30T06:31:11.000Z</time>
      </trkpt>
      <trkpt lat="47.89186" lon="6.89871">
        <ele>811.5015522273</ele>
        <time>2025-05-30T06:31:16.000Z</time>
      </trkpt>
      <trkpt lat="47.89204" lon="6.89874">
        <ele>811.0430731901</ele>
        <time>2025-05-30T06:31:36.000Z</time>
      </trkpt>
      <trkpt lat="47.89232" lon="6.89894">
        <ele>817.69700458234</ele>
        <time>2025-05-30T06:31:57.000Z</time>
      </trkpt>
      <trkpt lat="47.89234" lon="6.899">
        <ele>819.61009548139</ele>
        <time>2025-05-30T06:32:05.000Z</time>
      </trkpt>
      <trkpt lat="47.89257" lon="6.89899">
        <ele>823.19182161284</ele>
        <time>2025-05-30T06:32:24.000Z</time>
      </trkpt>
      <trkpt lat="47.89267" lon="6.89901">
        <ele>826.17833393056</ele>
        <time>2025-05-30T06:32:29.000Z</time>
      </trkpt>
      <trkpt lat="47.89271" lon="6.89898">
        <ele>826.50655601577</ele>
        <time>2025-05-30T06:32:37.000Z</time>
      </trkpt>
      <trkpt lat="47.89276" lon="6.89903">
        <ele>829.29841399628</ele>
        <time>2025-05-30T06:32:41.000Z</time>
      </trkpt>
      <trkpt lat="47.8928" lon="6.89901">
        <ele>829.71388640081</ele>
        <time>2025-05-30T06:32:44.000Z</time>
      </trkpt>
      <trkpt lat="47.89285" lon="6.89899">
        <ele>830.66235741751</ele>
        <time>2025-05-30T06:32:58.000Z</time>
      </trkpt>
      <trkpt lat="47.8929" lon="6.89896">
        <ele>830.85417187291</ele>
        <time>2025-05-30T06:33:02.000Z</time>
      </trkpt>
      <trkpt lat="47.89292" lon="6.8989">
        <ele>829.92134242444</ele>
        <time>2025-05-30T06:33:08.000Z</time>
      </trkpt>
      <trkpt lat="47.89304" lon="6.89877">
        <ele>829.01352969121</ele>
        <time>2025-05-30T06:33:33.000Z</time>
      </trkpt>
      <trkpt lat="47.89312" lon="6.89865">
        <ele>827.79473904497</ele>
        <time>2025-05-30T06:33:46.000Z</time>
      </trkpt>
      <trkpt lat="47.89319" lon="6.89864">
        <ele>829.41761628238</ele>
        <time>2025-05-30T06:33:59.000Z</time>
      </trkpt>
      <trkpt lat="47.89323" lon="6.89858">
        <ele>828.7334288827</ele>
        <time>2025-05-30T06:34:02.000Z</time>
      </trkpt>
      <trkpt lat="47.89336" lon="6.89847">
        <ele>829.68580665316</ele>
        <time>2025-05-30T06:34:14.000Z</time>
      </trkpt>
      <trkpt lat="47.89343" lon="6.89852">
        <ele>832.52484884686</ele>
        <time>2025-05-30T06:34:28.000Z</time>
      </trkpt>
      <trkpt lat="47.89347" lon="6.89854">
        <ele>834.01513334553</ele>
        <time>2025-05-30T06:34:33.000Z</time>
      </trkpt>
      <trkpt lat="47.89352" lon="6.89857">
        <ele>835.96875735647</ele>
        <time>2025-05-30T06:34:35.000Z</time>
      </trkpt>
      <trkpt lat="47.89358" lon="6.89855">
        <ele>836.76505661666</ele>
        <time>2025-05-30T06:34:44.000Z</time>
      </trkpt>
      <trkpt lat="47.89362" lon="6.89849">
        <ele>836.04606065742</ele>
        <time>2025-05-30T06:34:48.000Z</time>
      </trkpt>
      <trkpt lat="47.89367" lon="6.89852">
        <ele>837.85731368803</ele>
        <time>2025-05-30T06:34:51.000Z</time>
      </trkpt>
      <trkpt lat="47.89371" lon="6.89851">
        <ele>838.41559134342</ele>
        <time>2025-05-30T06:34:54.000Z</time>
      </trkpt>
      <trkpt lat="47.89372" lon="6.89844">
        <ele>836.75788483626</ele>
        <time>2025-05-30T06:34:58.000Z</time>
      </trkpt>
      <trkpt lat="47.89378" lon="6.89843">
        <ele>837.10109173153</ele>
        <time>2025-05-30T06:35:05.000Z</time>
      </trkpt>
      <trkpt lat="47.89381" lon="6.89836">
        <ele>835.51279760231</ele>
        <time>2025-05-30T06:35:10.000Z</time>
      </trkpt>
      <trkpt lat="47.894" lon="6.89839">
        <ele>838.51404756671</ele>
        <time>2025-05-30T06:35:28.000Z</time>
      </trkpt>
      <trkpt lat="47.89417" lon="6.89854">
        <ele>843.50937282657</ele>
        <time>2025-05-30T06:35:54.000Z</time>
      </trkpt>
      <trkpt lat="47.89421" lon="6.89859">
        <ele>844.70288464185</ele>
        <time>2025-05-30T06:35:57.000Z</time>
      </trkpt>
      <trkpt lat="47.89426" lon="6.89871">
        <ele>847.82362837261</ele>
        <time>2025-05-30T06:36:06.000Z</time>
      </trkpt>
      <trkpt lat="47.89436" lon="6.89874">
        <ele>849.00668725788</ele>
        <time>2025-05-30T06:36:15.000Z</time>
      </trkpt>
      <trkpt lat="47.89437" lon="6.89881">
        <ele>850.67720689332</ele>
        <time>2025-05-30T06:36:19.000Z</time>
      </trkpt>
      <trkpt lat="47.8944" lon="6.89886">
        <ele>852.32676712355</ele>
        <time>2025-05-30T06:36:24.000Z</time>
      </trkpt>
      <trkpt lat="47.89442" lon="6.89892">
        <ele>854.29434502702</ele>
        <time>2025-05-30T06:36:34.000Z</time>
      </trkpt>
      <trkpt lat="47.8945" lon="6.89892">
        <ele>854.2826030481</ele>
        <time>2025-05-30T06:36:44.000Z</time>
      </trkpt>
      <trkpt lat="47.8945" lon="6.89904">
        <ele>858.34655733812</ele>
        <time>2025-05-30T06:36:50.000Z</time>
      </trkpt>
      <trkpt lat="47.89452" lon="6.8991">
        <ele>860.75444417535</ele>
        <time>2025-05-30T06:36:53.000Z</time>
      </trkpt>
      <trkpt lat="47.89452" lon="6.89916">
        <ele>862.81990721775</ele>
        <time>2025-05-30T06:36:57.000Z</time>
      </trkpt>
      <trkpt lat="47.8946" lon="6.89919">
        <ele>862.89264973551</ele>
        <time>2025-05-30T06:37:06.000Z</time>
      </trkpt>
      <trkpt lat="47.89463" lon="6.89927">
        <ele>864.72414559238</ele>
        <time>2025-05-30T06:37:08.000Z</time>
      </trkpt>
      <trkpt lat="47.89469" lon="6.89936">
        <ele>865.12022536621</ele>
        <time>2025-05-30T06:37:21.000Z</time>
      </trkpt>
      <trkpt lat="47.89469" lon="6.89943">
        <ele>868.62348731538</ele>
        <time>2025-05-30T06:37:29.000Z</time>
      </trkpt>
      <trkpt lat="47.89474" lon="6.89948">
        <ele>869.23212844604</ele>
        <time>2025-05-30T06:37:34.000Z</time>
      </trkpt>
      <trkpt lat="47.89482" lon="6.89951">
        <ele>867.94208804735</ele>
        <time>2025-05-30T06:37:42.000Z</time>
      </trkpt>
      <trkpt lat="47.89488" lon="6.89967">
        <ele>872.05126433084</ele>
        <time>2025-05-30T06:37:52.000Z</time>
      </trkpt>
      <trkpt lat="47.89489" lon="6.89977">
        <ele>875.02465854515</ele>
        <time>2025-05-30T06:38:08.000Z</time>
      </trkpt>
      <trkpt lat="47.89499" lon="6.89995">
        <ele>878.73062540037</ele>
        <time>2025-05-30T06:38:24.000Z</time>
      </trkpt>
      <trkpt lat="47.89503" lon="6.9">
        <ele>879.58531885762</ele>
        <time>2025-05-30T06:38:27.000Z</time>
      </trkpt>
      <trkpt lat="47.89511" lon="6.90016">
        <ele>883.02533185082</ele>
        <time>2025-05-30T06:38:40.000Z</time>
      </trkpt>
      <trkpt lat="47.89516" lon="6.90019">
        <ele>883.49119814828</ele>
        <time>2025-05-30T06:38:44.000Z</time>
      </trkpt>
      <trkpt lat="47.89522" lon="6.9004">
        <ele>887.64286628249</ele>
        <time>2025-05-30T06:39:02.000Z</time>
      </trkpt>
      <trkpt lat="47.89522" lon="6.90048">
        <ele>889.3932534161</ele>
        <time>2025-05-30T06:39:08.000Z</time>
      </trkpt>
      <trkpt lat="47.89526" lon="6.90059">
        <ele>891.10055333577</ele>
        <time>2025-05-30T06:39:24.000Z</time>
      </trkpt>
      <trkpt lat="47.89527" lon="6.90066">
        <ele>892.58828944934</ele>
        <time>2025-05-30T06:39:30.000Z</time>
      </trkpt>
      <trkpt lat="47.89529" lon="6.90074">
        <ele>893.87163272705</ele>
        <time>2025-05-30T06:39:36.000Z</time>
      </trkpt>
      <trkpt lat="47.89532" lon="6.90081">
        <ele>894.88436848031</ele>
        <time>2025-05-30T06:39:42.000Z</time>
      </trkpt>
      <trkpt lat="47.89531" lon="6.90089">
        <ele>896.34737769156</ele>
        <time>2025-05-30T06:39:45.000Z</time>
      </trkpt>
      <trkpt lat="47.89525" lon="6.90101">
        <ele>898.6252394048</ele>
        <time>2025-05-30T06:39:52.000Z</time>
      </trkpt>
      <trkpt lat="47.8953" lon="6.90105">
        <ele>899.09695623643</ele>
        <time>2025-05-30T06:39:59.000Z</time>
      </trkpt>
      <trkpt lat="47.89524" lon="6.90122">
        <ele>902.04711038773</ele>
        <time>2025-05-30T06:40:13.000Z</time>
      </trkpt>
      <trkpt lat="47.89527" lon="6.90128">
        <ele>902.83542462357</ele>
        <time>2025-05-30T06:40:17.000Z</time>
      </trkpt>
      <trkpt lat="47.8953" lon="6.90133">
        <ele>903.5032024239</ele>
        <time>2025-05-30T06:40:25.000Z</time>
      </trkpt>
      <trkpt lat="47.89533" lon="6.90159">
        <ele>907.24392690932</ele>
        <time>2025-05-30T06:40:43.000Z</time>
      </trkpt>
      <trkpt lat="47.89538" lon="6.90167">
        <ele>907.67150093451</ele>
        <time>2025-05-30T06:40:52.000Z</time>
      </trkpt>
      <trkpt lat="47.89536" lon="6.90175">
        <ele>909.59525123796</ele>
        <time>2025-05-30T06:41:00.000Z</time>
      </trkpt>
      <trkpt lat="47.89535" lon="6.90184">
        <ele>911.83073399552</ele>
        <time>2025-05-30T06:41:06.000Z</time>
      </trkpt>
      <trkpt lat="47.89539" lon="6.90189">
        <ele>912.24346118471</ele>
        <time>2025-05-30T06:41:11.000Z</time>
      </trkpt>
      <trkpt lat="47.8955" lon="6.90192">
        <ele>910.89675019218</ele>
        <time>2025-05-30T06:41:17.000Z</time>
      </trkpt>
      <trkpt lat="47.89552" lon="6.90202">
        <ele>912.6359789128</ele>
        <time>2025-05-30T06:41:31.000Z</time>
      </trkpt>
      <trkpt lat="47.89555" lon="6.90209">
        <ele>913.59595827809</ele>
        <time>2025-05-30T06:41:36.000Z</time>
      </trkpt>
      <trkpt lat="47.8956" lon="6.90213">
        <ele>913.50923256492</ele>
        <time>2025-05-30T06:41:47.000Z</time>
      </trkpt>
      <trkpt lat="47.89563" lon="6.90219">
        <ele>914.11093299473</ele>
        <time>2025-05-30T06:41:59.000Z</time>
      </trkpt>
      <trkpt lat="47.89569" lon="6.90219">
        <ele>913.22047038584</ele>
        <time>2025-05-30T06:42:13.000Z</time>
      </trkpt>
      <trkpt lat="47.89579" lon="6.90221">
        <ele>912.28583903667</ele>
        <time>2025-05-30T06:42:22.000Z</time>
      </trkpt>
      <trkpt lat="47.89583" lon="6.90218">
        <ele>911.14579472223</ele>
        <time>2025-05-30T06:42:26.000Z</time>
      </trkpt>
      <trkpt lat="47.89588" lon="6.90221">
        <ele>911.42840472806</ele>
        <time>2025-05-30T06:42:32.000Z</time>
      </trkpt>
      <trkpt lat="47.8959" lon="6.90227">
        <ele>913.23582970053</ele>
        <time>2025-05-30T06:42:38.000Z</time>
      </trkpt>
      <trkpt lat="47.89593" lon="6.9023">
        <ele>913.85994046067</ele>
        <time>2025-05-30T06:42:45.000Z</time>
      </trkpt>
      <trkpt lat="47.89598" lon="6.90233">
        <ele>914.70823699426</ele>
        <time>2025-05-30T06:42:57.000Z</time>
      </trkpt>
      <trkpt lat="47.89607" lon="6.9024">
        <ele>917.53607569393</ele>
        <time>2025-05-30T06:43:07.000Z</time>
      </trkpt>
      <trkpt lat="47.89612" lon="6.90248">
        <ele>920.43437914839</ele>
        <time>2025-05-30T06:43:11.000Z</time>
      </trkpt>
      <trkpt lat="47.89614" lon="6.90254">
        <ele>922.75916406914</ele>
        <time>2025-05-30T06:43:14.000Z</time>
      </trkpt>
      <trkpt lat="47.89626" lon="6.90255">
        <ele>923.31802356616</ele>
        <time>2025-05-30T06:43:25.000Z</time>
      </trkpt>
      <trkpt lat="47.8963" lon="6.90259">
        <ele>924.77396821287</ele>
        <time>2025-05-30T06:43:29.000Z</time>
      </trkpt>
      <trkpt lat="47.89635" lon="6.90265">
        <ele>926.86179953795</ele>
        <time>2025-05-30T06:43:41.000Z</time>
      </trkpt>
      <trkpt lat="47.89639" lon="6.90274">
        <ele>929.66732288022</ele>
        <time>2025-05-30T06:43:58.000Z</time>
      </trkpt>
      <trkpt lat="47.89647" lon="6.90278">
        <ele>930.68629139271</ele>
        <time>2025-05-30T06:44:11.000Z</time>
      </trkpt>
      <trkpt lat="47.8965" lon="6.90285">
        <ele>932.81160761487</ele>
        <time>2025-05-30T06:44:14.000Z</time>
      </trkpt>
      <trkpt lat="47.89654" lon="6.90285">
        <ele>932.51629867664</ele>
        <time>2025-05-30T06:44:18.000Z</time>
      </trkpt>
      <trkpt lat="47.8966" lon="6.90289">
        <ele>933.28147646417</ele>
        <time>2025-05-30T06:44:27.000Z</time>
      </trkpt>
      <trkpt lat="47.8968" lon="6.90316">
        <ele>942.18076951397</ele>
        <time>2025-05-30T06:45:00.000Z</time>
      </trkpt>
      <trkpt lat="47.8969" lon="6.90325">
        <ele>944.31281315604</ele>
        <time>2025-05-30T06:45:11.000Z</time>
      </trkpt>
      <trkpt lat="47.89697" lon="6.90336">
        <ele>946.50012316359</ele>
        <time>2025-05-30T06:45:23.000Z</time>
      </trkpt>
      <trkpt lat="47.89701" lon="6.90352">
        <ele>950.46366709969</ele>
        <time>2025-05-30T06:45:33.000Z</time>
      </trkpt>
      <trkpt lat="47.89708" lon="6.90373">
        <ele>954.06462298389</ele>
        <time>2025-05-30T06:45:56.000Z</time>
      </trkpt>
      <trkpt lat="47.89708" lon="6.90381">
        <ele>956.03004581886</ele>
        <time>2025-05-30T06:46:01.000Z</time>
      </trkpt>
      <trkpt lat="47.89711" lon="6.90391">
        <ele>957.43787160869</ele>
        <time>2025-05-30T06:46:11.000Z</time>
      </trkpt>
      <trkpt lat="47.89709" lon="6.90412">
        <ele>962.13958766804</ele>
        <time>2025-05-30T06:46:27.000Z</time>
      </trkpt>
      <trkpt lat="47.89712" lon="6.90417">
        <ele>961.65254936856</ele>
        <time>2025-05-30T06:46:31.000Z</time>
      </trkpt>
      <trkpt lat="47.89713" lon="6.90428">
        <ele>962.82954083024</ele>
        <time>2025-05-30T06:46:38.000Z</time>
      </trkpt>
      <trkpt lat="47.89715" lon="6.90435">
        <ele>962.97993942426</ele>
        <time>2025-05-30T06:46:45.000Z</time>
      </trkpt>
      <trkpt lat="47.89716" lon="6.90452">
        <ele>964.58023784583</ele>
        <time>2025-05-30T06:47:02.000Z</time>
      </trkpt>
      <trkpt lat="47.89719" lon="6.90459">
        <ele>964.07023559621</ele>
        <time>2025-05-30T06:47:07.000Z</time>
      </trkpt>
      <trkpt lat="47.89722" lon="6.90475">
        <ele>965.35269150497</ele>
        <time>2025-05-30T06:47:22.000Z</time>
      </trkpt>
      <trkpt lat="47.89718" lon="6.90485">
        <ele>969.45771265054</ele>
        <time>2025-05-30T06:47:28.000Z</time>
      </trkpt>
      <trkpt lat="47.89716" lon="6.90491">
        <ele>971.94307850902</ele>
        <time>2025-05-30T06:47:31.000Z</time>
      </trkpt>
      <trkpt lat="47.89716" lon="6.90497">
        <ele>973.36438232378</ele>
        <time>2025-05-30T06:47:34.000Z</time>
      </trkpt>
      <trkpt lat="47.89719" lon="6.90505">
        <ele>973.71237994542</ele>
        <time>2025-05-30T06:47:48.000Z</time>
      </trkpt>
      <trkpt lat="47.8972" lon="6.90512">
        <ele>974.88173822543</ele>
        <time>2025-05-30T06:47:54.000Z</time>
      </trkpt>
      <trkpt lat="47.89719" lon="6.90523">
        <ele>977.8639283898</ele>
        <time>2025-05-30T06:48:06.000Z</time>
      </trkpt>
      <trkpt lat="47.89718" lon="6.90531">
        <ele>979.85176396575</ele>
        <time>2025-05-30T06:48:15.000Z</time>
      </trkpt>
      <trkpt lat="47.8972" lon="6.90537">
        <ele>980.69004840767</ele>
        <time>2025-05-30T06:48:21.000Z</time>
      </trkpt>
      <trkpt lat="47.89725" lon="6.90541">
        <ele>980.11739337711</ele>
        <time>2025-05-30T06:48:24.000Z</time>
      </trkpt>
      <trkpt lat="47.89723" lon="6.90549">
        <ele>982.31285102768</ele>
        <time>2025-05-30T06:48:27.000Z</time>
      </trkpt>
      <trkpt lat="47.89724" lon="6.90556">
        <ele>983.12226048887</ele>
        <time>2025-05-30T06:48:32.000Z</time>
      </trkpt>
      <trkpt lat="47.89726" lon="6.90566">
        <ele>984.19276969997</ele>
        <time>2025-05-30T06:48:43.000Z</time>
      </trkpt>
      <trkpt lat="47.8973" lon="6.90572">
        <ele>983.39598847251</ele>
        <time>2025-05-30T06:48:46.000Z</time>
      </trkpt>
      <trkpt lat="47.89728" lon="6.9058">
        <ele>985.46446894985</ele>
        <time>2025-05-30T06:49:03.000Z</time>
      </trkpt>
      <trkpt lat="47.89726" lon="6.90587">
        <ele>987.1354928857</ele>
        <time>2025-05-30T06:49:09.000Z</time>
      </trkpt>
      <trkpt lat="47.89724" lon="6.90593">
        <ele>989.02230022899</ele>
        <time>2025-05-30T06:49:15.000Z</time>
      </trkpt>
      <trkpt lat="47.89725" lon="6.906">
        <ele>989.37813231608</ele>
        <time>2025-05-30T06:49:19.000Z</time>
      </trkpt>
      <trkpt lat="47.89726" lon="6.90615">
        <ele>991.35204160726</ele>
        <time>2025-05-30T06:49:32.000Z</time>
      </trkpt>
      <trkpt lat="47.89729" lon="6.90622">
        <ele>991.54346308401</ele>
        <time>2025-05-30T06:49:37.000Z</time>
      </trkpt>
      <trkpt lat="47.89731" lon="6.9064">
        <ele>993.79702726016</ele>
        <time>2025-05-30T06:49:52.000Z</time>
      </trkpt>
      <trkpt lat="47.89734" lon="6.9066">
        <ele>996.54325191316</ele>
        <time>2025-05-30T06:50:14.000Z</time>
      </trkpt>
      <trkpt lat="47.89735" lon="6.90674">
        <ele>999.69401041444</ele>
        <time>2025-05-30T06:50:27.000Z</time>
      </trkpt>
      <trkpt lat="47.89738" lon="6.90681">
        <ele>1000.0107331908</ele>
        <time>2025-05-30T06:50:34.000Z</time>
      </trkpt>
      <trkpt lat="47.89738" lon="6.90688">
        <ele>1001.9870260214</ele>
        <time>2025-05-30T06:50:39.000Z</time>
      </trkpt>
      <trkpt lat="47.89742" lon="6.90696">
        <ele>1002.789223669</ele>
        <time>2025-05-30T06:50:47.000Z</time>
      </trkpt>
      <trkpt lat="47.89749" lon="6.90705">
        <ele>1001.9951849676</ele>
        <time>2025-05-30T06:50:54.000Z</time>
      </trkpt>
      <trkpt lat="47.89748" lon="6.90713">
        <ele>1004.9181783374</ele>
        <time>2025-05-30T06:51:01.000Z</time>
      </trkpt>
      <trkpt lat="47.89751" lon="6.90719">
        <ele>1005.2499725472</ele>
        <time>2025-05-30T06:51:06.000Z</time>
      </trkpt>
      <trkpt lat="47.89751" lon="6.90733">
        <ele>1009.8620209405</ele>
        <time>2025-05-30T06:51:20.000Z</time>
      </trkpt>
      <trkpt lat="47.89756" lon="6.90737">
        <ele>1009.2008004248</ele>
        <time>2025-05-30T06:51:25.000Z</time>
      </trkpt>
      <trkpt lat="47.89759" lon="6.9075">
        <ele>1012.5572512333</ele>
        <time>2025-05-30T06:51:34.000Z</time>
      </trkpt>
      <trkpt lat="47.89764" lon="6.90756">
        <ele>1012.9261371126</ele>
        <time>2025-05-30T06:51:41.000Z</time>
      </trkpt>
      <trkpt lat="47.89759" lon="6.90763">
        <ele>1017.5343333657</ele>
        <time>2025-05-30T06:51:47.000Z</time>
      </trkpt>
      <trkpt lat="47.89757" lon="6.9077">
        <ele>1020.9438066942</ele>
        <time>2025-05-30T06:51:51.000Z</time>
      </trkpt>
      <trkpt lat="47.8976" lon="6.90779">
        <ele>1023.3515695339</ele>
        <time>2025-05-30T06:52:10.000Z</time>
      </trkpt>
      <trkpt lat="47.89768" lon="6.90794">
        <ele>1025.1630703802</ele>
        <time>2025-05-30T06:52:33.000Z</time>
      </trkpt>
      <trkpt lat="47.89777" lon="6.90834">
        <ele>1037.0857010516</ele>
        <time>2025-05-30T06:53:15.000Z</time>
      </trkpt>
      <trkpt lat="47.89791" lon="6.90877">
        <ele>1046.4617979841</ele>
        <time>2025-05-30T06:53:50.000Z</time>
      </trkpt>
      <trkpt lat="47.89795" lon="6.9094">
        <ele>1059.4529564634</ele>
        <time>2025-05-30T06:54:36.000Z</time>
      </trkpt>
      <trkpt lat="47.89779" lon="6.90955">
        <ele>1068.5139476294</ele>
        <time>2025-05-30T06:54:41.000Z</time>
      </trkpt>
      <trkpt lat="47.89798" lon="6.90996">
        <ele>1066.9496048904</ele>
        <time>2025-05-30T06:55:35.000Z</time>
      </trkpt>
      <trkpt lat="47.89798" lon="6.91018">
        <ele>1069.1535724659</ele>
        <time>2025-05-30T06:55:59.000Z</time>
      </trkpt>
      <trkpt lat="47.89782" lon="6.91049">
        <ele>1079.1123422311</ele>
        <time>2025-05-30T06:56:28.000Z</time>
      </trkpt>
      <trkpt lat="47.89783" lon="6.91059">
        <ele>1079.1748337054</ele>
        <time>2025-05-30T06:56:30.000Z</time>
      </trkpt>
      <trkpt lat="47.89785" lon="6.91069">
        <ele>1078.6545529332</ele>
        <time>2025-05-30T06:56:34.000Z</time>
      </trkpt>
      <trkpt lat="47.89774" lon="6.91091">
        <ele>1084.9692888859</ele>
        <time>2025-05-30T06:57:06.000Z</time>
      </trkpt>
      <trkpt lat="47.89763" lon="6.91119">
        <ele>1090.9206606214</ele>
        <time>2025-05-30T06:57:34.000Z</time>
      </trkpt>
      <trkpt lat="47.89763" lon="6.91136">
        <ele>1089.5619328426</ele>
        <time>2025-05-30T06:57:45.000Z</time>
      </trkpt>
      <trkpt lat="47.89755" lon="6.91157">
        <ele>1093.3644615732</ele>
        <time>2025-05-30T06:58:15.000Z</time>
      </trkpt>
      <trkpt lat="47.89753" lon="6.91173">
        <ele>1093.8181852832</ele>
        <time>2025-05-30T06:58:26.000Z</time>
      </trkpt>
      <trkpt lat="47.89743" lon="6.91201">
        <ele>1099.4579454936</ele>
        <time>2025-05-30T06:58:46.000Z</time>
      </trkpt>
      <trkpt lat="47.89745" lon="6.91222">
        <ele>1098.8784510724</ele>
        <time>2025-05-30T06:59:16.000Z</time>
      </trkpt>
      <trkpt lat="47.89749" lon="6.91255">
        <ele>1100.2955460602</ele>
        <time>2025-05-30T06:59:43.000Z</time>
      </trkpt>
      <trkpt lat="47.89742" lon="6.91259">
        <ele>1103.757537956</ele>
        <time>2025-05-30T06:59:44.000Z</time>
      </trkpt>
      <trkpt lat="47.89746" lon="6.91267">
        <ele>1103.3643613462</ele>
        <time>2025-05-30T07:00:04.000Z</time>
      </trkpt>
      <trkpt lat="47.89746" lon="6.9128">
        <ele>1104.9415759477</ele>
        <time>2025-05-30T07:00:24.000Z</time>
      </trkpt>
      <trkpt lat="47.8975" lon="6.91284">
        <ele>1103.8426755424</ele>
        <time>2025-05-30T07:00:29.000Z</time>
      </trkpt>
      <trkpt lat="47.89751" lon="6.91291">
        <ele>1104.4115305006</ele>
        <time>2025-05-30T07:00:34.000Z</time>
      </trkpt>
      <trkpt lat="47.89751" lon="6.91339">
        <ele>1109.9130050533</ele>
        <time>2025-05-30T07:01:07.000Z</time>
      </trkpt>
      <trkpt lat="47.89751" lon="6.91374">
        <ele>1115.8004518065</ele>
        <time>2025-05-30T07:01:38.000Z</time>
      </trkpt>
      <trkpt lat="47.8975" lon="6.91384">
        <ele>1118.5966471022</ele>
        <time>2025-05-30T07:01:43.000Z</time>
      </trkpt>
      <trkpt lat="47.89755" lon="6.91411">
        <ele>1122.3399026598</ele>
        <time>2025-05-30T07:02:08.000Z</time>
      </trkpt>
      <trkpt lat="47.89751" lon="6.91427">
        <ele>1126.7530286639</ele>
        <time>2025-05-30T07:02:16.000Z</time>
      </trkpt>
      <trkpt lat="47.89752" lon="6.91437">
        <ele>1127.4077355016</ele>
        <time>2025-05-30T07:02:22.000Z</time>
      </trkpt>
      <trkpt lat="47.89759" lon="6.91445">
        <ele>1125.79835051</ele>
        <time>2025-05-30T07:02:32.000Z</time>
      </trkpt>
      <trkpt lat="47.8976" lon="6.91476">
        <ele>1130.1070948767</ele>
        <time>2025-05-30T07:03:01.000Z</time>
      </trkpt>
      <trkpt lat="47.89768" lon="6.91494">
        <ele>1131.3921155771</ele>
        <time>2025-05-30T07:03:10.000Z</time>
      </trkpt>
      <trkpt lat="47.89768" lon="6.91507">
        <ele>1135.0732715622</ele>
        <time>2025-05-30T07:03:22.000Z</time>
      </trkpt>
      <trkpt lat="47.89773" lon="6.91512">
        <ele>1135.4567888807</ele>
        <time>2025-05-30T07:03:26.000Z</time>
      </trkpt>
      <trkpt lat="47.89776" lon="6.91519">
        <ele>1137.2072206723</ele>
        <time>2025-05-30T07:03:33.000Z</time>
      </trkpt>
      <trkpt lat="47.8978" lon="6.91524">
        <ele>1137.8718407427</ele>
        <time>2025-05-30T07:03:39.000Z</time>
      </trkpt>
      <trkpt lat="47.89783" lon="6.91529">
        <ele>1138.7938219895</ele>
        <time>2025-05-30T07:03:42.000Z</time>
      </trkpt>
      <trkpt lat="47.89786" lon="6.91538">
        <ele>1141.1617928651</ele>
        <time>2025-05-30T07:03:56.000Z</time>
      </trkpt>
      <trkpt lat="47.89794" lon="6.91555">
        <ele>1145.764744248</ele>
        <time>2025-05-30T07:04:14.000Z</time>
      </trkpt>
      <trkpt lat="47.89799" lon="6.91561">
        <ele>1146.2860053369</ele>
        <time>2025-05-30T07:04:19.000Z</time>
      </trkpt>
      <trkpt lat="47.89803" lon="6.91565">
        <ele>1146.5471995598</ele>
        <time>2025-05-30T07:04:23.000Z</time>
      </trkpt>
      <trkpt lat="47.8981" lon="6.91594">
        <ele>1151.0674783605</ele>
        <time>2025-05-30T07:04:49.000Z</time>
      </trkpt>
      <trkpt lat="47.89818" lon="6.91598">
        <ele>1150.7583108871</ele>
        <time>2025-05-30T07:04:57.000Z</time>
      </trkpt>
      <trkpt lat="47.8982" lon="6.91606">
        <ele>1151.9083077839</ele>
        <time>2025-05-30T07:05:06.000Z</time>
      </trkpt>
      <trkpt lat="47.89823" lon="6.91615">
        <ele>1152.9700705723</ele>
        <time>2025-05-30T07:05:13.000Z</time>
      </trkpt>
      <trkpt lat="47.89825" lon="6.91625">
        <ele>1154.3048039917</ele>
        <time>2025-05-30T07:05:19.000Z</time>
      </trkpt>
      <trkpt lat="47.89831" lon="6.91628">
        <ele>1154.1222651829</ele>
        <time>2025-05-30T07:05:26.000Z</time>
      </trkpt>
      <trkpt lat="47.89835" lon="6.91635">
        <ele>1154.8723429775</ele>
        <time>2025-05-30T07:05:33.000Z</time>
      </trkpt>
      <trkpt lat="47.8984" lon="6.91639">
        <ele>1155.0872183051</ele>
        <time>2025-05-30T07:05:40.000Z</time>
      </trkpt>
      <trkpt lat="47.89841" lon="6.91645">
        <ele>1155.7253221768</ele>
        <time>2025-05-30T07:05:44.000Z</time>
      </trkpt>
      <trkpt lat="47.89846" lon="6.91649">
        <ele>1155.888188288</ele>
        <time>2025-05-30T07:05:54.000Z</time>
      </trkpt>
      <trkpt lat="47.89848" lon="6.91655">
        <ele>1156.0329005358</ele>
        <time>2025-05-30T07:06:02.000Z</time>
      </trkpt>
      <trkpt lat="47.89853" lon="6.91655">
        <ele>1155.6029763382</ele>
        <time>2025-05-30T07:06:07.000Z</time>
      </trkpt>
      <trkpt lat="47.89856" lon="6.91661">
        <ele>1155.7070288982</ele>
        <time>2025-05-30T07:06:11.000Z</time>
      </trkpt>
      <trkpt lat="47.89861" lon="6.91664">
        <ele>1155.6325215827</ele>
        <time>2025-05-30T07:06:15.000Z</time>
      </trkpt>
      <trkpt lat="47.89865" lon="6.9167">
        <ele>1155.9592213244</ele>
        <time>2025-05-30T07:06:21.000Z</time>
      </trkpt>
      <trkpt lat="47.89874" lon="6.91684">
        <ele>1157.2244639336</ele>
        <time>2025-05-30T07:06:36.000Z</time>
      </trkpt>
      <trkpt lat="47.89878" lon="6.91687">
        <ele>1157.4982410895</ele>
        <time>2025-05-30T07:06:41.000Z</time>
      </trkpt>
      <trkpt lat="47.89883" lon="6.91692">
        <ele>1158.1051044478</ele>
        <time>2025-05-30T07:06:48.000Z</time>
      </trkpt>
      <trkpt lat="47.89887" lon="6.91695">
        <ele>1158.4691178364</ele>
        <time>2025-05-30T07:06:56.000Z</time>
      </trkpt>
      <trkpt lat="47.89893" lon="6.91698">
        <ele>1158.9500389129</ele>
        <time>2025-05-30T07:07:00.000Z</time>
      </trkpt>
      <trkpt lat="47.89901" lon="6.91701">
        <ele>1159.1605069576</ele>
        <time>2025-05-30T07:07:09.000Z</time>
      </trkpt>
      <trkpt lat="47.89905" lon="6.91704">
        <ele>1159.1589380085</ele>
        <time>2025-05-30T07:07:18.000Z</time>
      </trkpt>
      <trkpt lat="47.89929" lon="6.91731">
        <ele>1162.7457933454</ele>
        <time>2025-05-30T07:26:45.000Z</time>
      </trkpt>
      <trkpt lat="47.8993" lon="6.91732">
        <ele>1162.8466372197</ele>
        <time>2025-05-30T07:26:46.000Z</time>
      </trkpt>
      <trkpt lat="47.89935" lon="6.91734">
        <ele>1162.9506107741</ele>
        <time>2025-05-30T07:26:51.000Z</time>
      </trkpt>
      <trkpt lat="47.89965" lon="6.9176">
        <ele>1165.3640542972</ele>
        <time>2025-05-30T07:27:22.000Z</time>
      </trkpt>
      <trkpt lat="47.8997" lon="6.91758">
        <ele>1164.9223261404</ele>
        <time>2025-05-30T07:27:25.000Z</time>
      </trkpt>
      <trkpt lat="47.89976" lon="6.91761">
        <ele>1165.0241863012</ele>
        <time>2025-05-30T07:27:31.000Z</time>
      </trkpt>
      <trkpt lat="47.89992" lon="6.91759">
        <ele>1163.9752259149</ele>
        <time>2025-05-30T07:27:45.000Z</time>
      </trkpt>
      <trkpt lat="47.90008" lon="6.91759">
        <ele>1163.2806156259</ele>
        <time>2025-05-30T07:28:01.000Z</time>
      </trkpt>
      <trkpt lat="47.90017" lon="6.91758">
        <ele>1163.0783455304</ele>
        <time>2025-05-30T07:28:09.000Z</time>
      </trkpt>
      <trkpt lat="47.90023" lon="6.91758">
        <ele>1163.0029535014</ele>
        <time>2025-05-30T07:28:15.000Z</time>
      </trkpt>
      <trkpt lat="47.9004" lon="6.91756">
        <ele>1164.6944547928</ele>
        <time>2025-05-30T07:28:31.000Z</time>
      </trkpt>
      <trkpt lat="47.90045" lon="6.91757">
        <ele>1165.2223444304</ele>
        <time>2025-05-30T07:28:35.000Z</time>
      </trkpt>
      <trkpt lat="47.90076" lon="6.91757">
        <ele>1171.3767661574</ele>
        <time>2025-05-30T07:29:06.000Z</time>
      </trkpt>
      <trkpt lat="47.90082" lon="6.91756">
        <ele>1172.171150363</ele>
        <time>2025-05-30T07:29:11.000Z</time>
      </trkpt>
      <trkpt lat="47.90087" lon="6.91753">
        <ele>1173.1131918362</ele>
        <time>2025-05-30T07:29:17.000Z</time>
      </trkpt>
      <trkpt lat="47.90095" lon="6.91744">
        <ele>1174.1674436267</ele>
        <time>2025-05-30T07:29:25.000Z</time>
      </trkpt>
      <trkpt lat="47.901" lon="6.91737">
        <ele>1174.3808984248</ele>
        <time>2025-05-30T07:29:31.000Z</time>
      </trkpt>
      <trkpt lat="47.90106" lon="6.9174">
        <ele>1174.3351964442</ele>
        <time>2025-05-30T07:29:35.000Z</time>
      </trkpt>
      <trkpt lat="47.9011" lon="6.91736">
        <ele>1174.5612607294</ele>
        <time>2025-05-30T07:29:40.000Z</time>
      </trkpt>
      <trkpt lat="47.90124" lon="6.91717">
        <ele>1175.5653048202</ele>
        <time>2025-05-30T07:30:04.000Z</time>
      </trkpt>
      <trkpt lat="47.90142" lon="6.91696">
        <ele>1176.7021347613</ele>
        <time>2025-05-30T07:30:26.000Z</time>
      </trkpt>
      <trkpt lat="47.90161" lon="6.91688">
        <ele>1179.8882416818</ele>
        <time>2025-05-30T07:30:47.000Z</time>
      </trkpt>
      <trkpt lat="47.90174" lon="6.91684">
        <ele>1182.9392784247</ele>
        <time>2025-05-30T07:31:02.000Z</time>
      </trkpt>
      <trkpt lat="47.9018" lon="6.91687">
        <ele>1183.2526268555</ele>
        <time>2025-05-30T07:31:06.000Z</time>
      </trkpt>
      <trkpt lat="47.90184" lon="6.91685">
        <ele>1183.9144310495</ele>
        <time>2025-05-30T07:31:10.000Z</time>
      </trkpt>
      <trkpt lat="47.90187" lon="6.9168">
        <ele>1184.7190169933</ele>
        <time>2025-05-30T07:31:14.000Z</time>
      </trkpt>
      <trkpt lat="47.90192" lon="6.91677">
        <ele>1185.4031590031</ele>
        <time>2025-05-30T07:31:18.000Z</time>
      </trkpt>
      <trkpt lat="47.90197" lon="6.91676">
        <ele>1185.8063980138</ele>
        <time>2025-05-30T07:31:22.000Z</time>
      </trkpt>
      <trkpt lat="47.90201" lon="6.91674">
        <ele>1185.740102725</ele>
        <time>2025-05-30T07:31:28.000Z</time>
      </trkpt>
      <trkpt lat="47.90206" lon="6.91673">
        <ele>1185.5464063205</ele>
        <time>2025-05-30T07:31:32.000Z</time>
      </trkpt>
      <trkpt lat="47.90212" lon="6.91676">
        <ele>1185.4135867045</ele>
        <time>2025-05-30T07:31:42.000Z</time>
      </trkpt>
      <trkpt lat="47.90217" lon="6.91676">
        <ele>1184.7901914523</ele>
        <time>2025-05-30T07:32:14.000Z</time>
      </trkpt>
      <trkpt lat="47.90237" lon="6.9171">
        <ele>1178.9285431366</ele>
        <time>2025-05-30T07:37:06.000Z</time>
      </trkpt>
      <trkpt lat="47.90245" lon="6.91718">
        <ele>1174.7517800363</ele>
        <time>2025-05-30T07:37:15.000Z</time>
      </trkpt>
      <trkpt lat="47.90251" lon="6.91723">
        <ele>1172.3100514456</ele>
        <time>2025-05-30T07:37:22.000Z</time>
      </trkpt>
      <trkpt lat="47.90254" lon="6.91726">
        <ele>1171.2446135485</ele>
        <time>2025-05-30T07:37:25.000Z</time>
      </trkpt>
      <trkpt lat="47.90264" lon="6.91735">
        <ele>1169.0649322942</ele>
        <time>2025-05-30T07:37:36.000Z</time>
      </trkpt>
      <trkpt lat="47.90268" lon="6.91737">
        <ele>1168.7506929571</ele>
        <time>2025-05-30T07:37:39.000Z</time>
      </trkpt>
      <trkpt lat="47.90287" lon="6.91756">
        <ele>1169.1294083978</ele>
        <time>2025-05-30T07:38:01.000Z</time>
      </trkpt>
      <trkpt lat="47.90306" lon="6.91768">
        <ele>1170.2069119424</ele>
        <time>2025-05-30T07:38:19.000Z</time>
      </trkpt>
      <trkpt lat="47.90307" lon="6.91774">
        <ele>1169.4463557376</ele>
        <time>2025-05-30T07:38:23.000Z</time>
      </trkpt>
      <trkpt lat="47.90328" lon="6.91819">
        <ele>1157.2949696782</ele>
        <time>2025-05-30T07:38:56.000Z</time>
      </trkpt>
      <trkpt lat="47.9033" lon="6.91825">
        <ele>1156.001148564</ele>
        <time>2025-05-30T07:39:00.000Z</time>
      </trkpt>
      <trkpt lat="47.90348" lon="6.91867">
        <ele>1157.4921791126</ele>
        <time>2025-05-30T07:39:31.000Z</time>
      </trkpt>
      <trkpt lat="47.9035" lon="6.91873">
        <ele>1157.9220444509</ele>
        <time>2025-05-30T07:39:35.000Z</time>
      </trkpt>
      <trkpt lat="47.90366" lon="6.91907">
        <ele>1158.3469315771</ele>
        <time>2025-05-30T07:40:09.000Z</time>
      </trkpt>
      <trkpt lat="47.90368" lon="6.91913">
        <ele>1157.8546000338</ele>
        <time>2025-05-30T07:40:13.000Z</time>
      </trkpt>
      <trkpt lat="47.90374" lon="6.91928">
        <ele>1156.8407560891</ele>
        <time>2025-05-30T07:40:24.000Z</time>
      </trkpt>
      <trkpt lat="47.90385" lon="6.91952">
        <ele>1155.206498064</ele>
        <time>2025-05-30T07:40:49.000Z</time>
      </trkpt>
      <trkpt lat="47.90397" lon="6.91971">
        <ele>1154.5258455389</ele>
        <time>2025-05-30T07:41:04.000Z</time>
      </trkpt>
      <trkpt lat="47.90409" lon="6.91999">
        <ele>1152.7140172054</ele>
        <time>2025-05-30T07:41:24.000Z</time>
      </trkpt>
      <trkpt lat="47.90424" lon="6.92045">
        <ele>1147.3667650442</ele>
        <time>2025-05-30T07:41:56.000Z</time>
      </trkpt>
      <trkpt lat="47.9043" lon="6.9206">
        <ele>1146.8143797631</ele>
        <time>2025-05-30T07:42:06.000Z</time>
      </trkpt>
      <trkpt lat="47.90433" lon="6.92074">
        <ele>1146.4027075305</ele>
        <time>2025-05-30T07:42:15.000Z</time>
      </trkpt>
      <trkpt lat="47.90434" lon="6.92082">
        <ele>1145.9438849237</ele>
        <time>2025-05-30T07:42:18.000Z</time>
      </trkpt>
      <trkpt lat="47.9044" lon="6.92093">
        <ele>1148.0453679252</ele>
        <time>2025-05-30T07:42:25.000Z</time>
      </trkpt>
      <trkpt lat="47.9044" lon="6.92101">
        <ele>1147.5647807076</ele>
        <time>2025-05-30T07:42:32.000Z</time>
      </trkpt>
      <trkpt lat="47.90442" lon="6.92108">
        <ele>1148.3928066768</ele>
        <time>2025-05-30T07:42:36.000Z</time>
      </trkpt>
      <trkpt lat="47.9044" lon="6.92129">
        <ele>1146.500565028</ele>
        <time>2025-05-30T07:42:52.000Z</time>
      </trkpt>
      <trkpt lat="47.90442" lon="6.92138">
        <ele>1146.9609999732</ele>
        <time>2025-05-30T07:43:00.000Z</time>
      </trkpt>
      <trkpt lat="47.90445" lon="6.92153">
        <ele>1147.442061948</ele>
        <time>2025-05-30T07:43:16.000Z</time>
      </trkpt>
      <trkpt lat="47.90447" lon="6.92159">
        <ele>1147.6888975327</ele>
        <time>2025-05-30T07:43:19.000Z</time>
      </trkpt>
      <trkpt lat="47.9045" lon="6.92164">
        <ele>1148.2625170578</ele>
        <time>2025-05-30T07:43:51.000Z</time>
      </trkpt>
      <trkpt lat="47.90455" lon="6.92166">
        <ele>1149.4270738141</ele>
        <time>2025-05-30T07:43:56.000Z</time>
      </trkpt>
      <trkpt lat="47.9046" lon="6.92173">
        <ele>1150.103667333</ele>
        <time>2025-05-30T07:44:03.000Z</time>
      </trkpt>
      <trkpt lat="47.90462" lon="6.92179">
        <ele>1150.1193110355</ele>
        <time>2025-05-30T07:44:08.000Z</time>
      </trkpt>
      <trkpt lat="47.90466" lon="6.92185">
        <ele>1150.4168037827</ele>
        <time>2025-05-30T07:44:12.000Z</time>
      </trkpt>
      <trkpt lat="47.90472" lon="6.9219">
        <ele>1150.6705242422</ele>
        <time>2025-05-30T07:44:18.000Z</time>
      </trkpt>
      <trkpt lat="47.90478" lon="6.922">
        <ele>1149.7559084885</ele>
        <time>2025-05-30T07:44:26.000Z</time>
      </trkpt>
      <trkpt lat="47.90492" lon="6.92222">
        <ele>1147.6637732831</ele>
        <time>2025-05-30T07:44:43.000Z</time>
      </trkpt>
      <trkpt lat="47.90493" lon="6.92231">
        <ele>1145.8084790432</ele>
        <time>2025-05-30T07:44:48.000Z</time>
      </trkpt>
      <trkpt lat="47.90496" lon="6.92238">
        <ele>1144.8509810451</ele>
        <time>2025-05-30T07:44:53.000Z</time>
      </trkpt>
      <trkpt lat="47.90499" lon="6.92242">
        <ele>1144.6774656074</ele>
        <time>2025-05-30T07:44:56.000Z</time>
      </trkpt>
      <trkpt lat="47.90502" lon="6.92248">
        <ele>1144.150672183</ele>
        <time>2025-05-30T07:45:00.000Z</time>
      </trkpt>
      <trkpt lat="47.90512" lon="6.92262">
        <ele>1144.625058729</ele>
        <time>2025-05-30T07:45:13.000Z</time>
      </trkpt>
      <trkpt lat="47.90518" lon="6.92276">
        <ele>1144.0798735778</ele>
        <time>2025-05-30T07:45:22.000Z</time>
      </trkpt>
      <trkpt lat="47.9052" lon="6.92283">
        <ele>1143.0266881105</ele>
        <time>2025-05-30T07:45:27.000Z</time>
      </trkpt>
      <trkpt lat="47.90527" lon="6.92304">
        <ele>1141.4354111563</ele>
        <time>2025-05-30T07:45:39.000Z</time>
      </trkpt>
      <trkpt lat="47.90529" lon="6.9231">
        <ele>1141.2686136476</ele>
        <time>2025-05-30T07:45:44.000Z</time>
      </trkpt>
      <trkpt lat="47.90531" lon="6.92316">
        <ele>1140.1518670861</ele>
        <time>2025-05-30T07:45:49.000Z</time>
      </trkpt>
      <trkpt lat="47.90537" lon="6.92327">
        <ele>1139.7189658437</ele>
        <time>2025-05-30T07:45:57.000Z</time>
      </trkpt>
      <trkpt lat="47.90547" lon="6.92335">
        <ele>1141.3031330319</ele>
        <time>2025-05-30T07:46:08.000Z</time>
      </trkpt>
      <trkpt lat="47.9055" lon="6.92342">
        <ele>1141.8058546704</ele>
        <time>2025-05-30T07:46:14.000Z</time>
      </trkpt>
      <trkpt lat="47.90553" lon="6.92347">
        <ele>1142.292761222</ele>
        <time>2025-05-30T07:46:18.000Z</time>
      </trkpt>
      <trkpt lat="47.90559" lon="6.9236">
        <ele>1142.9704381322</ele>
        <time>2025-05-30T07:46:30.000Z</time>
      </trkpt>
      <trkpt lat="47.90563" lon="6.92371">
        <ele>1143.6607713124</ele>
        <time>2025-05-30T07:46:36.000Z</time>
      </trkpt>
      <trkpt lat="47.90572" lon="6.92407">
        <ele>1149.4911713668</ele>
        <time>2025-05-30T07:47:11.000Z</time>
      </trkpt>
      <trkpt lat="47.90583" lon="6.92433">
        <ele>1155.9343892457</ele>
        <time>2025-05-30T07:47:34.000Z</time>
      </trkpt>
      <trkpt lat="47.90574" lon="6.92475">
        <ele>1157.4810078032</ele>
        <time>2025-05-30T07:48:07.000Z</time>
      </trkpt>
      <trkpt lat="47.90582" lon="6.92499">
        <ele>1162.9212103633</ele>
        <time>2025-05-30T07:48:35.000Z</time>
      </trkpt>
      <trkpt lat="47.90614" lon="6.92555">
        <ele>1180.0497927892</ele>
        <time>2025-05-30T07:49:34.000Z</time>
      </trkpt>
      <trkpt lat="47.90609" lon="6.92568">
        <ele>1179.9683464141</ele>
        <time>2025-05-30T07:49:48.000Z</time>
      </trkpt>
      <trkpt lat="47.90605" lon="6.92584">
        <ele>1179.1472198205</ele>
        <time>2025-05-30T07:50:08.000Z</time>
      </trkpt>
      <trkpt lat="47.90612" lon="6.92589">
        <ele>1180.0810965576</ele>
        <time>2025-05-30T07:50:16.000Z</time>
      </trkpt>
      <trkpt lat="47.90617" lon="6.92594">
        <ele>1180.4635451528</ele>
        <time>2025-05-30T07:50:20.000Z</time>
      </trkpt>
      <trkpt lat="47.90623" lon="6.92594">
        <ele>1181.3265134712</ele>
        <time>2025-05-30T07:50:23.000Z</time>
      </trkpt>
      <trkpt lat="47.90627" lon="6.92591">
        <ele>1182.2768735779</ele>
        <time>2025-05-30T07:50:27.000Z</time>
      </trkpt>
      <trkpt lat="47.90632" lon="6.92596">
        <ele>1182.3767506033</ele>
        <time>2025-05-30T07:50:31.000Z</time>
      </trkpt>
      <trkpt lat="47.90645" lon="6.92601">
        <ele>1182.7271910893</ele>
        <time>2025-05-30T07:50:39.000Z</time>
      </trkpt>
      <trkpt lat="47.90647" lon="6.92606">
        <ele>1182.0354888262</ele>
        <time>2025-05-30T07:50:42.000Z</time>
      </trkpt>
      <trkpt lat="47.90652" lon="6.92609">
        <ele>1181.6664747651</ele>
        <time>2025-05-30T07:50:48.000Z</time>
      </trkpt>
      <trkpt lat="47.90656" lon="6.92612">
        <ele>1181.5245566558</ele>
        <time>2025-05-30T07:50:51.000Z</time>
      </trkpt>
      <trkpt lat="47.90661" lon="6.92615">
        <ele>1181.2751904078</ele>
        <time>2025-05-30T07:50:54.000Z</time>
      </trkpt>
      <trkpt lat="47.90664" lon="6.92619">
        <ele>1180.7232878635</ele>
        <time>2025-05-30T07:50:57.000Z</time>
      </trkpt>
      <trkpt lat="47.9067" lon="6.92621">
        <ele>1180.6853821596</ele>
        <time>2025-05-30T07:51:01.000Z</time>
      </trkpt>
      <trkpt lat="47.90675" lon="6.92625">
        <ele>1180.2104502981</ele>
        <time>2025-05-30T07:51:06.000Z</time>
      </trkpt>
      <trkpt lat="47.90678" lon="6.9263">
        <ele>1179.3193762551</ele>
        <time>2025-05-30T07:51:10.000Z</time>
      </trkpt>
      <trkpt lat="47.90684" lon="6.92632">
        <ele>1178.6760128932</ele>
        <time>2025-05-30T07:51:14.000Z</time>
      </trkpt>
      <trkpt lat="47.90688" lon="6.92635">
        <ele>1177.9276730287</ele>
        <time>2025-05-30T07:51:19.000Z</time>
      </trkpt>
      <trkpt lat="47.90694" lon="6.92635">
        <ele>1177.5395967013</ele>
        <time>2025-05-30T07:51:23.000Z</time>
      </trkpt>
      <trkpt lat="47.90697" lon="6.92644">
        <ele>1176.1485732121</ele>
        <time>2025-05-30T07:51:27.000Z</time>
      </trkpt>
      <trkpt lat="47.90702" lon="6.92645">
        <ele>1176.0475588386</ele>
        <time>2025-05-30T07:51:31.000Z</time>
      </trkpt>
      <trkpt lat="47.90716" lon="6.92653">
        <ele>1175.9628153495</ele>
        <time>2025-05-30T07:51:46.000Z</time>
      </trkpt>
      <trkpt lat="47.90723" lon="6.92659">
        <ele>1175.8271617634</ele>
        <time>2025-05-30T07:51:52.000Z</time>
      </trkpt>
      <trkpt lat="47.90729" lon="6.9266">
        <ele>1176.2060184691</ele>
        <time>2025-05-30T07:51:56.000Z</time>
      </trkpt>
      <trkpt lat="47.9073" lon="6.92669">
        <ele>1174.8960658887</ele>
        <time>2025-05-30T07:52:04.000Z</time>
      </trkpt>
      <trkpt lat="47.90735" lon="6.92675">
        <ele>1174.5917577356</ele>
        <time>2025-05-30T07:52:09.000Z</time>
      </trkpt>
      <trkpt lat="47.90739" lon="6.92679">
        <ele>1174.4958188284</ele>
        <time>2025-05-30T07:52:12.000Z</time>
      </trkpt>
      <trkpt lat="47.90744" lon="6.9268">
        <ele>1174.7997629228</ele>
        <time>2025-05-30T07:52:14.000Z</time>
      </trkpt>
      <trkpt lat="47.9075" lon="6.9268">
        <ele>1175.3433357628</ele>
        <time>2025-05-30T07:52:18.000Z</time>
      </trkpt>
      <trkpt lat="47.90754" lon="6.92683">
        <ele>1175.3909268702</ele>
        <time>2025-05-30T07:52:22.000Z</time>
      </trkpt>
      <trkpt lat="47.9076" lon="6.92682">
        <ele>1176.0330784275</ele>
        <time>2025-05-30T07:52:27.000Z</time>
      </trkpt>
      <trkpt lat="47.90765" lon="6.92685">
        <ele>1176.28181583</ele>
        <time>2025-05-30T07:52:30.000Z</time>
      </trkpt>
      <trkpt lat="47.90779" lon="6.92693">
        <ele>1176.9979501254</ele>
        <time>2025-05-30T07:52:42.000Z</time>
      </trkpt>
      <trkpt lat="47.90788" lon="6.92691">
        <ele>1177.9866914233</ele>
        <time>2025-05-30T07:52:52.000Z</time>
      </trkpt>
      <trkpt lat="47.90794" lon="6.92692">
        <ele>1178.3135918767</ele>
        <time>2025-05-30T07:52:58.000Z</time>
      </trkpt>
      <trkpt lat="47.90797" lon="6.92696">
        <ele>1178.1878640615</ele>
        <time>2025-05-30T07:53:02.000Z</time>
      </trkpt>
      <trkpt lat="47.90814" lon="6.92703">
        <ele>1179.3549284682</ele>
        <time>2025-05-30T07:53:18.000Z</time>
      </trkpt>
      <trkpt lat="47.90819" lon="6.92702">
        <ele>1179.810047554</ele>
        <time>2025-05-30T07:53:22.000Z</time>
      </trkpt>
      <trkpt lat="47.90828" lon="6.92707">
        <ele>1180.7256167739</ele>
        <time>2025-05-30T07:53:30.000Z</time>
      </trkpt>
      <trkpt lat="47.90845" lon="6.92715">
        <ele>1183.179726899</ele>
        <time>2025-05-30T07:53:48.000Z</time>
      </trkpt>
      <trkpt lat="47.90855" lon="6.92727">
        <ele>1184.7749340733</ele>
        <time>2025-05-30T07:54:00.000Z</time>
      </trkpt>
      <trkpt lat="47.90861" lon="6.92736">
        <ele>1185.7758763041</ele>
        <time>2025-05-30T07:54:10.000Z</time>
      </trkpt>
      <trkpt lat="47.90867" lon="6.92735">
        <ele>1187.0234525103</ele>
        <time>2025-05-30T07:54:22.000Z</time>
      </trkpt>
      <trkpt lat="47.90868" lon="6.92747">
        <ele>1187.5010705534</ele>
        <time>2025-05-30T07:54:32.000Z</time>
      </trkpt>
      <trkpt lat="47.90878" lon="6.92746">
        <ele>1189.3611547115</ele>
        <time>2025-05-30T07:54:47.000Z</time>
      </trkpt>
      <trkpt lat="47.90883" lon="6.92757">
        <ele>1190.5247002194</ele>
        <time>2025-05-30T07:55:00.000Z</time>
      </trkpt>
      <trkpt lat="47.90887" lon="6.92763">
        <ele>1191.5321319959</ele>
        <time>2025-05-30T07:55:05.000Z</time>
      </trkpt>
      <trkpt lat="47.90893" lon="6.92767">
        <ele>1193.0326744633</ele>
        <time>2025-05-30T07:55:11.000Z</time>
      </trkpt>
      <trkpt lat="47.90899" lon="6.92769">
        <ele>1194.4768159686</ele>
        <time>2025-05-30T07:55:15.000Z</time>
      </trkpt>
      <trkpt lat="47.90902" lon="6.92775">
        <ele>1195.4686937763</ele>
        <time>2025-05-30T07:55:19.000Z</time>
      </trkpt>
      <trkpt lat="47.90907" lon="6.92788">
        <ele>1197.0080468266</ele>
        <time>2025-05-30T07:55:29.000Z</time>
      </trkpt>
      <trkpt lat="47.90908" lon="6.92796">
        <ele>1197.4013724581</ele>
        <time>2025-05-30T07:55:34.000Z</time>
      </trkpt>
      <trkpt lat="47.90912" lon="6.928">
        <ele>1198.5888039814</ele>
        <time>2025-05-30T07:55:38.000Z</time>
      </trkpt>
      <trkpt lat="47.90909" lon="6.92809">
        <ele>1197.84585826</ele>
        <time>2025-05-30T07:55:44.000Z</time>
      </trkpt>
      <trkpt lat="47.90924" lon="6.92847">
        <ele>1199.3782165081</ele>
        <time>2025-05-30T07:56:11.000Z</time>
      </trkpt>
      <trkpt lat="47.90941" lon="6.92848">
        <ele>1204.3708676814</ele>
        <time>2025-05-30T07:56:19.000Z</time>
      </trkpt>
      <trkpt lat="47.90948" lon="6.92842">
        <ele>1206.3934338079</ele>
        <time>2025-05-30T07:56:33.000Z</time>
      </trkpt>
      <trkpt lat="47.90952" lon="6.92847">
        <ele>1206.9403197566</ele>
        <time>2025-05-30T07:56:40.000Z</time>
      </trkpt>
      <trkpt lat="47.90963" lon="6.92846">
        <ele>1209.9756924261</ele>
        <time>2025-05-30T07:56:49.000Z</time>
      </trkpt>
      <trkpt lat="47.90966" lon="6.9286">
        <ele>1209.8864721137</ele>
        <time>2025-05-30T07:57:04.000Z</time>
      </trkpt>
      <trkpt lat="47.9097" lon="6.92865">
        <ele>1210.7658461157</ele>
        <time>2025-05-30T07:57:08.000Z</time>
      </trkpt>
      <trkpt lat="47.90972" lon="6.92873">
        <ele>1211.1413225161</ele>
        <time>2025-05-30T07:57:12.000Z</time>
      </trkpt>
      <trkpt lat="47.90983" lon="6.92875">
        <ele>1213.9018221378</ele>
        <time>2025-05-30T07:57:20.000Z</time>
      </trkpt>
      <trkpt lat="47.90987" lon="6.92881">
        <ele>1214.5502767384</ele>
        <time>2025-05-30T07:57:30.000Z</time>
      </trkpt>
      <trkpt lat="47.90988" lon="6.92884">
        <ele>1214.6764986898</ele>
        <time>2025-05-30T07:57:49.000Z</time>
      </trkpt>
      <trkpt lat="47.90985" lon="6.92893">
        <ele>1213.1483472895</ele>
        <time>2025-05-30T07:57:59.000Z</time>
      </trkpt>
      <trkpt lat="47.90986" lon="6.92882">
        <ele>1214.1787030103</ele>
        <time>2025-05-30T08:47:42.000Z</time>
      </trkpt>
      <trkpt lat="47.90986" lon="6.92882">
        <ele>1214.2705828295</ele>
        <time>2025-05-30T08:47:43.000Z</time>
      </trkpt>
      <trkpt lat="47.9112" lon="6.92818">
        <ele>1195.204533566</ele>
        <time>2025-05-30T08:50:31.000Z</time>
      </trkpt>
      <trkpt lat="47.91142" lon="6.92795">
        <ele>1191.1771861917</ele>
        <time>2025-05-30T08:50:55.000Z</time>
      </trkpt>
      <trkpt lat="47.91147" lon="6.92793">
        <ele>1190.4029606938</ele>
        <time>2025-05-30T08:50:59.000Z</time>
      </trkpt>
      <trkpt lat="47.91181" lon="6.92764">
        <ele>1184.7389669872</ele>
        <time>2025-05-30T08:51:28.000Z</time>
      </trkpt>
      <trkpt lat="47.91185" lon="6.9276">
        <ele>1184.0426800869</ele>
        <time>2025-05-30T08:51:31.000Z</time>
      </trkpt>
      <trkpt lat="47.91189" lon="6.92757">
        <ele>1183.4598314759</ele>
        <time>2025-05-30T08:51:34.000Z</time>
      </trkpt>
      <trkpt lat="47.91195" lon="6.92754">
        <ele>1182.7981404886</ele>
        <time>2025-05-30T08:51:38.000Z</time>
      </trkpt>
      <trkpt lat="47.91199" lon="6.92752">
        <ele>1182.3337679367</ele>
        <time>2025-05-30T08:51:41.000Z</time>
      </trkpt>
      <trkpt lat="47.91208" lon="6.92745">
        <ele>1180.7832806765</ele>
        <time>2025-05-30T08:51:49.000Z</time>
      </trkpt>
      <trkpt lat="47.91227" lon="6.92737">
        <ele>1176.4866500054</ele>
        <time>2025-05-30T08:52:04.000Z</time>
      </trkpt>
      <trkpt lat="47.91237" lon="6.92738">
        <ele>1173.8827038902</ele>
        <time>2025-05-30T08:52:10.000Z</time>
      </trkpt>
      <trkpt lat="47.91249" lon="6.92728">
        <ele>1170.0559939785</ele>
        <time>2025-05-30T08:52:19.000Z</time>
      </trkpt>
      <trkpt lat="47.91265" lon="6.92723">
        <ele>1164.7592934216</ele>
        <time>2025-05-30T08:52:30.000Z</time>
      </trkpt>
      <trkpt lat="47.91269" lon="6.92725">
        <ele>1163.0259531921</ele>
        <time>2025-05-30T08:52:35.000Z</time>
      </trkpt>
      <trkpt lat="47.91274" lon="6.92729">
        <ele>1160.3834507886</ele>
        <time>2025-05-30T08:52:39.000Z</time>
      </trkpt>
      <trkpt lat="47.91281" lon="6.92727">
        <ele>1157.8538860255</ele>
        <time>2025-05-30T08:52:47.000Z</time>
      </trkpt>
      <trkpt lat="47.91283" lon="6.92721">
        <ele>1158.0681309603</ele>
        <time>2025-05-30T08:52:51.000Z</time>
      </trkpt>
      <trkpt lat="47.91293" lon="6.92716">
        <ele>1155.198130378</ele>
        <time>2025-05-30T08:53:00.000Z</time>
      </trkpt>
      <trkpt lat="47.91303" lon="6.92719">
        <ele>1150.3519055193</ele>
        <time>2025-05-30T08:53:07.000Z</time>
      </trkpt>
      <trkpt lat="47.91304" lon="6.92713">
        <ele>1151.0410413916</ele>
        <time>2025-05-30T08:53:10.000Z</time>
      </trkpt>
      <trkpt lat="47.91314" lon="6.92709">
        <ele>1147.1824827327</ele>
        <time>2025-05-30T08:53:20.000Z</time>
      </trkpt>
      <trkpt lat="47.9132" lon="6.92717">
        <ele>1143.101384778</ele>
        <time>2025-05-30T08:53:28.000Z</time>
      </trkpt>
      <trkpt lat="47.91329" lon="6.92705">
        <ele>1141.3736336855</ele>
        <time>2025-05-30T08:53:40.000Z</time>
      </trkpt>
      <trkpt lat="47.91333" lon="6.92701">
        <ele>1140.3632317645</ele>
        <time>2025-05-30T08:53:43.000Z</time>
      </trkpt>
      <trkpt lat="47.91338" lon="6.927">
        <ele>1138.3722090504</ele>
        <time>2025-05-30T08:53:47.000Z</time>
      </trkpt>
      <trkpt lat="47.91343" lon="6.92703">
        <ele>1135.7134495347</ele>
        <time>2025-05-30T08:53:51.000Z</time>
      </trkpt>
      <trkpt lat="47.91345" lon="6.92712">
        <ele>1133.6517123095</ele>
        <time>2025-05-30T08:54:00.000Z</time>
      </trkpt>
      <trkpt lat="47.91353" lon="6.92704">
        <ele>1131.8650381023</ele>
        <time>2025-05-30T08:54:12.000Z</time>
      </trkpt>
      <trkpt lat="47.91358" lon="6.92709">
        <ele>1129.2406039484</ele>
        <time>2025-05-30T08:54:23.000Z</time>
      </trkpt>
      <trkpt lat="47.91363" lon="6.92704">
        <ele>1128.1862984007</ele>
        <time>2025-05-30T08:54:28.000Z</time>
      </trkpt>
      <trkpt lat="47.91377" lon="6.927">
        <ele>1123.9378671514</ele>
        <time>2025-05-30T08:54:39.000Z</time>
      </trkpt>
      <trkpt lat="47.91406" lon="6.92704">
        <ele>1116.8090984676</ele>
        <time>2025-05-30T08:55:01.000Z</time>
      </trkpt>
      <trkpt lat="47.9141" lon="6.92708">
        <ele>1115.9388312994</ele>
        <time>2025-05-30T08:55:05.000Z</time>
      </trkpt>
      <trkpt lat="47.91415" lon="6.92708">
        <ele>1115.247045803</ele>
        <time>2025-05-30T08:55:10.000Z</time>
      </trkpt>
      <trkpt lat="47.91419" lon="6.92706">
        <ele>1114.7215898353</ele>
        <time>2025-05-30T08:55:13.000Z</time>
      </trkpt>
      <trkpt lat="47.9147" lon="6.92714">
        <ele>1109.4660424037</ele>
        <time>2025-05-30T08:55:47.000Z</time>
      </trkpt>
      <trkpt lat="47.91515" lon="6.9272">
        <ele>1106.0594691366</ele>
        <time>2025-05-30T08:56:19.000Z</time>
      </trkpt>
      <trkpt lat="47.9152" lon="6.92723">
        <ele>1105.6477107972</ele>
        <time>2025-05-30T08:56:23.000Z</time>
      </trkpt>
      <trkpt lat="47.9153" lon="6.92724">
        <ele>1104.4511847888</ele>
        <time>2025-05-30T08:56:31.000Z</time>
      </trkpt>
      <trkpt lat="47.91545" lon="6.92717">
        <ele>1102.5717000391</ele>
        <time>2025-05-30T08:56:48.000Z</time>
      </trkpt>
      <trkpt lat="47.91583" lon="6.9271">
        <ele>1094.3696265863</ele>
        <time>2025-05-30T08:57:19.000Z</time>
      </trkpt>
      <trkpt lat="47.91595" lon="6.92708">
        <ele>1091.7155383389</ele>
        <time>2025-05-30T08:57:32.000Z</time>
      </trkpt>
      <trkpt lat="47.91626" lon="6.92694">
        <ele>1085.9160989029</ele>
        <time>2025-05-30T08:57:57.000Z</time>
      </trkpt>
      <trkpt lat="47.9163" lon="6.92694">
        <ele>1085.0111333573</ele>
        <time>2025-05-30T08:58:00.000Z</time>
      </trkpt>
      <trkpt lat="47.91634" lon="6.92689">
        <ele>1084.3940116082</ele>
        <time>2025-05-30T08:58:03.000Z</time>
      </trkpt>
      <trkpt lat="47.91639" lon="6.92692">
        <ele>1083.0727780654</ele>
        <time>2025-05-30T08:58:06.000Z</time>
      </trkpt>
      <trkpt lat="47.9168" lon="6.92672">
        <ele>1073.1844390257</ele>
        <time>2025-05-30T08:58:41.000Z</time>
      </trkpt>
      <trkpt lat="47.91715" lon="6.92657">
        <ele>1065.3150644308</ele>
        <time>2025-05-30T08:59:10.000Z</time>
      </trkpt>
      <trkpt lat="47.91728" lon="6.92645">
        <ele>1062.8676126415</ele>
        <time>2025-05-30T08:59:20.000Z</time>
      </trkpt>
      <trkpt lat="47.91747" lon="6.92621">
        <ele>1058.6515765129</ele>
        <time>2025-05-30T08:59:40.000Z</time>
      </trkpt>
      <trkpt lat="47.9175" lon="6.92617">
        <ele>1057.857261183</ele>
        <time>2025-05-30T08:59:43.000Z</time>
      </trkpt>
      <trkpt lat="47.9176" lon="6.926">
        <ele>1054.7270022911</ele>
        <time>2025-05-30T08:59:55.000Z</time>
      </trkpt>
      <trkpt lat="47.91764" lon="6.92591">
        <ele>1052.795634937</ele>
        <time>2025-05-30T09:00:06.000Z</time>
      </trkpt>
      <trkpt lat="47.9177" lon="6.92579">
        <ele>1049.4540108628</ele>
        <time>2025-05-30T09:00:26.000Z</time>
      </trkpt>
      <trkpt lat="47.91775" lon="6.92572">
        <ele>1047.089735068</ele>
        <time>2025-05-30T09:00:38.000Z</time>
      </trkpt>
      <trkpt lat="47.91778" lon="6.92566">
        <ele>1045.3007044035</ele>
        <time>2025-05-30T09:00:42.000Z</time>
      </trkpt>
      <trkpt lat="47.91781" lon="6.92561">
        <ele>1042.9779301699</ele>
        <time>2025-05-30T09:00:46.000Z</time>
      </trkpt>
      <trkpt lat="47.91777" lon="6.92552">
        <ele>1042.1351240966</ele>
        <time>2025-05-30T09:01:13.000Z</time>
      </trkpt>
      <trkpt lat="47.91772" lon="6.92549">
        <ele>1042.594254002</ele>
        <time>2025-05-30T09:01:16.000Z</time>
      </trkpt>
      <trkpt lat="47.91769" lon="6.92543">
        <ele>1041.5033259056</ele>
        <time>2025-05-30T09:01:18.000Z</time>
      </trkpt>
      <trkpt lat="47.9177" lon="6.92533">
        <ele>1038.5618582732</ele>
        <time>2025-05-30T09:01:24.000Z</time>
      </trkpt>
      <trkpt lat="47.91798" lon="6.92536">
        <ele>1029.7794499126</ele>
        <time>2025-05-30T09:01:53.000Z</time>
      </trkpt>
      <trkpt lat="47.91803" lon="6.92539">
        <ele>1028.4379179248</ele>
        <time>2025-05-30T09:01:57.000Z</time>
      </trkpt>
      <trkpt lat="47.91795" lon="6.92528">
        <ele>1028.9900581603</ele>
        <time>2025-05-30T09:02:08.000Z</time>
      </trkpt>
      <trkpt lat="47.91795" lon="6.92521">
        <ele>1026.83217278</ele>
        <time>2025-05-30T09:02:12.000Z</time>
      </trkpt>
      <trkpt lat="47.91795" lon="6.92506">
        <ele>1021.7778864467</ele>
        <time>2025-05-30T09:02:20.000Z</time>
      </trkpt>
      <trkpt lat="47.91789" lon="6.92472">
        <ele>1012.781880689</ele>
        <time>2025-05-30T09:02:40.000Z</time>
      </trkpt>
      <trkpt lat="47.91768" lon="6.92398">
        <ele>997.61051207136</ele>
        <time>2025-05-30T09:03:13.000Z</time>
      </trkpt>
      <trkpt lat="47.9176" lon="6.92377">
        <ele>994.17798661199</ele>
        <time>2025-05-30T09:03:27.000Z</time>
      </trkpt>
      <trkpt lat="47.91755" lon="6.92363">
        <ele>992.27807794733</ele>
        <time>2025-05-30T09:03:34.000Z</time>
      </trkpt>
      <trkpt lat="47.91748" lon="6.92349">
        <ele>990.64924463207</ele>
        <time>2025-05-30T09:03:40.000Z</time>
      </trkpt>
      <trkpt lat="47.91741" lon="6.92341">
        <ele>989.59818301506</ele>
        <time>2025-05-30T09:03:48.000Z</time>
      </trkpt>
      <trkpt lat="47.91736" lon="6.92342">
        <ele>989.87573313063</ele>
        <time>2025-05-30T09:03:52.000Z</time>
      </trkpt>
      <trkpt lat="47.91725" lon="6.9234">
        <ele>989.94670861243</ele>
        <time>2025-05-30T09:03:58.000Z</time>
      </trkpt>
      <trkpt lat="47.91725" lon="6.92332">
        <ele>988.6897037993</ele>
        <time>2025-05-30T09:04:02.000Z</time>
      </trkpt>
      <trkpt lat="47.91728" lon="6.92324">
        <ele>987.62966989944</ele>
        <time>2025-05-30T09:04:07.000Z</time>
      </trkpt>
      <trkpt lat="47.91737" lon="6.92308">
        <ele>985.69261775608</ele>
        <time>2025-05-30T09:04:17.000Z</time>
      </trkpt>
      <trkpt lat="47.91757" lon="6.92297">
        <ele>984.14550967603</ele>
        <time>2025-05-30T09:04:34.000Z</time>
      </trkpt>
      <trkpt lat="47.91788" lon="6.92294">
        <ele>982.05209800706</ele>
        <time>2025-05-30T09:05:01.000Z</time>
      </trkpt>
      <trkpt lat="47.91794" lon="6.92291">
        <ele>981.25540316383</ele>
        <time>2025-05-30T09:05:05.000Z</time>
      </trkpt>
      <trkpt lat="47.91802" lon="6.92277">
        <ele>979.37389537261</ele>
        <time>2025-05-30T09:05:13.000Z</time>
      </trkpt>
      <trkpt lat="47.91819" lon="6.9222">
        <ele>971.8069004802</ele>
        <time>2025-05-30T09:05:47.000Z</time>
      </trkpt>
      <trkpt lat="47.91836" lon="6.92166">
        <ele>964.08431803826</ele>
        <time>2025-05-30T09:06:21.000Z</time>
      </trkpt>
      <trkpt lat="47.91846" lon="6.92144">
        <ele>960.30543387109</ele>
        <time>2025-05-30T09:06:38.000Z</time>
      </trkpt>
      <trkpt lat="47.91852" lon="6.92137">
        <ele>958.58777218685</ele>
        <time>2025-05-30T09:06:42.000Z</time>
      </trkpt>
      <trkpt lat="47.91861" lon="6.9213">
        <ele>956.37411208353</ele>
        <time>2025-05-30T09:06:50.000Z</time>
      </trkpt>
      <trkpt lat="47.91866" lon="6.92116">
        <ele>953.71133918675</ele>
        <time>2025-05-30T09:07:01.000Z</time>
      </trkpt>
      <trkpt lat="47.91867" lon="6.92101">
        <ele>951.53620419456</ele>
        <time>2025-05-30T09:07:13.000Z</time>
      </trkpt>
      <trkpt lat="47.91865" lon="6.92089">
        <ele>950.41479554543</ele>
        <time>2025-05-30T09:07:20.000Z</time>
      </trkpt>
      <trkpt lat="47.91855" lon="6.92067">
        <ele>948.68731715027</ele>
        <time>2025-05-30T09:07:39.000Z</time>
      </trkpt>
      <trkpt lat="47.91853" lon="6.92059">
        <ele>947.85249874601</ele>
        <time>2025-05-30T09:07:44.000Z</time>
      </trkpt>
      <trkpt lat="47.91854" lon="6.92048">
        <ele>946.27843756912</ele>
        <time>2025-05-30T09:07:51.000Z</time>
      </trkpt>
      <trkpt lat="47.9186" lon="6.92024">
        <ele>941.22326320787</ele>
        <time>2025-05-30T09:08:03.000Z</time>
      </trkpt>
      <trkpt lat="47.91864" lon="6.91983">
        <ele>938.32502913666</ele>
        <time>2025-05-30T09:08:28.000Z</time>
      </trkpt>
      <trkpt lat="47.91866" lon="6.91975">
        <ele>937.54230512983</ele>
        <time>2025-05-30T09:08:32.000Z</time>
      </trkpt>
      <trkpt lat="47.91873" lon="6.91964">
        <ele>935.48785242468</ele>
        <time>2025-05-30T09:08:40.000Z</time>
      </trkpt>
      <trkpt lat="47.91878" lon="6.91962">
        <ele>934.09076504592</ele>
        <time>2025-05-30T09:08:44.000Z</time>
      </trkpt>
      <trkpt lat="47.91903" lon="6.91959">
        <ele>929.29064867907</ele>
        <time>2025-05-30T09:09:04.000Z</time>
      </trkpt>
      <trkpt lat="47.91912" lon="6.91961">
        <ele>927.87813763372</ele>
        <time>2025-05-30T09:09:11.000Z</time>
      </trkpt>
      <trkpt lat="47.91923" lon="6.9196">
        <ele>926.47968444408</ele>
        <time>2025-05-30T09:09:32.000Z</time>
      </trkpt>
      <trkpt lat="47.91953" lon="6.91965">
        <ele>918.70042761585</ele>
        <time>2025-05-30T09:09:54.000Z</time>
      </trkpt>
      <trkpt lat="47.91961" lon="6.91957">
        <ele>916.57833849643</ele>
        <time>2025-05-30T09:10:03.000Z</time>
      </trkpt>
      <trkpt lat="47.91986" lon="6.91926">
        <ele>909.03525424153</ele>
        <time>2025-05-30T09:10:36.000Z</time>
      </trkpt>
      <trkpt lat="47.92005" lon="6.91902">
        <ele>902.86266971198</ele>
        <time>2025-05-30T09:10:56.000Z</time>
      </trkpt>
      <trkpt lat="47.92042" lon="6.91859">
        <ele>900.36498138295</ele>
        <time>2025-05-30T09:11:27.000Z</time>
      </trkpt>
      <trkpt lat="47.92063" lon="6.91836">
        <ele>900.95503155864</ele>
        <time>2025-05-30T09:11:44.000Z</time>
      </trkpt>
      <trkpt lat="47.92067" lon="6.91832">
        <ele>901.25222584289</ele>
        <time>2025-05-30T09:11:49.000Z</time>
      </trkpt>
      <trkpt lat="47.92079" lon="6.91818">
        <ele>902.57328492738</ele>
        <time>2025-05-30T09:12:01.000Z</time>
      </trkpt>
      <trkpt lat="47.92083" lon="6.91814">
        <ele>902.91218885807</ele>
        <time>2025-05-30T09:12:06.000Z</time>
      </trkpt>
      <trkpt lat="47.92086" lon="6.91802">
        <ele>904.57060725481</ele>
        <time>2025-05-30T09:12:15.000Z</time>
      </trkpt>
      <trkpt lat="47.9209" lon="6.91793">
        <ele>905.60621888446</ele>
        <time>2025-05-30T09:12:19.000Z</time>
      </trkpt>
      <trkpt lat="47.92096" lon="6.9179">
        <ele>905.31179937867</ele>
        <time>2025-05-30T09:12:22.000Z</time>
      </trkpt>
      <trkpt lat="47.92104" lon="6.91794">
        <ele>903.38879022598</ele>
        <time>2025-05-30T09:12:25.000Z</time>
      </trkpt>
      <trkpt lat="47.92114" lon="6.91799">
        <ele>901.70543349109</ele>
        <time>2025-05-30T09:12:30.000Z</time>
      </trkpt>
      <trkpt lat="47.92118" lon="6.91801">
        <ele>901.22242897854</ele>
        <time>2025-05-30T09:12:33.000Z</time>
      </trkpt>
      <trkpt lat="47.92145" lon="6.91805">
        <ele>901.07474099212</ele>
        <time>2025-05-30T09:12:57.000Z</time>
      </trkpt>
      <trkpt lat="47.92173" lon="6.91794">
        <ele>902.10904442037</ele>
        <time>2025-05-30T09:13:17.000Z</time>
      </trkpt>
      <trkpt lat="47.92197" lon="6.918">
        <ele>899.54073853657</ele>
        <time>2025-05-30T09:13:31.000Z</time>
      </trkpt>
      <trkpt lat="47.92202" lon="6.918">
        <ele>898.74710410712</ele>
        <time>2025-05-30T09:13:36.000Z</time>
      </trkpt>
      <trkpt lat="47.92208" lon="6.91795">
        <ele>897.80507047505</ele>
        <time>2025-05-30T09:13:38.000Z</time>
      </trkpt>
      <trkpt lat="47.92208" lon="6.91787">
        <ele>897.5560685467</ele>
        <time>2025-05-30T09:13:41.000Z</time>
      </trkpt>
      <trkpt lat="47.92212" lon="6.9178">
        <ele>896.86161905017</ele>
        <time>2025-05-30T09:13:43.000Z</time>
      </trkpt>
      <trkpt lat="47.92215" lon="6.91775">
        <ele>896.25005312576</ele>
        <time>2025-05-30T09:13:47.000Z</time>
      </trkpt>
      <trkpt lat="47.92221" lon="6.9176">
        <ele>895.49932981161</ele>
        <time>2025-05-30T09:14:00.000Z</time>
      </trkpt>
      <trkpt lat="47.9223" lon="6.91747">
        <ele>894.65730621046</ele>
        <time>2025-05-30T09:14:12.000Z</time>
      </trkpt>
      <trkpt lat="47.92239" lon="6.9174">
        <ele>893.95999629109</ele>
        <time>2025-05-30T09:14:22.000Z</time>
      </trkpt>
      <trkpt lat="47.92244" lon="6.91738">
        <ele>893.78395229681</ele>
        <time>2025-05-30T09:14:28.000Z</time>
      </trkpt>
      <trkpt lat="47.9225" lon="6.91737">
        <ele>893.70023359011</ele>
        <time>2025-05-30T09:14:32.000Z</time>
      </trkpt>
      <trkpt lat="47.92264" lon="6.91741">
        <ele>893.83996110719</ele>
        <time>2025-05-30T09:14:43.000Z</time>
      </trkpt>
      <trkpt lat="47.92271" lon="6.91743">
        <ele>894.87261991322</ele>
        <time>2025-05-30T09:14:49.000Z</time>
      </trkpt>
      <trkpt lat="47.92281" lon="6.91737">
        <ele>896.42830029443</ele>
        <time>2025-05-30T09:14:55.000Z</time>
      </trkpt>
      <trkpt lat="47.92295" lon="6.91721">
        <ele>898.6366777163</ele>
        <time>2025-05-30T09:15:18.000Z</time>
      </trkpt>
      <trkpt lat="47.92313" lon="6.91709">
        <ele>901.28399648318</ele>
        <time>2025-05-30T09:15:45.000Z</time>
      </trkpt>
      <trkpt lat="47.92318" lon="6.91707">
        <ele>902.11231696487</ele>
        <time>2025-05-30T09:15:49.000Z</time>
      </trkpt>
      <trkpt lat="47.92323" lon="6.91704">
        <ele>902.6229198942</ele>
        <time>2025-05-30T09:15:58.000Z</time>
      </trkpt>
      <trkpt lat="47.92336" lon="6.91698">
        <ele>904.42170242882</ele>
        <time>2025-05-30T09:16:16.000Z</time>
      </trkpt>
      <trkpt lat="47.92349" lon="6.91686">
        <ele>904.41903377846</ele>
        <time>2025-05-30T09:16:37.000Z</time>
      </trkpt>
      <trkpt lat="47.92364" lon="6.9169">
        <ele>909.67857323759</ele>
        <time>2025-05-30T09:16:46.000Z</time>
      </trkpt>
      <trkpt lat="47.92373" lon="6.91684">
        <ele>909.64129938241</ele>
        <time>2025-05-30T09:16:56.000Z</time>
      </trkpt>
      <trkpt lat="47.92391" lon="6.91689">
        <ele>912.46516635429</ele>
        <time>2025-05-30T09:17:11.000Z</time>
      </trkpt>
      <trkpt lat="47.92399" lon="6.91699">
        <ele>915.67928786236</ele>
        <time>2025-05-30T09:17:28.000Z</time>
      </trkpt>
      <trkpt lat="47.92411" lon="6.91718">
        <ele>921.71808708595</ele>
        <time>2025-05-30T09:17:41.000Z</time>
      </trkpt>
      <trkpt lat="47.92406" lon="6.91738">
        <ele>927.57318747202</ele>
        <time>2025-05-30T09:17:54.000Z</time>
      </trkpt>
      <trkpt lat="47.924" lon="6.91745">
        <ele>929.41242664289</ele>
        <time>2025-05-30T09:18:11.000Z</time>
      </trkpt>
      <trkpt lat="47.92388" lon="6.9175">
        <ele>929.98422963535</ele>
        <time>2025-05-30T09:18:28.000Z</time>
      </trkpt>
      <trkpt lat="47.92381" lon="6.91746">
        <ele>927.35019881979</ele>
        <time>2025-05-30T09:18:33.000Z</time>
      </trkpt>
      <trkpt lat="47.92358" lon="6.91754">
        <ele>922.9310280486</ele>
        <time>2025-05-30T09:18:52.000Z</time>
      </trkpt>
      <trkpt lat="47.92364" lon="6.91752">
        <ele>925.06536749581</ele>
        <time>2025-05-30T09:19:10.000Z</time>
      </trkpt>
      <trkpt lat="47.92368" lon="6.91748">
        <ele>925.22028663628</ele>
        <time>2025-05-30T09:19:18.000Z</time>
      </trkpt>
      <trkpt lat="47.92384" lon="6.91771">
        <ele>935.60683401854</ele>
        <time>2025-05-30T09:19:44.000Z</time>
      </trkpt>
      <trkpt lat="47.92404" lon="6.91781">
        <ele>940.54678097409</ele>
        <time>2025-05-30T09:19:59.000Z</time>
      </trkpt>
      <trkpt lat="47.92409" lon="6.91788">
        <ele>942.69786551058</ele>
        <time>2025-05-30T09:20:03.000Z</time>
      </trkpt>
      <trkpt lat="47.92421" lon="6.91805">
        <ele>947.4355311382</ele>
        <time>2025-05-30T09:20:19.000Z</time>
      </trkpt>
      <trkpt lat="47.92437" lon="6.91823">
        <ele>952.0055561132</ele>
        <time>2025-05-30T09:20:42.000Z</time>
      </trkpt>
      <trkpt lat="47.92472" lon="6.91842">
        <ele>954.66112989579</ele>
        <time>2025-05-30T09:21:28.000Z</time>
      </trkpt>
      <trkpt lat="47.92482" lon="6.91869">
        <ele>961.94929123503</ele>
        <time>2025-05-30T09:21:57.000Z</time>
      </trkpt>
      <trkpt lat="47.92488" lon="6.91893">
        <ele>968.98695058319</ele>
        <time>2025-05-30T09:22:07.000Z</time>
      </trkpt>
      <trkpt lat="47.92524" lon="6.91928">
        <ele>978.37991575325</ele>
        <time>2025-05-30T09:22:37.000Z</time>
      </trkpt>
      <trkpt lat="47.92547" lon="6.91956">
        <ele>984.16142142942</ele>
        <time>2025-05-30T09:23:22.000Z</time>
      </trkpt>
      <trkpt lat="47.92522" lon="6.91959">
        <ele>985.53088730778</ele>
        <time>2025-05-30T09:23:43.000Z</time>
      </trkpt>
      <trkpt lat="47.92516" lon="6.91947">
        <ele>983.27097885441</ele>
        <time>2025-05-30T09:23:54.000Z</time>
      </trkpt>
      <trkpt lat="47.925" lon="6.91947">
        <ele>983.6707840505</ele>
        <time>2025-05-30T09:24:07.000Z</time>
      </trkpt>
      <trkpt lat="47.92481" lon="6.91962">
        <ele>984.6935009539</ele>
        <time>2025-05-30T09:24:25.000Z</time>
      </trkpt>
      <trkpt lat="47.92491" lon="6.91982">
        <ele>987.42808666324</ele>
        <time>2025-05-30T09:25:03.000Z</time>
      </trkpt>
      <trkpt lat="47.92501" lon="6.91996">
        <ele>990.25663102821</ele>
        <time>2025-05-30T09:25:11.000Z</time>
      </trkpt>
      <trkpt lat="47.92513" lon="6.91998">
        <ele>992.44320261663</ele>
        <time>2025-05-30T09:25:17.000Z</time>
      </trkpt>
      <trkpt lat="47.92523" lon="6.92001">
        <ele>993.2000338674</ele>
        <time>2025-05-30T09:25:34.000Z</time>
      </trkpt>
      <trkpt lat="47.92551" lon="6.92018">
        <ele>996.43227290282</ele>
        <time>2025-05-30T09:26:05.000Z</time>
      </trkpt>
      <trkpt lat="47.92563" lon="6.92007">
        <ele>992.85182162616</ele>
        <time>2025-05-30T09:26:12.000Z</time>
      </trkpt>
      <trkpt lat="47.92565" lon="6.92037">
        <ele>1000.6659423205</ele>
        <time>2025-05-30T09:26:32.000Z</time>
      </trkpt>
      <trkpt lat="47.92595" lon="6.92034">
        <ele>999.67153191757</ele>
        <time>2025-05-30T09:26:50.000Z</time>
      </trkpt>
      <trkpt lat="47.926" lon="6.92051">
        <ele>1004.9974408379</ele>
        <time>2025-05-30T09:27:03.000Z</time>
      </trkpt>
      <trkpt lat="47.92584" lon="6.92064">
        <ele>1009.2456624565</ele>
        <time>2025-05-30T09:27:40.000Z</time>
      </trkpt>
      <trkpt lat="47.92564" lon="6.92073">
        <ele>1011.0909893236</ele>
        <time>2025-05-30T09:28:01.000Z</time>
      </trkpt>
      <trkpt lat="47.92569" lon="6.92072">
        <ele>1011.1698536035</ele>
        <time>2025-05-30T09:28:23.000Z</time>
      </trkpt>
      <trkpt lat="47.92581" lon="6.92077">
        <ele>1014.2403725981</ele>
        <time>2025-05-30T09:28:32.000Z</time>
      </trkpt>
      <trkpt lat="47.9261" lon="6.92092">
        <ele>1022.8204087029</ele>
        <time>2025-05-30T09:29:09.000Z</time>
      </trkpt>
      <trkpt lat="47.92623" lon="6.92103">
        <ele>1026.2663088217</ele>
        <time>2025-05-30T09:29:28.000Z</time>
      </trkpt>
      <trkpt lat="47.92633" lon="6.92121">
        <ele>1029.7995123345</ele>
        <time>2025-05-30T09:29:35.000Z</time>
      </trkpt>
      <trkpt lat="47.92663" lon="6.92136">
        <ele>1032.9268161993</ele>
        <time>2025-05-30T09:30:15.000Z</time>
      </trkpt>
      <trkpt lat="47.92627" lon="6.9215">
        <ele>1037.2657548268</ele>
        <time>2025-05-30T09:31:05.000Z</time>
      </trkpt>
      <trkpt lat="47.92605" lon="6.92168">
        <ele>1036.5671567958</ele>
        <time>2025-05-30T09:31:22.000Z</time>
      </trkpt>
      <trkpt lat="47.92593" lon="6.92172">
        <ele>1032.8946249334</ele>
        <time>2025-05-30T09:31:37.000Z</time>
      </trkpt>
      <trkpt lat="47.92585" lon="6.92183">
        <ele>1030.187542347</ele>
        <time>2025-05-30T09:31:55.000Z</time>
      </trkpt>
      <trkpt lat="47.92571" lon="6.92205">
        <ele>1027.9729213665</ele>
        <time>2025-05-30T09:32:28.000Z</time>
      </trkpt>
      <trkpt lat="47.92572" lon="6.92216">
        <ele>1030.4355845126</ele>
        <time>2025-05-30T09:32:36.000Z</time>
      </trkpt>
      <trkpt lat="47.92574" lon="6.92225">
        <ele>1033.199300362</ele>
        <time>2025-05-30T09:32:42.000Z</time>
      </trkpt>
      <trkpt lat="47.92579" lon="6.92231">
        <ele>1037.2650371976</ele>
        <time>2025-05-30T09:32:47.000Z</time>
      </trkpt>
      <trkpt lat="47.92584" lon="6.9223">
        <ele>1039.3927449085</ele>
        <time>2025-05-30T09:32:53.000Z</time>
      </trkpt>
      <trkpt lat="47.92588" lon="6.92228">
        <ele>1040.6972294486</ele>
        <time>2025-05-30T09:32:57.000Z</time>
      </trkpt>
      <trkpt lat="47.92594" lon="6.92231">
        <ele>1044.0374882043</ele>
        <time>2025-05-30T09:33:01.000Z</time>
      </trkpt>
      <trkpt lat="47.926" lon="6.92234">
        <ele>1047.2355724514</ele>
        <time>2025-05-30T09:33:10.000Z</time>
      </trkpt>
      <trkpt lat="47.92617" lon="6.92232">
        <ele>1051.1275586622</ele>
        <time>2025-05-30T09:33:21.000Z</time>
      </trkpt>
      <trkpt lat="47.92623" lon="6.92237">
        <ele>1052.6952719601</ele>
        <time>2025-05-30T09:33:26.000Z</time>
      </trkpt>
      <trkpt lat="47.92635" lon="6.92238">
        <ele>1054.5195505101</ele>
        <time>2025-05-30T09:33:38.000Z</time>
      </trkpt>
      <trkpt lat="47.92639" lon="6.9225">
        <ele>1056.5368806173</ele>
        <time>2025-05-30T09:33:53.000Z</time>
      </trkpt>
      <trkpt lat="47.92653" lon="6.92266">
        <ele>1060.921316937</ele>
        <time>2025-05-30T09:34:16.000Z</time>
      </trkpt>
      <trkpt lat="47.92658" lon="6.92275">
        <ele>1063.1837305004</ele>
        <time>2025-05-30T09:34:30.000Z</time>
      </trkpt>
      <trkpt lat="47.92667" lon="6.92277">
        <ele>1065.8661233492</ele>
        <time>2025-05-30T09:34:41.000Z</time>
      </trkpt>
      <trkpt lat="47.92668" lon="6.92296">
        <ele>1067.581507719</ele>
        <time>2025-05-30T09:35:00.000Z</time>
      </trkpt>
      <trkpt lat="47.9267" lon="6.92306">
        <ele>1069.013971939</ele>
        <time>2025-05-30T09:35:11.000Z</time>
      </trkpt>
      <trkpt lat="47.92669" lon="6.92314">
        <ele>1069.0241937525</ele>
        <time>2025-05-30T09:35:15.000Z</time>
      </trkpt>
      <trkpt lat="47.92667" lon="6.92322">
        <ele>1068.4875197444</ele>
        <time>2025-05-30T09:35:19.000Z</time>
      </trkpt>
      <trkpt lat="47.92672" lon="6.9233">
        <ele>1070.4287064351</ele>
        <time>2025-05-30T09:35:33.000Z</time>
      </trkpt>
      <trkpt lat="47.92676" lon="6.92331">
        <ele>1072.2980799511</ele>
        <time>2025-05-30T09:35:46.000Z</time>
      </trkpt>
      <trkpt lat="47.92683" lon="6.92327">
        <ele>1074.9468814318</ele>
        <time>2025-05-30T09:35:59.000Z</time>
      </trkpt>
      <trkpt lat="47.92693" lon="6.92321">
        <ele>1078.1299065829</ele>
        <time>2025-05-30T09:36:17.000Z</time>
      </trkpt>
      <trkpt lat="47.92703" lon="6.92327">
        <ele>1082.4401629253</ele>
        <time>2025-05-30T09:36:23.000Z</time>
      </trkpt>
      <trkpt lat="47.92704" lon="6.92332">
        <ele>1083.3489709326</ele>
        <time>2025-05-30T09:36:28.000Z</time>
      </trkpt>
      <trkpt lat="47.92711" lon="6.92337">
        <ele>1085.7536647385</ele>
        <time>2025-05-30T09:36:40.000Z</time>
      </trkpt>
      <trkpt lat="47.92712" lon="6.92347">
        <ele>1086.6848834662</ele>
        <time>2025-05-30T09:36:49.000Z</time>
      </trkpt>
      <trkpt lat="47.92732" lon="6.9237">
        <ele>1093.777091479</ele>
        <time>2025-05-30T09:37:19.000Z</time>
      </trkpt>
      <trkpt lat="47.9274" lon="6.92376">
        <ele>1095.8914624312</ele>
        <time>2025-05-30T09:37:33.000Z</time>
      </trkpt>
      <trkpt lat="47.92746" lon="6.92381">
        <ele>1097.8422785562</ele>
        <time>2025-05-30T09:37:51.000Z</time>
      </trkpt>
      <trkpt lat="47.9275" lon="6.9239">
        <ele>1099.5386220762</ele>
        <time>2025-05-30T09:38:03.000Z</time>
      </trkpt>
      <trkpt lat="47.92761" lon="6.92396">
        <ele>1102.4901304798</ele>
        <time>2025-05-30T09:38:17.000Z</time>
      </trkpt>
      <trkpt lat="47.92773" lon="6.92413">
        <ele>1105.4291083443</ele>
        <time>2025-05-30T09:38:34.000Z</time>
      </trkpt>
      <trkpt lat="47.92779" lon="6.92419">
        <ele>1106.2922125837</ele>
        <time>2025-05-30T09:38:45.000Z</time>
      </trkpt>
      <trkpt lat="47.92782" lon="6.92426">
        <ele>1106.8848657068</ele>
        <time>2025-05-30T09:38:49.000Z</time>
      </trkpt>
      <trkpt lat="47.92793" lon="6.92426">
        <ele>1108.8886353654</ele>
        <time>2025-05-30T09:39:02.000Z</time>
      </trkpt>
      <trkpt lat="47.92816" lon="6.92443">
        <ele>1113.1668945882</ele>
        <time>2025-05-30T09:39:28.000Z</time>
      </trkpt>
      <trkpt lat="47.92823" lon="6.92442">
        <ele>1115.1706837884</ele>
        <time>2025-05-30T09:39:32.000Z</time>
      </trkpt>
      <trkpt lat="47.92827" lon="6.92442">
        <ele>1116.5010099883</ele>
        <time>2025-05-30T09:39:36.000Z</time>
      </trkpt>
      <trkpt lat="47.92832" lon="6.92444">
        <ele>1117.7524057692</ele>
        <time>2025-05-30T09:39:40.000Z</time>
      </trkpt>
      <trkpt lat="47.92831" lon="6.92452">
        <ele>1117.3390571099</ele>
        <time>2025-05-30T09:39:48.000Z</time>
      </trkpt>
      <trkpt lat="47.92836" lon="6.92454">
        <ele>1118.5368602171</ele>
        <time>2025-05-30T09:39:53.000Z</time>
      </trkpt>
      <trkpt lat="47.92851" lon="6.92457">
        <ele>1122.6219960452</ele>
        <time>2025-05-30T09:40:05.000Z</time>
      </trkpt>
      <trkpt lat="47.92855" lon="6.92454">
        <ele>1123.6899577432</ele>
        <time>2025-05-30T09:40:10.000Z</time>
      </trkpt>
      <trkpt lat="47.92883" lon="6.92461">
        <ele>1129.4827847797</ele>
        <time>2025-05-30T09:40:39.000Z</time>
      </trkpt>
      <trkpt lat="47.92889" lon="6.92468">
        <ele>1130.7344743762</ele>
        <time>2025-05-30T09:40:45.000Z</time>
      </trkpt>
      <trkpt lat="47.92894" lon="6.92471">
        <ele>1131.5475026919</ele>
        <time>2025-05-30T09:40:51.000Z</time>
      </trkpt>
      <trkpt lat="47.92901" lon="6.92479">
        <ele>1132.1272189153</ele>
        <time>2025-05-30T09:40:59.000Z</time>
      </trkpt>
      <trkpt lat="47.92931" lon="6.92503">
        <ele>1136.7525758054</ele>
        <time>2025-05-30T09:41:39.000Z</time>
      </trkpt>
      <trkpt lat="47.92938" lon="6.92502">
        <ele>1138.1673789173</ele>
        <time>2025-05-30T09:41:45.000Z</time>
      </trkpt>
      <trkpt lat="47.92967" lon="6.92523">
        <ele>1142.424299701</ele>
        <time>2025-05-30T09:42:12.000Z</time>
      </trkpt>
      <trkpt lat="47.92975" lon="6.92531">
        <ele>1143.7021828156</ele>
        <time>2025-05-30T09:42:29.000Z</time>
      </trkpt>
      <trkpt lat="47.93003" lon="6.92549">
        <ele>1148.3741452825</ele>
        <time>2025-05-30T09:43:08.000Z</time>
      </trkpt>
      <trkpt lat="47.93009" lon="6.92556">
        <ele>1149.5023431257</ele>
        <time>2025-05-30T09:43:17.000Z</time>
      </trkpt>
      <trkpt lat="47.93029" lon="6.92562">
        <ele>1152.7725260219</ele>
        <time>2025-05-30T09:43:32.000Z</time>
      </trkpt>
      <trkpt lat="47.93032" lon="6.92566">
        <ele>1153.318089935</ele>
        <time>2025-05-30T09:43:37.000Z</time>
      </trkpt>
      <trkpt lat="47.93037" lon="6.92565">
        <ele>1153.9173578947</ele>
        <time>2025-05-30T09:43:40.000Z</time>
      </trkpt>
      <trkpt lat="47.93045" lon="6.92573">
        <ele>1154.9834489683</ele>
        <time>2025-05-30T09:43:50.000Z</time>
      </trkpt>
      <trkpt lat="47.93049" lon="6.92579">
        <ele>1155.477582679</ele>
        <time>2025-05-30T09:43:55.000Z</time>
      </trkpt>
      <trkpt lat="47.93059" lon="6.92583">
        <ele>1156.3324062964</ele>
        <time>2025-05-30T09:44:03.000Z</time>
      </trkpt>
      <trkpt lat="47.93067" lon="6.92581">
        <ele>1156.375149587</ele>
        <time>2025-05-30T09:44:18.000Z</time>
      </trkpt>
      <trkpt lat="47.93073" lon="6.92581">
        <ele>1155.6302061187</ele>
        <time>2025-05-30T09:44:24.000Z</time>
      </trkpt>
      <trkpt lat="47.93078" lon="6.92588">
        <ele>1155.2092908915</ele>
        <time>2025-05-30T09:44:29.000Z</time>
      </trkpt>
      <trkpt lat="47.93082" lon="6.92585">
        <ele>1154.8010652168</ele>
        <time>2025-05-30T09:45:20.000Z</time>
      </trkpt>
      <trkpt lat="47.93079" lon="6.92579">
        <ele>1154.9774199491</ele>
        <time>2025-05-30T09:45:26.000Z</time>
      </trkpt>
      <trkpt lat="47.93083" lon="6.92572">
        <ele>1154.4189018386</ele>
        <time>2025-05-30T09:45:31.000Z</time>
      </trkpt>
      <trkpt lat="47.93094" lon="6.9256">
        <ele>1151.7063529717</ele>
        <time>2025-05-30T09:45:47.000Z</time>
      </trkpt>
      <trkpt lat="47.93093" lon="6.9255">
        <ele>1151.2935563643</ele>
        <time>2025-05-30T09:45:54.000Z</time>
      </trkpt>
      <trkpt lat="47.93094" lon="6.92542">
        <ele>1150.6709019466</ele>
        <time>2025-05-30T09:45:59.000Z</time>
      </trkpt>
      <trkpt lat="47.93117" lon="6.92493">
        <ele>1146.1417862855</ele>
        <time>2025-05-30T09:46:32.000Z</time>
      </trkpt>
      <trkpt lat="47.93118" lon="6.92487">
        <ele>1145.7775597174</ele>
        <time>2025-05-30T09:46:35.000Z</time>
      </trkpt>
      <trkpt lat="47.93136" lon="6.92459">
        <ele>1142.5011807408</ele>
        <time>2025-05-30T09:46:58.000Z</time>
      </trkpt>
      <trkpt lat="47.93152" lon="6.92443">
        <ele>1140.9289518527</ele>
        <time>2025-05-30T09:47:10.000Z</time>
      </trkpt>
      <trkpt lat="47.93163" lon="6.92438">
        <ele>1140.1178165875</ele>
        <time>2025-05-30T09:47:21.000Z</time>
      </trkpt>
      <trkpt lat="47.93168" lon="6.92434">
        <ele>1140.0615476942</ele>
        <time>2025-05-30T09:47:25.000Z</time>
      </trkpt>
      <trkpt lat="47.9318" lon="6.92426">
        <ele>1139.6482532614</ele>
        <time>2025-05-30T09:47:38.000Z</time>
      </trkpt>
      <trkpt lat="47.93198" lon="6.92417">
        <ele>1138.9392645738</ele>
        <time>2025-05-30T09:47:53.000Z</time>
      </trkpt>
      <trkpt lat="47.93207" lon="6.92412">
        <ele>1139.0051936049</ele>
        <time>2025-05-30T09:48:00.000Z</time>
      </trkpt>
      <trkpt lat="47.93217" lon="6.92406">
        <ele>1139.8656982925</ele>
        <time>2025-05-30T09:48:08.000Z</time>
      </trkpt>
      <trkpt lat="47.9322" lon="6.92401">
        <ele>1140.9971835343</ele>
        <time>2025-05-30T09:48:11.000Z</time>
      </trkpt>
      <trkpt lat="47.93225" lon="6.92399">
        <ele>1141.7998047373</ele>
        <time>2025-05-30T09:48:15.000Z</time>
      </trkpt>
      <trkpt lat="47.9323" lon="6.92398">
        <ele>1142.3347711001</ele>
        <time>2025-05-30T09:48:19.000Z</time>
      </trkpt>
      <trkpt lat="47.93234" lon="6.92399">
        <ele>1142.3186238682</ele>
        <time>2025-05-30T09:48:23.000Z</time>
      </trkpt>
      <trkpt lat="47.9324" lon="6.92398">
        <ele>1142.6607105646</ele>
        <time>2025-05-30T09:48:28.000Z</time>
      </trkpt>
      <trkpt lat="47.93244" lon="6.92394">
        <ele>1143.3432234668</ele>
        <time>2025-05-30T09:48:33.000Z</time>
      </trkpt>
      <trkpt lat="47.9325" lon="6.92391">
        <ele>1143.9548927997</ele>
        <time>2025-05-30T09:48:36.000Z</time>
      </trkpt>
      <trkpt lat="47.93258" lon="6.92387">
        <ele>1144.3234375536</ele>
        <time>2025-05-30T09:48:46.000Z</time>
      </trkpt>
      <trkpt lat="47.93268" lon="6.92391">
        <ele>1143.3445466239</ele>
        <time>2025-05-30T09:48:53.000Z</time>
      </trkpt>
      <trkpt lat="47.93273" lon="6.92395">
        <ele>1142.873083725</ele>
        <time>2025-05-30T09:48:58.000Z</time>
      </trkpt>
      <trkpt lat="47.93287" lon="6.92399">
        <ele>1142.2237581209</ele>
        <time>2025-05-30T09:49:06.000Z</time>
      </trkpt>
      <trkpt lat="47.93304" lon="6.9241">
        <ele>1141.068582955</ele>
        <time>2025-05-30T09:49:20.000Z</time>
      </trkpt>
      <trkpt lat="47.9331" lon="6.9241">
        <ele>1141.0614560418</ele>
        <time>2025-05-30T09:49:25.000Z</time>
      </trkpt>
      <trkpt lat="47.93343" lon="6.92432">
        <ele>1139.2665036316</ele>
        <time>2025-05-30T09:49:52.000Z</time>
      </trkpt>
      <trkpt lat="47.93347" lon="6.92438">
        <ele>1138.5036048953</ele>
        <time>2025-05-30T09:49:57.000Z</time>
      </trkpt>
      <trkpt lat="47.93352" lon="6.92442">
        <ele>1137.5057099553</ele>
        <time>2025-05-30T09:50:02.000Z</time>
      </trkpt>
      <trkpt lat="47.93356" lon="6.92445">
        <ele>1136.8862298971</ele>
        <time>2025-05-30T09:50:05.000Z</time>
      </trkpt>
      <trkpt lat="47.93361" lon="6.92449">
        <ele>1135.8842659148</ele>
        <time>2025-05-30T09:50:09.000Z</time>
      </trkpt>
      <trkpt lat="47.93365" lon="6.92452">
        <ele>1135.3717079992</ele>
        <time>2025-05-30T09:50:12.000Z</time>
      </trkpt>
      <trkpt lat="47.9337" lon="6.92455">
        <ele>1134.8319060425</ele>
        <time>2025-05-30T09:50:15.000Z</time>
      </trkpt>
      <trkpt lat="47.93387" lon="6.92474">
        <ele>1132.8303736105</ele>
        <time>2025-05-30T09:50:33.000Z</time>
      </trkpt>
      <trkpt lat="47.93391" lon="6.92481">
        <ele>1132.5605402291</ele>
        <time>2025-05-30T09:50:39.000Z</time>
      </trkpt>
      <trkpt lat="47.9341" lon="6.92491">
        <ele>1134.4013143643</ele>
        <time>2025-05-30T09:51:01.000Z</time>
      </trkpt>
      <trkpt lat="47.93414" lon="6.92498">
        <ele>1134.6339906497</ele>
        <time>2025-05-30T09:51:12.000Z</time>
      </trkpt>
      <trkpt lat="47.93424" lon="6.92499">
        <ele>1136.4692720917</ele>
        <time>2025-05-30T09:51:25.000Z</time>
      </trkpt>
      <trkpt lat="47.93429" lon="6.92497">
        <ele>1137.0278706154</ele>
        <time>2025-05-30T09:51:28.000Z</time>
      </trkpt>
      <trkpt lat="47.93445" lon="6.92499">
        <ele>1138.2975009158</ele>
        <time>2025-05-30T09:51:43.000Z</time>
      </trkpt>
      <trkpt lat="47.9345" lon="6.92503">
        <ele>1138.4430973859</ele>
        <time>2025-05-30T09:51:50.000Z</time>
      </trkpt>
      <trkpt lat="47.93457" lon="6.92502">
        <ele>1138.8806322162</ele>
        <time>2025-05-30T09:51:57.000Z</time>
      </trkpt>
      <trkpt lat="47.93464" lon="6.92498">
        <ele>1139.4692639672</ele>
        <time>2025-05-30T09:52:04.000Z</time>
      </trkpt>
      <trkpt lat="47.93478" lon="6.9249">
        <ele>1140.2267065227</ele>
        <time>2025-05-30T09:52:16.000Z</time>
      </trkpt>
      <trkpt lat="47.93487" lon="6.92492">
        <ele>1140.4858202219</ele>
        <time>2025-05-30T09:52:24.000Z</time>
      </trkpt>
      <trkpt lat="47.93492" lon="6.92489">
        <ele>1140.719502705</ele>
        <time>2025-05-30T09:52:30.000Z</time>
      </trkpt>
      <trkpt lat="47.93501" lon="6.92484">
        <ele>1141.0828984562</ele>
        <time>2025-05-30T09:52:38.000Z</time>
      </trkpt>
      <trkpt lat="47.93506" lon="6.92485">
        <ele>1141.1191297202</ele>
        <time>2025-05-30T09:52:43.000Z</time>
      </trkpt>
      <trkpt lat="47.9351" lon="6.92483">
        <ele>1141.0373802296</ele>
        <time>2025-05-30T09:52:47.000Z</time>
      </trkpt>
      <trkpt lat="47.93521" lon="6.92481">
        <ele>1140.5198227553</ele>
        <time>2025-05-30T09:52:56.000Z</time>
      </trkpt>
      <trkpt lat="47.93525" lon="6.92478">
        <ele>1140.3572917537</ele>
        <time>2025-05-30T09:53:00.000Z</time>
      </trkpt>
      <trkpt lat="47.9353" lon="6.92478">
        <ele>1140.0425438303</ele>
        <time>2025-05-30T09:53:04.000Z</time>
      </trkpt>
      <trkpt lat="47.93541" lon="6.92476">
        <ele>1139.4518055328</ele>
        <time>2025-05-30T09:53:12.000Z</time>
      </trkpt>
      <trkpt lat="47.93545" lon="6.92477">
        <ele>1139.1451798831</ele>
        <time>2025-05-30T09:53:15.000Z</time>
      </trkpt>
      <trkpt lat="47.93562" lon="6.9248">
        <ele>1138.1163431959</ele>
        <time>2025-05-30T09:53:28.000Z</time>
      </trkpt>
      <trkpt lat="47.93566" lon="6.92481">
        <ele>1137.8750380911</ele>
        <time>2025-05-30T09:53:32.000Z</time>
      </trkpt>
      <trkpt lat="47.93571" lon="6.92476">
        <ele>1137.7766759196</ele>
        <time>2025-05-30T09:53:36.000Z</time>
      </trkpt>
      <trkpt lat="47.93575" lon="6.92473">
        <ele>1137.7365769731</ele>
        <time>2025-05-30T09:53:39.000Z</time>
      </trkpt>
      <trkpt lat="47.9358" lon="6.92473">
        <ele>1137.5767318609</ele>
        <time>2025-05-30T09:53:46.000Z</time>
      </trkpt>
      <trkpt lat="47.93585" lon="6.9247">
        <ele>1137.5119383341</ele>
        <time>2025-05-30T09:53:49.000Z</time>
      </trkpt>
      <trkpt lat="47.93589" lon="6.92466">
        <ele>1137.3950900175</ele>
        <time>2025-05-30T09:53:53.000Z</time>
      </trkpt>
      <trkpt lat="47.93618" lon="6.92461">
        <ele>1134.8876108619</ele>
        <time>2025-05-30T09:54:16.000Z</time>
      </trkpt>
      <trkpt lat="47.93622" lon="6.92461">
        <ele>1134.4418139662</ele>
        <time>2025-05-30T09:54:19.000Z</time>
      </trkpt>
      <trkpt lat="47.93627" lon="6.92457">
        <ele>1133.9066710611</ele>
        <time>2025-05-30T09:54:25.000Z</time>
      </trkpt>
      <trkpt lat="47.93632" lon="6.92437">
        <ele>1132.7681899762</ele>
        <time>2025-05-30T09:54:39.000Z</time>
      </trkpt>
      <trkpt lat="47.93636" lon="6.92432">
        <ele>1131.9630609899</ele>
        <time>2025-05-30T09:54:45.000Z</time>
      </trkpt>
      <trkpt lat="47.93637" lon="6.92424">
        <ele>1131.5132739192</ele>
        <time>2025-05-30T09:54:49.000Z</time>
      </trkpt>
      <trkpt lat="47.93649" lon="6.92395">
        <ele>1127.8871185391</ele>
        <time>2025-05-30T09:55:12.000Z</time>
      </trkpt>
      <trkpt lat="47.93664" lon="6.92374">
        <ele>1123.9137472991</ele>
        <time>2025-05-30T09:55:28.000Z</time>
      </trkpt>
      <trkpt lat="47.9366" lon="6.92359">
        <ele>1123.07151823</ele>
        <time>2025-05-30T09:55:47.000Z</time>
      </trkpt>
      <trkpt lat="47.93655" lon="6.92352">
        <ele>1123.0138394337</ele>
        <time>2025-05-30T09:55:55.000Z</time>
      </trkpt>
      <trkpt lat="47.93656" lon="6.9234">
        <ele>1121.4689002571</ele>
        <time>2025-05-30T09:56:07.000Z</time>
      </trkpt>
      <trkpt lat="47.93661" lon="6.92344">
        <ele>1120.9264203271</ele>
        <time>2025-05-30T09:56:12.000Z</time>
      </trkpt>
      <trkpt lat="47.93666" lon="6.92351">
        <ele>1120.8245923571</ele>
        <time>2025-05-30T09:56:18.000Z</time>
      </trkpt>
      <trkpt lat="47.93673" lon="6.92354">
        <ele>1119.8016134105</ele>
        <time>2025-05-30T09:56:27.000Z</time>
      </trkpt>
      <trkpt lat="47.93683" lon="6.92353">
        <ele>1116.9253698142</ele>
        <time>2025-05-30T09:56:30.000Z</time>
      </trkpt>
      <trkpt lat="47.93686" lon="6.92356">
        <ele>1116.3366291374</ele>
        <time>2025-05-30T09:56:33.000Z</time>
      </trkpt>
      <trkpt lat="47.93689" lon="6.92362">
        <ele>1115.9970297342</ele>
        <time>2025-05-30T09:56:37.000Z</time>
      </trkpt>
      <trkpt lat="47.93689" lon="6.92361">
        <ele>1115.9544702576</ele>
        <time>2025-05-30T09:56:49.000Z</time>
      </trkpt>
      <trkpt lat="47.93689" lon="6.92352">
        <ele>1114.6457897487</ele>
        <time>2025-05-30T09:56:55.000Z</time>
      </trkpt>
      <trkpt lat="47.93685" lon="6.92339">
        <ele>1114.2860811358</ele>
        <time>2025-05-30T09:57:05.000Z</time>
      </trkpt>
      <trkpt lat="47.93687" lon="6.9233">
        <ele>1112.2385289076</ele>
        <time>2025-05-30T09:57:11.000Z</time>
      </trkpt>
      <trkpt lat="47.93686" lon="6.92317">
        <ele>1110.8207936374</ele>
        <time>2025-05-30T09:57:17.000Z</time>
      </trkpt>
      <trkpt lat="47.93683" lon="6.92302">
        <ele>1109.5749002127</ele>
        <time>2025-05-30T09:57:24.000Z</time>
      </trkpt>
      <trkpt lat="47.93681" lon="6.92289">
        <ele>1108.5041450235</ele>
        <time>2025-05-30T09:57:35.000Z</time>
      </trkpt>
      <trkpt lat="47.93688" lon="6.92288">
        <ele>1106.2551536221</ele>
        <time>2025-05-30T09:57:44.000Z</time>
      </trkpt>
      <trkpt lat="47.93691" lon="6.92285">
        <ele>1104.8576315596</ele>
        <time>2025-05-30T09:57:53.000Z</time>
      </trkpt>
      <trkpt lat="47.93701" lon="6.92305">
        <ele>1103.9369743966</ele>
        <time>2025-05-30T09:58:07.000Z</time>
      </trkpt>
      <trkpt lat="47.93704" lon="6.92301">
        <ele>1102.3571284883</ele>
        <time>2025-05-30T09:58:29.000Z</time>
      </trkpt>
      <trkpt lat="47.93703" lon="6.92291">
        <ele>1101.7025163018</ele>
        <time>2025-05-30T09:58:35.000Z</time>
      </trkpt>
      <trkpt lat="47.93698" lon="6.92284">
        <ele>1102.7061067519</ele>
        <time>2025-05-30T09:58:42.000Z</time>
      </trkpt>
      <trkpt lat="47.9371" lon="6.92237">
        <ele>1089.9285164902</ele>
        <time>2025-05-30T09:59:08.000Z</time>
      </trkpt>
      <trkpt lat="47.93713" lon="6.92231">
        <ele>1087.9299301282</ele>
        <time>2025-05-30T09:59:12.000Z</time>
      </trkpt>
      <trkpt lat="47.93719" lon="6.92228">
        <ele>1086.1489083198</ele>
        <time>2025-05-30T09:59:18.000Z</time>
      </trkpt>
      <trkpt lat="47.93724" lon="6.92229">
        <ele>1085.0160676703</ele>
        <time>2025-05-30T09:59:22.000Z</time>
      </trkpt>
      <trkpt lat="47.93728" lon="6.92222">
        <ele>1082.9312205809</ele>
        <time>2025-05-30T09:59:28.000Z</time>
      </trkpt>
      <trkpt lat="47.93736" lon="6.9223">
        <ele>1082.6686506675</ele>
        <time>2025-05-30T09:59:39.000Z</time>
      </trkpt>
      <trkpt lat="47.93736" lon="6.9224">
        <ele>1084.1566395864</ele>
        <time>2025-05-30T09:59:43.000Z</time>
      </trkpt>
      <trkpt lat="47.93739" lon="6.92245">
        <ele>1084.0613995319</ele>
        <time>2025-05-30T09:59:48.000Z</time>
      </trkpt>
      <trkpt lat="47.93739" lon="6.92259">
        <ele>1085.5895702846</ele>
        <time>2025-05-30T09:59:57.000Z</time>
      </trkpt>
      <trkpt lat="47.93744" lon="6.92259">
        <ele>1083.6563892337</ele>
        <time>2025-05-30T10:00:21.000Z</time>
      </trkpt>
      <trkpt lat="47.93746" lon="6.92253">
        <ele>1082.5297112521</ele>
        <time>2025-05-30T10:00:26.000Z</time>
      </trkpt>
      <trkpt lat="47.93747" lon="6.92244">
        <ele>1081.1413629165</ele>
        <time>2025-05-30T10:00:31.000Z</time>
      </trkpt>
      <trkpt lat="47.93755" lon="6.92234">
        <ele>1077.6267972365</ele>
        <time>2025-05-30T10:00:38.000Z</time>
      </trkpt>
      <trkpt lat="47.93758" lon="6.92218">
        <ele>1075.2191633302</ele>
        <time>2025-05-30T10:00:46.000Z</time>
      </trkpt>
      <trkpt lat="47.9376" lon="6.92209">
        <ele>1073.4773126991</ele>
        <time>2025-05-30T10:00:50.000Z</time>
      </trkpt>
      <trkpt lat="47.93766" lon="6.92214">
        <ele>1071.8297732052</ele>
        <time>2025-05-30T10:01:04.000Z</time>
      </trkpt>
      <trkpt lat="47.9377" lon="6.92248">
        <ele>1071.2134658552</ele>
        <time>2025-05-30T10:01:23.000Z</time>
      </trkpt>
      <trkpt lat="47.93773" lon="6.92254">
        <ele>1069.4894703018</ele>
        <time>2025-05-30T10:01:28.000Z</time>
      </trkpt>
      <trkpt lat="47.93777" lon="6.92259">
        <ele>1067.0194446316</ele>
        <time>2025-05-30T10:01:41.000Z</time>
      </trkpt>
      <trkpt lat="47.93779" lon="6.92249">
        <ele>1066.2747824097</ele>
        <time>2025-05-30T10:01:51.000Z</time>
      </trkpt>
      <trkpt lat="47.93783" lon="6.92242">
        <ele>1064.3225883566</ele>
        <time>2025-05-30T10:01:54.000Z</time>
      </trkpt>
      <trkpt lat="47.93788" lon="6.92231">
        <ele>1062.9239981454</ele>
        <time>2025-05-30T10:02:00.000Z</time>
      </trkpt>
      <trkpt lat="47.93793" lon="6.92218">
        <ele>1061.6289114007</ele>
        <time>2025-05-30T10:02:15.000Z</time>
      </trkpt>
      <trkpt lat="47.93796" lon="6.92211">
        <ele>1060.4444295506</ele>
        <time>2025-05-30T10:02:19.000Z</time>
      </trkpt>
      <trkpt lat="47.93799" lon="6.92205">
        <ele>1059.3740717289</ele>
        <time>2025-05-30T10:02:27.000Z</time>
      </trkpt>
      <trkpt lat="47.93804" lon="6.922">
        <ele>1057.8454359349</ele>
        <time>2025-05-30T10:02:32.000Z</time>
      </trkpt>
      <trkpt lat="47.93811" lon="6.92196">
        <ele>1056.4776253025</ele>
        <time>2025-05-30T10:02:36.000Z</time>
      </trkpt>
      <trkpt lat="47.93817" lon="6.92195">
        <ele>1055.3427619754</ele>
        <time>2025-05-30T10:02:42.000Z</time>
      </trkpt>
      <trkpt lat="47.93826" lon="6.92196">
        <ele>1054.155479242</ele>
        <time>2025-05-30T10:02:50.000Z</time>
      </trkpt>
      <trkpt lat="47.93848" lon="6.922">
        <ele>1053.8640316135</ele>
        <time>2025-05-30T10:03:03.000Z</time>
      </trkpt>
      <trkpt lat="47.93868" lon="6.92203">
        <ele>1056.1343439683</ele>
        <time>2025-05-30T10:03:18.000Z</time>
      </trkpt>
      <trkpt lat="47.93873" lon="6.92202">
        <ele>1056.9765715495</ele>
        <time>2025-05-30T10:03:21.000Z</time>
      </trkpt>
      <trkpt lat="47.93879" lon="6.92193">
        <ele>1057.2992636296</ele>
        <time>2025-05-30T10:03:36.000Z</time>
      </trkpt>
      <trkpt lat="47.9388" lon="6.92186">
        <ele>1056.9479375939</ele>
        <time>2025-05-30T10:03:53.000Z</time>
      </trkpt>
      <trkpt lat="47.9388" lon="6.92182">
        <ele>1056.5590034011</ele>
        <time>2025-05-30T10:05:46.000Z</time>
      </trkpt>
      <trkpt lat="47.93885" lon="6.9217">
        <ele>1056.277031756</ele>
        <time>2025-05-30T10:06:05.000Z</time>
      </trkpt>
      <trkpt lat="47.93888" lon="6.9216">
        <ele>1055.8955965118</ele>
        <time>2025-05-30T10:06:14.000Z</time>
      </trkpt>
      <trkpt lat="47.93889" lon="6.92152">
        <ele>1055.1965664164</ele>
        <time>2025-05-30T10:06:18.000Z</time>
      </trkpt>
      <trkpt lat="47.9389" lon="6.92143">
        <ele>1054.5016363373</ele>
        <time>2025-05-30T10:06:25.000Z</time>
      </trkpt>
      <trkpt lat="47.93888" lon="6.92132">
        <ele>1052.8382919617</ele>
        <time>2025-05-30T10:06:35.000Z</time>
      </trkpt>
      <trkpt lat="47.93889" lon="6.92125">
        <ele>1052.1414952047</ele>
        <time>2025-05-30T10:06:45.000Z</time>
      </trkpt>
      <trkpt lat="47.93891" lon="6.92117">
        <ele>1051.2615453479</ele>
        <time>2025-05-30T10:06:50.000Z</time>
      </trkpt>
      <trkpt lat="47.93903" lon="6.92099">
        <ele>1050.0242733064</ele>
        <time>2025-05-30T10:07:01.000Z</time>
      </trkpt>
      <trkpt lat="47.93908" lon="6.92093">
        <ele>1050.1176724649</ele>
        <time>2025-05-30T10:07:07.000Z</time>
      </trkpt>
      <trkpt lat="47.93911" lon="6.92088">
        <ele>1049.9109240689</ele>
        <time>2025-05-30T10:07:10.000Z</time>
      </trkpt>
      <trkpt lat="47.93915" lon="6.92083">
        <ele>1050.289376536</ele>
        <time>2025-05-30T10:07:15.000Z</time>
      </trkpt>
      <trkpt lat="47.93922" lon="6.92079">
        <ele>1051.5113060305</ele>
        <time>2025-05-30T10:07:24.000Z</time>
      </trkpt>
      <trkpt lat="47.93937" lon="6.92066">
        <ele>1052.5063864527</ele>
        <time>2025-05-30T10:07:42.000Z</time>
      </trkpt>
      <trkpt lat="47.93943" lon="6.92066">
        <ele>1053.2160748409</ele>
        <time>2025-05-30T10:07:49.000Z</time>
      </trkpt>
      <trkpt lat="47.93948" lon="6.92066">
        <ele>1053.8334342718</ele>
        <time>2025-05-30T10:07:53.000Z</time>
      </trkpt>
      <trkpt lat="47.93951" lon="6.9206">
        <ele>1053.681297761</ele>
        <time>2025-05-30T10:07:56.000Z</time>
      </trkpt>
      <trkpt lat="47.93958" lon="6.92059">
        <ele>1054.3621651307</ele>
        <time>2025-05-30T10:08:02.000Z</time>
      </trkpt>
      <trkpt lat="47.93964" lon="6.9205">
        <ele>1053.7532836892</ele>
        <time>2025-05-30T10:08:08.000Z</time>
      </trkpt>
      <trkpt lat="47.93968" lon="6.9205">
        <ele>1054.3376408183</ele>
        <time>2025-05-30T10:08:12.000Z</time>
      </trkpt>
      <trkpt lat="47.93982" lon="6.9204">
        <ele>1054.2141886348</ele>
        <time>2025-05-30T10:08:25.000Z</time>
      </trkpt>
      <trkpt lat="47.93992" lon="6.92037">
        <ele>1054.9308458661</ele>
        <time>2025-05-30T10:08:35.000Z</time>
      </trkpt>
      <trkpt lat="47.93996" lon="6.92037">
        <ele>1055.4284665991</ele>
        <time>2025-05-30T10:08:42.000Z</time>
      </trkpt>
      <trkpt lat="47.94002" lon="6.92037">
        <ele>1056.1589177436</ele>
        <time>2025-05-30T10:08:46.000Z</time>
      </trkpt>
      <trkpt lat="47.94006" lon="6.92039">
        <ele>1057.049374281</ele>
        <time>2025-05-30T10:08:51.000Z</time>
      </trkpt>
      <trkpt lat="47.94012" lon="6.9204">
        <ele>1057.7302791877</ele>
        <time>2025-05-30T10:08:55.000Z</time>
      </trkpt>
      <trkpt lat="47.94019" lon="6.92041">
        <ele>1058.4137830602</ele>
        <time>2025-05-30T10:09:02.000Z</time>
      </trkpt>
      <trkpt lat="47.94025" lon="6.92046">
        <ele>1059.5907382099</ele>
        <time>2025-05-30T10:09:09.000Z</time>
      </trkpt>
      <trkpt lat="47.94052" lon="6.92051">
        <ele>1060.7855324143</ele>
        <time>2025-05-30T10:09:40.000Z</time>
      </trkpt>
      <trkpt lat="47.9407" lon="6.92051">
        <ele>1060.9375625003</ele>
        <time>2025-05-30T10:09:56.000Z</time>
      </trkpt>
      <trkpt lat="47.94075" lon="6.92049">
        <ele>1060.840993434</ele>
        <time>2025-05-30T10:10:01.000Z</time>
      </trkpt>
      <trkpt lat="47.94082" lon="6.92053">
        <ele>1061.3289009637</ele>
        <time>2025-05-30T10:10:08.000Z</time>
      </trkpt>
      <trkpt lat="47.94086" lon="6.92057">
        <ele>1061.7867362644</ele>
        <time>2025-05-30T10:10:12.000Z</time>
      </trkpt>
      <trkpt lat="47.94102" lon="6.92068">
        <ele>1063.2015659943</ele>
        <time>2025-05-30T10:10:30.000Z</time>
      </trkpt>
      <trkpt lat="47.94106" lon="6.92072">
        <ele>1063.6837057462</ele>
        <time>2025-05-30T10:10:35.000Z</time>
      </trkpt>
      <trkpt lat="47.94116" lon="6.92081">
        <ele>1064.568498813</ele>
        <time>2025-05-30T10:10:44.000Z</time>
      </trkpt>
      <trkpt lat="47.94123" lon="6.92093">
        <ele>1065.990673363</ele>
        <time>2025-05-30T10:10:54.000Z</time>
      </trkpt>
      <trkpt lat="47.94128" lon="6.92096">
        <ele>1066.6299515999</ele>
        <time>2025-05-30T10:10:58.000Z</time>
      </trkpt>
      <trkpt lat="47.94131" lon="6.92103">
        <ele>1067.4652656505</ele>
        <time>2025-05-30T10:11:03.000Z</time>
      </trkpt>
      <trkpt lat="47.94133" lon="6.92108">
        <ele>1068.1262205249</ele>
        <time>2025-05-30T10:11:08.000Z</time>
      </trkpt>
      <trkpt lat="47.94137" lon="6.92114">
        <ele>1068.8528303445</ele>
        <time>2025-05-30T10:11:12.000Z</time>
      </trkpt>
      <trkpt lat="47.94151" lon="6.92124">
        <ele>1070.5908479214</ele>
        <time>2025-05-30T10:11:23.000Z</time>
      </trkpt>
      <trkpt lat="47.94154" lon="6.92128">
        <ele>1071.2195253992</ele>
        <time>2025-05-30T10:11:26.000Z</time>
      </trkpt>
      <trkpt lat="47.94157" lon="6.92132">
        <ele>1071.8282318243</ele>
        <time>2025-05-30T10:11:31.000Z</time>
      </trkpt>
      <trkpt lat="47.9416" lon="6.92138">
        <ele>1072.4713416568</ele>
        <time>2025-05-30T10:11:35.000Z</time>
      </trkpt>
      <trkpt lat="47.94159" lon="6.92146">
        <ele>1073.1625511055</ele>
        <time>2025-05-30T10:11:40.000Z</time>
      </trkpt>
      <trkpt lat="47.94168" lon="6.92166">
        <ele>1074.8443766436</ele>
        <time>2025-05-30T10:11:53.000Z</time>
      </trkpt>
      <trkpt lat="47.94176" lon="6.92171">
        <ele>1075.2319377067</ele>
        <time>2025-05-30T10:12:01.000Z</time>
      </trkpt>
      <trkpt lat="47.9418" lon="6.9217">
        <ele>1075.1897293182</ele>
        <time>2025-05-30T10:12:06.000Z</time>
      </trkpt>
      <trkpt lat="47.94183" lon="6.92164">
        <ele>1074.9531862396</ele>
        <time>2025-05-30T10:12:11.000Z</time>
      </trkpt>
      <trkpt lat="47.94193" lon="6.92152">
        <ele>1075.1003319655</ele>
        <time>2025-05-30T10:12:23.000Z</time>
      </trkpt>
      <trkpt lat="47.94205" lon="6.92153">
        <ele>1076.0368030741</ele>
        <time>2025-05-30T10:12:32.000Z</time>
      </trkpt>
      <trkpt lat="47.94221" lon="6.92163">
        <ele>1077.0484996177</ele>
        <time>2025-05-30T10:12:52.000Z</time>
      </trkpt>
      <trkpt lat="47.94233" lon="6.92168">
        <ele>1077.4724142481</ele>
        <time>2025-05-30T10:13:02.000Z</time>
      </trkpt>
      <trkpt lat="47.94236" lon="6.92164">
        <ele>1077.6980482013</ele>
        <time>2025-05-30T10:13:06.000Z</time>
      </trkpt>
      <trkpt lat="47.94245" lon="6.92155">
        <ele>1078.5168032707</ele>
        <time>2025-05-30T10:13:17.000Z</time>
      </trkpt>
      <trkpt lat="47.94258" lon="6.92147">
        <ele>1079.679030886</ele>
        <time>2025-05-30T10:13:33.000Z</time>
      </trkpt>
      <trkpt lat="47.9429" lon="6.92141">
        <ele>1083.682807855</ele>
        <time>2025-05-30T10:14:04.000Z</time>
      </trkpt>
      <trkpt lat="47.94291" lon="6.92127">
        <ele>1085.4493852555</ele>
        <time>2025-05-30T10:14:17.000Z</time>
      </trkpt>
      <trkpt lat="47.94298" lon="6.92132">
        <ele>1085.9300378338</ele>
        <time>2025-05-30T10:14:27.000Z</time>
      </trkpt>
      <trkpt lat="47.94299" lon="6.92125">
        <ele>1086.9920865486</ele>
        <time>2025-05-30T10:14:31.000Z</time>
      </trkpt>
      <trkpt lat="47.94302" lon="6.9211">
        <ele>1089.7265571498</ele>
        <time>2025-05-30T10:14:46.000Z</time>
      </trkpt>
      <trkpt lat="47.94323" lon="6.92097">
        <ele>1094.8483092892</ele>
        <time>2025-05-30T10:15:16.000Z</time>
      </trkpt>
      <trkpt lat="47.94328" lon="6.92093">
        <ele>1096.2054416883</ele>
        <time>2025-05-30T10:15:19.000Z</time>
      </trkpt>
      <trkpt lat="47.94334" lon="6.92084">
        <ele>1098.1593430375</ele>
        <time>2025-05-30T10:15:34.000Z</time>
      </trkpt>
      <trkpt lat="47.94337" lon="6.92073">
        <ele>1100.2129371819</ele>
        <time>2025-05-30T10:15:50.000Z</time>
      </trkpt>
      <trkpt lat="47.9434" lon="6.92043">
        <ele>1104.6646469079</ele>
        <time>2025-05-30T10:16:11.000Z</time>
      </trkpt>
      <trkpt lat="47.94356" lon="6.92047">
        <ele>1107.3971295956</ele>
        <time>2025-05-30T10:16:42.000Z</time>
      </trkpt>
      <trkpt lat="47.94379" lon="6.92048">
        <ele>1109.7145530896</ele>
        <time>2025-05-30T10:17:06.000Z</time>
      </trkpt>
      <trkpt lat="47.94368" lon="6.92045">
        <ele>1109.2947373572</ele>
        <time>2025-05-30T10:17:20.000Z</time>
      </trkpt>
      <trkpt lat="47.94378" lon="6.9203">
        <ele>1113.8464753858</ele>
        <time>2025-05-30T10:17:46.000Z</time>
      </trkpt>
      <trkpt lat="47.94392" lon="6.92025">
        <ele>1116.6713721596</ele>
        <time>2025-05-30T10:18:07.000Z</time>
      </trkpt>
      <trkpt lat="47.94389" lon="6.92025">
        <ele>1116.2348805343</ele>
        <time>2025-05-30T10:18:34.000Z</time>
      </trkpt>
      <trkpt lat="47.94393" lon="6.92019">
        <ele>1118.1051833911</ele>
        <time>2025-05-30T10:19:10.000Z</time>
      </trkpt>
      <trkpt lat="47.94388" lon="6.92011">
        <ele>1118.8483448281</ele>
        <time>2025-05-30T10:19:18.000Z</time>
      </trkpt>
      <trkpt lat="47.94381" lon="6.9201">
        <ele>1117.7806081116</ele>
        <time>2025-05-30T10:19:31.000Z</time>
      </trkpt>
      <trkpt lat="47.94386" lon="6.92002">
        <ele>1120.4074700209</ele>
        <time>2025-05-30T10:19:35.000Z</time>
      </trkpt>
      <trkpt lat="47.94393" lon="6.91995">
        <ele>1123.3208846814</ele>
        <time>2025-05-30T10:19:50.000Z</time>
      </trkpt>
      <trkpt lat="47.94394" lon="6.91985">
        <ele>1125.308877399</ele>
        <time>2025-05-30T10:20:20.000Z</time>
      </trkpt>
      <trkpt lat="47.944" lon="6.91986">
        <ele>1126.593881931</ele>
        <time>2025-05-30T10:20:24.000Z</time>
      </trkpt>
      <trkpt lat="47.94408" lon="6.91984">
        <ele>1128.5145580145</ele>
        <time>2025-05-30T10:20:35.000Z</time>
      </trkpt>
      <trkpt lat="47.94426" lon="6.91995">
        <ele>1130.1134234431</ele>
        <time>2025-05-30T10:20:55.000Z</time>
      </trkpt>
      <trkpt lat="47.94418" lon="6.9199">
        <ele>1129.6154449277</ele>
        <time>2025-05-30T10:20:59.000Z</time>
      </trkpt>
      <trkpt lat="47.94423" lon="6.91981">
        <ele>1132.3831407616</ele>
        <time>2025-05-30T10:21:17.000Z</time>
      </trkpt>
      <trkpt lat="47.94423" lon="6.91969">
        <ele>1134.5405251116</ele>
        <time>2025-05-30T10:21:25.000Z</time>
      </trkpt>
      <trkpt lat="47.94421" lon="6.9196">
        <ele>1135.5638106471</ele>
        <time>2025-05-30T10:21:30.000Z</time>
      </trkpt>
      <trkpt lat="47.94426" lon="6.91953">
        <ele>1137.223210572</ele>
        <time>2025-05-30T10:21:38.000Z</time>
      </trkpt>
      <trkpt lat="47.94433" lon="6.91948">
        <ele>1138.9588111704</ele>
        <time>2025-05-30T10:21:53.000Z</time>
      </trkpt>
      <trkpt lat="47.94444" lon="6.91955">
        <ele>1140.2344030278</ele>
        <time>2025-05-30T10:22:11.000Z</time>
      </trkpt>
      <trkpt lat="47.94453" lon="6.91961">
        <ele>1141.3136338986</ele>
        <time>2025-05-30T10:22:24.000Z</time>
      </trkpt>
      <trkpt lat="47.94466" lon="6.91969">
        <ele>1142.9294469958</ele>
        <time>2025-05-30T10:22:30.000Z</time>
      </trkpt>
      <trkpt lat="47.94474" lon="6.9197">
        <ele>1144.4216179431</ele>
        <time>2025-05-30T10:22:34.000Z</time>
      </trkpt>
      <trkpt lat="47.94477" lon="6.91978">
        <ele>1144.1992346854</ele>
        <time>2025-05-30T10:22:42.000Z</time>
      </trkpt>
      <trkpt lat="47.94492" lon="6.91987">
        <ele>1144.8533406857</ele>
        <time>2025-05-30T10:22:53.000Z</time>
      </trkpt>
      <trkpt lat="47.94497" lon="6.9199">
        <ele>1144.9803680504</ele>
        <time>2025-05-30T10:23:03.000Z</time>
      </trkpt>
      <trkpt lat="47.9451" lon="6.91996">
        <ele>1144.1699396065</ele>
        <time>2025-05-30T10:23:14.000Z</time>
      </trkpt>
      <trkpt lat="47.94535" lon="6.92003">
        <ele>1141.6618267255</ele>
        <time>2025-05-30T10:23:36.000Z</time>
      </trkpt>
      <trkpt lat="47.94559" lon="6.91996">
        <ele>1143.2550852222</ele>
        <time>2025-05-30T10:24:04.000Z</time>
      </trkpt>
      <trkpt lat="47.94564" lon="6.92002">
        <ele>1143.8141808089</ele>
        <time>2025-05-30T10:24:12.000Z</time>
      </trkpt>
      <trkpt lat="47.94567" lon="6.92008">
        <ele>1144.1753830378</ele>
        <time>2025-05-30T10:24:15.000Z</time>
      </trkpt>
      <trkpt lat="47.94576" lon="6.92038">
        <ele>1144.4926692409</ele>
        <time>2025-05-30T10:24:59.000Z</time>
      </trkpt>
      <trkpt lat="47.94576" lon="6.92034">
        <ele>1144.8210908404</ele>
        <time>2025-05-30T10:26:44.000Z</time>
      </trkpt>
      <trkpt lat="47.94582" lon="6.92044">
        <ele>1144.9421533958</ele>
        <time>2025-05-30T10:27:19.000Z</time>
      </trkpt>
      <trkpt lat="47.94591" lon="6.92042">
        <ele>1145.9669602569</ele>
        <time>2025-05-30T10:28:15.000Z</time>
      </trkpt>
      <trkpt lat="47.946" lon="6.92042">
        <ele>1146.9585001663</ele>
        <time>2025-05-30T10:28:22.000Z</time>
      </trkpt>
      <trkpt lat="47.94606" lon="6.92044">
        <ele>1147.370855939</ele>
        <time>2025-05-30T10:28:28.000Z</time>
      </trkpt>
      <trkpt lat="47.94613" lon="6.92046">
        <ele>1147.8689371397</ele>
        <time>2025-05-30T10:28:37.000Z</time>
      </trkpt>
      <trkpt lat="47.94617" lon="6.92051">
        <ele>1147.8809140984</ele>
        <time>2025-05-30T10:28:39.000Z</time>
      </trkpt>
      <trkpt lat="47.94635" lon="6.92053">
        <ele>1148.2842716948</ele>
        <time>2025-05-30T10:28:54.000Z</time>
      </trkpt>
      <trkpt lat="47.9464" lon="6.92054">
        <ele>1148.192011116</ele>
        <time>2025-05-30T10:28:57.000Z</time>
      </trkpt>
      <trkpt lat="47.94674" lon="6.92064">
        <ele>1148.0919803732</ele>
        <time>2025-05-30T10:29:32.000Z</time>
      </trkpt>
      <trkpt lat="47.94687" lon="6.92076">
        <ele>1147.233089378</ele>
        <time>2025-05-30T10:29:41.000Z</time>
      </trkpt>
      <trkpt lat="47.94691" lon="6.9208">
        <ele>1146.8048985071</ele>
        <time>2025-05-30T10:29:46.000Z</time>
      </trkpt>
      <trkpt lat="47.94699" lon="6.92091">
        <ele>1145.8147622977</ele>
        <time>2025-05-30T10:29:54.000Z</time>
      </trkpt>
      <trkpt lat="47.94708" lon="6.92098">
        <ele>1145.3129008854</ele>
        <time>2025-05-30T10:30:05.000Z</time>
      </trkpt>
      <trkpt lat="47.9472" lon="6.92101">
        <ele>1145.5689161114</ele>
        <time>2025-05-30T10:30:13.000Z</time>
      </trkpt>
      <trkpt lat="47.94732" lon="6.92103">
        <ele>1145.8661253426</ele>
        <time>2025-05-30T10:30:24.000Z</time>
      </trkpt>
      <trkpt lat="47.94738" lon="6.92106">
        <ele>1145.8829851022</ele>
        <time>2025-05-30T10:30:30.000Z</time>
      </trkpt>
      <trkpt lat="47.94743" lon="6.92111">
        <ele>1145.8235657956</ele>
        <time>2025-05-30T10:30:34.000Z</time>
      </trkpt>
      <trkpt lat="47.94754" lon="6.92128">
        <ele>1145.2283009765</ele>
        <time>2025-05-30T10:30:48.000Z</time>
      </trkpt>
      <trkpt lat="47.94761" lon="6.92143">
        <ele>1144.2647372818</ele>
        <time>2025-05-30T10:31:00.000Z</time>
      </trkpt>
      <trkpt lat="47.9477" lon="6.92157">
        <ele>1143.0493200519</ele>
        <time>2025-05-30T10:31:05.000Z</time>
      </trkpt>
      <trkpt lat="47.94774" lon="6.92163">
        <ele>1142.5331769323</ele>
        <time>2025-05-30T10:31:14.000Z</time>
      </trkpt>
      <trkpt lat="47.94788" lon="6.92202">
        <ele>1140.9218428387</ele>
        <time>2025-05-30T10:31:34.000Z</time>
      </trkpt>
      <trkpt lat="47.94815" lon="6.92246">
        <ele>1139.2244540361</ele>
        <time>2025-05-30T10:32:08.000Z</time>
      </trkpt>
      <trkpt lat="47.94822" lon="6.9226">
        <ele>1138.5766811699</ele>
        <time>2025-05-30T10:32:20.000Z</time>
      </trkpt>
      <trkpt lat="47.94829" lon="6.92264">
        <ele>1138.4863544172</ele>
        <time>2025-05-30T10:32:26.000Z</time>
      </trkpt>
      <trkpt lat="47.94837" lon="6.92277">
        <ele>1137.6346220154</ele>
        <time>2025-05-30T10:32:37.000Z</time>
      </trkpt>
      <trkpt lat="47.9485" lon="6.92284">
        <ele>1135.7417882966</ele>
        <time>2025-05-30T10:32:49.000Z</time>
      </trkpt>
      <trkpt lat="47.94852" lon="6.92278">
        <ele>1136.4077479337</ele>
        <time>2025-05-30T10:32:57.000Z</time>
      </trkpt>
      <trkpt lat="47.94857" lon="6.92273">
        <ele>1136.2859912038</ele>
        <time>2025-05-30T10:33:02.000Z</time>
      </trkpt>
      <trkpt lat="47.94865" lon="6.92269">
        <ele>1134.8604840375</ele>
        <time>2025-05-30T10:33:09.000Z</time>
      </trkpt>
      <trkpt lat="47.94869" lon="6.92264">
        <ele>1134.2836560929</ele>
        <time>2025-05-30T10:33:14.000Z</time>
      </trkpt>
      <trkpt lat="47.94872" lon="6.9226">
        <ele>1133.8755681986</ele>
        <time>2025-05-30T10:33:18.000Z</time>
      </trkpt>
      <trkpt lat="47.9489" lon="6.92241">
        <ele>1128.2513431965</ele>
        <time>2025-05-30T10:33:45.000Z</time>
      </trkpt>
      <trkpt lat="47.94897" lon="6.92246">
        <ele>1125.6244364354</ele>
        <time>2025-05-30T10:33:51.000Z</time>
      </trkpt>
      <trkpt lat="47.94897" lon="6.92255">
        <ele>1125.7727971348</ele>
        <time>2025-05-30T10:33:59.000Z</time>
      </trkpt>
      <trkpt lat="47.94894" lon="6.92297">
        <ele>1125.6748211357</ele>
        <time>2025-05-30T10:34:22.000Z</time>
      </trkpt>
      <trkpt lat="47.94893" lon="6.9231">
        <ele>1125.0866371479</ele>
        <time>2025-05-30T10:34:29.000Z</time>
      </trkpt>
      <trkpt lat="47.94893" lon="6.92321">
        <ele>1123.7834195508</ele>
        <time>2025-05-30T10:34:37.000Z</time>
      </trkpt>
      <trkpt lat="47.949" lon="6.9231">
        <ele>1122.7936702413</ele>
        <time>2025-05-30T10:35:04.000Z</time>
      </trkpt>
      <trkpt lat="47.94902" lon="6.92301">
        <ele>1122.532427277</ele>
        <time>2025-05-30T10:35:08.000Z</time>
      </trkpt>
      <trkpt lat="47.94907" lon="6.923">
        <ele>1120.7534090252</ele>
        <time>2025-05-30T10:35:13.000Z</time>
      </trkpt>
      <trkpt lat="47.94915" lon="6.92287">
        <ele>1118.0357912119</ele>
        <time>2025-05-30T10:35:18.000Z</time>
      </trkpt>
      <trkpt lat="47.94917" lon="6.9228">
        <ele>1117.4724923858</ele>
        <time>2025-05-30T10:35:23.000Z</time>
      </trkpt>
      <trkpt lat="47.94924" lon="6.92272">
        <ele>1114.9199122576</ele>
        <time>2025-05-30T10:35:27.000Z</time>
      </trkpt>
      <trkpt lat="47.94925" lon="6.92267">
        <ele>1114.5207003684</ele>
        <time>2025-05-30T10:35:31.000Z</time>
      </trkpt>
      <trkpt lat="47.94928" lon="6.92256">
        <ele>1113.3708967448</ele>
        <time>2025-05-30T10:35:40.000Z</time>
      </trkpt>
      <trkpt lat="47.94931" lon="6.92249">
        <ele>1111.9585000081</ele>
        <time>2025-05-30T10:35:48.000Z</time>
      </trkpt>
      <trkpt lat="47.94939" lon="6.92239">
        <ele>1108.8093493502</ele>
        <time>2025-05-30T10:36:03.000Z</time>
      </trkpt>
      <trkpt lat="47.94945" lon="6.9224">
        <ele>1107.1783440286</ele>
        <time>2025-05-30T10:36:07.000Z</time>
      </trkpt>
      <trkpt lat="47.94949" lon="6.92241">
        <ele>1106.287493498</ele>
        <time>2025-05-30T10:36:11.000Z</time>
      </trkpt>
      <trkpt lat="47.94954" lon="6.92242">
        <ele>1105.0052656874</ele>
        <time>2025-05-30T10:36:14.000Z</time>
      </trkpt>
      <trkpt lat="47.94959" lon="6.92249">
        <ele>1104.055640432</ele>
        <time>2025-05-30T10:36:18.000Z</time>
      </trkpt>
      <trkpt lat="47.94963" lon="6.92257">
        <ele>1103.6812575646</ele>
        <time>2025-05-30T10:36:21.000Z</time>
      </trkpt>
      <trkpt lat="47.94967" lon="6.92266">
        <ele>1103.9704065427</ele>
        <time>2025-05-30T10:36:27.000Z</time>
      </trkpt>
      <trkpt lat="47.94958" lon="6.92297">
        <ele>1106.8820743511</ele>
        <time>2025-05-30T10:36:55.000Z</time>
      </trkpt>
      <trkpt lat="47.94959" lon="6.92308">
        <ele>1107.7667020391</ele>
        <time>2025-05-30T10:37:00.000Z</time>
      </trkpt>
      <trkpt lat="47.94958" lon="6.92325">
        <ele>1109.6159597803</ele>
        <time>2025-05-30T10:37:12.000Z</time>
      </trkpt>
      <trkpt lat="47.9496" lon="6.92347">
        <ele>1112.436878768</ele>
        <time>2025-05-30T10:37:26.000Z</time>
      </trkpt>
      <trkpt lat="47.94957" lon="6.92378">
        <ele>1115.5483788448</ele>
        <time>2025-05-30T10:37:47.000Z</time>
      </trkpt>
      <trkpt lat="47.94966" lon="6.9237">
        <ele>1116.5016076919</ele>
        <time>2025-05-30T10:38:24.000Z</time>
      </trkpt>
      <trkpt lat="47.9497" lon="6.92354">
        <ele>1115.2067585257</ele>
        <time>2025-05-30T10:38:36.000Z</time>
      </trkpt>
      <trkpt lat="47.94973" lon="6.92348">
        <ele>1114.6580934515</ele>
        <time>2025-05-30T10:38:41.000Z</time>
      </trkpt>
      <trkpt lat="47.94985" lon="6.92336">
        <ele>1114.8470472525</ele>
        <time>2025-05-30T10:38:57.000Z</time>
      </trkpt>
      <trkpt lat="47.94998" lon="6.9233">
        <ele>1117.1263700009</ele>
        <time>2025-05-30T10:39:11.000Z</time>
      </trkpt>
      <trkpt lat="47.95005" lon="6.92329">
        <ele>1118.7582675902</ele>
        <time>2025-05-30T10:39:16.000Z</time>
      </trkpt>
      <trkpt lat="47.94998" lon="6.92344">
        <ele>1119.9427661443</ele>
        <time>2025-05-30T10:39:27.000Z</time>
      </trkpt>
      <trkpt lat="47.94993" lon="6.92384">
        <ele>1123.9803278725</ele>
        <time>2025-05-30T10:39:57.000Z</time>
      </trkpt>
      <trkpt lat="47.94995" lon="6.92394">
        <ele>1125.3978961011</ele>
        <time>2025-05-30T10:40:05.000Z</time>
      </trkpt>
      <trkpt lat="47.94988" lon="6.92401">
        <ele>1124.7730954101</ele>
        <time>2025-05-30T10:40:12.000Z</time>
      </trkpt>
      <trkpt lat="47.94983" lon="6.9241">
        <ele>1124.63974774</ele>
        <time>2025-05-30T10:40:16.000Z</time>
      </trkpt>
      <trkpt lat="47.94975" lon="6.92445">
        <ele>1124.4466454784</ele>
        <time>2025-05-30T10:40:40.000Z</time>
      </trkpt>
      <trkpt lat="47.94984" lon="6.92465">
        <ele>1128.0907283886</ele>
        <time>2025-05-30T10:40:59.000Z</time>
      </trkpt>
      <trkpt lat="47.94989" lon="6.92507">
        <ele>1132.5337296342</ele>
        <time>2025-05-30T10:41:27.000Z</time>
      </trkpt>
      <trkpt lat="47.94988" lon="6.92538">
        <ele>1132.4654015124</ele>
        <time>2025-05-30T10:41:47.000Z</time>
      </trkpt>
      <trkpt lat="47.94994" lon="6.92548">
        <ele>1133.9249403806</ele>
        <time>2025-05-30T10:41:57.000Z</time>
      </trkpt>
      <trkpt lat="47.94998" lon="6.92552">
        <ele>1135.294426547</ele>
        <time>2025-05-30T10:42:04.000Z</time>
      </trkpt>
      <trkpt lat="47.95004" lon="6.92562">
        <ele>1136.4733894955</ele>
        <time>2025-05-30T10:42:14.000Z</time>
      </trkpt>
      <trkpt lat="47.95019" lon="6.92559">
        <ele>1140.3446685531</ele>
        <time>2025-05-30T10:42:31.000Z</time>
      </trkpt>
      <trkpt lat="47.9503" lon="6.92558">
        <ele>1141.9551891188</ele>
        <time>2025-05-30T10:42:51.000Z</time>
      </trkpt>
      <trkpt lat="47.95034" lon="6.9255">
        <ele>1142.6271993104</ele>
        <time>2025-05-30T10:42:54.000Z</time>
      </trkpt>
      <trkpt lat="47.95036" lon="6.92543">
        <ele>1143.0550653413</ele>
        <time>2025-05-30T10:42:56.000Z</time>
      </trkpt>
      <trkpt lat="47.95042" lon="6.92539">
        <ele>1143.7910618869</ele>
        <time>2025-05-30T10:43:00.000Z</time>
      </trkpt>
      <trkpt lat="47.95073" lon="6.92533">
        <ele>1146.9210956122</ele>
        <time>2025-05-30T10:43:25.000Z</time>
      </trkpt>
      <trkpt lat="47.95078" lon="6.92533">
        <ele>1147.3901524415</ele>
        <time>2025-05-30T10:43:36.000Z</time>
      </trkpt>
      <trkpt lat="47.95092" lon="6.92534">
        <ele>1147.8923168371</ele>
        <time>2025-05-30T10:43:49.000Z</time>
      </trkpt>
      <trkpt lat="47.95109" lon="6.92523">
        <ele>1149.3897721826</ele>
        <time>2025-05-30T10:44:07.000Z</time>
      </trkpt>
      <trkpt lat="47.95115" lon="6.92524">
        <ele>1149.1369759157</ele>
        <time>2025-05-30T10:44:12.000Z</time>
      </trkpt>
      <trkpt lat="47.95122" lon="6.92523">
        <ele>1148.9552159495</ele>
        <time>2025-05-30T10:44:20.000Z</time>
      </trkpt>
      <trkpt lat="47.95132" lon="6.92525">
        <ele>1148.12918774</ele>
        <time>2025-05-30T10:44:30.000Z</time>
      </trkpt>
      <trkpt lat="47.95139" lon="6.92524">
        <ele>1147.6650617381</ele>
        <time>2025-05-30T10:44:36.000Z</time>
      </trkpt>
      <trkpt lat="47.9515" lon="6.9251">
        <ele>1148.7755569594</ele>
        <time>2025-05-30T10:44:50.000Z</time>
      </trkpt>
      <trkpt lat="47.9515" lon="6.92503">
        <ele>1149.767762746</ele>
        <time>2025-05-30T10:44:55.000Z</time>
      </trkpt>
      <trkpt lat="47.95156" lon="6.92476">
        <ele>1151.4264580357</ele>
        <time>2025-05-30T10:45:12.000Z</time>
      </trkpt>
      <trkpt lat="47.95159" lon="6.92458">
        <ele>1151.9984404031</ele>
        <time>2025-05-30T10:45:22.000Z</time>
      </trkpt>
      <trkpt lat="47.95163" lon="6.9245">
        <ele>1151.8793058841</ele>
        <time>2025-05-30T10:45:27.000Z</time>
      </trkpt>
      <trkpt lat="47.95179" lon="6.92425">
        <ele>1151.3282000298</ele>
        <time>2025-05-30T10:45:48.000Z</time>
      </trkpt>
      <trkpt lat="47.95184" lon="6.92411">
        <ele>1151.3787022949</ele>
        <time>2025-05-30T10:45:57.000Z</time>
      </trkpt>
      <trkpt lat="47.95199" lon="6.92399">
        <ele>1150.7444377057</ele>
        <time>2025-05-30T10:46:08.000Z</time>
      </trkpt>
      <trkpt lat="47.95203" lon="6.92394">
        <ele>1150.3307864728</ele>
        <time>2025-05-30T10:46:15.000Z</time>
      </trkpt>
      <trkpt lat="47.95205" lon="6.92387">
        <ele>1149.9820154251</ele>
        <time>2025-05-30T10:46:19.000Z</time>
      </trkpt>
      <trkpt lat="47.95211" lon="6.92384">
        <ele>1149.5498785345</ele>
        <time>2025-05-30T10:46:25.000Z</time>
      </trkpt>
      <trkpt lat="47.95216" lon="6.92373">
        <ele>1148.9340528897</ele>
        <time>2025-05-30T10:46:30.000Z</time>
      </trkpt>
      <trkpt lat="47.95223" lon="6.9237">
        <ele>1148.573620738</ele>
        <time>2025-05-30T10:46:35.000Z</time>
      </trkpt>
      <trkpt lat="47.95235" lon="6.92359">
        <ele>1147.9384184568</ele>
        <time>2025-05-30T10:46:49.000Z</time>
      </trkpt>
      <trkpt lat="47.9524" lon="6.92356">
        <ele>1148.0588034425</ele>
        <time>2025-05-30T10:46:56.000Z</time>
      </trkpt>
      <trkpt lat="47.95249" lon="6.92359">
        <ele>1148.3899428537</ele>
        <time>2025-05-30T10:47:03.000Z</time>
      </trkpt>
      <trkpt lat="47.95273" lon="6.92342">
        <ele>1148.920825005</ele>
        <time>2025-05-30T10:47:25.000Z</time>
      </trkpt>
      <trkpt lat="47.95281" lon="6.92347">
        <ele>1148.623024474</ele>
        <time>2025-05-30T10:47:40.000Z</time>
      </trkpt>
      <trkpt lat="47.9529" lon="6.92352">
        <ele>1148.1848401372</ele>
        <time>2025-05-30T10:47:46.000Z</time>
      </trkpt>
      <trkpt lat="47.95304" lon="6.92352">
        <ele>1147.2551451669</ele>
        <time>2025-05-30T10:47:52.000Z</time>
      </trkpt>
      <trkpt lat="47.9531" lon="6.92354">
        <ele>1146.5601063367</ele>
        <time>2025-05-30T10:47:56.000Z</time>
      </trkpt>
      <trkpt lat="47.95331" lon="6.92353">
        <ele>1144.2976045274</ele>
        <time>2025-05-30T10:48:16.000Z</time>
      </trkpt>
      <trkpt lat="47.95335" lon="6.92355">
        <ele>1143.5709088104</ele>
        <time>2025-05-30T10:48:22.000Z</time>
      </trkpt>
      <trkpt lat="47.95349" lon="6.92355">
        <ele>1142.0393223785</ele>
        <time>2025-05-30T10:48:31.000Z</time>
      </trkpt>
      <trkpt lat="47.95355" lon="6.92354">
        <ele>1141.5309904658</ele>
        <time>2025-05-30T10:48:36.000Z</time>
      </trkpt>
      <trkpt lat="47.95365" lon="6.92355">
        <ele>1140.7795672143</ele>
        <time>2025-05-30T10:48:45.000Z</time>
      </trkpt>
      <trkpt lat="47.95371" lon="6.92356">
        <ele>1140.5413138459</ele>
        <time>2025-05-30T10:48:50.000Z</time>
      </trkpt>
      <trkpt lat="47.95399" lon="6.92362">
        <ele>1139.9286336753</ele>
        <time>2025-05-30T10:49:11.000Z</time>
      </trkpt>
      <trkpt lat="47.95409" lon="6.92367">
        <ele>1139.5988464745</ele>
        <time>2025-05-30T10:49:21.000Z</time>
      </trkpt>
      <trkpt lat="47.95415" lon="6.9237">
        <ele>1139.3890562639</ele>
        <time>2025-05-30T10:49:26.000Z</time>
      </trkpt>
      <trkpt lat="47.95424" lon="6.92373">
        <ele>1139.0155996087</ele>
        <time>2025-05-30T10:49:35.000Z</time>
      </trkpt>
      <trkpt lat="47.95429" lon="6.92372">
        <ele>1139.2588992115</ele>
        <time>2025-05-30T10:49:38.000Z</time>
      </trkpt>
      <trkpt lat="47.95439" lon="6.92376">
        <ele>1139.2624748692</ele>
        <time>2025-05-30T10:49:49.000Z</time>
      </trkpt>
      <trkpt lat="47.9545" lon="6.92381">
        <ele>1139.5136918214</ele>
        <time>2025-05-30T10:49:55.000Z</time>
      </trkpt>
      <trkpt lat="47.95454" lon="6.92382">
        <ele>1139.9967908829</ele>
        <time>2025-05-30T10:49:57.000Z</time>
      </trkpt>
      <trkpt lat="47.95459" lon="6.92382">
        <ele>1140.628460146</ele>
        <time>2025-05-30T10:50:01.000Z</time>
      </trkpt>
      <trkpt lat="47.95476" lon="6.92386">
        <ele>1143.1364321031</ele>
        <time>2025-05-30T10:50:17.000Z</time>
      </trkpt>
      <trkpt lat="47.9548" lon="6.92388">
        <ele>1143.7379285919</ele>
        <time>2025-05-30T10:50:21.000Z</time>
      </trkpt>
      <trkpt lat="47.95492" lon="6.92394">
        <ele>1145.1948907783</ele>
        <time>2025-05-30T10:50:46.000Z</time>
      </trkpt>
      <trkpt lat="47.95504" lon="6.92398">
        <ele>1147.1216225608</ele>
        <time>2025-05-30T10:50:59.000Z</time>
      </trkpt>
      <trkpt lat="47.95513" lon="6.92405">
        <ele>1147.4358447525</ele>
        <time>2025-05-30T10:51:10.000Z</time>
      </trkpt>
      <trkpt lat="47.95516" lon="6.92408">
        <ele>1147.1038644033</ele>
        <time>2025-05-30T10:51:13.000Z</time>
      </trkpt>
      <trkpt lat="47.9552" lon="6.92413">
        <ele>1146.5600291935</ele>
        <time>2025-05-30T10:51:18.000Z</time>
      </trkpt>
      <trkpt lat="47.95535" lon="6.92412">
        <ele>1147.4605237559</ele>
        <time>2025-05-30T10:51:32.000Z</time>
      </trkpt>
      <trkpt lat="47.95563" lon="6.92438">
        <ele>1148.276667282</ele>
        <time>2025-05-30T10:52:05.000Z</time>
      </trkpt>
      <trkpt lat="47.95578" lon="6.92454">
        <ele>1150.7540754333</ele>
        <time>2025-05-30T10:52:22.000Z</time>
      </trkpt>
      <trkpt lat="47.95582" lon="6.92463">
        <ele>1151.6436567749</ele>
        <time>2025-05-30T10:52:27.000Z</time>
      </trkpt>
      <trkpt lat="47.95588" lon="6.92487">
        <ele>1152.9493515734</ele>
        <time>2025-05-30T10:52:47.000Z</time>
      </trkpt>
      <trkpt lat="47.95592" lon="6.92492">
        <ele>1153.862014115</ele>
        <time>2025-05-30T10:52:52.000Z</time>
      </trkpt>
      <trkpt lat="47.95604" lon="6.92507">
        <ele>1156.3206491232</ele>
        <time>2025-05-30T10:53:11.000Z</time>
      </trkpt>
      <trkpt lat="47.95634" lon="6.92523">
        <ele>1162.0931805137</ele>
        <time>2025-05-30T10:53:47.000Z</time>
      </trkpt>
      <trkpt lat="47.95651" lon="6.92531">
        <ele>1165.5320679655</ele>
        <time>2025-05-30T10:54:06.000Z</time>
      </trkpt>
      <trkpt lat="47.95682" lon="6.92552">
        <ele>1170.3939201342</ele>
        <time>2025-05-30T10:54:39.000Z</time>
      </trkpt>
      <trkpt lat="47.95694" lon="6.92562">
        <ele>1171.3729269644</ele>
        <time>2025-05-30T10:54:54.000Z</time>
      </trkpt>
      <trkpt lat="47.95704" lon="6.92572">
        <ele>1173.1520705619</ele>
        <time>2025-05-30T10:55:14.000Z</time>
      </trkpt>
      <trkpt lat="47.95709" lon="6.92576">
        <ele>1174.1345788985</ele>
        <time>2025-05-30T10:55:19.000Z</time>
      </trkpt>
      <trkpt lat="47.95714" lon="6.92577">
        <ele>1174.9131004239</ele>
        <time>2025-05-30T10:55:22.000Z</time>
      </trkpt>
      <trkpt lat="47.95722" lon="6.92584">
        <ele>1176.6775691291</ele>
        <time>2025-05-30T10:55:40.000Z</time>
      </trkpt>
      <trkpt lat="47.95727" lon="6.9259">
        <ele>1177.6528938375</ele>
        <time>2025-05-30T10:55:46.000Z</time>
      </trkpt>
      <trkpt lat="47.95735" lon="6.92602">
        <ele>1179.532792906</ele>
        <time>2025-05-30T10:55:58.000Z</time>
      </trkpt>
      <trkpt lat="47.9574" lon="6.92605">
        <ele>1180.1787022938</ele>
        <time>2025-05-30T10:56:02.000Z</time>
      </trkpt>
      <trkpt lat="47.95746" lon="6.92613">
        <ele>1180.9209873357</ele>
        <time>2025-05-30T10:56:11.000Z</time>
      </trkpt>
      <trkpt lat="47.95747" lon="6.92625">
        <ele>1181.5009527835</ele>
        <time>2025-05-30T10:56:17.000Z</time>
      </trkpt>
      <trkpt lat="47.95752" lon="6.92633">
        <ele>1181.7217909884</ele>
        <time>2025-05-30T10:56:22.000Z</time>
      </trkpt>
      <trkpt lat="47.95756" lon="6.92636">
        <ele>1181.7154446083</ele>
        <time>2025-05-30T10:56:26.000Z</time>
      </trkpt>
      <trkpt lat="47.95762" lon="6.92636">
        <ele>1181.7782993042</ele>
        <time>2025-05-30T10:56:32.000Z</time>
      </trkpt>
      <trkpt lat="47.9577" lon="6.92635">
        <ele>1182.535726936</ele>
        <time>2025-05-30T10:56:35.000Z</time>
      </trkpt>
      <trkpt lat="47.95775" lon="6.92639">
        <ele>1183.1140543627</ele>
        <time>2025-05-30T10:56:40.000Z</time>
      </trkpt>
      <trkpt lat="47.95779" lon="6.92644">
        <ele>1183.6042534501</ele>
        <time>2025-05-30T10:56:43.000Z</time>
      </trkpt>
      <trkpt lat="47.95787" lon="6.92648">
        <ele>1184.4138558548</ele>
        <time>2025-05-30T10:56:53.000Z</time>
      </trkpt>
      <trkpt lat="47.95814" lon="6.92642">
        <ele>1186.6100738014</ele>
        <time>2025-05-30T10:57:19.000Z</time>
      </trkpt>
      <trkpt lat="47.95825" lon="6.92639">
        <ele>1187.3673571268</ele>
        <time>2025-05-30T10:57:27.000Z</time>
      </trkpt>
      <trkpt lat="47.95856" lon="6.92638">
        <ele>1188.4167549952</ele>
        <time>2025-05-30T10:57:54.000Z</time>
      </trkpt>
      <trkpt lat="47.95865" lon="6.92636">
        <ele>1188.6452682238</ele>
        <time>2025-05-30T10:58:02.000Z</time>
      </trkpt>
      <trkpt lat="47.95878" lon="6.92616">
        <ele>1191.3194763408</ele>
        <time>2025-05-30T10:58:18.000Z</time>
      </trkpt>
      <trkpt lat="47.95888" lon="6.92613">
        <ele>1191.6966009962</ele>
        <time>2025-05-30T10:58:27.000Z</time>
      </trkpt>
      <trkpt lat="47.95891" lon="6.92606">
        <ele>1192.1689500038</ele>
        <time>2025-05-30T10:58:30.000Z</time>
      </trkpt>
      <trkpt lat="47.95896" lon="6.92604">
        <ele>1192.6244465292</ele>
        <time>2025-05-30T10:58:34.000Z</time>
      </trkpt>
      <trkpt lat="47.95901" lon="6.926">
        <ele>1193.2225636808</ele>
        <time>2025-05-30T10:58:38.000Z</time>
      </trkpt>
      <trkpt lat="47.95904" lon="6.92595">
        <ele>1193.8927703273</ele>
        <time>2025-05-30T10:58:42.000Z</time>
      </trkpt>
      <trkpt lat="47.95909" lon="6.92594">
        <ele>1194.5119022375</ele>
        <time>2025-05-30T10:58:45.000Z</time>
      </trkpt>
      <trkpt lat="47.95913" lon="6.9259">
        <ele>1195.2370369149</ele>
        <time>2025-05-30T10:58:49.000Z</time>
      </trkpt>
      <trkpt lat="47.95915" lon="6.92584">
        <ele>1195.7808973871</ele>
        <time>2025-05-30T10:58:53.000Z</time>
      </trkpt>
      <trkpt lat="47.95923" lon="6.92575">
        <ele>1197.3694955917</ele>
        <time>2025-05-30T10:59:01.000Z</time>
      </trkpt>
      <trkpt lat="47.95933" lon="6.92572">
        <ele>1198.9176750579</ele>
        <time>2025-05-30T10:59:10.000Z</time>
      </trkpt>
      <trkpt lat="47.95938" lon="6.92573">
        <ele>1199.207993036</ele>
        <time>2025-05-30T10:59:14.000Z</time>
      </trkpt>
      <trkpt lat="47.95941" lon="6.92568">
        <ele>1199.8574128612</ele>
        <time>2025-05-30T10:59:18.000Z</time>
      </trkpt>
      <trkpt lat="47.95945" lon="6.92569">
        <ele>1200.1742042338</ele>
        <time>2025-05-30T10:59:22.000Z</time>
      </trkpt>
      <trkpt lat="47.95948" lon="6.92563">
        <ele>1200.9834093044</ele>
        <time>2025-05-30T10:59:25.000Z</time>
      </trkpt>
      <trkpt lat="47.95947" lon="6.92553">
        <ele>1201.3705707037</ele>
        <time>2025-05-30T10:59:28.000Z</time>
      </trkpt>
      <trkpt lat="47.95949" lon="6.92546">
        <ele>1201.7610667763</ele>
        <time>2025-05-30T10:59:32.000Z</time>
      </trkpt>
      <trkpt lat="47.95952" lon="6.92542">
        <ele>1202.1270543038</ele>
        <time>2025-05-30T10:59:55.000Z</time>
      </trkpt>
      <trkpt lat="47.95949" lon="6.92533">
        <ele>1202.1082937735</ele>
        <time>2025-05-30T11:00:07.000Z</time>
      </trkpt>
      <trkpt lat="47.95949" lon="6.92525">
        <ele>1202.0136101377</ele>
        <time>2025-05-30T11:00:10.000Z</time>
      </trkpt>
      <trkpt lat="47.9595" lon="6.92519">
        <ele>1201.5819168035</ele>
        <time>2025-05-30T11:00:14.000Z</time>
      </trkpt>
      <trkpt lat="47.95949" lon="6.92511">
        <ele>1200.9593313345</ele>
        <time>2025-05-30T11:00:18.000Z</time>
      </trkpt>
      <trkpt lat="47.95951" lon="6.92505">
        <ele>1200.7070972184</ele>
        <time>2025-05-30T11:00:22.000Z</time>
      </trkpt>
      <trkpt lat="47.9595" lon="6.92498">
        <ele>1200.0738119124</ele>
        <time>2025-05-30T11:00:25.000Z</time>
      </trkpt>
      <trkpt lat="47.95958" lon="6.92443">
        <ele>1193.0136960636</ele>
        <time>2025-05-30T11:00:57.000Z</time>
      </trkpt>
      <trkpt lat="47.95967" lon="6.92394">
        <ele>1189.8506402562</ele>
        <time>2025-05-30T11:01:31.000Z</time>
      </trkpt>
      <trkpt lat="47.95968" lon="6.92381">
        <ele>1188.3370767973</ele>
        <time>2025-05-30T11:01:38.000Z</time>
      </trkpt>
      <trkpt lat="47.95972" lon="6.92362">
        <ele>1186.4706084813</ele>
        <time>2025-05-30T11:01:53.000Z</time>
      </trkpt>
      <trkpt lat="47.95975" lon="6.92356">
        <ele>1185.9097331046</ele>
        <time>2025-05-30T11:01:57.000Z</time>
      </trkpt>
      <trkpt lat="47.95975" lon="6.92347">
        <ele>1185.1169391227</ele>
        <time>2025-05-30T11:02:04.000Z</time>
      </trkpt>
      <trkpt lat="47.9598" lon="6.92329">
        <ele>1183.8780569073</ele>
        <time>2025-05-30T11:02:16.000Z</time>
      </trkpt>
      <trkpt lat="47.9598" lon="6.92323">
        <ele>1183.5763322311</ele>
        <time>2025-05-30T11:02:20.000Z</time>
      </trkpt>
      <trkpt lat="47.95988" lon="6.92288">
        <ele>1180.6212892447</ele>
        <time>2025-05-30T11:02:44.000Z</time>
      </trkpt>
      <trkpt lat="47.95989" lon="6.92273">
        <ele>1178.7384900264</ele>
        <time>2025-05-30T11:02:53.000Z</time>
      </trkpt>
      <trkpt lat="47.95992" lon="6.92267">
        <ele>1177.8856482135</ele>
        <time>2025-05-30T11:02:58.000Z</time>
      </trkpt>
      <trkpt lat="47.95995" lon="6.92261">
        <ele>1177.0925972239</ele>
        <time>2025-05-30T11:03:07.000Z</time>
      </trkpt>
      <trkpt lat="47.96001" lon="6.9224">
        <ele>1174.3467386147</ele>
        <time>2025-05-30T11:03:24.000Z</time>
      </trkpt>
      <trkpt lat="47.96004" lon="6.92236">
        <ele>1173.8257123747</ele>
        <time>2025-05-30T11:03:29.000Z</time>
      </trkpt>
      <trkpt lat="47.96003" lon="6.92229">
        <ele>1172.7519299573</ele>
        <time>2025-05-30T11:03:34.000Z</time>
      </trkpt>
      <trkpt lat="47.96007" lon="6.92224">
        <ele>1172.1012299948</ele>
        <time>2025-05-30T11:03:37.000Z</time>
      </trkpt>
      <trkpt lat="47.96015" lon="6.92176">
        <ele>1163.5745241542</ele>
        <time>2025-05-30T11:04:14.000Z</time>
      </trkpt>
      <trkpt lat="47.96017" lon="6.92171">
        <ele>1162.4819005915</ele>
        <time>2025-05-30T11:04:19.000Z</time>
      </trkpt>
      <trkpt lat="47.96021" lon="6.92167">
        <ele>1161.3845481337</ele>
        <time>2025-05-30T11:04:24.000Z</time>
      </trkpt>
      <trkpt lat="47.96025" lon="6.92163">
        <ele>1160.311625325</ele>
        <time>2025-05-30T11:04:28.000Z</time>
      </trkpt>
      <trkpt lat="47.9603" lon="6.92163">
        <ele>1159.8419676024</ele>
        <time>2025-05-30T11:04:33.000Z</time>
      </trkpt>
      <trkpt lat="47.9604" lon="6.92173">
        <ele>1160.5284279193</ele>
        <time>2025-05-30T11:04:41.000Z</time>
      </trkpt>
      <trkpt lat="47.96043" lon="6.92181">
        <ele>1161.6818911972</ele>
        <time>2025-05-30T11:04:44.000Z</time>
      </trkpt>
      <trkpt lat="47.96034" lon="6.92159">
        <ele>1158.5735938862</ele>
        <time>2025-05-30T12:15:11.000Z</time>
      </trkpt>
      <trkpt lat="47.96033" lon="6.92158">
        <ele>1158.5998312065</ele>
        <time>2025-05-30T12:15:12.000Z</time>
      </trkpt>
      <trkpt lat="47.9603" lon="6.92157">
        <ele>1158.7937020614</ele>
        <time>2025-05-30T12:15:17.000Z</time>
      </trkpt>
      <trkpt lat="47.96026" lon="6.92163">
        <ele>1160.1931708937</ele>
        <time>2025-05-30T12:15:27.000Z</time>
      </trkpt>
      <trkpt lat="47.96023" lon="6.92168">
        <ele>1161.5470799022</ele>
        <time>2025-05-30T12:15:32.000Z</time>
      </trkpt>
      <trkpt lat="47.9602" lon="6.9218">
        <ele>1163.8949162572</ele>
        <time>2025-05-30T12:15:37.000Z</time>
      </trkpt>
      <trkpt lat="47.96013" lon="6.92179">
        <ele>1164.3046676205</ele>
        <time>2025-05-30T12:15:51.000Z</time>
      </trkpt>
      <trkpt lat="47.96012" lon="6.92173">
        <ele>1163.0890651399</ele>
        <time>2025-05-30T12:15:53.000Z</time>
      </trkpt>
      <trkpt lat="47.96017" lon="6.92168">
        <ele>1161.932602166</ele>
        <time>2025-05-30T12:15:56.000Z</time>
      </trkpt>
      <trkpt lat="47.96027" lon="6.92163">
        <ele>1160.1140526494</ele>
        <time>2025-05-30T12:16:03.000Z</time>
      </trkpt>
      <trkpt lat="47.96031" lon="6.92165">
        <ele>1160.1820172608</ele>
        <time>2025-05-30T12:16:07.000Z</time>
      </trkpt>
      <trkpt lat="47.96028" lon="6.92168">
        <ele>1161.0371882546</ele>
        <time>2025-05-30T12:16:28.000Z</time>
      </trkpt>
      <trkpt lat="47.96024" lon="6.92175">
        <ele>1162.64444113</ele>
        <time>2025-05-30T12:16:31.000Z</time>
      </trkpt>
      <trkpt lat="47.96019" lon="6.92184">
        <ele>1164.7754715664</ele>
        <time>2025-05-30T12:16:40.000Z</time>
      </trkpt>
      <trkpt lat="47.96017" lon="6.92192">
        <ele>1166.2932400409</ele>
        <time>2025-05-30T12:16:51.000Z</time>
      </trkpt>
      <trkpt lat="47.96013" lon="6.92202">
        <ele>1168.4534667771</ele>
        <time>2025-05-30T12:16:59.000Z</time>
      </trkpt>
      <trkpt lat="47.96001" lon="6.92241">
        <ele>1174.4777872638</ele>
        <time>2025-05-30T12:17:33.000Z</time>
      </trkpt>
      <trkpt lat="47.95996" lon="6.92272">
        <ele>1178.6406229334</ele>
        <time>2025-05-30T12:18:01.000Z</time>
      </trkpt>
      <trkpt lat="47.95987" lon="6.92276">
        <ele>1179.2115370667</ele>
        <time>2025-05-30T12:18:09.000Z</time>
      </trkpt>
      <trkpt lat="47.95993" lon="6.92289">
        <ele>1180.7105813161</ele>
        <time>2025-05-30T12:18:18.000Z</time>
      </trkpt>
      <trkpt lat="47.95989" lon="6.92295">
        <ele>1181.3669432889</ele>
        <time>2025-05-30T12:18:24.000Z</time>
      </trkpt>
      <trkpt lat="47.9599" lon="6.92305">
        <ele>1182.5401875909</ele>
        <time>2025-05-30T12:18:30.000Z</time>
      </trkpt>
      <trkpt lat="47.95985" lon="6.9232">
        <ele>1183.4458427733</ele>
        <time>2025-05-30T12:18:42.000Z</time>
      </trkpt>
      <trkpt lat="47.95981" lon="6.92325">
        <ele>1183.6741993245</ele>
        <time>2025-05-30T12:18:46.000Z</time>
      </trkpt>
      <trkpt lat="47.95981" lon="6.92354">
        <ele>1185.7073186133</ele>
        <time>2025-05-30T12:19:09.000Z</time>
      </trkpt>
      <trkpt lat="47.95978" lon="6.92368">
        <ele>1186.9469684623</ele>
        <time>2025-05-30T12:19:20.000Z</time>
      </trkpt>
      <trkpt lat="47.95974" lon="6.92369">
        <ele>1187.1091628918</ele>
        <time>2025-05-30T12:19:24.000Z</time>
      </trkpt>
      <trkpt lat="47.95973" lon="6.92378">
        <ele>1188.0814726285</ele>
        <time>2025-05-30T12:19:31.000Z</time>
      </trkpt>
      <trkpt lat="47.95962" lon="6.92426">
        <ele>1192.011955089</ele>
        <time>2025-05-30T12:20:05.000Z</time>
      </trkpt>
      <trkpt lat="47.9596" lon="6.92467">
        <ele>1195.8672788637</ele>
        <time>2025-05-30T12:20:32.000Z</time>
      </trkpt>
      <trkpt lat="47.95956" lon="6.92483">
        <ele>1198.073468579</ele>
        <time>2025-05-30T12:20:43.000Z</time>
      </trkpt>
      <trkpt lat="47.95955" lon="6.9249">
        <ele>1199.3273693419</ele>
        <time>2025-05-30T12:20:47.000Z</time>
      </trkpt>
      <trkpt lat="47.95952" lon="6.92504">
        <ele>1200.8337611654</ele>
        <time>2025-05-30T12:20:59.000Z</time>
      </trkpt>
      <trkpt lat="47.95948" lon="6.92516">
        <ele>1201.1556272148</ele>
        <time>2025-05-30T12:21:08.000Z</time>
      </trkpt>
      <trkpt lat="47.95948" lon="6.9253">
        <ele>1202.0492375315</ele>
        <time>2025-05-30T12:21:16.000Z</time>
      </trkpt>
      <trkpt lat="47.95951" lon="6.92529">
        <ele>1202.2509883924</ele>
        <time>2025-05-30T12:21:41.000Z</time>
      </trkpt>
      <trkpt lat="47.95979" lon="6.9255">
        <ele>1200.3601255615</ele>
        <time>2025-05-30T12:24:18.000Z</time>
      </trkpt>
      <trkpt lat="47.96002" lon="6.92552">
        <ele>1197.4989897224</ele>
        <time>2025-05-30T12:24:37.000Z</time>
      </trkpt>
      <trkpt lat="47.96011" lon="6.92556">
        <ele>1195.7046051181</ele>
        <time>2025-05-30T12:24:45.000Z</time>
      </trkpt>
      <trkpt lat="47.96029" lon="6.92568">
        <ele>1192.2686197479</ele>
        <time>2025-05-30T12:24:59.000Z</time>
      </trkpt>
      <trkpt lat="47.96036" lon="6.92571">
        <ele>1191.0580990365</ele>
        <time>2025-05-30T12:25:07.000Z</time>
      </trkpt>
      <trkpt lat="47.96054" lon="6.92576">
        <ele>1188.4050511645</ele>
        <time>2025-05-30T12:25:42.000Z</time>
      </trkpt>
      <trkpt lat="47.96063" lon="6.92576">
        <ele>1187.5311404311</ele>
        <time>2025-05-30T12:25:52.000Z</time>
      </trkpt>
      <trkpt lat="47.96068" lon="6.92585">
        <ele>1186.5171885035</ele>
        <time>2025-05-30T12:26:01.000Z</time>
      </trkpt>
      <trkpt lat="47.96069" lon="6.92596">
        <ele>1185.9269171734</ele>
        <time>2025-05-30T12:26:09.000Z</time>
      </trkpt>
      <trkpt lat="47.96078" lon="6.92603">
        <ele>1184.6201191556</ele>
        <time>2025-05-30T12:26:22.000Z</time>
      </trkpt>
      <trkpt lat="47.9608" lon="6.92609">
        <ele>1184.0340317889</ele>
        <time>2025-05-30T12:26:25.000Z</time>
      </trkpt>
      <trkpt lat="47.96082" lon="6.92618">
        <ele>1183.4654689847</ele>
        <time>2025-05-30T12:26:29.000Z</time>
      </trkpt>
      <trkpt lat="47.96098" lon="6.92657">
        <ele>1177.5162823474</ele>
        <time>2025-05-30T12:27:02.000Z</time>
      </trkpt>
      <trkpt lat="47.961" lon="6.92664">
        <ele>1176.3480820178</ele>
        <time>2025-05-30T12:27:05.000Z</time>
      </trkpt>
      <trkpt lat="47.96124" lon="6.927">
        <ele>1171.4686775981</ele>
        <time>2025-05-30T12:27:42.000Z</time>
      </trkpt>
      <trkpt lat="47.96133" lon="6.92722">
        <ele>1169.71129781</ele>
        <time>2025-05-30T12:27:59.000Z</time>
      </trkpt>
      <trkpt lat="47.96136" lon="6.92728">
        <ele>1169.5370488861</ele>
        <time>2025-05-30T12:28:02.000Z</time>
      </trkpt>
      <trkpt lat="47.96158" lon="6.92769">
        <ele>1169.3276943016</ele>
        <time>2025-05-30T12:28:23.000Z</time>
      </trkpt>
      <trkpt lat="47.96166" lon="6.92788">
        <ele>1169.0741219698</ele>
        <time>2025-05-30T12:28:35.000Z</time>
      </trkpt>
      <trkpt lat="47.96172" lon="6.92798">
        <ele>1168.7825010703</ele>
        <time>2025-05-30T12:28:43.000Z</time>
      </trkpt>
      <trkpt lat="47.96176" lon="6.92809">
        <ele>1168.4793577444</ele>
        <time>2025-05-30T12:28:54.000Z</time>
      </trkpt>
      <trkpt lat="47.96185" lon="6.92818">
        <ele>1167.8472109568</ele>
        <time>2025-05-30T12:29:04.000Z</time>
      </trkpt>
      <trkpt lat="47.96197" lon="6.92825">
        <ele>1165.6872123488</ele>
        <time>2025-05-30T12:29:15.000Z</time>
      </trkpt>
      <trkpt lat="47.9621" lon="6.92821">
        <ele>1164.834385729</ele>
        <time>2025-05-30T12:29:31.000Z</time>
      </trkpt>
      <trkpt lat="47.96221" lon="6.92819">
        <ele>1162.8370428357</ele>
        <time>2025-05-30T12:29:39.000Z</time>
      </trkpt>
      <trkpt lat="47.96231" lon="6.92823">
        <ele>1160.1468471689</ele>
        <time>2025-05-30T12:29:52.000Z</time>
      </trkpt>
      <trkpt lat="47.96265" lon="6.9282">
        <ele>1153.0601074107</ele>
        <time>2025-05-30T12:30:24.000Z</time>
      </trkpt>
      <trkpt lat="47.96272" lon="6.92811">
        <ele>1151.9885102191</ele>
        <time>2025-05-30T12:30:38.000Z</time>
      </trkpt>
      <trkpt lat="47.96319" lon="6.92812">
        <ele>1146.4663507961</ele>
        <time>2025-05-30T12:31:13.000Z</time>
      </trkpt>
      <trkpt lat="47.96348" lon="6.92821">
        <ele>1144.3263967182</ele>
        <time>2025-05-30T12:31:34.000Z</time>
      </trkpt>
      <trkpt lat="47.96353" lon="6.92824">
        <ele>1143.8139947526</ele>
        <time>2025-05-30T12:31:38.000Z</time>
      </trkpt>
      <trkpt lat="47.96368" lon="6.92828">
        <ele>1142.4180550043</ele>
        <time>2025-05-30T12:31:50.000Z</time>
      </trkpt>
      <trkpt lat="47.96373" lon="6.9283">
        <ele>1141.8739146544</ele>
        <time>2025-05-30T12:31:54.000Z</time>
      </trkpt>
      <trkpt lat="47.96417" lon="6.92838">
        <ele>1135.0203517304</ele>
        <time>2025-05-30T12:32:24.000Z</time>
      </trkpt>
      <trkpt lat="47.96431" lon="6.9284">
        <ele>1132.7211156981</ele>
        <time>2025-05-30T12:32:34.000Z</time>
      </trkpt>
      <trkpt lat="47.96436" lon="6.9284">
        <ele>1132.0307897606</ele>
        <time>2025-05-30T12:32:37.000Z</time>
      </trkpt>
      <trkpt lat="47.96451" lon="6.9284">
        <ele>1129.735308339</ele>
        <time>2025-05-30T12:32:58.000Z</time>
      </trkpt>
      <trkpt lat="47.96496" lon="6.92838">
        <ele>1127.0754090518</ele>
        <time>2025-05-30T12:33:33.000Z</time>
      </trkpt>
      <trkpt lat="47.96526" lon="6.92835">
        <ele>1127.4290532815</ele>
        <time>2025-05-30T12:34:07.000Z</time>
      </trkpt>
      <trkpt lat="47.9654" lon="6.92836">
        <ele>1127.2115519147</ele>
        <time>2025-05-30T12:34:18.000Z</time>
      </trkpt>
      <trkpt lat="47.96554" lon="6.92841">
        <ele>1126.5484141009</ele>
        <time>2025-05-30T12:34:36.000Z</time>
      </trkpt>
      <trkpt lat="47.96563" lon="6.92847">
        <ele>1126.0106376208</ele>
        <time>2025-05-30T12:34:45.000Z</time>
      </trkpt>
      <trkpt lat="47.96569" lon="6.92849">
        <ele>1125.5909093515</ele>
        <time>2025-05-30T12:34:49.000Z</time>
      </trkpt>
      <trkpt lat="47.96587" lon="6.92865">
        <ele>1124.8835127467</ele>
        <time>2025-05-30T12:35:01.000Z</time>
      </trkpt>
      <trkpt lat="47.96592" lon="6.92867">
        <ele>1124.9605204124</ele>
        <time>2025-05-30T12:35:15.000Z</time>
      </trkpt>
      <trkpt lat="47.96601" lon="6.92874">
        <ele>1125.2827554133</ele>
        <time>2025-05-30T12:35:24.000Z</time>
      </trkpt>
      <trkpt lat="47.96607" lon="6.92876">
        <ele>1125.5309699351</ele>
        <time>2025-05-30T12:35:31.000Z</time>
      </trkpt>
      <trkpt lat="47.96624" lon="6.92889">
        <ele>1126.9342038607</ele>
        <time>2025-05-30T12:36:14.000Z</time>
      </trkpt>
      <trkpt lat="47.96629" lon="6.9289">
        <ele>1127.3555543655</ele>
        <time>2025-05-30T12:36:21.000Z</time>
      </trkpt>
      <trkpt lat="47.96636" lon="6.92908">
        <ele>1128.0602066347</ele>
        <time>2025-05-30T12:36:52.000Z</time>
      </trkpt>
      <trkpt lat="47.96642" lon="6.92915">
        <ele>1128.0233355931</ele>
        <time>2025-05-30T12:37:01.000Z</time>
      </trkpt>
      <trkpt lat="47.9665" lon="6.92921">
        <ele>1127.861828198</ele>
        <time>2025-05-30T12:37:13.000Z</time>
      </trkpt>
      <trkpt lat="47.96655" lon="6.92925">
        <ele>1127.4621920978</ele>
        <time>2025-05-30T12:37:19.000Z</time>
      </trkpt>
      <trkpt lat="47.96658" lon="6.92932">
        <ele>1126.9600979349</ele>
        <time>2025-05-30T12:37:24.000Z</time>
      </trkpt>
      <trkpt lat="47.96673" lon="6.92948">
        <ele>1124.3275924206</ele>
        <time>2025-05-30T12:37:45.000Z</time>
      </trkpt>
      <trkpt lat="47.96679" lon="6.92948">
        <ele>1123.7169397749</ele>
        <time>2025-05-30T12:37:50.000Z</time>
      </trkpt>
      <trkpt lat="47.96698" lon="6.92956">
        <ele>1120.6226259359</ele>
        <time>2025-05-30T12:38:16.000Z</time>
      </trkpt>
      <trkpt lat="47.96703" lon="6.9296">
        <ele>1119.5972322035</ele>
        <time>2025-05-30T12:38:19.000Z</time>
      </trkpt>
      <trkpt lat="47.96714" lon="6.92969">
        <ele>1117.6345400805</ele>
        <time>2025-05-30T12:38:31.000Z</time>
      </trkpt>
      <trkpt lat="47.96716" lon="6.92975">
        <ele>1116.5547088839</ele>
        <time>2025-05-30T12:38:34.000Z</time>
      </trkpt>
      <trkpt lat="47.96729" lon="6.93011">
        <ele>1112.2194983557</ele>
        <time>2025-05-30T12:39:08.000Z</time>
      </trkpt>
      <trkpt lat="47.96732" lon="6.9302">
        <ele>1111.5009677787</ele>
        <time>2025-05-30T12:39:14.000Z</time>
      </trkpt>
      <trkpt lat="47.96741" lon="6.93012">
        <ele>1111.3333020866</ele>
        <time>2025-05-30T12:39:41.000Z</time>
      </trkpt>
      <trkpt lat="47.96741" lon="6.93002">
        <ele>1111.9155435571</ele>
        <time>2025-05-30T12:39:44.000Z</time>
      </trkpt>
      <trkpt lat="47.96759" lon="6.9299">
        <ele>1110.098359857</ele>
        <time>2025-05-30T12:39:57.000Z</time>
      </trkpt>
      <trkpt lat="47.96765" lon="6.92987">
        <ele>1109.2674662465</ele>
        <time>2025-05-30T12:40:02.000Z</time>
      </trkpt>
      <trkpt lat="47.96775" lon="6.93">
        <ele>1106.7615308202</ele>
        <time>2025-05-30T12:40:13.000Z</time>
      </trkpt>
      <trkpt lat="47.96784" lon="6.93031">
        <ele>1103.3497489213</ele>
        <time>2025-05-30T12:40:36.000Z</time>
      </trkpt>
      <trkpt lat="47.96786" lon="6.9302">
        <ele>1103.38306579</ele>
        <time>2025-05-30T12:41:01.000Z</time>
      </trkpt>
      <trkpt lat="47.96792" lon="6.93018">
        <ele>1101.9996872074</ele>
        <time>2025-05-30T12:41:05.000Z</time>
      </trkpt>
      <trkpt lat="47.96798" lon="6.9302">
        <ele>1100.4331372321</ele>
        <time>2025-05-30T12:41:08.000Z</time>
      </trkpt>
      <trkpt lat="47.968" lon="6.93026">
        <ele>1099.4390858065</ele>
        <time>2025-05-30T12:41:10.000Z</time>
      </trkpt>
      <trkpt lat="47.968" lon="6.93037">
        <ele>1098.5062631099</ele>
        <time>2025-05-30T12:41:13.000Z</time>
      </trkpt>
      <trkpt lat="47.96799" lon="6.93044">
        <ele>1098.6089048249</ele>
        <time>2025-05-30T12:41:17.000Z</time>
      </trkpt>
      <trkpt lat="47.96797" lon="6.93054">
        <ele>1098.6064143596</ele>
        <time>2025-05-30T12:41:20.000Z</time>
      </trkpt>
      <trkpt lat="47.96796" lon="6.93067">
        <ele>1098.0589926599</ele>
        <time>2025-05-30T12:41:39.000Z</time>
      </trkpt>
      <trkpt lat="47.96804" lon="6.9306">
        <ele>1095.2648629282</ele>
        <time>2025-05-30T12:41:54.000Z</time>
      </trkpt>
      <trkpt lat="47.96819" lon="6.93064">
        <ele>1088.4661326785</ele>
        <time>2025-05-30T12:42:18.000Z</time>
      </trkpt>
      <trkpt lat="47.96834" lon="6.93061">
        <ele>1084.8265657225</ele>
        <time>2025-05-30T12:42:30.000Z</time>
      </trkpt>
      <trkpt lat="47.96841" lon="6.93057">
        <ele>1083.6127818478</ele>
        <time>2025-05-30T12:42:33.000Z</time>
      </trkpt>
      <trkpt lat="47.96875" lon="6.93017">
        <ele>1080.6682822993</ele>
        <time>2025-05-30T12:43:07.000Z</time>
      </trkpt>
      <trkpt lat="47.9688" lon="6.9301">
        <ele>1080.6572890645</ele>
        <time>2025-05-30T12:43:22.000Z</time>
      </trkpt>
      <trkpt lat="47.96886" lon="6.93002">
        <ele>1081.0111084447</ele>
        <time>2025-05-30T12:43:25.000Z</time>
      </trkpt>
      <trkpt lat="47.96892" lon="6.92998">
        <ele>1080.896308382</ele>
        <time>2025-05-30T12:43:28.000Z</time>
      </trkpt>
      <trkpt lat="47.96899" lon="6.92998">
        <ele>1080.2428855735</ele>
        <time>2025-05-30T12:43:31.000Z</time>
      </trkpt>
      <trkpt lat="47.96906" lon="6.9302">
        <ele>1077.9956335742</ele>
        <time>2025-05-30T12:43:40.000Z</time>
      </trkpt>
      <trkpt lat="47.96908" lon="6.93033">
        <ele>1076.7852827285</ele>
        <time>2025-05-30T12:43:54.000Z</time>
      </trkpt>
      <trkpt lat="47.96914" lon="6.93039">
        <ele>1076.5894332507</ele>
        <time>2025-05-30T12:44:00.000Z</time>
      </trkpt>
      <trkpt lat="47.96921" lon="6.93051">
        <ele>1075.7883702965</ele>
        <time>2025-05-30T12:44:12.000Z</time>
      </trkpt>
      <trkpt lat="47.9693" lon="6.93066">
        <ele>1075.2859248946</ele>
        <time>2025-05-30T12:44:20.000Z</time>
      </trkpt>
      <trkpt lat="47.96947" lon="6.93109">
        <ele>1071.9923428096</ele>
        <time>2025-05-30T12:44:50.000Z</time>
      </trkpt>
      <trkpt lat="47.9695" lon="6.93115">
        <ele>1071.3738854749</ele>
        <time>2025-05-30T12:44:54.000Z</time>
      </trkpt>
      <trkpt lat="47.96954" lon="6.93132">
        <ele>1069.4782362281</ele>
        <time>2025-05-30T12:45:06.000Z</time>
      </trkpt>
      <trkpt lat="47.96956" lon="6.93139">
        <ele>1068.5999458515</ele>
        <time>2025-05-30T12:45:13.000Z</time>
      </trkpt>
      <trkpt lat="47.96965" lon="6.9316">
        <ele>1066.1454320351</ele>
        <time>2025-05-30T12:45:26.000Z</time>
      </trkpt>
      <trkpt lat="47.96977" lon="6.93171">
        <ele>1065.0782249735</ele>
        <time>2025-05-30T12:45:57.000Z</time>
      </trkpt>
      <trkpt lat="47.96999" lon="6.93169">
        <ele>1065.0248177228</ele>
        <time>2025-05-30T12:46:01.000Z</time>
      </trkpt>
      <trkpt lat="47.9703" lon="6.93158">
        <ele>1063.1172177224</ele>
        <time>2025-05-30T12:46:28.000Z</time>
      </trkpt>
      <trkpt lat="47.9704" lon="6.93156">
        <ele>1061.8907313412</ele>
        <time>2025-05-30T12:46:37.000Z</time>
      </trkpt>
      <trkpt lat="47.97051" lon="6.93154">
        <ele>1060.3342720904</ele>
        <time>2025-05-30T12:46:50.000Z</time>
      </trkpt>
      <trkpt lat="47.9706" lon="6.93154">
        <ele>1058.7189099285</ele>
        <time>2025-05-30T12:46:57.000Z</time>
      </trkpt>
      <trkpt lat="47.97074" lon="6.93157">
        <ele>1056.1061584141</ele>
        <time>2025-05-30T12:47:09.000Z</time>
      </trkpt>
      <trkpt lat="47.97085" lon="6.93164">
        <ele>1053.8004394168</ele>
        <time>2025-05-30T12:47:21.000Z</time>
      </trkpt>
      <trkpt lat="47.97093" lon="6.93172">
        <ele>1052.2131710635</ele>
        <time>2025-05-30T12:47:24.000Z</time>
      </trkpt>
      <trkpt lat="47.97099" lon="6.93177">
        <ele>1051.327096833</ele>
        <time>2025-05-30T12:47:40.000Z</time>
      </trkpt>
      <trkpt lat="47.97117" lon="6.93211">
        <ele>1047.4057359841</ele>
        <time>2025-05-30T12:48:09.000Z</time>
      </trkpt>
      <trkpt lat="47.97132" lon="6.93253">
        <ele>1040.4977154726</ele>
        <time>2025-05-30T12:48:40.000Z</time>
      </trkpt>
      <trkpt lat="47.97142" lon="6.93297">
        <ele>1034.5997575238</ele>
        <time>2025-05-30T12:49:11.000Z</time>
      </trkpt>
      <trkpt lat="47.97148" lon="6.93351">
        <ele>1030.5334016055</ele>
        <time>2025-05-30T12:49:42.000Z</time>
      </trkpt>
      <trkpt lat="47.97151" lon="6.9338">
        <ele>1026.0672446757</ele>
        <time>2025-05-30T12:50:05.000Z</time>
      </trkpt>
      <trkpt lat="47.97151" lon="6.93379">
        <ele>1026.2640483816</ele>
        <time>2025-05-30T12:50:21.000Z</time>
      </trkpt>
      <trkpt lat="47.9715" lon="6.93368">
        <ele>1028.0236030915</ele>
        <time>2025-05-30T12:50:43.000Z</time>
      </trkpt>
      <trkpt lat="47.97151" lon="6.93351">
        <ele>1030.1060498292</ele>
        <time>2025-05-30T12:50:51.000Z</time>
      </trkpt>
      <trkpt lat="47.97158" lon="6.93341">
        <ele>1029.6095632187</ele>
        <time>2025-05-30T12:50:56.000Z</time>
      </trkpt>
      <trkpt lat="47.97159" lon="6.93334">
        <ele>1029.7424600598</ele>
        <time>2025-05-30T12:51:06.000Z</time>
      </trkpt>
      <trkpt lat="47.97159" lon="6.93284">
        <ele>1030.0057125453</ele>
        <time>2025-05-30T12:51:30.000Z</time>
      </trkpt>
      <trkpt lat="47.97166" lon="6.93255">
        <ele>1028.8226866604</ele>
        <time>2025-05-30T12:51:50.000Z</time>
      </trkpt>
      <trkpt lat="47.97171" lon="6.93247">
        <ele>1027.8983228714</ele>
        <time>2025-05-30T12:52:01.000Z</time>
      </trkpt>
      <trkpt lat="47.97189" lon="6.93235">
        <ele>1025.042525507</ele>
        <time>2025-05-30T12:52:24.000Z</time>
      </trkpt>
      <trkpt lat="47.97219" lon="6.93247">
        <ele>1018.1023925393</ele>
        <time>2025-05-30T12:52:50.000Z</time>
      </trkpt>
      <trkpt lat="47.97228" lon="6.93244">
        <ele>1017.5960980378</ele>
        <time>2025-05-30T12:52:53.000Z</time>
      </trkpt>
      <trkpt lat="47.97247" lon="6.93226">
        <ele>1018.1630073312</ele>
        <time>2025-05-30T12:53:14.000Z</time>
      </trkpt>
      <trkpt lat="47.97255" lon="6.93223">
        <ele>1017.9136256598</ele>
        <time>2025-05-30T12:53:26.000Z</time>
      </trkpt>
      <trkpt lat="47.97273" lon="6.93233">
        <ele>1017.9309794397</ele>
        <time>2025-05-30T12:53:50.000Z</time>
      </trkpt>
      <trkpt lat="47.9728" lon="6.93235">
        <ele>1018.4639699179</ele>
        <time>2025-05-30T12:53:54.000Z</time>
      </trkpt>
      <trkpt lat="47.97288" lon="6.93236">
        <ele>1019.044606606</ele>
        <time>2025-05-30T12:54:00.000Z</time>
      </trkpt>
      <trkpt lat="47.97299" lon="6.93224">
        <ele>1020.3374635573</ele>
        <time>2025-05-30T12:54:18.000Z</time>
      </trkpt>
      <trkpt lat="47.97304" lon="6.93214">
        <ele>1020.7960120208</ele>
        <time>2025-05-30T12:54:21.000Z</time>
      </trkpt>
      <trkpt lat="47.97326" lon="6.93194">
        <ele>1018.4281838232</ele>
        <time>2025-05-30T12:54:47.000Z</time>
      </trkpt>
      <trkpt lat="47.9733" lon="6.93191">
        <ele>1017.4094628536</ele>
        <time>2025-05-30T12:54:55.000Z</time>
      </trkpt>
      <trkpt lat="47.97335" lon="6.93197">
        <ele>1016.8298727678</ele>
        <time>2025-05-30T12:55:00.000Z</time>
      </trkpt>
      <trkpt lat="47.97341" lon="6.93214">
        <ele>1017.5730596534</ele>
        <time>2025-05-30T12:55:06.000Z</time>
      </trkpt>
      <trkpt lat="47.97346" lon="6.93224">
        <ele>1018.3851723662</ele>
        <time>2025-05-30T12:55:15.000Z</time>
      </trkpt>
      <trkpt lat="47.97366" lon="6.93258">
        <ele>1019.2802791741</ele>
        <time>2025-05-30T12:55:37.000Z</time>
      </trkpt>
      <trkpt lat="47.97368" lon="6.93263">
        <ele>1019.1267828623</ele>
        <time>2025-05-30T12:55:40.000Z</time>
      </trkpt>
      <trkpt lat="47.97373" lon="6.93271">
        <ele>1018.7229815881</ele>
        <time>2025-05-30T12:55:46.000Z</time>
      </trkpt>
      <trkpt lat="47.97373" lon="6.9328">
        <ele>1018.9428186157</ele>
        <time>2025-05-30T12:55:52.000Z</time>
      </trkpt>
      <trkpt lat="47.9738" lon="6.93284">
        <ele>1018.3225574355</ele>
        <time>2025-05-30T12:56:00.000Z</time>
      </trkpt>
      <trkpt lat="47.97386" lon="6.9329">
        <ele>1017.9199944641</ele>
        <time>2025-05-30T12:56:04.000Z</time>
      </trkpt>
      <trkpt lat="47.9739" lon="6.933">
        <ele>1017.849760862</ele>
        <time>2025-05-30T12:56:06.000Z</time>
      </trkpt>
      <trkpt lat="47.97411" lon="6.93304">
        <ele>1016.8482917943</ele>
        <time>2025-05-30T12:56:27.000Z</time>
      </trkpt>
      <trkpt lat="47.97417" lon="6.93309">
        <ele>1017.1529699363</ele>
        <time>2025-05-30T12:56:32.000Z</time>
      </trkpt>
      <trkpt lat="47.97421" lon="6.93316">
        <ele>1017.8306577435</ele>
        <time>2025-05-30T12:56:37.000Z</time>
      </trkpt>
      <trkpt lat="47.97432" lon="6.93331">
        <ele>1017.7301187131</ele>
        <time>2025-05-30T12:56:49.000Z</time>
      </trkpt>
      <trkpt lat="47.97452" lon="6.93368">
        <ele>1016.6899043811</ele>
        <time>2025-05-30T12:57:11.000Z</time>
      </trkpt>
      <trkpt lat="47.9745" lon="6.93381">
        <ele>1017.7999270167</ele>
        <time>2025-05-30T12:57:19.000Z</time>
      </trkpt>
      <trkpt lat="47.97453" lon="6.93392">
        <ele>1017.9481743956</ele>
        <time>2025-05-30T12:57:29.000Z</time>
      </trkpt>
      <trkpt lat="47.97468" lon="6.9342">
        <ele>1019.2482362885</ele>
        <time>2025-05-30T12:57:46.000Z</time>
      </trkpt>
      <trkpt lat="47.97478" lon="6.93427">
        <ele>1019.3414979993</ele>
        <time>2025-05-30T12:57:51.000Z</time>
      </trkpt>
      <trkpt lat="47.97482" lon="6.93434">
        <ele>1019.8922130174</ele>
        <time>2025-05-30T12:57:57.000Z</time>
      </trkpt>
      <trkpt lat="47.97502" lon="6.93459">
        <ele>1021.2772116191</ele>
        <time>2025-05-30T12:58:14.000Z</time>
      </trkpt>
      <trkpt lat="47.97525" lon="6.93469">
        <ele>1019.9075834318</ele>
        <time>2025-05-30T12:58:33.000Z</time>
      </trkpt>
      <trkpt lat="47.9753" lon="6.93488">
        <ele>1023.4939555004</ele>
        <time>2025-05-30T12:58:42.000Z</time>
      </trkpt>
      <trkpt lat="47.97545" lon="6.93519">
        <ele>1026.5718821225</ele>
        <time>2025-05-30T12:59:02.000Z</time>
      </trkpt>
      <trkpt lat="47.97545" lon="6.93536">
        <ele>1030.4354597769</ele>
        <time>2025-05-30T12:59:07.000Z</time>
      </trkpt>
      <trkpt lat="47.9755" lon="6.93546">
        <ele>1031.3037898729</ele>
        <time>2025-05-30T12:59:13.000Z</time>
      </trkpt>
      <trkpt lat="47.97562" lon="6.93559">
        <ele>1031.5175809367</ele>
        <time>2025-05-30T12:59:22.000Z</time>
      </trkpt>
      <trkpt lat="47.97574" lon="6.93559">
        <ele>1028.6401921947</ele>
        <time>2025-05-30T12:59:32.000Z</time>
      </trkpt>
      <trkpt lat="47.97584" lon="6.93549">
        <ele>1025.1556586171</ele>
        <time>2025-05-30T12:59:41.000Z</time>
      </trkpt>
      <trkpt lat="47.97589" lon="6.93546">
        <ele>1024.0271716804</ele>
        <time>2025-05-30T12:59:44.000Z</time>
      </trkpt>
      <trkpt lat="47.97594" lon="6.93538">
        <ele>1021.223128155</ele>
        <time>2025-05-30T12:59:52.000Z</time>
      </trkpt>
      <trkpt lat="47.97621" lon="6.93518">
        <ele>1017.9384321693</ele>
        <time>2025-05-30T13:00:16.000Z</time>
      </trkpt>
      <trkpt lat="47.97627" lon="6.93517">
        <ele>1018.1580324741</ele>
        <time>2025-05-30T13:00:20.000Z</time>
      </trkpt>
      <trkpt lat="47.97633" lon="6.93513">
        <ele>1017.550452259</ele>
        <time>2025-05-30T13:00:25.000Z</time>
      </trkpt>
      <trkpt lat="47.97637" lon="6.93511">
        <ele>1017.2197140006</ele>
        <time>2025-05-30T13:00:28.000Z</time>
      </trkpt>
      <trkpt lat="47.97647" lon="6.93506">
        <ele>1016.6632299407</ele>
        <time>2025-05-30T13:00:35.000Z</time>
      </trkpt>
      <trkpt lat="47.97651" lon="6.93501">
        <ele>1015.8651817748</ele>
        <time>2025-05-30T13:00:39.000Z</time>
      </trkpt>
      <trkpt lat="47.97657" lon="6.93503">
        <ele>1016.8544754026</ele>
        <time>2025-05-30T13:00:43.000Z</time>
      </trkpt>
      <trkpt lat="47.9766" lon="6.93496">
        <ele>1015.7544672316</ele>
        <time>2025-05-30T13:00:47.000Z</time>
      </trkpt>
      <trkpt lat="47.97666" lon="6.93492">
        <ele>1015.5955143133</ele>
        <time>2025-05-30T13:00:52.000Z</time>
      </trkpt>
      <trkpt lat="47.97682" lon="6.93487">
        <ele>1016.3546852379</ele>
        <time>2025-05-30T13:01:04.000Z</time>
      </trkpt>
      <trkpt lat="47.97687" lon="6.9348">
        <ele>1015.5329847577</ele>
        <time>2025-05-30T13:01:10.000Z</time>
      </trkpt>
      <trkpt lat="47.97696" lon="6.93476">
        <ele>1016.080015655</ele>
        <time>2025-05-30T13:01:16.000Z</time>
      </trkpt>
      <trkpt lat="47.97701" lon="6.93474">
        <ele>1016.5916105461</ele>
        <time>2025-05-30T13:01:19.000Z</time>
      </trkpt>
      <trkpt lat="47.97733" lon="6.93438">
        <ele>1015.6641238696</ele>
        <time>2025-05-30T13:01:49.000Z</time>
      </trkpt>
      <trkpt lat="47.97745" lon="6.93433">
        <ele>1016.950430337</ele>
        <time>2025-05-30T13:02:01.000Z</time>
      </trkpt>
      <trkpt lat="47.97749" lon="6.93427">
        <ele>1016.4054847408</ele>
        <time>2025-05-30T13:02:05.000Z</time>
      </trkpt>
      <trkpt lat="47.97754" lon="6.93423">
        <ele>1016.3111668973</ele>
        <time>2025-05-30T13:02:09.000Z</time>
      </trkpt>
      <trkpt lat="47.97758" lon="6.93416">
        <ele>1015.3974579104</ele>
        <time>2025-05-30T13:02:14.000Z</time>
      </trkpt>
      <trkpt lat="47.97776" lon="6.93415">
        <ele>1018.0293961711</ele>
        <time>2025-05-30T13:02:25.000Z</time>
      </trkpt>
      <trkpt lat="47.97784" lon="6.93405">
        <ele>1016.813707385</ele>
        <time>2025-05-30T13:02:33.000Z</time>
      </trkpt>
      <trkpt lat="47.97795" lon="6.93406">
        <ele>1018.4712060194</ele>
        <time>2025-05-30T13:02:40.000Z</time>
      </trkpt>
      <trkpt lat="47.9781" lon="6.93396">
        <ele>1017.7861013058</ele>
        <time>2025-05-30T13:02:54.000Z</time>
      </trkpt>
      <trkpt lat="47.97816" lon="6.93395">
        <ele>1018.1325760425</ele>
        <time>2025-05-30T13:02:59.000Z</time>
      </trkpt>
      <trkpt lat="47.97827" lon="6.93397">
        <ele>1019.7516227699</ele>
        <time>2025-05-30T13:03:08.000Z</time>
      </trkpt>
      <trkpt lat="47.97836" lon="6.93395">
        <ele>1019.8639697259</ele>
        <time>2025-05-30T13:03:15.000Z</time>
      </trkpt>
      <trkpt lat="47.97842" lon="6.93396">
        <ele>1020.5874613514</ele>
        <time>2025-05-30T13:03:21.000Z</time>
      </trkpt>
      <trkpt lat="47.97852" lon="6.93394">
        <ele>1020.3682601024</ele>
        <time>2025-05-30T13:03:29.000Z</time>
      </trkpt>
      <trkpt lat="47.97866" lon="6.93404">
        <ele>1022.1704689157</ele>
        <time>2025-05-30T13:03:40.000Z</time>
      </trkpt>
      <trkpt lat="47.97872" lon="6.93404">
        <ele>1021.8205338435</ele>
        <time>2025-05-30T13:03:45.000Z</time>
      </trkpt>
      <trkpt lat="47.97875" lon="6.93412">
        <ele>1023.3976546109</ele>
        <time>2025-05-30T13:03:48.000Z</time>
      </trkpt>
      <trkpt lat="47.97884" lon="6.9342">
        <ele>1024.4804455887</ele>
        <time>2025-05-30T13:04:05.000Z</time>
      </trkpt>
      <trkpt lat="47.97896" lon="6.93425">
        <ele>1024.6780084087</ele>
        <time>2025-05-30T13:04:16.000Z</time>
      </trkpt>
      <trkpt lat="47.97901" lon="6.93433">
        <ele>1026.0868703763</ele>
        <time>2025-05-30T13:04:19.000Z</time>
      </trkpt>
      <trkpt lat="47.97914" lon="6.93467">
        <ele>1030.9314239766</ele>
        <time>2025-05-30T13:04:50.000Z</time>
      </trkpt>
      <trkpt lat="47.97914" lon="6.93481">
        <ele>1033.4333085481</ele>
        <time>2025-05-30T13:05:01.000Z</time>
      </trkpt>
      <trkpt lat="47.97919" lon="6.93493">
        <ele>1035.0526877489</ele>
        <time>2025-05-30T13:05:10.000Z</time>
      </trkpt>
      <trkpt lat="47.97919" lon="6.93509">
        <ele>1037.9984199394</ele>
        <time>2025-05-30T13:05:17.000Z</time>
      </trkpt>
      <trkpt lat="47.97925" lon="6.93516">
        <ele>1038.2070382502</ele>
        <time>2025-05-30T13:05:26.000Z</time>
      </trkpt>
      <trkpt lat="47.97928" lon="6.93524">
        <ele>1039.0904105891</ele>
        <time>2025-05-30T13:05:32.000Z</time>
      </trkpt>
      <trkpt lat="47.97929" lon="6.93531">
        <ele>1040.1469690875</ele>
        <time>2025-05-30T13:05:35.000Z</time>
      </trkpt>
      <trkpt lat="47.97933" lon="6.93543">
        <ele>1041.4055662276</ele>
        <time>2025-05-30T13:05:44.000Z</time>
      </trkpt>
      <trkpt lat="47.97943" lon="6.9359">
        <ele>1045.7830168991</ele>
        <time>2025-05-30T13:06:17.000Z</time>
      </trkpt>
      <trkpt lat="47.97951" lon="6.93618">
        <ele>1046.0915918648</ele>
        <time>2025-05-30T13:06:32.000Z</time>
      </trkpt>
      <trkpt lat="47.97965" lon="6.93657">
        <ele>1042.5137691337</ele>
        <time>2025-05-30T13:06:57.000Z</time>
      </trkpt>
      <trkpt lat="47.97967" lon="6.93667">
        <ele>1042.4899859454</ele>
        <time>2025-05-30T13:07:06.000Z</time>
      </trkpt>
      <trkpt lat="47.97964" lon="6.93706">
        <ele>1045.7978272154</ele>
        <time>2025-05-30T13:07:30.000Z</time>
      </trkpt>
      <trkpt lat="47.97951" lon="6.93759">
        <ele>1054.5301027871</ele>
        <time>2025-05-30T13:08:06.000Z</time>
      </trkpt>
      <trkpt lat="47.97951" lon="6.93778">
        <ele>1056.4580764256</ele>
        <time>2025-05-30T13:08:19.000Z</time>
      </trkpt>
      <trkpt lat="47.97951" lon="6.93799">
        <ele>1058.5285925849</ele>
        <time>2025-05-30T13:08:28.000Z</time>
      </trkpt>
      <trkpt lat="47.97951" lon="6.93822">
        <ele>1060.0221121322</ele>
        <time>2025-05-30T13:08:40.000Z</time>
      </trkpt>
      <trkpt lat="47.97949" lon="6.93865">
        <ele>1060.6482119699</ele>
        <time>2025-05-30T13:09:15.000Z</time>
      </trkpt>
      <trkpt lat="47.97948" lon="6.93887">
        <ele>1061.0650432598</ele>
        <time>2025-05-30T13:09:31.000Z</time>
      </trkpt>
      <trkpt lat="47.97953" lon="6.93894">
        <ele>1059.6167714344</ele>
        <time>2025-05-30T13:09:37.000Z</time>
      </trkpt>
      <trkpt lat="47.97954" lon="6.93904">
        <ele>1059.8885629208</ele>
        <time>2025-05-30T13:09:41.000Z</time>
      </trkpt>
      <trkpt lat="47.97962" lon="6.93929">
        <ele>1058.933650304</ele>
        <time>2025-05-30T13:09:54.000Z</time>
      </trkpt>
      <trkpt lat="47.9797" lon="6.93979">
        <ele>1060.7228308606</ele>
        <time>2025-05-30T13:10:26.000Z</time>
      </trkpt>
      <trkpt lat="47.97973" lon="6.93993">
        <ele>1061.0290582541</ele>
        <time>2025-05-30T13:10:32.000Z</time>
      </trkpt>
      <trkpt lat="47.97979" lon="6.94011">
        <ele>1061.7817396814</ele>
        <time>2025-05-30T13:10:43.000Z</time>
      </trkpt>
      <trkpt lat="47.97984" lon="6.94024">
        <ele>1062.9528188883</ele>
        <time>2025-05-30T13:10:52.000Z</time>
      </trkpt>
      <trkpt lat="47.97987" lon="6.94032">
        <ele>1063.8865143752</ele>
        <time>2025-05-30T13:11:03.000Z</time>
      </trkpt>
      <trkpt lat="47.97992" lon="6.9404">
        <ele>1064.8437335651</ele>
        <time>2025-05-30T13:11:10.000Z</time>
      </trkpt>
      <trkpt lat="47.98001" lon="6.94049">
        <ele>1066.2237849629</ele>
        <time>2025-05-30T13:11:23.000Z</time>
      </trkpt>
      <trkpt lat="47.98009" lon="6.94052">
        <ele>1066.4257424801</ele>
        <time>2025-05-30T13:11:42.000Z</time>
      </trkpt>
      <trkpt lat="47.98023" lon="6.94053">
        <ele>1066.098902618</ele>
        <time>2025-05-30T13:11:54.000Z</time>
      </trkpt>
      <trkpt lat="47.98028" lon="6.9405">
        <ele>1065.3579258647</ele>
        <time>2025-05-30T13:11:58.000Z</time>
      </trkpt>
      <trkpt lat="47.98032" lon="6.94047">
        <ele>1064.5742425644</ele>
        <time>2025-05-30T13:12:01.000Z</time>
      </trkpt>
      <trkpt lat="47.98057" lon="6.94021">
        <ele>1060.7768902139</ele>
        <time>2025-05-30T13:12:27.000Z</time>
      </trkpt>
      <trkpt lat="47.98073" lon="6.94009">
        <ele>1060.0030978556</ele>
        <time>2025-05-30T13:12:45.000Z</time>
      </trkpt>
      <trkpt lat="47.98079" lon="6.94005">
        <ele>1059.8359641872</ele>
        <time>2025-05-30T13:12:52.000Z</time>
      </trkpt>
      <trkpt lat="47.98098" lon="6.94006">
        <ele>1062.0297326289</ele>
        <time>2025-05-30T13:13:14.000Z</time>
      </trkpt>
      <trkpt lat="47.9811" lon="6.94012">
        <ele>1064.3754865531</ele>
        <time>2025-05-30T13:13:29.000Z</time>
      </trkpt>
      <trkpt lat="47.9812" lon="6.94018">
        <ele>1066.6364547261</ele>
        <time>2025-05-30T13:13:36.000Z</time>
      </trkpt>
      <trkpt lat="47.98151" lon="6.94035">
        <ele>1071.9895372428</ele>
        <time>2025-05-30T13:14:10.000Z</time>
      </trkpt>
      <trkpt lat="47.98156" lon="6.94039">
        <ele>1072.9607434547</ele>
        <time>2025-05-30T13:14:16.000Z</time>
      </trkpt>
      <trkpt lat="47.9816" lon="6.94038">
        <ele>1073.1764452531</ele>
        <time>2025-05-30T13:14:23.000Z</time>
      </trkpt>
      <trkpt lat="47.9817" lon="6.94043">
        <ele>1074.5343295293</ele>
        <time>2025-05-30T13:14:30.000Z</time>
      </trkpt>
      <trkpt lat="47.9817" lon="6.94052">
        <ele>1076.1646730982</ele>
        <time>2025-05-30T13:14:39.000Z</time>
      </trkpt>
      <trkpt lat="47.98157" lon="6.94053">
        <ele>1075.7030417161</ele>
        <time>2025-05-30T13:15:00.000Z</time>
      </trkpt>
      <trkpt lat="47.98164" lon="6.94051">
        <ele>1075.791739108</ele>
        <time>2025-05-30T13:15:08.000Z</time>
      </trkpt>
      <trkpt lat="47.98178" lon="6.94057">
        <ele>1077.4049709702</ele>
        <time>2025-05-30T13:15:20.000Z</time>
      </trkpt>
      <trkpt lat="47.98184" lon="6.94063">
        <ele>1078.6814621578</ele>
        <time>2025-05-30T13:15:24.000Z</time>
      </trkpt>
      <trkpt lat="47.98188" lon="6.94069">
        <ele>1079.7984821508</ele>
        <time>2025-05-30T13:15:31.000Z</time>
      </trkpt>
      <trkpt lat="47.98196" lon="6.94091">
        <ele>1083.706688</ele>
        <time>2025-05-30T13:15:45.000Z</time>
      </trkpt>
      <trkpt lat="47.98214" lon="6.94101">
        <ele>1085.9737067972</ele>
        <time>2025-05-30T13:16:05.000Z</time>
      </trkpt>
      <trkpt lat="47.98221" lon="6.94105">
        <ele>1086.9266540819</ele>
        <time>2025-05-30T13:16:11.000Z</time>
      </trkpt>
      <trkpt lat="47.98231" lon="6.94119">
        <ele>1089.3072616672</ele>
        <time>2025-05-30T13:16:26.000Z</time>
      </trkpt>
      <trkpt lat="47.98236" lon="6.94119">
        <ele>1089.5149658002</ele>
        <time>2025-05-30T13:16:31.000Z</time>
      </trkpt>
      <trkpt lat="47.9826" lon="6.94137">
        <ele>1092.2058273573</ele>
        <time>2025-05-30T13:16:53.000Z</time>
      </trkpt>
      <trkpt lat="47.98266" lon="6.94135">
        <ele>1091.7988637922</ele>
        <time>2025-05-30T13:16:59.000Z</time>
      </trkpt>
      <trkpt lat="47.98272" lon="6.94129">
        <ele>1090.9687584236</ele>
        <time>2025-05-30T13:17:02.000Z</time>
      </trkpt>
      <trkpt lat="47.98281" lon="6.94124">
        <ele>1090.0444656496</ele>
        <time>2025-05-30T13:17:08.000Z</time>
      </trkpt>
      <trkpt lat="47.98296" lon="6.94128">
        <ele>1090.1139119004</ele>
        <time>2025-05-30T13:17:24.000Z</time>
      </trkpt>
      <trkpt lat="47.98303" lon="6.9413">
        <ele>1090.3211894104</ele>
        <time>2025-05-30T13:17:28.000Z</time>
      </trkpt>
      <trkpt lat="47.98315" lon="6.94135">
        <ele>1090.8253335018</ele>
        <time>2025-05-30T13:17:38.000Z</time>
      </trkpt>
      <trkpt lat="47.98334" lon="6.94139">
        <ele>1091.7900707557</ele>
        <time>2025-05-30T13:17:52.000Z</time>
      </trkpt>
      <trkpt lat="47.98346" lon="6.94142">
        <ele>1092.0463893333</ele>
        <time>2025-05-30T13:18:07.000Z</time>
      </trkpt>
      <trkpt lat="47.98357" lon="6.94145">
        <ele>1092.2915785391</ele>
        <time>2025-05-30T13:18:18.000Z</time>
      </trkpt>
      <trkpt lat="47.98362" lon="6.9414">
        <ele>1091.4871345242</ele>
        <time>2025-05-30T13:18:23.000Z</time>
      </trkpt>
      <trkpt lat="47.98372" lon="6.94142">
        <ele>1091.3416708713</ele>
        <time>2025-05-30T13:18:30.000Z</time>
      </trkpt>
      <trkpt lat="47.98378" lon="6.94149">
        <ele>1091.9444310277</ele>
        <time>2025-05-30T13:18:34.000Z</time>
      </trkpt>
      <trkpt lat="47.98401" lon="6.94159">
        <ele>1092.3924394665</ele>
        <time>2025-05-30T13:18:53.000Z</time>
      </trkpt>
      <trkpt lat="47.98409" lon="6.9416">
        <ele>1092.5324933698</ele>
        <time>2025-05-30T13:19:02.000Z</time>
      </trkpt>
      <trkpt lat="47.98457" lon="6.94185">
        <ele>1093.2508910893</ele>
        <time>2025-05-30T13:19:39.000Z</time>
      </trkpt>
      <trkpt lat="47.98465" lon="6.9419">
        <ele>1092.7701488805</ele>
        <time>2025-05-30T13:19:47.000Z</time>
      </trkpt>
      <trkpt lat="47.98474" lon="6.942">
        <ele>1092.3310352487</ele>
        <time>2025-05-30T13:19:58.000Z</time>
      </trkpt>
      <trkpt lat="47.98476" lon="6.94214">
        <ele>1092.6208279704</ele>
        <time>2025-05-30T13:20:03.000Z</time>
      </trkpt>
      <trkpt lat="47.98499" lon="6.94237">
        <ele>1091.5625494219</ele>
        <time>2025-05-30T13:20:21.000Z</time>
      </trkpt>
      <trkpt lat="47.98505" lon="6.94266">
        <ele>1092.4064626272</ele>
        <time>2025-05-30T13:20:40.000Z</time>
      </trkpt>
      <trkpt lat="47.98509" lon="6.94277">
        <ele>1092.4908404667</ele>
        <time>2025-05-30T13:20:45.000Z</time>
      </trkpt>
      <trkpt lat="47.98517" lon="6.9428">
        <ele>1092.8930629095</ele>
        <time>2025-05-30T13:20:53.000Z</time>
      </trkpt>
      <trkpt lat="47.98529" lon="6.94286">
        <ele>1093.0848675961</ele>
        <time>2025-05-30T13:21:01.000Z</time>
      </trkpt>
      <trkpt lat="47.9854" lon="6.94306">
        <ele>1093.3867833741</ele>
        <time>2025-05-30T13:21:16.000Z</time>
      </trkpt>
      <trkpt lat="47.98562" lon="6.94324">
        <ele>1092.5270613131</ele>
        <time>2025-05-30T13:21:38.000Z</time>
      </trkpt>
      <trkpt lat="47.98571" lon="6.94331">
        <ele>1092.1318274953</ele>
        <time>2025-05-30T13:21:44.000Z</time>
      </trkpt>
      <trkpt lat="47.98579" lon="6.9434">
        <ele>1092.594226062</ele>
        <time>2025-05-30T13:21:50.000Z</time>
      </trkpt>
      <trkpt lat="47.98584" lon="6.94352">
        <ele>1093.7002435673</ele>
        <time>2025-05-30T13:21:55.000Z</time>
      </trkpt>
      <trkpt lat="47.98591" lon="6.9436">
        <ele>1093.4665974237</ele>
        <time>2025-05-30T13:22:00.000Z</time>
      </trkpt>
      <trkpt lat="47.98591" lon="6.94371">
        <ele>1093.283065314</ele>
        <time>2025-05-30T13:22:06.000Z</time>
      </trkpt>
      <trkpt lat="47.98599" lon="6.94381">
        <ele>1093.0714885689</ele>
        <time>2025-05-30T13:22:23.000Z</time>
      </trkpt>
      <trkpt lat="47.9861" lon="6.94388">
        <ele>1092.9753404999</ele>
        <time>2025-05-30T13:22:34.000Z</time>
      </trkpt>
      <trkpt lat="47.98622" lon="6.9441">
        <ele>1092.9088259793</ele>
        <time>2025-05-30T13:22:42.000Z</time>
      </trkpt>
      <trkpt lat="47.98631" lon="6.94406">
        <ele>1092.9522022652</ele>
        <time>2025-05-30T13:22:50.000Z</time>
      </trkpt>
      <trkpt lat="47.98639" lon="6.94414">
        <ele>1093.7682015093</ele>
        <time>2025-05-30T13:22:57.000Z</time>
      </trkpt>
      <trkpt lat="47.98645" lon="6.9443">
        <ele>1096.0243428181</ele>
        <time>2025-05-30T13:23:15.000Z</time>
      </trkpt>
      <trkpt lat="47.98648" lon="6.94443">
        <ele>1098.0632098932</ele>
        <time>2025-05-30T13:23:25.000Z</time>
      </trkpt>
      <trkpt lat="47.98658" lon="6.94452">
        <ele>1098.8568864711</ele>
        <time>2025-05-30T13:23:30.000Z</time>
      </trkpt>
      <trkpt lat="47.98678" lon="6.94467">
        <ele>1099.2584963709</ele>
        <time>2025-05-30T13:23:44.000Z</time>
      </trkpt>
      <trkpt lat="47.98683" lon="6.94461">
        <ele>1099.0018236133</ele>
        <time>2025-05-30T13:23:49.000Z</time>
      </trkpt>
      <trkpt lat="47.98699" lon="6.94478">
        <ele>1100.2855825004</ele>
        <time>2025-05-30T13:24:09.000Z</time>
      </trkpt>
      <trkpt lat="47.98702" lon="6.94489">
        <ele>1100.5248950589</ele>
        <time>2025-05-30T13:24:16.000Z</time>
      </trkpt>
      <trkpt lat="47.98708" lon="6.9449">
        <ele>1100.8702568625</ele>
        <time>2025-05-30T13:24:18.000Z</time>
      </trkpt>
      <trkpt lat="47.98736" lon="6.94514">
        <ele>1102.465577678</ele>
        <time>2025-05-30T13:24:45.000Z</time>
      </trkpt>
      <trkpt lat="47.98748" lon="6.94515">
        <ele>1102.4689504722</ele>
        <time>2025-05-30T13:24:57.000Z</time>
      </trkpt>
      <trkpt lat="47.98755" lon="6.94518">
        <ele>1102.5518150334</ele>
        <time>2025-05-30T13:25:08.000Z</time>
      </trkpt>
      <trkpt lat="47.98778" lon="6.94516">
        <ele>1102.0298492097</ele>
        <time>2025-05-30T13:25:26.000Z</time>
      </trkpt>
      <trkpt lat="47.98784" lon="6.94526">
        <ele>1102.5356832824</ele>
        <time>2025-05-30T13:25:33.000Z</time>
      </trkpt>
      <trkpt lat="47.98794" lon="6.9452">
        <ele>1101.7698818464</ele>
        <time>2025-05-30T13:25:44.000Z</time>
      </trkpt>
      <trkpt lat="47.98803" lon="6.94519">
        <ele>1101.390542981</ele>
        <time>2025-05-30T13:26:09.000Z</time>
      </trkpt>
      <trkpt lat="47.98815" lon="6.94509">
        <ele>1100.7489458652</ele>
        <time>2025-05-30T13:26:22.000Z</time>
      </trkpt>
      <trkpt lat="47.98827" lon="6.94508">
        <ele>1101.799629235</ele>
        <time>2025-05-30T13:26:31.000Z</time>
      </trkpt>
      <trkpt lat="47.98831" lon="6.94516">
        <ele>1102.0118394468</ele>
        <time>2025-05-30T13:26:35.000Z</time>
      </trkpt>
      <trkpt lat="47.98832" lon="6.9452">
        <ele>1102.0592030872</ele>
        <time>2025-05-30T13:26:52.000Z</time>
      </trkpt>
      <trkpt lat="47.98827" lon="6.94523">
        <ele>1101.6567430691</ele>
        <time>2025-05-30T13:27:48.000Z</time>
      </trkpt>
      <trkpt lat="47.98829" lon="6.94521">
        <ele>1101.8420628512</ele>
        <time>2025-05-30T13:28:27.000Z</time>
      </trkpt>
      <trkpt lat="47.98846" lon="6.94504">
        <ele>1104.6432035947</ele>
        <time>2025-05-30T13:29:03.000Z</time>
      </trkpt>
      <trkpt lat="47.98859" lon="6.94512">
        <ele>1105.8501262651</ele>
        <time>2025-05-30T13:29:16.000Z</time>
      </trkpt>
      <trkpt lat="47.98866" lon="6.94489">
        <ele>1109.1754736403</ele>
        <time>2025-05-30T13:29:46.000Z</time>
      </trkpt>
      <trkpt lat="47.98877" lon="6.94474">
        <ele>1113.8457038624</ele>
        <time>2025-05-30T13:29:50.000Z</time>
      </trkpt>
      <trkpt lat="47.98902" lon="6.94472">
        <ele>1122.8090135163</ele>
        <time>2025-05-30T13:30:12.000Z</time>
      </trkpt>
      <trkpt lat="47.98902" lon="6.94487">
        <ele>1119.8613723894</ele>
        <time>2025-05-30T13:30:19.000Z</time>
      </trkpt>
      <trkpt lat="47.989" lon="6.94511">
        <ele>1114.5197861482</ele>
        <time>2025-05-30T13:30:29.000Z</time>
      </trkpt>
      <trkpt lat="47.98912" lon="6.94527">
        <ele>1117.0839135301</ele>
        <time>2025-05-30T13:30:44.000Z</time>
      </trkpt>
      <trkpt lat="47.98912" lon="6.94535">
        <ele>1116.534104925</ele>
        <time>2025-05-30T13:30:52.000Z</time>
      </trkpt>
      <trkpt lat="47.98915" lon="6.94544">
        <ele>1116.9330244528</ele>
        <time>2025-05-30T13:30:56.000Z</time>
      </trkpt>
      <trkpt lat="47.98917" lon="6.9455">
        <ele>1117.3771252101</ele>
        <time>2025-05-30T13:31:01.000Z</time>
      </trkpt>
      <trkpt lat="47.9892" lon="6.94555">
        <ele>1117.9969861977</ele>
        <time>2025-05-30T13:31:04.000Z</time>
      </trkpt>
      <trkpt lat="47.9892" lon="6.94553">
        <ele>1117.9540095077</ele>
        <time>2025-05-30T13:31:28.000Z</time>
      </trkpt>
      <trkpt lat="47.98916" lon="6.94532">
        <ele>1118.2406822091</ele>
        <time>2025-05-30T13:31:45.000Z</time>
      </trkpt>
      <trkpt lat="47.98924" lon="6.94538">
        <ele>1120.6873754387</ele>
        <time>2025-05-30T13:31:54.000Z</time>
      </trkpt>
      <trkpt lat="47.98929" lon="6.94539">
        <ele>1122.5502438141</ele>
        <time>2025-05-30T13:31:58.000Z</time>
      </trkpt>
      <trkpt lat="47.98933" lon="6.94543">
        <ele>1123.4513695933</ele>
        <time>2025-05-30T13:32:01.000Z</time>
      </trkpt>
      <trkpt lat="47.98941" lon="6.94548">
        <ele>1125.858708119</ele>
        <time>2025-05-30T13:32:09.000Z</time>
      </trkpt>
      <trkpt lat="47.98954" lon="6.94571">
        <ele>1127.369711046</ele>
        <time>2025-05-30T13:32:38.000Z</time>
      </trkpt>
      <trkpt lat="47.98969" lon="6.94582">
        <ele>1129.7024688534</ele>
        <time>2025-05-30T13:32:51.000Z</time>
      </trkpt>
      <trkpt lat="47.98983" lon="6.94598">
        <ele>1130.6776013816</ele>
        <time>2025-05-30T13:33:01.000Z</time>
      </trkpt>
      <trkpt lat="47.9901" lon="6.94599">
        <ele>1138.7107387472</ele>
        <time>2025-05-30T13:33:28.000Z</time>
      </trkpt>
      <trkpt lat="47.99019" lon="6.94586">
        <ele>1144.2718207665</ele>
        <time>2025-05-30T13:33:47.000Z</time>
      </trkpt>
      <trkpt lat="47.99041" lon="6.94604">
        <ele>1149.8017723923</ele>
        <time>2025-05-30T13:34:26.000Z</time>
      </trkpt>
      <trkpt lat="47.99054" lon="6.94611">
        <ele>1153.2226167224</ele>
        <time>2025-05-30T13:34:36.000Z</time>
      </trkpt>
      <trkpt lat="47.99056" lon="6.9464">
        <ele>1149.7522200774</ele>
        <time>2025-05-30T13:35:17.000Z</time>
      </trkpt>
      <trkpt lat="47.99068" lon="6.9466">
        <ele>1150.3172197832</ele>
        <time>2025-05-30T13:35:35.000Z</time>
      </trkpt>
      <trkpt lat="47.99077" lon="6.94674">
        <ele>1151.251893859</ele>
        <time>2025-05-30T13:35:50.000Z</time>
      </trkpt>
      <trkpt lat="47.9908" lon="6.94688">
        <ele>1151.5907084113</ele>
        <time>2025-05-30T13:35:59.000Z</time>
      </trkpt>
      <trkpt lat="47.99087" lon="6.947">
        <ele>1152.8175987317</ele>
        <time>2025-05-30T13:36:10.000Z</time>
      </trkpt>
      <trkpt lat="47.99106" lon="6.94707">
        <ele>1153.9920382721</ele>
        <time>2025-05-30T13:36:28.000Z</time>
      </trkpt>
      <trkpt lat="47.99115" lon="6.94714">
        <ele>1153.2482215152</ele>
        <time>2025-05-30T13:36:41.000Z</time>
      </trkpt>
      <trkpt lat="47.99124" lon="6.94703">
        <ele>1152.8381480035</ele>
        <time>2025-05-30T13:37:18.000Z</time>
      </trkpt>
      <trkpt lat="47.99129" lon="6.94705">
        <ele>1151.8798202766</ele>
        <time>2025-05-30T13:37:35.000Z</time>
      </trkpt>
      <trkpt lat="47.99131" lon="6.94711">
        <ele>1150.6272547252</ele>
        <time>2025-05-30T13:38:12.000Z</time>
      </trkpt>
      <trkpt lat="47.99123" lon="6.94728">
        <ele>1150.5548675836</ele>
        <time>2025-05-30T13:38:30.000Z</time>
      </trkpt>
      <trkpt lat="47.99128" lon="6.94723">
        <ele>1150.0638327636</ele>
        <time>2025-05-30T13:38:44.000Z</time>
      </trkpt>
      <trkpt lat="47.99132" lon="6.94717">
        <ele>1149.703574932</ele>
        <time>2025-05-30T13:38:49.000Z</time>
      </trkpt>
      <trkpt lat="47.99142" lon="6.94706">
        <ele>1147.9077709169</ele>
        <time>2025-05-30T13:39:01.000Z</time>
      </trkpt>
      <trkpt lat="47.99147" lon="6.947">
        <ele>1147.6740827777</ele>
        <time>2025-05-30T13:39:14.000Z</time>
      </trkpt>
      <trkpt lat="47.99157" lon="6.9468">
        <ele>1147.9003109361</ele>
        <time>2025-05-30T13:39:33.000Z</time>
      </trkpt>
      <trkpt lat="47.9916" lon="6.94673">
        <ele>1147.9416926064</ele>
        <time>2025-05-30T13:39:37.000Z</time>
      </trkpt>
      <trkpt lat="47.9917" lon="6.94649">
        <ele>1149.2382762048</ele>
        <time>2025-05-30T13:39:56.000Z</time>
      </trkpt>
      <trkpt lat="47.99174" lon="6.94636">
        <ele>1151.3636727446</ele>
        <time>2025-05-30T13:40:06.000Z</time>
      </trkpt>
      <trkpt lat="47.99177" lon="6.94628">
        <ele>1151.4586947479</ele>
        <time>2025-05-30T13:40:24.000Z</time>
      </trkpt>
      <trkpt lat="47.99178" lon="6.94619">
        <ele>1153.2345166644</ele>
        <time>2025-05-30T13:40:29.000Z</time>
      </trkpt>
      <trkpt lat="47.99184" lon="6.94593">
        <ele>1158.2385368799</ele>
        <time>2025-05-30T13:40:52.000Z</time>
      </trkpt>
      <trkpt lat="47.99187" lon="6.94584">
        <ele>1159.6232601041</ele>
        <time>2025-05-30T13:40:57.000Z</time>
      </trkpt>
      <trkpt lat="47.99202" lon="6.94577">
        <ele>1154.6980901342</ele>
        <time>2025-05-30T13:41:13.000Z</time>
      </trkpt>
      <trkpt lat="47.99208" lon="6.94569">
        <ele>1154.5924652401</ele>
        <time>2025-05-30T13:41:20.000Z</time>
      </trkpt>
      <trkpt lat="47.99213" lon="6.94555">
        <ele>1157.2963025843</ele>
        <time>2025-05-30T13:41:31.000Z</time>
      </trkpt>
      <trkpt lat="47.99223" lon="6.94547">
        <ele>1156.1487573322</ele>
        <time>2025-05-30T13:41:37.000Z</time>
      </trkpt>
      <trkpt lat="47.99234" lon="6.94551">
        <ele>1149.4475114331</ele>
        <time>2025-05-30T13:41:53.000Z</time>
      </trkpt>
      <trkpt lat="47.99258" lon="6.94545">
        <ele>1140.4172145996</ele>
        <time>2025-05-30T13:42:08.000Z</time>
      </trkpt>
      <trkpt lat="47.99269" lon="6.9454">
        <ele>1138.9296417017</ele>
        <time>2025-05-30T13:42:27.000Z</time>
      </trkpt>
      <trkpt lat="47.99279" lon="6.94531">
        <ele>1140.1658057989</ele>
        <time>2025-05-30T13:42:38.000Z</time>
      </trkpt>
      <trkpt lat="47.99293" lon="6.94524">
        <ele>1141.3012308993</ele>
        <time>2025-05-30T13:42:54.000Z</time>
      </trkpt>
      <trkpt lat="47.993" lon="6.94532">
        <ele>1135.6917156624</ele>
        <time>2025-05-30T13:43:01.000Z</time>
      </trkpt>
      <trkpt lat="47.99303" lon="6.94539">
        <ele>1132.3525155221</ele>
        <time>2025-05-30T13:43:12.000Z</time>
      </trkpt>
      <trkpt lat="47.9931" lon="6.94543">
        <ele>1129.9309160217</ele>
        <time>2025-05-30T13:43:23.000Z</time>
      </trkpt>
      <trkpt lat="47.99318" lon="6.94545">
        <ele>1128.8897694918</ele>
        <time>2025-05-30T13:43:29.000Z</time>
      </trkpt>
      <trkpt lat="47.99331" lon="6.9456">
        <ele>1124.613964609</ele>
        <time>2025-05-30T13:43:46.000Z</time>
      </trkpt>
      <trkpt lat="47.99338" lon="6.94565">
        <ele>1123.3647368805</ele>
        <time>2025-05-30T13:43:56.000Z</time>
      </trkpt>
      <trkpt lat="47.99357" lon="6.94589">
        <ele>1117.7593443844</ele>
        <time>2025-05-30T13:44:19.000Z</time>
      </trkpt>
      <trkpt lat="47.99361" lon="6.94593">
        <ele>1116.6656041141</ele>
        <time>2025-05-30T13:44:22.000Z</time>
      </trkpt>
      <trkpt lat="47.99365" lon="6.94594">
        <ele>1116.237226421</ele>
        <time>2025-05-30T13:44:26.000Z</time>
      </trkpt>
      <trkpt lat="47.9938" lon="6.9459">
        <ele>1114.9454717729</ele>
        <time>2025-05-30T13:45:00.000Z</time>
      </trkpt>
      <trkpt lat="47.99387" lon="6.94586">
        <ele>1114.5441052599</ele>
        <time>2025-05-30T13:45:05.000Z</time>
      </trkpt>
      <trkpt lat="47.99397" lon="6.94578">
        <ele>1113.4432395872</ele>
        <time>2025-05-30T13:45:09.000Z</time>
      </trkpt>
      <trkpt lat="47.99417" lon="6.94558">
        <ele>1110.3344176182</ele>
        <time>2025-05-30T13:45:39.000Z</time>
      </trkpt>
      <trkpt lat="47.99426" lon="6.94547">
        <ele>1109.2711350398</ele>
        <time>2025-05-30T13:46:04.000Z</time>
      </trkpt>
      <trkpt lat="47.99433" lon="6.94534">
        <ele>1108.7521244743</ele>
        <time>2025-05-30T13:46:10.000Z</time>
      </trkpt>
      <trkpt lat="47.99437" lon="6.94526">
        <ele>1108.3475213951</ele>
        <time>2025-05-30T13:46:16.000Z</time>
      </trkpt>
      <trkpt lat="47.99435" lon="6.94512">
        <ele>1109.9001116878</ele>
        <time>2025-05-30T13:46:32.000Z</time>
      </trkpt>
      <trkpt lat="47.9943" lon="6.945">
        <ele>1111.9605848086</ele>
        <time>2025-05-30T13:46:35.000Z</time>
      </trkpt>
      <trkpt lat="47.99426" lon="6.94492">
        <ele>1113.9148797826</ele>
        <time>2025-05-30T13:46:37.000Z</time>
      </trkpt>
      <trkpt lat="47.99425" lon="6.94485">
        <ele>1114.6968074106</ele>
        <time>2025-05-30T13:46:42.000Z</time>
      </trkpt>
      <trkpt lat="47.99428" lon="6.94477">
        <ele>1114.4205517822</ele>
        <time>2025-05-30T13:46:46.000Z</time>
      </trkpt>
      <trkpt lat="47.99429" lon="6.9447">
        <ele>1115.1100049642</ele>
        <time>2025-05-30T13:46:50.000Z</time>
      </trkpt>
      <trkpt lat="47.99436" lon="6.94469">
        <ele>1112.9053046519</ele>
        <time>2025-05-30T13:46:53.000Z</time>
      </trkpt>
      <trkpt lat="47.99443" lon="6.94474">
        <ele>1110.0853422988</ele>
        <time>2025-05-30T13:46:55.000Z</time>
      </trkpt>
      <trkpt lat="47.9945" lon="6.94478">
        <ele>1107.6060879769</ele>
        <time>2025-05-30T13:46:59.000Z</time>
      </trkpt>
      <trkpt lat="47.99455" lon="6.94487">
        <ele>1105.1606061841</ele>
        <time>2025-05-30T13:47:01.000Z</time>
      </trkpt>
      <trkpt lat="47.99465" lon="6.94525">
        <ele>1097.961922207</ele>
        <time>2025-05-30T13:47:28.000Z</time>
      </trkpt>
      <trkpt lat="47.99467" lon="6.94538">
        <ele>1094.7524171752</ele>
        <time>2025-05-30T13:47:35.000Z</time>
      </trkpt>
      <trkpt lat="47.99468" lon="6.94551">
        <ele>1091.9294965433</ele>
        <time>2025-05-30T13:47:40.000Z</time>
      </trkpt>
      <trkpt lat="47.99454" lon="6.946">
        <ele>1087.1621802013</ele>
        <time>2025-05-30T13:48:17.000Z</time>
      </trkpt>
      <trkpt lat="47.99457" lon="6.94612">
        <ele>1083.3119354413</ele>
        <time>2025-05-30T13:48:24.000Z</time>
      </trkpt>
      <trkpt lat="47.9946" lon="6.94624">
        <ele>1078.8947636102</ele>
        <time>2025-05-30T13:48:32.000Z</time>
      </trkpt>
      <trkpt lat="47.99466" lon="6.94632">
        <ele>1074.8652971966</ele>
        <time>2025-05-30T13:48:41.000Z</time>
      </trkpt>
      <trkpt lat="47.99469" lon="6.94638">
        <ele>1072.4514757077</ele>
        <time>2025-05-30T13:48:44.000Z</time>
      </trkpt>
      <trkpt lat="47.99464" lon="6.94643">
        <ele>1073.2910740327</ele>
        <time>2025-05-30T13:48:47.000Z</time>
      </trkpt>
      <trkpt lat="47.99459" lon="6.94644">
        <ele>1074.979538537</ele>
        <time>2025-05-30T13:48:51.000Z</time>
      </trkpt>
      <trkpt lat="47.99455" lon="6.94647">
        <ele>1075.7981018167</ele>
        <time>2025-05-30T13:48:54.000Z</time>
      </trkpt>
      <trkpt lat="47.99447" lon="6.94658">
        <ele>1077.0008911371</ele>
        <time>2025-05-30T13:49:02.000Z</time>
      </trkpt>
      <trkpt lat="47.99443" lon="6.9467">
        <ele>1076.6438987412</ele>
        <time>2025-05-30T13:49:11.000Z</time>
      </trkpt>
      <trkpt lat="47.99447" lon="6.94677">
        <ele>1074.4487876413</ele>
        <time>2025-05-30T13:49:23.000Z</time>
      </trkpt>
      <trkpt lat="47.99454" lon="6.9468">
        <ele>1072.166224817</ele>
        <time>2025-05-30T13:50:05.000Z</time>
      </trkpt>
      <trkpt lat="47.99477" lon="6.94708">
        <ele>1064.3073380075</ele>
        <time>2025-05-30T13:51:19.000Z</time>
      </trkpt>
      <trkpt lat="47.99486" lon="6.947">
        <ele>1062.183196036</ele>
        <time>2025-05-30T13:51:28.000Z</time>
      </trkpt>
      <trkpt lat="47.99483" lon="6.94679">
        <ele>1063.8399756344</ele>
        <time>2025-05-30T13:51:41.000Z</time>
      </trkpt>
      <trkpt lat="47.99489" lon="6.94657">
        <ele>1064.258775181</ele>
        <time>2025-05-30T13:51:55.000Z</time>
      </trkpt>
      <trkpt lat="47.99505" lon="6.94651">
        <ele>1060.6893370507</ele>
        <time>2025-05-30T13:52:06.000Z</time>
      </trkpt>
      <trkpt lat="47.99514" lon="6.94644">
        <ele>1058.4910327268</ele>
        <time>2025-05-30T13:52:16.000Z</time>
      </trkpt>
      <trkpt lat="47.99543" lon="6.94631">
        <ele>1048.1108872327</ele>
        <time>2025-05-30T13:52:42.000Z</time>
      </trkpt>
      <trkpt lat="47.99548" lon="6.94624">
        <ele>1047.3793814256</ele>
        <time>2025-05-30T13:52:51.000Z</time>
      </trkpt>
      <trkpt lat="47.99559" lon="6.94612">
        <ele>1045.2311763695</ele>
        <time>2025-05-30T13:53:00.000Z</time>
      </trkpt>
      <trkpt lat="47.9956" lon="6.94602">
        <ele>1046.5941258312</ele>
        <time>2025-05-30T13:53:06.000Z</time>
      </trkpt>
      <trkpt lat="47.99564" lon="6.94594">
        <ele>1046.1999309189</ele>
        <time>2025-05-30T13:53:13.000Z</time>
      </trkpt>
      <trkpt lat="47.99566" lon="6.94578">
        <ele>1047.891521331</ele>
        <time>2025-05-30T13:53:35.000Z</time>
      </trkpt>
      <trkpt lat="47.99564" lon="6.94564">
        <ele>1050.9046703739</ele>
        <time>2025-05-30T13:53:40.000Z</time>
      </trkpt>
      <trkpt lat="47.99594" lon="6.94575">
        <ele>1040.117942555</ele>
        <time>2025-05-30T13:53:56.000Z</time>
      </trkpt>
      <trkpt lat="47.996" lon="6.94574">
        <ele>1037.6777982365</ele>
        <time>2025-05-30T13:54:02.000Z</time>
      </trkpt>
      <trkpt lat="47.99605" lon="6.94568">
        <ele>1037.3224839079</ele>
        <time>2025-05-30T13:54:07.000Z</time>
      </trkpt>
      <trkpt lat="47.99614" lon="6.9458">
        <ele>1030.2657181437</ele>
        <time>2025-05-30T13:54:29.000Z</time>
      </trkpt>
      <trkpt lat="47.99637" lon="6.94594">
        <ele>1018.9770738125</ele>
        <time>2025-05-30T13:54:57.000Z</time>
      </trkpt>
      <trkpt lat="47.9964" lon="6.94593">
        <ele>1018.2936513199</ele>
        <time>2025-05-30T13:55:36.000Z</time>
      </trkpt>
      <trkpt lat="47.99644" lon="6.94582">
        <ele>1020.8843485056</ele>
        <time>2025-05-30T13:55:48.000Z</time>
      </trkpt>
      <trkpt lat="47.99655" lon="6.94575">
        <ele>1020.6158537243</ele>
        <time>2025-05-30T13:56:11.000Z</time>
      </trkpt>
      <trkpt lat="47.9966" lon="6.94581">
        <ele>1016.8555510082</ele>
        <time>2025-05-30T13:56:16.000Z</time>
      </trkpt>
      <trkpt lat="47.99662" lon="6.94556">
        <ele>1027.6151044185</ele>
        <time>2025-05-30T13:56:42.000Z</time>
      </trkpt>
      <trkpt lat="47.99673" lon="6.94548">
        <ele>1028.7527231065</ele>
        <time>2025-05-30T13:56:48.000Z</time>
      </trkpt>
      <trkpt lat="47.99682" lon="6.94546">
        <ele>1027.0355515789</ele>
        <time>2025-05-30T13:56:55.000Z</time>
      </trkpt>
      <trkpt lat="47.99688" lon="6.94541">
        <ele>1026.6892194015</ele>
        <time>2025-05-30T13:57:01.000Z</time>
      </trkpt>
      <trkpt lat="47.99695" lon="6.94546">
        <ele>1021.284233935</ele>
        <time>2025-05-30T13:57:08.000Z</time>
      </trkpt>
      <trkpt lat="47.99705" lon="6.94551">
        <ele>1014.0204851646</ele>
        <time>2025-05-30T13:57:23.000Z</time>
      </trkpt>
      <trkpt lat="47.99715" lon="6.94553">
        <ele>1007.7706531862</ele>
        <time>2025-05-30T13:57:40.000Z</time>
      </trkpt>
      <trkpt lat="47.99732" lon="6.94537">
        <ele>1008.124896377</ele>
        <time>2025-05-30T13:58:14.000Z</time>
      </trkpt>
      <trkpt lat="47.99747" lon="6.94527">
        <ele>1007.795588475</ele>
        <time>2025-05-30T13:58:28.000Z</time>
      </trkpt>
      <trkpt lat="47.9976" lon="6.94517">
        <ele>1009.9545699406</ele>
        <time>2025-05-30T13:58:44.000Z</time>
      </trkpt>
      <trkpt lat="47.99769" lon="6.94515">
        <ele>1008.2783642921</ele>
        <time>2025-05-30T13:59:00.000Z</time>
      </trkpt>
      <trkpt lat="47.99778" lon="6.9452">
        <ele>1003.6998603497</ele>
        <time>2025-05-30T13:59:10.000Z</time>
      </trkpt>
      <trkpt lat="47.99786" lon="6.94519">
        <ele>1002.4247275176</ele>
        <time>2025-05-30T13:59:16.000Z</time>
      </trkpt>
      <trkpt lat="47.99814" lon="6.94513">
        <ele>1001.197478136</ele>
        <time>2025-05-30T13:59:53.000Z</time>
      </trkpt>
      <trkpt lat="47.99823" lon="6.94503">
        <ele>1003.0868593201</ele>
        <time>2025-05-30T14:00:20.000Z</time>
      </trkpt>
      <trkpt lat="47.99829" lon="6.94495">
        <ele>1004.7012948764</ele>
        <time>2025-05-30T14:00:27.000Z</time>
      </trkpt>
      <trkpt lat="47.99839" lon="6.94499">
        <ele>1001.201749301</ele>
        <time>2025-05-30T14:00:34.000Z</time>
      </trkpt>
      <trkpt lat="47.99857" lon="6.94517">
        <ele>992.52723620432</ele>
        <time>2025-05-30T14:00:50.000Z</time>
      </trkpt>
      <trkpt lat="47.99859" lon="6.94526">
        <ele>989.34898233856</ele>
        <time>2025-05-30T14:00:57.000Z</time>
      </trkpt>
      <trkpt lat="47.99867" lon="6.94535">
        <ele>986.1143664165</ele>
        <time>2025-05-30T14:01:06.000Z</time>
      </trkpt>
      <trkpt lat="47.99875" lon="6.94541">
        <ele>984.33425336909</ele>
        <time>2025-05-30T14:01:17.000Z</time>
      </trkpt>
      <trkpt lat="47.9988" lon="6.94545">
        <ele>983.15221644882</ele>
        <time>2025-05-30T14:01:22.000Z</time>
      </trkpt>
      <trkpt lat="47.9989" lon="6.94548">
        <ele>982.41130819071</ele>
        <time>2025-05-30T14:01:41.000Z</time>
      </trkpt>
      <trkpt lat="47.99894" lon="6.94537">
        <ele>985.30690744909</ele>
        <time>2025-05-30T14:01:49.000Z</time>
      </trkpt>
      <trkpt lat="47.999" lon="6.9453">
        <ele>986.77056218578</ele>
        <time>2025-05-30T14:01:56.000Z</time>
      </trkpt>
      <trkpt lat="47.99902" lon="6.94525">
        <ele>988.10821712515</ele>
        <time>2025-05-30T14:02:01.000Z</time>
      </trkpt>
      <trkpt lat="47.99908" lon="6.94519">
        <ele>989.23404140696</ele>
        <time>2025-05-30T14:02:06.000Z</time>
      </trkpt>
      <trkpt lat="47.99913" lon="6.94516">
        <ele>989.39951568671</ele>
        <time>2025-05-30T14:02:09.000Z</time>
      </trkpt>
      <trkpt lat="47.99918" lon="6.94517">
        <ele>988.57862299056</ele>
        <time>2025-05-30T14:02:13.000Z</time>
      </trkpt>
      <trkpt lat="47.99924" lon="6.94512">
        <ele>989.02627893458</ele>
        <time>2025-05-30T14:02:21.000Z</time>
      </trkpt>
      <trkpt lat="47.9993" lon="6.94512">
        <ele>988.17654116201</ele>
        <time>2025-05-30T14:02:25.000Z</time>
      </trkpt>
      <trkpt lat="47.99936" lon="6.94504">
        <ele>989.04651538381</ele>
        <time>2025-05-30T14:02:33.000Z</time>
      </trkpt>
      <trkpt lat="47.99951" lon="6.94498">
        <ele>987.34388627832</ele>
        <time>2025-05-30T14:02:48.000Z</time>
      </trkpt>
      <trkpt lat="47.99961" lon="6.94496">
        <ele>985.62634202915</ele>
        <time>2025-05-30T14:02:59.000Z</time>
      </trkpt>
      <trkpt lat="47.99966" lon="6.94503">
        <ele>983.34473532827</ele>
        <time>2025-05-30T14:03:03.000Z</time>
      </trkpt>
      <trkpt lat="47.99972" lon="6.94517">
        <ele>980.01274044691</ele>
        <time>2025-05-30T14:03:08.000Z</time>
      </trkpt>
      <trkpt lat="47.99971" lon="6.94531">
        <ele>977.76894689316</ele>
        <time>2025-05-30T14:03:18.000Z</time>
      </trkpt>
      <trkpt lat="47.99968" lon="6.94529">
        <ele>978.48762005948</ele>
        <time>2025-05-30T14:03:32.000Z</time>
      </trkpt>
      <trkpt lat="47.99975" lon="6.94537">
        <ele>976.40876522397</ele>
        <time>2025-05-30T14:03:50.000Z</time>
      </trkpt>
      <trkpt lat="47.99981" lon="6.94557">
        <ele>972.3498104621</ele>
        <time>2025-05-30T14:04:16.000Z</time>
      </trkpt>
      <trkpt lat="47.99985" lon="6.94568">
        <ele>970.51212643907</ele>
        <time>2025-05-30T14:04:29.000Z</time>
      </trkpt>
      <trkpt lat="48.00006" lon="6.94562">
        <ele>971.48842919329</ele>
        <time>2025-05-30T14:04:50.000Z</time>
      </trkpt>
      <trkpt lat="48.00012" lon="6.94566">
        <ele>971.14610684962</ele>
        <time>2025-05-30T14:04:59.000Z</time>
      </trkpt>
      <trkpt lat="48.00018" lon="6.94555">
        <ele>971.88792637454</ele>
        <time>2025-05-30T14:05:07.000Z</time>
      </trkpt>
      <trkpt lat="48.00023" lon="6.94564">
        <ele>971.29586159124</ele>
        <time>2025-05-30T14:05:19.000Z</time>
      </trkpt>
      <trkpt lat="48.00026" lon="6.94574">
        <ele>971.19374397362</ele>
        <time>2025-05-30T14:05:23.000Z</time>
      </trkpt>
      <trkpt lat="48.00022" lon="6.94583">
        <ele>971.33027225618</ele>
        <time>2025-05-30T14:05:30.000Z</time>
      </trkpt>
      <trkpt lat="48.00019" lon="6.94606">
        <ele>972.25623464305</ele>
        <time>2025-05-30T14:05:38.000Z</time>
      </trkpt>
      <trkpt lat="48.00032" lon="6.94631">
        <ele>978.48055476173</ele>
        <time>2025-05-30T14:06:05.000Z</time>
      </trkpt>
      <trkpt lat="48.00015" lon="6.94638">
        <ele>975.19797315017</ele>
        <time>2025-05-30T14:06:37.000Z</time>
      </trkpt>
      <trkpt lat="47.99997" lon="6.9466">
        <ele>972.93393845926</ele>
        <time>2025-05-30T14:07:06.000Z</time>
      </trkpt>
      <trkpt lat="47.99995" lon="6.94665">
        <ele>972.95799599933</ele>
        <time>2025-05-30T14:07:20.000Z</time>
      </trkpt>
      <trkpt lat="48.00005" lon="6.94708">
        <ele>982.63607814417</ele>
        <time>2025-05-30T14:07:59.000Z</time>
      </trkpt>
      <trkpt lat="48.00011" lon="6.94731">
        <ele>988.66036526369</ele>
        <time>2025-05-30T14:08:15.000Z</time>
      </trkpt>
      <trkpt lat="48.00005" lon="6.94757">
        <ele>989.26595679623</ele>
        <time>2025-05-30T14:08:46.000Z</time>
      </trkpt>
      <trkpt lat="48.00006" lon="6.94783">
        <ele>994.88541771602</ele>
        <time>2025-05-30T14:09:19.000Z</time>
      </trkpt>
      <trkpt lat="47.99998" lon="6.94809">
        <ele>994.96661560298</ele>
        <time>2025-05-30T14:09:37.000Z</time>
      </trkpt>
      <trkpt lat="47.9999" lon="6.94813">
        <ele>989.8333776706</ele>
        <time>2025-05-30T14:09:45.000Z</time>
      </trkpt>
      <trkpt lat="47.99983" lon="6.94827">
        <ele>987.17101600189</ele>
        <time>2025-05-30T14:09:58.000Z</time>
      </trkpt>
      <trkpt lat="47.99981" lon="6.94842">
        <ele>988.54852203763</ele>
        <time>2025-05-30T14:10:12.000Z</time>
      </trkpt>
      <trkpt lat="47.99981" lon="6.94874">
        <ele>994.52011681512</ele>
        <time>2025-05-30T14:10:38.000Z</time>
      </trkpt>
      <trkpt lat="47.99988" lon="6.94892">
        <ele>1001.3101877835</ele>
        <time>2025-05-30T14:10:52.000Z</time>
      </trkpt>
      <trkpt lat="48.00001" lon="6.94927">
        <ele>1011.9823971959</ele>
        <time>2025-05-30T14:11:18.000Z</time>
      </trkpt>
      <trkpt lat="47.99992" lon="6.94939">
        <ele>1009.5194666821</ele>
        <time>2025-05-30T14:11:32.000Z</time>
      </trkpt>
      <trkpt lat="48.00009" lon="6.94941">
        <ele>1018.9889096547</ele>
        <time>2025-05-30T14:11:53.000Z</time>
      </trkpt>
      <trkpt lat="48.00017" lon="6.94962">
        <ele>1026.1498757947</ele>
        <time>2025-05-30T14:12:04.000Z</time>
      </trkpt>
      <trkpt lat="48.00013" lon="6.94995">
        <ele>1027.7567538821</ele>
        <time>2025-05-30T14:12:17.000Z</time>
      </trkpt>
      <trkpt lat="48.00009" lon="6.95012">
        <ele>1028.0865109684</ele>
        <time>2025-05-30T14:12:26.000Z</time>
      </trkpt>
      <trkpt lat="48" lon="6.95035">
        <ele>1026.5605564518</ele>
        <time>2025-05-30T14:12:42.000Z</time>
      </trkpt>
      <trkpt lat="47.99996" lon="6.95067">
        <ele>1026.970521228</ele>
        <time>2025-05-30T14:13:07.000Z</time>
      </trkpt>
      <trkpt lat="48.00002" lon="6.95084">
        <ele>1029.7913778488</ele>
        <time>2025-05-30T14:13:20.000Z</time>
      </trkpt>
      <trkpt lat="48.00006" lon="6.95127">
        <ele>1031.8036101437</ele>
        <time>2025-05-30T14:13:41.000Z</time>
      </trkpt>
      <trkpt lat="48.00004" lon="6.95142">
        <ele>1031.4604264142</ele>
        <time>2025-05-30T14:13:52.000Z</time>
      </trkpt>
      <trkpt lat="47.99992" lon="6.95159">
        <ele>1026.9369118674</ele>
        <time>2025-05-30T14:14:05.000Z</time>
      </trkpt>
      <trkpt lat="48.00005" lon="6.95178">
        <ele>1035.3990694528</ele>
        <time>2025-05-30T14:14:27.000Z</time>
      </trkpt>
      <trkpt lat="48.00002" lon="6.95201">
        <ele>1036.808889594</ele>
        <time>2025-05-30T14:14:38.000Z</time>
      </trkpt>
      <trkpt lat="48.00002" lon="6.95221">
        <ele>1039.6672085324</ele>
        <time>2025-05-30T14:14:49.000Z</time>
      </trkpt>
      <trkpt lat="48.00007" lon="6.95248">
        <ele>1044.5401151736</ele>
        <time>2025-05-30T14:15:04.000Z</time>
      </trkpt>
      <trkpt lat="47.9999" lon="6.95258">
        <ele>1035.4368845031</ele>
        <time>2025-05-30T14:15:58.000Z</time>
      </trkpt>
      <trkpt lat="48.00003" lon="6.95279">
        <ele>1043.9198305946</ele>
        <time>2025-05-30T14:16:06.000Z</time>
      </trkpt>
      <trkpt lat="48.00019" lon="6.95309">
        <ele>1053.6306189285</ele>
        <time>2025-05-30T14:16:26.000Z</time>
      </trkpt>
      <trkpt lat="48.00021" lon="6.95336">
        <ele>1054.6204197674</ele>
        <time>2025-05-30T14:16:39.000Z</time>
      </trkpt>
      <trkpt lat="48.00017" lon="6.95351">
        <ele>1051.9970213796</ele>
        <time>2025-05-30T14:16:56.000Z</time>
      </trkpt>
      <trkpt lat="48.00013" lon="6.95369">
        <ele>1050.1890237121</ele>
        <time>2025-05-30T14:17:05.000Z</time>
      </trkpt>
      <trkpt lat="48.00006" lon="6.95389">
        <ele>1047.8102477489</ele>
        <time>2025-05-30T14:17:19.000Z</time>
      </trkpt>
      <trkpt lat="48.00004" lon="6.95404">
        <ele>1048.6226460451</ele>
        <time>2025-05-30T14:17:27.000Z</time>
      </trkpt>
      <trkpt lat="48.00022" lon="6.95436">
        <ele>1060.5791760885</ele>
        <time>2025-05-30T14:17:55.000Z</time>
      </trkpt>
      <trkpt lat="48.00026" lon="6.95461">
        <ele>1060.1319527531</ele>
        <time>2025-05-30T14:18:09.000Z</time>
      </trkpt>
      <trkpt lat="48.00028" lon="6.95507">
        <ele>1057.0669047145</ele>
        <time>2025-05-30T14:18:47.000Z</time>
      </trkpt>
      <trkpt lat="48.00043" lon="6.95557">
        <ele>1063.4381134922</ele>
        <time>2025-05-30T14:19:23.000Z</time>
      </trkpt>
      <trkpt lat="48.00054" lon="6.95576">
        <ele>1067.271630615</ele>
        <time>2025-05-30T14:19:35.000Z</time>
      </trkpt>
      <trkpt lat="48.00062" lon="6.95586">
        <ele>1070.2708195581</ele>
        <time>2025-05-30T14:19:53.000Z</time>
      </trkpt>
      <trkpt lat="48.00065" lon="6.9561">
        <ele>1071.9401880585</ele>
        <time>2025-05-30T14:20:05.000Z</time>
      </trkpt>
      <trkpt lat="48.00072" lon="6.95622">
        <ele>1077.1458013177</ele>
        <time>2025-05-30T14:20:10.000Z</time>
      </trkpt>
      <trkpt lat="48.00071" lon="6.95634">
        <ele>1078.7268901018</ele>
        <time>2025-05-30T14:20:14.000Z</time>
      </trkpt>
      <trkpt lat="48.00069" lon="6.9565">
        <ele>1080.3885379167</ele>
        <time>2025-05-30T14:20:28.000Z</time>
      </trkpt>
      <trkpt lat="48.00063" lon="6.95663">
        <ele>1079.9287828198</ele>
        <time>2025-05-30T14:20:39.000Z</time>
      </trkpt>
      <trkpt lat="48.0006" lon="6.95676">
        <ele>1081.1735118667</ele>
        <time>2025-05-30T14:20:46.000Z</time>
      </trkpt>
      <trkpt lat="48.00048" lon="6.95691">
        <ele>1078.435722797</ele>
        <time>2025-05-30T14:21:01.000Z</time>
      </trkpt>
      <trkpt lat="48.00044" lon="6.95713">
        <ele>1083.0836037782</ele>
        <time>2025-05-30T14:21:18.000Z</time>
      </trkpt>
      <trkpt lat="48.00037" lon="6.95726">
        <ele>1083.6193737492</ele>
        <time>2025-05-30T14:21:25.000Z</time>
      </trkpt>
      <trkpt lat="48.00032" lon="6.95741">
        <ele>1086.6742478195</ele>
        <time>2025-05-30T14:21:31.000Z</time>
      </trkpt>
      <trkpt lat="48.00018" lon="6.95747">
        <ele>1080.7116959758</ele>
        <time>2025-05-30T14:21:47.000Z</time>
      </trkpt>
      <trkpt lat="48.00012" lon="6.95758">
        <ele>1082.2454946506</ele>
        <time>2025-05-30T14:21:55.000Z</time>
      </trkpt>
      <trkpt lat="47.99997" lon="6.95777">
        <ele>1082.7333594337</ele>
        <time>2025-05-30T14:22:09.000Z</time>
      </trkpt>
      <trkpt lat="47.99997" lon="6.9579">
        <ele>1087.9525177287</ele>
        <time>2025-05-30T14:22:24.000Z</time>
      </trkpt>
      <trkpt lat="47.99988" lon="6.95802">
        <ele>1088.4459190053</ele>
        <time>2025-05-30T14:22:33.000Z</time>
      </trkpt>
      <trkpt lat="47.99986" lon="6.95808">
        <ele>1089.1945553724</ele>
        <time>2025-05-30T14:22:36.000Z</time>
      </trkpt>
      <trkpt lat="47.9998" lon="6.95813">
        <ele>1088.2890621586</ele>
        <time>2025-05-30T14:22:42.000Z</time>
      </trkpt>
      <trkpt lat="47.99977" lon="6.95818">
        <ele>1088.6182720968</ele>
        <time>2025-05-30T14:22:47.000Z</time>
      </trkpt>
      <trkpt lat="47.99976" lon="6.95829">
        <ele>1092.2149852544</ele>
        <time>2025-05-30T14:22:54.000Z</time>
      </trkpt>
      <trkpt lat="47.99961" lon="6.95856">
        <ele>1097.3366418289</ele>
        <time>2025-05-30T14:23:20.000Z</time>
      </trkpt>
      <trkpt lat="47.99954" lon="6.95863">
        <ele>1098.0071391201</ele>
        <time>2025-05-30T14:23:29.000Z</time>
      </trkpt>
      <trkpt lat="47.99944" lon="6.95873">
        <ele>1098.6689231105</ele>
        <time>2025-05-30T14:23:35.000Z</time>
      </trkpt>
      <trkpt lat="47.9994" lon="6.95876">
        <ele>1098.7052071794</ele>
        <time>2025-05-30T14:23:39.000Z</time>
      </trkpt>
      <trkpt lat="47.99936" lon="6.95878">
        <ele>1098.2254412644</ele>
        <time>2025-05-30T14:23:44.000Z</time>
      </trkpt>
      <trkpt lat="47.99923" lon="6.95888">
        <ele>1098.1650180252</ele>
        <time>2025-05-30T14:24:01.000Z</time>
      </trkpt>
      <trkpt lat="47.99906" lon="6.95903">
        <ele>1099.0173979682</ele>
        <time>2025-05-30T14:24:21.000Z</time>
      </trkpt>
      <trkpt lat="47.99903" lon="6.95906">
        <ele>1099.0732613977</ele>
        <time>2025-05-30T14:24:24.000Z</time>
      </trkpt>
      <trkpt lat="47.99895" lon="6.95913">
        <ele>1099.0547824361</ele>
        <time>2025-05-30T14:24:38.000Z</time>
      </trkpt>
      <trkpt lat="47.99888" lon="6.95928">
        <ele>1101.6803934712</ele>
        <time>2025-05-30T14:24:44.000Z</time>
      </trkpt>
      <trkpt lat="47.99885" lon="6.95948">
        <ele>1105.5016168421</ele>
        <time>2025-05-30T14:24:54.000Z</time>
      </trkpt>
      <trkpt lat="47.99877" lon="6.95975">
        <ele>1108.8088655629</ele>
        <time>2025-05-30T14:25:10.000Z</time>
      </trkpt>
      <trkpt lat="47.99871" lon="6.95987">
        <ele>1108.8310008737</ele>
        <time>2025-05-30T14:25:26.000Z</time>
      </trkpt>
      <trkpt lat="47.99862" lon="6.95994">
        <ele>1105.9403435708</ele>
        <time>2025-05-30T14:25:31.000Z</time>
      </trkpt>
      <trkpt lat="47.99858" lon="6.96006">
        <ele>1107.0720413928</ele>
        <time>2025-05-30T14:25:38.000Z</time>
      </trkpt>
      <trkpt lat="47.99842" lon="6.9602">
        <ele>1101.3010707923</ele>
        <time>2025-05-30T14:25:52.000Z</time>
      </trkpt>
      <trkpt lat="47.99835" lon="6.96032">
        <ele>1099.9193016717</ele>
        <time>2025-05-30T14:26:02.000Z</time>
      </trkpt>
      <trkpt lat="47.99811" lon="6.96058">
        <ele>1090.0274488993</ele>
        <time>2025-05-30T14:26:29.000Z</time>
      </trkpt>
      <trkpt lat="47.99798" lon="6.96096">
        <ele>1093.5413140212</ele>
        <time>2025-05-30T14:27:11.000Z</time>
      </trkpt>
      <trkpt lat="47.99793" lon="6.9612">
        <ele>1093.793302175</ele>
        <time>2025-05-30T14:27:28.000Z</time>
      </trkpt>
      <trkpt lat="47.99791" lon="6.96134">
        <ele>1091.7977101179</ele>
        <time>2025-05-30T14:27:43.000Z</time>
      </trkpt>
      <trkpt lat="47.99776" lon="6.96125">
        <ele>1081.3888119457</ele>
        <time>2025-05-30T14:28:21.000Z</time>
      </trkpt>
      <trkpt lat="47.9978" lon="6.96129">
        <ele>1084.7350375753</ele>
        <time>2025-05-30T14:28:59.000Z</time>
      </trkpt>
      <trkpt lat="47.9978" lon="6.96126">
        <ele>1085.1492141385</ele>
        <time>2025-05-30T14:30:05.000Z</time>
      </trkpt>
      <trkpt lat="47.99785" lon="6.96129">
        <ele>1088.5772346246</ele>
        <time>2025-05-30T14:30:17.000Z</time>
      </trkpt>
      <trkpt lat="47.9979" lon="6.9614">
        <ele>1090.9505779797</ele>
        <time>2025-05-30T14:30:45.000Z</time>
      </trkpt>
      <trkpt lat="47.9979" lon="6.96148">
        <ele>1090.9630441724</ele>
        <time>2025-05-30T14:30:51.000Z</time>
      </trkpt>
      <trkpt lat="47.99786" lon="6.96173">
        <ele>1088.8843283524</ele>
        <time>2025-05-30T14:31:03.000Z</time>
      </trkpt>
      <trkpt lat="47.99786" lon="6.96182">
        <ele>1089.3375333836</ele>
        <time>2025-05-30T14:31:08.000Z</time>
      </trkpt>
      <trkpt lat="47.99785" lon="6.96202">
        <ele>1090.1173673959</ele>
        <time>2025-05-30T14:31:22.000Z</time>
      </trkpt>
      <trkpt lat="47.99788" lon="6.96227">
        <ele>1090.9079387244</ele>
        <time>2025-05-30T14:31:43.000Z</time>
      </trkpt>
      <trkpt lat="47.99797" lon="6.96258">
        <ele>1089.6946742093</ele>
        <time>2025-05-30T14:32:20.000Z</time>
      </trkpt>
      <trkpt lat="47.99821" lon="6.96283">
        <ele>1085.2104064416</ele>
        <time>2025-05-30T14:32:43.000Z</time>
      </trkpt>
      <trkpt lat="47.99853" lon="6.96297">
        <ele>1079.4710458738</ele>
        <time>2025-05-30T14:33:16.000Z</time>
      </trkpt>
      <trkpt lat="47.99878" lon="6.96311">
        <ele>1076.4165870272</ele>
        <time>2025-05-30T14:33:35.000Z</time>
      </trkpt>
      <trkpt lat="47.99908" lon="6.96336">
        <ele>1074.0559854775</ele>
        <time>2025-05-30T14:34:05.000Z</time>
      </trkpt>
      <trkpt lat="47.99936" lon="6.9636">
        <ele>1069.8858767056</ele>
        <time>2025-05-30T14:34:36.000Z</time>
      </trkpt>
      <trkpt lat="47.99957" lon="6.96378">
        <ele>1066.0200775229</ele>
        <time>2025-05-30T14:35:11.000Z</time>
      </trkpt>
      <trkpt lat="47.99962" lon="6.96383">
        <ele>1065.3245776964</ele>
        <time>2025-05-30T14:35:14.000Z</time>
      </trkpt>
      <trkpt lat="47.9997" lon="6.96387">
        <ele>1064.9182615631</ele>
        <time>2025-05-30T14:35:32.000Z</time>
      </trkpt>
      <trkpt lat="47.9999" lon="6.96406">
        <ele>1061.8493433392</ele>
        <time>2025-05-30T14:35:48.000Z</time>
      </trkpt>
      <trkpt lat="48" lon="6.96413">
        <ele>1060.3975067319</ele>
        <time>2025-05-30T14:36:02.000Z</time>
      </trkpt>
      <trkpt lat="48.00036" lon="6.96435">
        <ele>1055.7150395704</ele>
        <time>2025-05-30T14:36:31.000Z</time>
      </trkpt>
      <trkpt lat="48.00071" lon="6.96437">
        <ele>1058.863254875</ele>
        <time>2025-05-30T14:36:56.000Z</time>
      </trkpt>
      <trkpt lat="48.00112" lon="6.96434">
        <ele>1068.6516690621</ele>
        <time>2025-05-30T14:37:30.000Z</time>
      </trkpt>
      <trkpt lat="48.00121" lon="6.96432">
        <ele>1071.6832366776</ele>
        <time>2025-05-30T14:37:42.000Z</time>
      </trkpt>
      <trkpt lat="48.00149" lon="6.96423">
        <ele>1075.1027989068</ele>
        <time>2025-05-30T14:38:16.000Z</time>
      </trkpt>
      <trkpt lat="48.00151" lon="6.96432">
        <ele>1072.7588087395</ele>
        <time>2025-05-30T14:38:18.000Z</time>
      </trkpt>
      <trkpt lat="48.00158" lon="6.9643">
        <ele>1073.0553096918</ele>
        <time>2025-05-30T14:38:27.000Z</time>
      </trkpt>
      <trkpt lat="48.00165" lon="6.96431">
        <ele>1072.3772795588</ele>
        <time>2025-05-30T14:38:33.000Z</time>
      </trkpt>
      <trkpt lat="48.00169" lon="6.9643">
        <ele>1072.1634923277</ele>
        <time>2025-05-30T14:38:37.000Z</time>
      </trkpt>
      <trkpt lat="48.00182" lon="6.96431">
        <ele>1070.5502276627</ele>
        <time>2025-05-30T14:38:51.000Z</time>
      </trkpt>
      <trkpt lat="48.002" lon="6.9644">
        <ele>1067.1018338181</ele>
        <time>2025-05-30T14:39:15.000Z</time>
      </trkpt>
      <trkpt lat="48.00254" lon="6.9647">
        <ele>1057.059616038</ele>
        <time>2025-05-30T14:39:51.000Z</time>
      </trkpt>
      <trkpt lat="48.00283" lon="6.96522">
        <ele>1049.2272456142</ele>
        <time>2025-05-30T14:40:34.000Z</time>
      </trkpt>
      <trkpt lat="48.00302" lon="6.96538">
        <ele>1045.5727791848</ele>
        <time>2025-05-30T14:41:08.000Z</time>
      </trkpt>
      <trkpt lat="48.00314" lon="6.96546">
        <ele>1044.0852138279</ele>
        <time>2025-05-30T14:41:24.000Z</time>
      </trkpt>
      <trkpt lat="48.00333" lon="6.96573">
        <ele>1039.4679789373</ele>
        <time>2025-05-30T14:41:44.000Z</time>
      </trkpt>
      <trkpt lat="48.00336" lon="6.96578">
        <ele>1038.9057919935</ele>
        <time>2025-05-30T14:41:47.000Z</time>
      </trkpt>
      <trkpt lat="48.00345" lon="6.96597">
        <ele>1035.7517922402</ele>
        <time>2025-05-30T14:42:01.000Z</time>
      </trkpt>
      <trkpt lat="48.00366" lon="6.96656">
        <ele>1026.4767409261</ele>
        <time>2025-05-30T14:42:41.000Z</time>
      </trkpt>
      <trkpt lat="48.00374" lon="6.96674">
        <ele>1025.2168074618</ele>
        <time>2025-05-30T14:42:52.000Z</time>
      </trkpt>
      <trkpt lat="48.00386" lon="6.96688">
        <ele>1024.7435827132</ele>
        <time>2025-05-30T14:43:05.000Z</time>
      </trkpt>
      <trkpt lat="48.00384" lon="6.96712">
        <ele>1025.6404856749</ele>
        <time>2025-05-30T14:43:17.000Z</time>
      </trkpt>
      <trkpt lat="48.0039" lon="6.96722">
        <ele>1025.5974645999</ele>
        <time>2025-05-30T14:43:35.000Z</time>
      </trkpt>
      <trkpt lat="48.0039" lon="6.96722">
        <ele>1025.5957489651</ele>
        <time>2025-05-30T14:44:34.000Z</time>
      </trkpt>
      <trkpt lat="48.00389" lon="6.96728">
        <ele>1025.483992759</ele>
        <time>2025-05-30T14:45:24.000Z</time>
      </trkpt>
      <trkpt lat="48.00411" lon="6.96759">
        <ele>1027.9788673009</ele>
        <time>2025-05-30T14:52:42.000Z</time>
      </trkpt>
      <trkpt lat="48.00411" lon="6.9676">
        <ele>1028.0491504367</ele>
        <time>2025-05-30T14:52:43.000Z</time>
      </trkpt>
      <trkpt lat="48.00413" lon="6.96767">
        <ele>1028.3658884175</ele>
        <time>2025-05-30T14:52:49.000Z</time>
      </trkpt>
      <trkpt lat="48.00415" lon="6.96773">
        <ele>1028.6653910254</ele>
        <time>2025-05-30T14:52:54.000Z</time>
      </trkpt>
      <trkpt lat="48.00418" lon="6.96778">
        <ele>1029.1694239817</ele>
        <time>2025-05-30T14:52:59.000Z</time>
      </trkpt>
      <trkpt lat="48.00421" lon="6.96788">
        <ele>1029.4721397165</ele>
        <time>2025-05-30T14:53:07.000Z</time>
      </trkpt>
      <trkpt lat="48.00415" lon="6.96806">
        <ele>1027.1498428441</ele>
        <time>2025-05-30T14:53:20.000Z</time>
      </trkpt>
      <trkpt lat="48.00415" lon="6.96815">
        <ele>1026.4299452454</ele>
        <time>2025-05-30T14:53:24.000Z</time>
      </trkpt>
      <trkpt lat="48.00428" lon="6.96825">
        <ele>1029.3273314219</ele>
        <time>2025-05-30T14:53:38.000Z</time>
      </trkpt>
      <trkpt lat="48.00438" lon="6.96827">
        <ele>1032.407429432</ele>
        <time>2025-05-30T14:53:45.000Z</time>
      </trkpt>
      <trkpt lat="48.00446" lon="6.96817">
        <ele>1035.3059932481</ele>
        <time>2025-05-30T14:53:52.000Z</time>
      </trkpt>
      <trkpt lat="48.00458" lon="6.96826">
        <ele>1038.8010331696</ele>
        <time>2025-05-30T14:54:09.000Z</time>
      </trkpt>
      <trkpt lat="48.00467" lon="6.96828">
        <ele>1041.7636788407</ele>
        <time>2025-05-30T14:54:20.000Z</time>
      </trkpt>
      <trkpt lat="48.00477" lon="6.96844">
        <ele>1045.6606530968</ele>
        <time>2025-05-30T14:54:55.000Z</time>
      </trkpt>
      <trkpt lat="48.00484" lon="6.96863">
        <ele>1049.0270656202</ele>
        <time>2025-05-30T14:55:10.000Z</time>
      </trkpt>
      <trkpt lat="48.00494" lon="6.96851">
        <ele>1053.2838157082</ele>
        <time>2025-05-30T14:55:14.000Z</time>
      </trkpt>
      <trkpt lat="48.00506" lon="6.96866">
        <ele>1059.2950340013</ele>
        <time>2025-05-30T14:55:26.000Z</time>
      </trkpt>
      <trkpt lat="48.00499" lon="6.96882">
        <ele>1056.1189965384</ele>
        <time>2025-05-30T14:55:45.000Z</time>
      </trkpt>
      <trkpt lat="48.00498" lon="6.96887">
        <ele>1055.9355336565</ele>
        <time>2025-05-30T14:55:51.000Z</time>
      </trkpt>
      <trkpt lat="48.00505" lon="6.96897">
        <ele>1059.3353848912</ele>
        <time>2025-05-30T14:56:03.000Z</time>
      </trkpt>
      <trkpt lat="48.00509" lon="6.96909">
        <ele>1062.5058748083</ele>
        <time>2025-05-30T14:56:15.000Z</time>
      </trkpt>
      <trkpt lat="48.00515" lon="6.96913">
        <ele>1066.416817878</ele>
        <time>2025-05-30T14:56:27.000Z</time>
      </trkpt>
      <trkpt lat="48.00518" lon="6.96912">
        <ele>1068.4513141498</ele>
        <time>2025-05-30T14:57:19.000Z</time>
      </trkpt>
      <trkpt lat="48.00521" lon="6.96917">
        <ele>1070.9240886947</ele>
        <time>2025-05-30T14:57:24.000Z</time>
      </trkpt>
      <trkpt lat="48.00526" lon="6.9692">
        <ele>1074.7835879867</ele>
        <time>2025-05-30T14:57:33.000Z</time>
      </trkpt>
      <trkpt lat="48.00528" lon="6.96936">
        <ele>1077.8828179787</ele>
        <time>2025-05-30T14:57:51.000Z</time>
      </trkpt>
      <trkpt lat="48.00534" lon="6.96923">
        <ele>1079.8899269101</ele>
        <time>2025-05-30T14:58:04.000Z</time>
      </trkpt>
      <trkpt lat="48.00539" lon="6.96904">
        <ele>1080.7594364656</ele>
        <time>2025-05-30T14:58:24.000Z</time>
      </trkpt>
      <trkpt lat="48.00545" lon="6.96922">
        <ele>1087.2140219818</ele>
        <time>2025-05-30T14:58:31.000Z</time>
      </trkpt>
      <trkpt lat="48.0055" lon="6.96922">
        <ele>1089.9653281889</ele>
        <time>2025-05-30T14:58:34.000Z</time>
      </trkpt>
      <trkpt lat="48.00565" lon="6.96921">
        <ele>1097.9742567946</ele>
        <time>2025-05-30T14:58:52.000Z</time>
      </trkpt>
      <trkpt lat="48.00561" lon="6.96939">
        <ele>1097.2589050983</ele>
        <time>2025-05-30T14:59:24.000Z</time>
      </trkpt>
      <trkpt lat="48.00571" lon="6.96931">
        <ele>1101.5544006516</ele>
        <time>2025-05-30T14:59:30.000Z</time>
      </trkpt>
      <trkpt lat="48.00564" lon="6.96921">
        <ele>1097.3843492019</ele>
        <time>2025-05-30T14:59:36.000Z</time>
      </trkpt>
      <trkpt lat="48.00569" lon="6.96908">
        <ele>1098.3727159041</ele>
        <time>2025-05-30T14:59:45.000Z</time>
      </trkpt>
      <trkpt lat="48.00566" lon="6.96893">
        <ele>1095.6602761437</ele>
        <time>2025-05-30T15:00:02.000Z</time>
      </trkpt>
      <trkpt lat="48.00572" lon="6.96905">
        <ele>1099.1284941188</ele>
        <time>2025-05-30T15:00:06.000Z</time>
      </trkpt>
      <trkpt lat="48.00584" lon="6.96916">
        <ele>1105.4101050362</ele>
        <time>2025-05-30T15:00:13.000Z</time>
      </trkpt>
      <trkpt lat="48.00582" lon="6.96935">
        <ele>1106.8000087124</ele>
        <time>2025-05-30T15:00:17.000Z</time>
      </trkpt>
      <trkpt lat="48.00581" lon="6.96944">
        <ele>1107.7036607132</ele>
        <time>2025-05-30T15:00:21.000Z</time>
      </trkpt>
      <trkpt lat="48.00586" lon="6.96939">
        <ele>1109.5406483586</ele>
        <time>2025-05-30T15:00:41.000Z</time>
      </trkpt>
      <trkpt lat="48.00586" lon="6.96935">
        <ele>1108.9490630402</ele>
        <time>2025-05-30T15:00:49.000Z</time>
      </trkpt>
      <trkpt lat="48.00592" lon="6.96919">
        <ele>1108.8289068776</ele>
        <time>2025-05-30T15:00:58.000Z</time>
      </trkpt>
      <trkpt lat="48.00601" lon="6.9691">
        <ele>1110.8911786685</ele>
        <time>2025-05-30T15:01:14.000Z</time>
      </trkpt>
      <trkpt lat="48.0061" lon="6.96892">
        <ele>1111.2085812376</ele>
        <time>2025-05-30T15:01:34.000Z</time>
      </trkpt>
      <trkpt lat="48.00619" lon="6.96887">
        <ele>1112.5139108938</ele>
        <time>2025-05-30T15:01:53.000Z</time>
      </trkpt>
      <trkpt lat="48.00628" lon="6.96899">
        <ele>1117.371266363</ele>
        <time>2025-05-30T15:02:07.000Z</time>
      </trkpt>
      <trkpt lat="48.0063" lon="6.96912">
        <ele>1120.6752716843</ele>
        <time>2025-05-30T15:02:16.000Z</time>
      </trkpt>
      <trkpt lat="48.00634" lon="6.9692">
        <ele>1123.2225455654</ele>
        <time>2025-05-30T15:02:22.000Z</time>
      </trkpt>
      <trkpt lat="48.00635" lon="6.9693">
        <ele>1125.3312129654</ele>
        <time>2025-05-30T15:02:25.000Z</time>
      </trkpt>
      <trkpt lat="48.00646" lon="6.96952">
        <ele>1130.2646796802</ele>
        <time>2025-05-30T15:02:49.000Z</time>
      </trkpt>
      <trkpt lat="48.00648" lon="6.96965">
        <ele>1131.8016645003</ele>
        <time>2025-05-30T15:03:02.000Z</time>
      </trkpt>
      <trkpt lat="48.00652" lon="6.96985">
        <ele>1133.1439748997</ele>
        <time>2025-05-30T15:03:24.000Z</time>
      </trkpt>
      <trkpt lat="48.00654" lon="6.96996">
        <ele>1133.6445959112</ele>
        <time>2025-05-30T15:03:36.000Z</time>
      </trkpt>
      <trkpt lat="48.00654" lon="6.97006">
        <ele>1134.2058997915</ele>
        <time>2025-05-30T15:03:48.000Z</time>
      </trkpt>
      <trkpt lat="48.00652" lon="6.97013">
        <ele>1134.5414508431</ele>
        <time>2025-05-30T15:03:54.000Z</time>
      </trkpt>
      <trkpt lat="48.00655" lon="6.97029">
        <ele>1135.6650942291</ele>
        <time>2025-05-30T15:04:12.000Z</time>
      </trkpt>
      <trkpt lat="48.00675" lon="6.97067">
        <ele>1141.7440037316</ele>
        <time>2025-05-30T15:04:57.000Z</time>
      </trkpt>
      <trkpt lat="48.00681" lon="6.97078">
        <ele>1142.8680872891</ele>
        <time>2025-05-30T15:05:06.000Z</time>
      </trkpt>
      <trkpt lat="48.00688" lon="6.97089">
        <ele>1144.6572552792</ele>
        <time>2025-05-30T15:05:13.000Z</time>
      </trkpt>
      <trkpt lat="48.00708" lon="6.97125">
        <ele>1148.525996597</ele>
        <time>2025-05-30T15:05:46.000Z</time>
      </trkpt>
      <trkpt lat="48.00716" lon="6.97139">
        <ele>1150.1171748947</ele>
        <time>2025-05-30T15:06:00.000Z</time>
      </trkpt>
      <trkpt lat="48.00725" lon="6.97151">
        <ele>1151.8340232936</ele>
        <time>2025-05-30T15:06:13.000Z</time>
      </trkpt>
      <trkpt lat="48.00737" lon="6.97162">
        <ele>1153.8951275123</ele>
        <time>2025-05-30T15:06:26.000Z</time>
      </trkpt>
      <trkpt lat="48.00743" lon="6.9717">
        <ele>1155.2232375038</ele>
        <time>2025-05-30T15:06:36.000Z</time>
      </trkpt>
      <trkpt lat="48.00749" lon="6.97177">
        <ele>1156.5323993255</ele>
        <time>2025-05-30T15:06:41.000Z</time>
      </trkpt>
      <trkpt lat="48.00747" lon="6.97186">
        <ele>1157.2035543601</ele>
        <time>2025-05-30T15:07:01.000Z</time>
      </trkpt>
      <trkpt lat="48.00751" lon="6.97208">
        <ele>1159.538074569</ele>
        <time>2025-05-30T15:07:28.000Z</time>
      </trkpt>
      <trkpt lat="48.00756" lon="6.97219">
        <ele>1161.4443029606</ele>
        <time>2025-05-30T15:07:41.000Z</time>
      </trkpt>
      <trkpt lat="48.00762" lon="6.97247">
        <ele>1164.0837719536</ele>
        <time>2025-05-30T15:08:03.000Z</time>
      </trkpt>
      <trkpt lat="48.00767" lon="6.97256">
        <ele>1165.5384411932</ele>
        <time>2025-05-30T15:08:17.000Z</time>
      </trkpt>
      <trkpt lat="48.00785" lon="6.97283">
        <ele>1170.180547463</ele>
        <time>2025-05-30T15:08:38.000Z</time>
      </trkpt>
      <trkpt lat="48.00795" lon="6.97323">
        <ele>1174.2483257654</ele>
        <time>2025-05-30T15:09:13.000Z</time>
      </trkpt>
      <trkpt lat="48.00806" lon="6.9731">
        <ele>1176.5994393934</ele>
        <time>2025-05-30T15:09:38.000Z</time>
      </trkpt>
      <trkpt lat="48.00807" lon="6.9732">
        <ele>1177.7497516326</ele>
        <time>2025-05-30T15:09:53.000Z</time>
      </trkpt>
      <trkpt lat="48.00803" lon="6.97358">
        <ele>1180.2391089716</ele>
        <time>2025-05-30T15:10:11.000Z</time>
      </trkpt>
      <trkpt lat="48.00798" lon="6.97366">
        <ele>1179.1465213328</ele>
        <time>2025-05-30T15:10:18.000Z</time>
      </trkpt>
      <trkpt lat="48.00801" lon="6.97379">
        <ele>1181.5016474496</ele>
        <time>2025-05-30T15:10:28.000Z</time>
      </trkpt>
      <trkpt lat="48.00797" lon="6.97391">
        <ele>1181.2265987391</ele>
        <time>2025-05-30T15:10:37.000Z</time>
      </trkpt>
      <trkpt lat="48.00803" lon="6.97401">
        <ele>1183.9509964642</ele>
        <time>2025-05-30T15:10:43.000Z</time>
      </trkpt>
      <trkpt lat="48.00795" lon="6.97419">
        <ele>1181.8404990475</ele>
        <time>2025-05-30T15:10:53.000Z</time>
      </trkpt>
      <trkpt lat="48.00792" lon="6.97463">
        <ele>1182.7933970348</ele>
        <time>2025-05-30T15:11:21.000Z</time>
      </trkpt>
      <trkpt lat="48.00793" lon="6.97477">
        <ele>1185.1603757042</ele>
        <time>2025-05-30T15:11:29.000Z</time>
      </trkpt>
      <trkpt lat="48.00786" lon="6.97496">
        <ele>1185.7387379532</ele>
        <time>2025-05-30T15:11:43.000Z</time>
      </trkpt>
      <trkpt lat="48.00778" lon="6.97508">
        <ele>1185.2955015557</ele>
        <time>2025-05-30T15:11:53.000Z</time>
      </trkpt>
      <trkpt lat="48.00775" lon="6.97515">
        <ele>1185.8197233903</ele>
        <time>2025-05-30T15:12:10.000Z</time>
      </trkpt>
      <trkpt lat="48.0077" lon="6.97512">
        <ele>1183.2686427275</ele>
        <time>2025-05-30T16:00:46.000Z</time>
      </trkpt>
      <trkpt lat="48.0077" lon="6.97513">
        <ele>1183.6415349118</ele>
        <time>2025-05-30T16:00:47.000Z</time>
      </trkpt>
      <trkpt lat="48.00772" lon="6.97507">
        <ele>1182.7344777848</ele>
        <time>2025-05-30T16:00:49.000Z</time>
      </trkpt>
      <trkpt lat="48.00781" lon="6.9749">
        <ele>1182.6140739962</ele>
        <time>2025-05-30T16:01:09.000Z</time>
      </trkpt>
      <trkpt lat="48.00784" lon="6.97477">
        <ele>1181.6441579288</ele>
        <time>2025-05-30T16:01:16.000Z</time>
      </trkpt>
      <trkpt lat="48.00792" lon="6.97454">
        <ele>1182.4606537473</ele>
        <time>2025-05-30T16:01:34.000Z</time>
      </trkpt>
      <trkpt lat="48.00795" lon="6.97442">
        <ele>1182.4525218292</ele>
        <time>2025-05-30T16:01:44.000Z</time>
      </trkpt>
      <trkpt lat="48.00796" lon="6.9739">
        <ele>1180.6687131493</ele>
        <time>2025-05-30T16:02:16.000Z</time>
      </trkpt>
      <trkpt lat="48.00796" lon="6.97366">
        <ele>1178.5232018726</ele>
        <time>2025-05-30T16:02:28.000Z</time>
      </trkpt>
      <trkpt lat="48.00802" lon="6.9734">
        <ele>1178.0979449694</ele>
        <time>2025-05-30T16:02:46.000Z</time>
      </trkpt>
      <trkpt lat="48.00807" lon="6.97331">
        <ele>1178.6872244335</ele>
        <time>2025-05-30T16:02:53.000Z</time>
      </trkpt>
      <trkpt lat="48.00811" lon="6.97323">
        <ele>1179.2119196709</ele>
        <time>2025-05-30T16:02:59.000Z</time>
      </trkpt>
      <trkpt lat="48.00821" lon="6.97336">
        <ele>1183.7834911839</ele>
        <time>2025-05-30T16:03:33.000Z</time>
      </trkpt>
      <trkpt lat="48.0082" lon="6.97343">
        <ele>1184.5558240495</ele>
        <time>2025-05-30T16:03:37.000Z</time>
      </trkpt>
      <trkpt lat="48.00836" lon="6.97381">
        <ele>1193.329287333</ele>
        <time>2025-05-30T16:04:21.000Z</time>
      </trkpt>
      <trkpt lat="48.00844" lon="6.97398">
        <ele>1196.676542983</ele>
        <time>2025-05-30T16:04:35.000Z</time>
      </trkpt>
      <trkpt lat="48.00849" lon="6.97404">
        <ele>1198.1606351111</ele>
        <time>2025-05-30T16:04:45.000Z</time>
      </trkpt>
      <trkpt lat="48.00857" lon="6.97406">
        <ele>1200.1249831404</ele>
        <time>2025-05-30T16:04:54.000Z</time>
      </trkpt>
      <trkpt lat="48.00862" lon="6.97417">
        <ele>1201.9880060113</ele>
        <time>2025-05-30T16:05:04.000Z</time>
      </trkpt>
      <trkpt lat="48.00862" lon="6.97428">
        <ele>1203.0805071328</ele>
        <time>2025-05-30T16:05:10.000Z</time>
      </trkpt>
      <trkpt lat="48.00869" lon="6.9743">
        <ele>1204.8124421658</ele>
        <time>2025-05-30T16:05:25.000Z</time>
      </trkpt>
      <trkpt lat="48.00872" lon="6.97437">
        <ele>1205.9949720661</ele>
        <time>2025-05-30T16:05:31.000Z</time>
      </trkpt>
      <trkpt lat="48.00884" lon="6.97449">
        <ele>1210.5723920268</ele>
        <time>2025-05-30T16:06:02.000Z</time>
      </trkpt>
      <trkpt lat="48.00887" lon="6.97455">
        <ele>1212.1583771516</ele>
        <time>2025-05-30T16:06:14.000Z</time>
      </trkpt>
      <trkpt lat="48.009" lon="6.97473">
        <ele>1217.38048687</ele>
        <time>2025-05-30T16:06:41.000Z</time>
      </trkpt>
      <trkpt lat="48.00901" lon="6.97482">
        <ele>1218.7818382777</ele>
        <time>2025-05-30T16:06:55.000Z</time>
      </trkpt>
      <trkpt lat="48.00902" lon="6.97491">
        <ele>1220.0392710439</ele>
        <time>2025-05-30T16:07:00.000Z</time>
      </trkpt>
      <trkpt lat="48.00904" lon="6.97492">
        <ele>1220.4581253232</ele>
        <time>2025-05-30T16:07:07.000Z</time>
      </trkpt>
      <trkpt lat="48.00911" lon="6.97502">
        <ele>1222.6223660867</ele>
        <time>2025-05-30T16:07:17.000Z</time>
      </trkpt>
      <trkpt lat="48.00917" lon="6.97512">
        <ele>1223.9444721876</ele>
        <time>2025-05-30T16:07:25.000Z</time>
      </trkpt>
      <trkpt lat="48.00922" lon="6.97515">
        <ele>1224.6956665983</ele>
        <time>2025-05-30T16:07:29.000Z</time>
      </trkpt>
      <trkpt lat="48.00932" lon="6.97531">
        <ele>1225.4972364178</ele>
        <time>2025-05-30T16:07:48.000Z</time>
      </trkpt>
      <trkpt lat="48.00931" lon="6.97542">
        <ele>1225.7744680426</ele>
        <time>2025-05-30T16:07:58.000Z</time>
      </trkpt>
      <trkpt lat="48.00934" lon="6.97549">
        <ele>1225.8435140479</ele>
        <time>2025-05-30T16:08:01.000Z</time>
      </trkpt>
      <trkpt lat="48.00933" lon="6.97556">
        <ele>1226.0589200251</ele>
        <time>2025-05-30T16:08:04.000Z</time>
      </trkpt>
      <trkpt lat="48.00935" lon="6.97591">
        <ele>1227.4862388171</ele>
        <time>2025-05-30T16:08:30.000Z</time>
      </trkpt>
      <trkpt lat="48.00931" lon="6.97609">
        <ele>1230.2950036723</ele>
        <time>2025-05-30T16:08:47.000Z</time>
      </trkpt>
      <trkpt lat="48.00935" lon="6.9762">
        <ele>1231.4910692075</ele>
        <time>2025-05-30T16:08:55.000Z</time>
      </trkpt>
      <trkpt lat="48.0093" lon="6.97627">
        <ele>1233.411311256</ele>
        <time>2025-05-30T16:09:00.000Z</time>
      </trkpt>
      <trkpt lat="48.00935" lon="6.97631">
        <ele>1233.5320508809</ele>
        <time>2025-05-30T16:09:07.000Z</time>
      </trkpt>
      <trkpt lat="48.00938" lon="6.9764">
        <ele>1234.521497843</ele>
        <time>2025-05-30T16:09:25.000Z</time>
      </trkpt>
      <trkpt lat="48.00948" lon="6.97646">
        <ele>1232.8989208751</ele>
        <time>2025-05-30T16:09:32.000Z</time>
      </trkpt>
      <trkpt lat="48.00955" lon="6.97658">
        <ele>1232.2825520436</ele>
        <time>2025-05-30T16:09:41.000Z</time>
      </trkpt>
      <trkpt lat="48.00956" lon="6.97666">
        <ele>1233.1152475724</ele>
        <time>2025-05-30T16:09:46.000Z</time>
      </trkpt>
      <trkpt lat="48.00961" lon="6.97681">
        <ele>1233.4963062155</ele>
        <time>2025-05-30T16:09:56.000Z</time>
      </trkpt>
      <trkpt lat="48.00968" lon="6.97713">
        <ele>1236.1657335035</ele>
        <time>2025-05-30T16:10:24.000Z</time>
      </trkpt>
      <trkpt lat="48.0098" lon="6.9774">
        <ele>1238.4642871894</ele>
        <time>2025-05-30T16:10:43.000Z</time>
      </trkpt>
      <trkpt lat="48.00982" lon="6.97745">
        <ele>1239.0258765329</ele>
        <time>2025-05-30T16:10:46.000Z</time>
      </trkpt>
      <trkpt lat="48.00986" lon="6.97758">
        <ele>1240.532421221</ele>
        <time>2025-05-30T16:10:54.000Z</time>
      </trkpt>
      <trkpt lat="48.00989" lon="6.97765">
        <ele>1239.9062336335</ele>
        <time>2025-05-30T16:10:59.000Z</time>
      </trkpt>
      <trkpt lat="48.00996" lon="6.97784">
        <ele>1238.5800468485</ele>
        <time>2025-05-30T16:11:10.000Z</time>
      </trkpt>
      <trkpt lat="48.00999" lon="6.97791">
        <ele>1237.8445614472</ele>
        <time>2025-05-30T16:11:15.000Z</time>
      </trkpt>
      <trkpt lat="48.01008" lon="6.97818">
        <ele>1238.180679615</ele>
        <time>2025-05-30T16:11:32.000Z</time>
      </trkpt>
      <trkpt lat="48.01014" lon="6.97833">
        <ele>1238.0869368768</ele>
        <time>2025-05-30T16:11:43.000Z</time>
      </trkpt>
      <trkpt lat="48.01018" lon="6.97846">
        <ele>1239.4990447041</ele>
        <time>2025-05-30T16:11:50.000Z</time>
      </trkpt>
      <trkpt lat="48.01029" lon="6.97877">
        <ele>1238.8575438996</ele>
        <time>2025-05-30T16:12:11.000Z</time>
      </trkpt>
      <trkpt lat="48.01031" lon="6.97881">
        <ele>1238.4156560214</ele>
        <time>2025-05-30T16:12:15.000Z</time>
      </trkpt>
      <trkpt lat="48.01037" lon="6.97903">
        <ele>1240.5987221928</ele>
        <time>2025-05-30T16:12:29.000Z</time>
      </trkpt>
      <trkpt lat="48.01038" lon="6.9791">
        <ele>1241.7549996584</ele>
        <time>2025-05-30T16:12:38.000Z</time>
      </trkpt>
      <trkpt lat="48.01041" lon="6.97924">
        <ele>1244.5798130257</ele>
        <time>2025-05-30T16:12:47.000Z</time>
      </trkpt>
      <trkpt lat="48.01042" lon="6.97931">
        <ele>1245.8123809772</ele>
        <time>2025-05-30T16:12:52.000Z</time>
      </trkpt>
      <trkpt lat="48.01043" lon="6.97938">
        <ele>1247.5300511929</ele>
        <time>2025-05-30T16:13:01.000Z</time>
      </trkpt>
      <trkpt lat="48.01044" lon="6.97945">
        <ele>1248.819930866</ele>
        <time>2025-05-30T16:13:35.000Z</time>
      </trkpt>
      <trkpt lat="48.01047" lon="6.97949">
        <ele>1248.3871722601</ele>
        <time>2025-05-30T16:13:39.000Z</time>
      </trkpt>
      <trkpt lat="48.01051" lon="6.97955">
        <ele>1247.9812081805</ele>
        <time>2025-05-30T16:13:47.000Z</time>
      </trkpt>
      <trkpt lat="48.01059" lon="6.9796">
        <ele>1245.6937306737</ele>
        <time>2025-05-30T16:13:59.000Z</time>
      </trkpt>
      <trkpt lat="48.01073" lon="6.97969">
        <ele>1241.4158079313</ele>
        <time>2025-05-30T16:14:13.000Z</time>
      </trkpt>
      <trkpt lat="48.01077" lon="6.97973">
        <ele>1240.3674750126</ele>
        <time>2025-05-30T16:14:17.000Z</time>
      </trkpt>
      <trkpt lat="48.01084" lon="6.97984">
        <ele>1238.7507918087</ele>
        <time>2025-05-30T16:14:25.000Z</time>
      </trkpt>
      <trkpt lat="48.01088" lon="6.97989">
        <ele>1238.3020687048</ele>
        <time>2025-05-30T16:14:29.000Z</time>
      </trkpt>
      <trkpt lat="48.01094" lon="6.98001">
        <ele>1237.5155245275</ele>
        <time>2025-05-30T16:14:39.000Z</time>
      </trkpt>
      <trkpt lat="48.01098" lon="6.98007">
        <ele>1236.9450306193</ele>
        <time>2025-05-30T16:14:44.000Z</time>
      </trkpt>
      <trkpt lat="48.01103" lon="6.98019">
        <ele>1237.0628985436</ele>
        <time>2025-05-30T16:14:52.000Z</time>
      </trkpt>
      <trkpt lat="48.01107" lon="6.9803">
        <ele>1236.7794131062</ele>
        <time>2025-05-30T16:15:00.000Z</time>
      </trkpt>
      <trkpt lat="48.01114" lon="6.98045">
        <ele>1235.7647549792</ele>
        <time>2025-05-30T16:15:11.000Z</time>
      </trkpt>
      <trkpt lat="48.01116" lon="6.98051">
        <ele>1235.2885560846</ele>
        <time>2025-05-30T16:15:15.000Z</time>
      </trkpt>
      <trkpt lat="48.01119" lon="6.98057">
        <ele>1234.9389599742</ele>
        <time>2025-05-30T16:15:19.000Z</time>
      </trkpt>
      <trkpt lat="48.01124" lon="6.98069">
        <ele>1234.5452834109</ele>
        <time>2025-05-30T16:15:26.000Z</time>
      </trkpt>
      <trkpt lat="48.01126" lon="6.98075">
        <ele>1234.4851304756</ele>
        <time>2025-05-30T16:15:30.000Z</time>
      </trkpt>
      <trkpt lat="48.01146" lon="6.98111">
        <ele>1232.2513352804</ele>
        <time>2025-05-30T16:15:59.000Z</time>
      </trkpt>
      <trkpt lat="48.01152" lon="6.98126">
        <ele>1232.146831823</ele>
        <time>2025-05-30T16:16:10.000Z</time>
      </trkpt>
      <trkpt lat="48.01159" lon="6.98138">
        <ele>1230.6772219645</ele>
        <time>2025-05-30T16:16:20.000Z</time>
      </trkpt>
      <trkpt lat="48.01179" lon="6.98183">
        <ele>1228.5558154349</ele>
        <time>2025-05-30T16:16:51.000Z</time>
      </trkpt>
      <trkpt lat="48.01182" lon="6.98188">
        <ele>1228.0811292193</ele>
        <time>2025-05-30T16:16:54.000Z</time>
      </trkpt>
      <trkpt lat="48.01185" lon="6.98195">
        <ele>1227.4462856002</ele>
        <time>2025-05-30T16:16:59.000Z</time>
      </trkpt>
      <trkpt lat="48.01189" lon="6.98199">
        <ele>1226.5555498543</ele>
        <time>2025-05-30T16:17:02.000Z</time>
      </trkpt>
      <trkpt lat="48.01196" lon="6.98204">
        <ele>1224.0793103855</ele>
        <time>2025-05-30T16:17:09.000Z</time>
      </trkpt>
      <trkpt lat="48.01197" lon="6.9821">
        <ele>1224.4598260127</ele>
        <time>2025-05-30T16:17:13.000Z</time>
      </trkpt>
      <trkpt lat="48.012" lon="6.98217">
        <ele>1223.8582294402</ele>
        <time>2025-05-30T16:17:16.000Z</time>
      </trkpt>
      <trkpt lat="48.01202" lon="6.98221">
        <ele>1223.4795379869</ele>
        <time>2025-05-30T16:17:19.000Z</time>
      </trkpt>
      <trkpt lat="48.01206" lon="6.98236">
        <ele>1223.5098852767</ele>
        <time>2025-05-30T16:17:31.000Z</time>
      </trkpt>
      <trkpt lat="48.01206" lon="6.98243">
        <ele>1223.7442482675</ele>
        <time>2025-05-30T16:17:37.000Z</time>
      </trkpt>
      <trkpt lat="48.01225" lon="6.98286">
        <ele>1221.3028020931</ele>
        <time>2025-05-30T16:18:06.000Z</time>
      </trkpt>
      <trkpt lat="48.01253" lon="6.98329">
        <ele>1220.7187130003</ele>
        <time>2025-05-30T16:18:41.000Z</time>
      </trkpt>
      <trkpt lat="48.01283" lon="6.98368">
        <ele>1217.8525413725</ele>
        <time>2025-05-30T16:19:15.000Z</time>
      </trkpt>
      <trkpt lat="48.01287" lon="6.9837">
        <ele>1216.9716635424</ele>
        <time>2025-05-30T16:19:22.000Z</time>
      </trkpt>
      <trkpt lat="48.01319" lon="6.98398">
        <ele>1211.2009762102</ele>
        <time>2025-05-30T16:19:52.000Z</time>
      </trkpt>
      <trkpt lat="48.01325" lon="6.98404">
        <ele>1209.9891128079</ele>
        <time>2025-05-30T16:20:05.000Z</time>
      </trkpt>
      <trkpt lat="48.01339" lon="6.98418">
        <ele>1207.2239390974</ele>
        <time>2025-05-30T16:20:20.000Z</time>
      </trkpt>
      <trkpt lat="48.01343" lon="6.98423">
        <ele>1206.6903394239</ele>
        <time>2025-05-30T16:20:23.000Z</time>
      </trkpt>
      <trkpt lat="48.01373" lon="6.98457">
        <ele>1205.8914126878</ele>
        <time>2025-05-30T16:20:55.000Z</time>
      </trkpt>
      <trkpt lat="48.01376" lon="6.98462">
        <ele>1205.9135837272</ele>
        <time>2025-05-30T16:20:59.000Z</time>
      </trkpt>
      <trkpt lat="48.01393" lon="6.98478">
        <ele>1203.8003538262</ele>
        <time>2025-05-30T16:21:16.000Z</time>
      </trkpt>
      <trkpt lat="48.01403" lon="6.98485">
        <ele>1201.3999981868</ele>
        <time>2025-05-30T16:21:26.000Z</time>
      </trkpt>
      <trkpt lat="48.01413" lon="6.98495">
        <ele>1199.1221583464</ele>
        <time>2025-05-30T16:21:39.000Z</time>
      </trkpt>
      <trkpt lat="48.01427" lon="6.98505">
        <ele>1196.615876128</ele>
        <time>2025-05-30T16:21:55.000Z</time>
      </trkpt>
      <trkpt lat="48.01433" lon="6.9851">
        <ele>1195.5741710996</ele>
        <time>2025-05-30T16:22:09.000Z</time>
      </trkpt>
      <trkpt lat="48.01446" lon="6.9852">
        <ele>1193.2900493436</ele>
        <time>2025-05-30T16:22:21.000Z</time>
      </trkpt>
      <trkpt lat="48.01463" lon="6.9854">
        <ele>1189.9005310732</ele>
        <time>2025-05-30T16:22:41.000Z</time>
      </trkpt>
      <trkpt lat="48.01467" lon="6.98543">
        <ele>1188.9012947566</ele>
        <time>2025-05-30T16:22:46.000Z</time>
      </trkpt>
      <trkpt lat="48.01471" lon="6.98546">
        <ele>1187.9937770479</ele>
        <time>2025-05-30T16:22:50.000Z</time>
      </trkpt>
      <trkpt lat="48.01475" lon="6.9855">
        <ele>1187.1470073887</ele>
        <time>2025-05-30T16:22:54.000Z</time>
      </trkpt>
      <trkpt lat="48.01479" lon="6.98553">
        <ele>1186.6387323324</ele>
        <time>2025-05-30T16:22:58.000Z</time>
      </trkpt>
      <trkpt lat="48.01487" lon="6.9856">
        <ele>1185.7535861521</ele>
        <time>2025-05-30T16:23:08.000Z</time>
      </trkpt>
      <trkpt lat="48.01499" lon="6.98566">
        <ele>1185.8270749765</ele>
        <time>2025-05-30T16:23:18.000Z</time>
      </trkpt>
      <trkpt lat="48.01507" lon="6.98577">
        <ele>1187.1381095696</ele>
        <time>2025-05-30T16:23:29.000Z</time>
      </trkpt>
      <trkpt lat="48.01511" lon="6.98579">
        <ele>1187.4946860172</ele>
        <time>2025-05-30T16:23:33.000Z</time>
      </trkpt>
      <trkpt lat="48.01515" lon="6.98583">
        <ele>1188.3350843123</ele>
        <time>2025-05-30T16:23:37.000Z</time>
      </trkpt>
      <trkpt lat="48.0153" lon="6.98587">
        <ele>1192.0104776751</ele>
        <time>2025-05-30T16:23:51.000Z</time>
      </trkpt>
      <trkpt lat="48.01539" lon="6.98592">
        <ele>1194.4769223316</ele>
        <time>2025-05-30T16:24:02.000Z</time>
      </trkpt>
      <trkpt lat="48.01541" lon="6.98601">
        <ele>1195.8676431771</ele>
        <time>2025-05-30T16:24:10.000Z</time>
      </trkpt>
      <trkpt lat="48.01545" lon="6.98601">
        <ele>1196.7647433627</ele>
        <time>2025-05-30T16:24:13.000Z</time>
      </trkpt>
      <trkpt lat="48.01541" lon="6.98611">
        <ele>1195.913019824</ele>
        <time>2025-05-30T16:24:14.000Z</time>
      </trkpt>
      <trkpt lat="48.01548" lon="6.98611">
        <ele>1197.1513540178</ele>
        <time>2025-05-30T16:24:19.000Z</time>
      </trkpt>
      <trkpt lat="48.01553" lon="6.98609">
        <ele>1198.2440520505</ele>
        <time>2025-05-30T16:24:23.000Z</time>
      </trkpt>
      <trkpt lat="48.01566" lon="6.9861">
        <ele>1198.0614225731</ele>
        <time>2025-05-30T16:24:35.000Z</time>
      </trkpt>
      <trkpt lat="48.01578" lon="6.98615">
        <ele>1197.0942109388</ele>
        <time>2025-05-30T16:24:47.000Z</time>
      </trkpt>
      <trkpt lat="48.01582" lon="6.98618">
        <ele>1196.2963138516</ele>
        <time>2025-05-30T16:24:52.000Z</time>
      </trkpt>
      <trkpt lat="48.01588" lon="6.9862">
        <ele>1195.1253883393</ele>
        <time>2025-05-30T16:24:55.000Z</time>
      </trkpt>
      <trkpt lat="48.01595" lon="6.98624">
        <ele>1193.8468365022</ele>
        <time>2025-05-30T16:25:04.000Z</time>
      </trkpt>
      <trkpt lat="48.016" lon="6.98623">
        <ele>1192.3757491172</ele>
        <time>2025-05-30T16:25:11.000Z</time>
      </trkpt>
      <trkpt lat="48.01609" lon="6.98627">
        <ele>1190.6216294208</ele>
        <time>2025-05-30T16:25:24.000Z</time>
      </trkpt>
      <trkpt lat="48.0161" lon="6.98637">
        <ele>1191.5407276796</ele>
        <time>2025-05-30T16:25:28.000Z</time>
      </trkpt>
      <trkpt lat="48.01613" lon="6.98654">
        <ele>1193.775854354</ele>
        <time>2025-05-30T16:25:43.000Z</time>
      </trkpt>
      <trkpt lat="48.01616" lon="6.9866">
        <ele>1194.6623607542</ele>
        <time>2025-05-30T16:25:47.000Z</time>
      </trkpt>
      <trkpt lat="48.01622" lon="6.98673">
        <ele>1197.5649701907</ele>
        <time>2025-05-30T16:26:02.000Z</time>
      </trkpt>
      <trkpt lat="48.01624" lon="6.98679">
        <ele>1198.5907433517</ele>
        <time>2025-05-30T16:26:07.000Z</time>
      </trkpt>
      <trkpt lat="48.01629" lon="6.98688">
        <ele>1200.7373493434</ele>
        <time>2025-05-30T16:26:19.000Z</time>
      </trkpt>
      <trkpt lat="48.01634" lon="6.98692">
        <ele>1202.2363749839</ele>
        <time>2025-05-30T16:26:22.000Z</time>
      </trkpt>
      <trkpt lat="48.01637" lon="6.987">
        <ele>1203.8518872139</ele>
        <time>2025-05-30T16:26:29.000Z</time>
      </trkpt>
      <trkpt lat="48.01648" lon="6.98718">
        <ele>1206.724219773</ele>
        <time>2025-05-30T16:26:45.000Z</time>
      </trkpt>
      <trkpt lat="48.01651" lon="6.98724">
        <ele>1207.6679906597</ele>
        <time>2025-05-30T16:26:52.000Z</time>
      </trkpt>
      <trkpt lat="48.01658" lon="6.98743">
        <ele>1209.3149531648</ele>
        <time>2025-05-30T16:27:07.000Z</time>
      </trkpt>
      <trkpt lat="48.01664" lon="6.98752">
        <ele>1210.4766165062</ele>
        <time>2025-05-30T16:27:17.000Z</time>
      </trkpt>
      <trkpt lat="48.01686" lon="6.98776">
        <ele>1210.98628929</ele>
        <time>2025-05-30T16:27:45.000Z</time>
      </trkpt>
      <trkpt lat="48.0169" lon="6.98781">
        <ele>1210.2898132559</ele>
        <time>2025-05-30T16:27:53.000Z</time>
      </trkpt>
      <trkpt lat="48.01694" lon="6.98787">
        <ele>1209.5585941017</ele>
        <time>2025-05-30T16:28:01.000Z</time>
      </trkpt>
      <trkpt lat="48.01698" lon="6.9879">
        <ele>1209.1722081809</ele>
        <time>2025-05-30T16:28:04.000Z</time>
      </trkpt>
      <trkpt lat="48.017" lon="6.98798">
        <ele>1208.5065695155</ele>
        <time>2025-05-30T16:28:12.000Z</time>
      </trkpt>
      <trkpt lat="48.01707" lon="6.9881">
        <ele>1207.9881912758</ele>
        <time>2025-05-30T16:28:24.000Z</time>
      </trkpt>
      <trkpt lat="48.01711" lon="6.98815">
        <ele>1208.0330982313</ele>
        <time>2025-05-30T16:28:28.000Z</time>
      </trkpt>
      <trkpt lat="48.01713" lon="6.98822">
        <ele>1207.9327122188</ele>
        <time>2025-05-30T16:28:33.000Z</time>
      </trkpt>
      <trkpt lat="48.01726" lon="6.98833">
        <ele>1209.6163572084</ele>
        <time>2025-05-30T16:28:46.000Z</time>
      </trkpt>
      <trkpt lat="48.0173" lon="6.98834">
        <ele>1210.186768791</ele>
        <time>2025-05-30T16:28:50.000Z</time>
      </trkpt>
      <trkpt lat="48.01733" lon="6.98838">
        <ele>1210.8310018904</ele>
        <time>2025-05-30T16:28:55.000Z</time>
      </trkpt>
      <trkpt lat="48.0174" lon="6.98841">
        <ele>1211.7853926874</ele>
        <time>2025-05-30T16:29:02.000Z</time>
      </trkpt>
      <trkpt lat="48.01744" lon="6.98851">
        <ele>1212.9003238983</ele>
        <time>2025-05-30T16:29:12.000Z</time>
      </trkpt>
      <trkpt lat="48.0177" lon="6.98871">
        <ele>1216.1304207861</ele>
        <time>2025-05-30T16:29:43.000Z</time>
      </trkpt>
      <trkpt lat="48.01795" lon="6.98895">
        <ele>1222.5560938222</ele>
        <time>2025-05-30T16:30:20.000Z</time>
      </trkpt>
      <trkpt lat="48.018" lon="6.98903">
        <ele>1224.9506125541</ele>
        <time>2025-05-30T16:30:30.000Z</time>
      </trkpt>
      <trkpt lat="48.01805" lon="6.98906">
        <ele>1226.7185612495</ele>
        <time>2025-05-30T16:30:34.000Z</time>
      </trkpt>
      <trkpt lat="48.01813" lon="6.98916">
        <ele>1229.9254939255</ele>
        <time>2025-05-30T16:30:49.000Z</time>
      </trkpt>
      <trkpt lat="48.01832" lon="6.98933">
        <ele>1234.9175130227</ele>
        <time>2025-05-30T16:31:08.000Z</time>
      </trkpt>
      <trkpt lat="48.01835" lon="6.98938">
        <ele>1235.9452837841</ele>
        <time>2025-05-30T16:31:15.000Z</time>
      </trkpt>
      <trkpt lat="48.01845" lon="6.98944">
        <ele>1237.6264115065</ele>
        <time>2025-05-30T16:31:23.000Z</time>
      </trkpt>
      <trkpt lat="48.01847" lon="6.98949">
        <ele>1238.4183608554</ele>
        <time>2025-05-30T16:31:28.000Z</time>
      </trkpt>
      <trkpt lat="48.01846" lon="6.98958">
        <ele>1238.9452045747</ele>
        <time>2025-05-30T16:31:33.000Z</time>
      </trkpt>
      <trkpt lat="48.01848" lon="6.98973">
        <ele>1240.1082913035</ele>
        <time>2025-05-30T16:31:44.000Z</time>
      </trkpt>
      <trkpt lat="48.01849" lon="6.98981">
        <ele>1240.532694774</ele>
        <time>2025-05-30T16:31:50.000Z</time>
      </trkpt>
      <trkpt lat="48.01852" lon="6.98989">
        <ele>1240.8861716125</ele>
        <time>2025-05-30T16:31:54.000Z</time>
      </trkpt>
      <trkpt lat="48.01855" lon="6.99003">
        <ele>1241.4113447712</ele>
        <time>2025-05-30T16:32:05.000Z</time>
      </trkpt>
      <trkpt lat="48.01857" lon="6.99009">
        <ele>1241.6842155817</ele>
        <time>2025-05-30T16:32:08.000Z</time>
      </trkpt>
      <trkpt lat="48.0186" lon="6.99015">
        <ele>1242.0041353656</ele>
        <time>2025-05-30T16:32:12.000Z</time>
      </trkpt>
      <trkpt lat="48.01862" lon="6.99022">
        <ele>1242.0065454218</ele>
        <time>2025-05-30T16:32:17.000Z</time>
      </trkpt>
      <trkpt lat="48.01863" lon="6.99029">
        <ele>1241.9893482457</ele>
        <time>2025-05-30T16:32:22.000Z</time>
      </trkpt>
      <trkpt lat="48.01869" lon="6.99049">
        <ele>1243.1586404374</ele>
        <time>2025-05-30T16:32:35.000Z</time>
      </trkpt>
      <trkpt lat="48.01882" lon="6.99102">
        <ele>1246.6341947167</ele>
        <time>2025-05-30T16:33:09.000Z</time>
      </trkpt>
      <trkpt lat="48.01887" lon="6.99126">
        <ele>1249.8270381975</ele>
        <time>2025-05-30T16:33:22.000Z</time>
      </trkpt>
      <trkpt lat="48.0189" lon="6.99135">
        <ele>1251.5029022816</ele>
        <time>2025-05-30T16:33:30.000Z</time>
      </trkpt>
      <trkpt lat="48.01892" lon="6.99144">
        <ele>1251.6374462116</ele>
        <time>2025-05-30T16:33:43.000Z</time>
      </trkpt>
      <trkpt lat="48.01906" lon="6.99195">
        <ele>1248.7791413493</ele>
        <time>2025-05-30T16:34:16.000Z</time>
      </trkpt>
      <trkpt lat="48.01911" lon="6.99206">
        <ele>1247.6949965777</ele>
        <time>2025-05-30T16:34:27.000Z</time>
      </trkpt>
      <trkpt lat="48.01917" lon="6.99217">
        <ele>1246.8738261099</ele>
        <time>2025-05-30T16:34:35.000Z</time>
      </trkpt>
      <trkpt lat="48.01939" lon="6.99236">
        <ele>1250.4972470003</ele>
        <time>2025-05-30T16:35:06.000Z</time>
      </trkpt>
      <trkpt lat="48.01948" lon="6.99244">
        <ele>1252.7468804149</ele>
        <time>2025-05-30T16:35:14.000Z</time>
      </trkpt>
      <trkpt lat="48.01952" lon="6.99265">
        <ele>1250.798072277</ele>
        <time>2025-05-30T16:35:29.000Z</time>
      </trkpt>
      <trkpt lat="48.01947" lon="6.99287">
        <ele>1246.4661014599</ele>
        <time>2025-05-30T16:35:42.000Z</time>
      </trkpt>
      <trkpt lat="48.01947" lon="6.99298">
        <ele>1245.6539155606</ele>
        <time>2025-05-30T16:35:49.000Z</time>
      </trkpt>
      <trkpt lat="48.01954" lon="6.99329">
        <ele>1247.4019943118</ele>
        <time>2025-05-30T16:36:13.000Z</time>
      </trkpt>
      <trkpt lat="48.01953" lon="6.9934">
        <ele>1247.4810105676</ele>
        <time>2025-05-30T16:36:17.000Z</time>
      </trkpt>
      <trkpt lat="48.01949" lon="6.9935">
        <ele>1245.9929613147</ele>
        <time>2025-05-30T16:36:23.000Z</time>
      </trkpt>
      <trkpt lat="48.01945" lon="6.99358">
        <ele>1244.4608662533</ele>
        <time>2025-05-30T16:36:33.000Z</time>
      </trkpt>
      <trkpt lat="48.01939" lon="6.99373">
        <ele>1243.9083461971</ele>
        <time>2025-05-30T16:36:40.000Z</time>
      </trkpt>
      <trkpt lat="48.01938" lon="6.99381">
        <ele>1244.4206404019</ele>
        <time>2025-05-30T16:36:43.000Z</time>
      </trkpt>
      <trkpt lat="48.01937" lon="6.99405">
        <ele>1247.3833656887</ele>
        <time>2025-05-30T16:37:14.000Z</time>
      </trkpt>
      <trkpt lat="48.01934" lon="6.99439">
        <ele>1250.8012228266</ele>
        <time>2025-05-30T16:37:43.000Z</time>
      </trkpt>
      <trkpt lat="48.01931" lon="6.99451">
        <ele>1248.5770424183</ele>
        <time>2025-05-30T16:37:51.000Z</time>
      </trkpt>
      <trkpt lat="48.01925" lon="6.99464">
        <ele>1247.2584512259</ele>
        <time>2025-05-30T16:37:57.000Z</time>
      </trkpt>
      <trkpt lat="48.01922" lon="6.99472">
        <ele>1246.4893151247</ele>
        <time>2025-05-30T16:38:06.000Z</time>
      </trkpt>
      <trkpt lat="48.01918" lon="6.99479">
        <ele>1245.5067775084</ele>
        <time>2025-05-30T16:38:10.000Z</time>
      </trkpt>
      <trkpt lat="48.01913" lon="6.9949">
        <ele>1245.0314720694</ele>
        <time>2025-05-30T16:38:17.000Z</time>
      </trkpt>
      <trkpt lat="48.01909" lon="6.99501">
        <ele>1245.82856683</ele>
        <time>2025-05-30T16:38:23.000Z</time>
      </trkpt>
      <trkpt lat="48.01903" lon="6.99539">
        <ele>1250.8807806622</ele>
        <time>2025-05-30T16:38:56.000Z</time>
      </trkpt>
      <trkpt lat="48.01898" lon="6.99552">
        <ele>1251.443421074</ele>
        <time>2025-05-30T16:39:11.000Z</time>
      </trkpt>
      <trkpt lat="48.01894" lon="6.99561">
        <ele>1251.2410886038</ele>
        <time>2025-05-30T16:39:16.000Z</time>
      </trkpt>
      <trkpt lat="48.01882" lon="6.99584">
        <ele>1249.196001118</ele>
        <time>2025-05-30T16:39:30.000Z</time>
      </trkpt>
      <trkpt lat="48.0188" lon="6.99589">
        <ele>1249.0463323736</ele>
        <time>2025-05-30T16:39:33.000Z</time>
      </trkpt>
      <trkpt lat="48.01875" lon="6.99597">
        <ele>1247.9207824528</ele>
        <time>2025-05-30T16:39:39.000Z</time>
      </trkpt>
      <trkpt lat="48.01869" lon="6.99609">
        <ele>1247.032737885</ele>
        <time>2025-05-30T16:39:48.000Z</time>
      </trkpt>
      <trkpt lat="48.01865" lon="6.99614">
        <ele>1246.3649200947</ele>
        <time>2025-05-30T16:39:52.000Z</time>
      </trkpt>
      <trkpt lat="48.01847" lon="6.99643">
        <ele>1245.4076732231</ele>
        <time>2025-05-30T16:40:14.000Z</time>
      </trkpt>
      <trkpt lat="48.01845" lon="6.9965">
        <ele>1246.3126416368</ele>
        <time>2025-05-30T16:40:19.000Z</time>
      </trkpt>
      <trkpt lat="48.01842" lon="6.99657">
        <ele>1246.8055178149</ele>
        <time>2025-05-30T16:40:23.000Z</time>
      </trkpt>
      <trkpt lat="48.01839" lon="6.99669">
        <ele>1248.2460697264</ele>
        <time>2025-05-30T16:40:33.000Z</time>
      </trkpt>
      <trkpt lat="48.01836" lon="6.99681">
        <ele>1249.4705634957</ele>
        <time>2025-05-30T16:40:43.000Z</time>
      </trkpt>
      <trkpt lat="48.01833" lon="6.99687">
        <ele>1249.1604457467</ele>
        <time>2025-05-30T16:40:47.000Z</time>
      </trkpt>
      <trkpt lat="48.01829" lon="6.99691">
        <ele>1247.9969391658</ele>
        <time>2025-05-30T16:40:51.000Z</time>
      </trkpt>
      <trkpt lat="48.01814" lon="6.997">
        <ele>1242.4652995741</ele>
        <time>2025-05-30T16:41:05.000Z</time>
      </trkpt>
      <trkpt lat="48.01807" lon="6.9971">
        <ele>1241.8806905154</ele>
        <time>2025-05-30T16:41:17.000Z</time>
      </trkpt>
      <trkpt lat="48.01804" lon="6.99716">
        <ele>1242.4955653698</ele>
        <time>2025-05-30T16:41:23.000Z</time>
      </trkpt>
      <trkpt lat="48.018" lon="6.99725">
        <ele>1243.9879984422</ele>
        <time>2025-05-30T16:41:28.000Z</time>
      </trkpt>
      <trkpt lat="48.01784" lon="6.99741">
        <ele>1243.6757340548</ele>
        <time>2025-05-30T16:41:45.000Z</time>
      </trkpt>
      <trkpt lat="48.01762" lon="6.99768">
        <ele>1240.5170569748</ele>
        <time>2025-05-30T16:42:10.000Z</time>
      </trkpt>
      <trkpt lat="48.01756" lon="6.9978">
        <ele>1239.2957078869</ele>
        <time>2025-05-30T16:42:16.000Z</time>
      </trkpt>
      <trkpt lat="48.01747" lon="6.99796">
        <ele>1237.5480582716</ele>
        <time>2025-05-30T16:42:33.000Z</time>
      </trkpt>
      <trkpt lat="48.01738" lon="6.99835">
        <ele>1237.4792221859</ele>
        <time>2025-05-30T16:42:53.000Z</time>
      </trkpt>
      <trkpt lat="48.01737" lon="6.99842">
        <ele>1237.4688775775</ele>
        <time>2025-05-30T16:42:56.000Z</time>
      </trkpt>
      <trkpt lat="48.01736" lon="6.9985">
        <ele>1237.4403883929</ele>
        <time>2025-05-30T16:43:03.000Z</time>
      </trkpt>
      <trkpt lat="48.01735" lon="6.99856">
        <ele>1237.3594872797</ele>
        <time>2025-05-30T16:43:06.000Z</time>
      </trkpt>
      <trkpt lat="48.01733" lon="6.99863">
        <ele>1236.9143061157</ele>
        <time>2025-05-30T16:43:10.000Z</time>
      </trkpt>
      <trkpt lat="48.01729" lon="6.999">
        <ele>1233.8222960152</ele>
        <time>2025-05-30T16:43:38.000Z</time>
      </trkpt>
      <trkpt lat="48.01726" lon="6.99911">
        <ele>1232.4406271159</ele>
        <time>2025-05-30T16:44:20.000Z</time>
      </trkpt>
      <trkpt lat="48.01726" lon="6.99917">
        <ele>1232.4285189172</ele>
        <time>2025-05-30T16:44:23.000Z</time>
      </trkpt>
      <trkpt lat="48.01723" lon="6.99933">
        <ele>1232.1347711965</ele>
        <time>2025-05-30T16:44:48.000Z</time>
      </trkpt>
      <trkpt lat="48.01727" lon="6.99938">
        <ele>1233.8713538623</ele>
        <time>2025-05-30T16:44:54.000Z</time>
      </trkpt>
      <trkpt lat="48.01729" lon="6.99944">
        <ele>1235.3304535792</ele>
        <time>2025-05-30T16:44:57.000Z</time>
      </trkpt>
      <trkpt lat="48.01729" lon="6.99951">
        <ele>1235.3777671389</ele>
        <time>2025-05-30T16:45:01.000Z</time>
      </trkpt>
      <trkpt lat="48.0173" lon="6.99964">
        <ele>1236.4627951596</ele>
        <time>2025-05-30T16:45:08.000Z</time>
      </trkpt>
      <trkpt lat="48.01729" lon="6.99971">
        <ele>1235.7198875466</ele>
        <time>2025-05-30T16:45:12.000Z</time>
      </trkpt>
      <trkpt lat="48.01726" lon="6.99977">
        <ele>1234.7774904964</ele>
        <time>2025-05-30T16:45:15.000Z</time>
      </trkpt>
      <trkpt lat="48.01726" lon="6.99985">
        <ele>1234.8436055433</ele>
        <time>2025-05-30T16:45:19.000Z</time>
      </trkpt>
      <trkpt lat="48.01726" lon="7.00009">
        <ele>1234.2279033974</ele>
        <time>2025-05-30T16:45:34.000Z</time>
      </trkpt>
      <trkpt lat="48.01727" lon="7.00027">
        <ele>1233.7696562297</ele>
        <time>2025-05-30T16:45:43.000Z</time>
      </trkpt>
      <trkpt lat="48.01726" lon="7.00033">
        <ele>1233.2964664836</ele>
        <time>2025-05-30T16:45:51.000Z</time>
      </trkpt>
      <trkpt lat="48.0173" lon="7.00082">
        <ele>1231.0722095628</ele>
        <time>2025-05-30T16:46:24.000Z</time>
      </trkpt>
      <trkpt lat="48.01731" lon="7.00089">
        <ele>1230.3887905412</ele>
        <time>2025-05-30T16:46:27.000Z</time>
      </trkpt>
      <trkpt lat="48.01735" lon="7.00117">
        <ele>1228.318953648</ele>
        <time>2025-05-30T16:46:43.000Z</time>
      </trkpt>
      <trkpt lat="48.01737" lon="7.00131">
        <ele>1227.1791459012</ele>
        <time>2025-05-30T16:46:50.000Z</time>
      </trkpt>
      <trkpt lat="48.01739" lon="7.00144">
        <ele>1226.3932609978</ele>
        <time>2025-05-30T16:46:57.000Z</time>
      </trkpt>
      <trkpt lat="48.0174" lon="7.0015">
        <ele>1226.072666553</ele>
        <time>2025-05-30T16:47:00.000Z</time>
      </trkpt>
      <trkpt lat="48.01746" lon="7.00175">
        <ele>1225.4350609048</ele>
        <time>2025-05-30T16:47:19.000Z</time>
      </trkpt>
      <trkpt lat="48.01752" lon="7.00203">
        <ele>1224.5609111756</ele>
        <time>2025-05-30T16:47:34.000Z</time>
      </trkpt>
      <trkpt lat="48.0176" lon="7.00232">
        <ele>1224.0689874014</ele>
        <time>2025-05-30T16:47:51.000Z</time>
      </trkpt>
      <trkpt lat="48.01771" lon="7.00256">
        <ele>1226.0991915818</ele>
        <time>2025-05-30T16:48:05.000Z</time>
      </trkpt>
      <trkpt lat="48.0178" lon="7.00277">
        <ele>1228.0159720985</ele>
        <time>2025-05-30T16:48:27.000Z</time>
      </trkpt>
      <trkpt lat="48.01783" lon="7.00287">
        <ele>1228.8983678153</ele>
        <time>2025-05-30T16:48:44.000Z</time>
      </trkpt>
      <trkpt lat="48.0179" lon="7.00289">
        <ele>1232.0243231365</ele>
        <time>2025-05-30T16:48:50.000Z</time>
      </trkpt>
      <trkpt lat="48.01802" lon="7.00314">
        <ele>1236.0795000165</ele>
        <time>2025-05-30T16:49:08.000Z</time>
      </trkpt>
      <trkpt lat="48.01807" lon="7.00344">
        <ele>1237.3350446263</ele>
        <time>2025-05-30T16:49:29.000Z</time>
      </trkpt>
      <trkpt lat="48.01813" lon="7.00368">
        <ele>1240.7926159727</ele>
        <time>2025-05-30T16:49:47.000Z</time>
      </trkpt>
      <trkpt lat="48.01811" lon="7.00391">
        <ele>1241.2463994088</ele>
        <time>2025-05-30T16:50:00.000Z</time>
      </trkpt>
      <trkpt lat="48.01818" lon="7.00401">
        <ele>1244.1408189034</ele>
        <time>2025-05-30T16:50:04.000Z</time>
      </trkpt>
      <trkpt lat="48.01826" lon="7.00413">
        <ele>1247.744855391</ele>
        <time>2025-05-30T16:50:19.000Z</time>
      </trkpt>
      <trkpt lat="48.01826" lon="7.00423">
        <ele>1247.4192385758</ele>
        <time>2025-05-30T16:50:24.000Z</time>
      </trkpt>
      <trkpt lat="48.01822" lon="7.00435">
        <ele>1245.0557284761</ele>
        <time>2025-05-30T16:50:32.000Z</time>
      </trkpt>
      <trkpt lat="48.01822" lon="7.00457">
        <ele>1244.3998486217</ele>
        <time>2025-05-30T16:50:49.000Z</time>
      </trkpt>
      <trkpt lat="48.01824" lon="7.00462">
        <ele>1245.2616240423</ele>
        <time>2025-05-30T16:50:52.000Z</time>
      </trkpt>
      <trkpt lat="48.01824" lon="7.00469">
        <ele>1245.0151131567</ele>
        <time>2025-05-30T16:50:55.000Z</time>
      </trkpt>
      <trkpt lat="48.01822" lon="7.00475">
        <ele>1244.1880871573</ele>
        <time>2025-05-30T16:50:57.000Z</time>
      </trkpt>
      <trkpt lat="48.01821" lon="7.00502">
        <ele>1244.1459299195</ele>
        <time>2025-05-30T16:51:13.000Z</time>
      </trkpt>
      <trkpt lat="48.01822" lon="7.00527">
        <ele>1245.8005826976</ele>
        <time>2025-05-30T16:51:30.000Z</time>
      </trkpt>
      <trkpt lat="48.01821" lon="7.00566">
        <ele>1250.2838382516</ele>
        <time>2025-05-30T16:51:59.000Z</time>
      </trkpt>
      <trkpt lat="48.01819" lon="7.00584">
        <ele>1252.1959970271</ele>
        <time>2025-05-30T16:52:16.000Z</time>
      </trkpt>
      <trkpt lat="48.0182" lon="7.00593">
        <ele>1253.3968681626</ele>
        <time>2025-05-30T16:52:28.000Z</time>
      </trkpt>
      <trkpt lat="48.01817" lon="7.00605">
        <ele>1254.0092958276</ele>
        <time>2025-05-30T16:52:39.000Z</time>
      </trkpt>
      <trkpt lat="48.01816" lon="7.00615">
        <ele>1254.7060123612</ele>
        <time>2025-05-30T16:52:49.000Z</time>
      </trkpt>
      <trkpt lat="48.01818" lon="7.00624">
        <ele>1256.3098337232</ele>
        <time>2025-05-30T16:52:57.000Z</time>
      </trkpt>
      <trkpt lat="48.01817" lon="7.00652">
        <ele>1259.000479358</ele>
        <time>2025-05-30T16:53:23.000Z</time>
      </trkpt>
      <trkpt lat="48.01819" lon="7.0066">
        <ele>1260.5336774768</ele>
        <time>2025-05-30T16:53:33.000Z</time>
      </trkpt>
      <trkpt lat="48.01827" lon="7.00667">
        <ele>1264.1557866889</ele>
        <time>2025-05-30T16:53:50.000Z</time>
      </trkpt>
      <trkpt lat="48.01826" lon="7.00673">
        <ele>1264.6336702205</ele>
        <time>2025-05-30T16:53:55.000Z</time>
      </trkpt>
      <trkpt lat="48.01821" lon="7.00673">
        <ele>1262.9044811497</ele>
        <time>2025-05-30T16:54:01.000Z</time>
      </trkpt>
      <trkpt lat="48.01818" lon="7.0068">
        <ele>1262.6571325685</ele>
        <time>2025-05-30T16:54:04.000Z</time>
      </trkpt>
      <trkpt lat="48.01808" lon="7.00725">
        <ele>1261.9629781624</ele>
        <time>2025-05-30T16:54:37.000Z</time>
      </trkpt>
      <trkpt lat="48.01808" lon="7.00734">
        <ele>1261.9799883133</ele>
        <time>2025-05-30T16:54:45.000Z</time>
      </trkpt>
      <trkpt lat="48.01806" lon="7.00748">
        <ele>1261.6486940789</ele>
        <time>2025-05-30T16:54:51.000Z</time>
      </trkpt>
      <trkpt lat="48.01803" lon="7.00764">
        <ele>1261.0910547699</ele>
        <time>2025-05-30T16:55:00.000Z</time>
      </trkpt>
      <trkpt lat="48.01804" lon="7.00771">
        <ele>1261.2329518073</ele>
        <time>2025-05-30T16:55:04.000Z</time>
      </trkpt>
      <trkpt lat="48.018" lon="7.00803">
        <ele>1260.2104324122</ele>
        <time>2025-05-30T16:55:25.000Z</time>
      </trkpt>
      <trkpt lat="48.018" lon="7.00827">
        <ele>1260.2104324122</ele>
        <time>2025-05-30T16:55:38.000Z</time>
      </trkpt>
      <trkpt lat="48.01801" lon="7.00835">
        <ele>1260.6272011561</ele>
        <time>2025-05-30T16:55:42.000Z</time>
      </trkpt>
      <trkpt lat="48.01807" lon="7.00873">
        <ele>1260.8127414756</ele>
        <time>2025-05-30T16:56:06.000Z</time>
      </trkpt>
      <trkpt lat="48.0181" lon="7.00884">
        <ele>1261.1917122823</ele>
        <time>2025-05-30T16:56:17.000Z</time>
      </trkpt>
      <trkpt lat="48.01811" lon="7.00893">
        <ele>1261.1773118269</ele>
        <time>2025-05-30T16:56:22.000Z</time>
      </trkpt>
      <trkpt lat="48.01813" lon="7.009">
        <ele>1261.4165460774</ele>
        <time>2025-05-30T16:56:27.000Z</time>
      </trkpt>
      <trkpt lat="48.01817" lon="7.00913">
        <ele>1262.1459789663</ele>
        <time>2025-05-30T16:56:38.000Z</time>
      </trkpt>
      <trkpt lat="48.01817" lon="7.00922">
        <ele>1262.1708190691</ele>
        <time>2025-05-30T16:56:46.000Z</time>
      </trkpt>
      <trkpt lat="48.0182" lon="7.00944">
        <ele>1261.9863802932</ele>
        <time>2025-05-30T16:57:00.000Z</time>
      </trkpt>
      <trkpt lat="48.01826" lon="7.00962">
        <ele>1263.011415853</ele>
        <time>2025-05-30T16:57:13.000Z</time>
      </trkpt>
      <trkpt lat="48.01833" lon="7.00975">
        <ele>1263.9946486213</ele>
        <time>2025-05-30T16:57:24.000Z</time>
      </trkpt>
      <trkpt lat="48.01858" lon="7.01004">
        <ele>1266.2455138142</ele>
        <time>2025-05-30T16:58:03.000Z</time>
      </trkpt>
      <trkpt lat="48.01863" lon="7.01007">
        <ele>1266.5007500771</ele>
        <time>2025-05-30T16:58:08.000Z</time>
      </trkpt>
      <trkpt lat="48.01872" lon="7.01016">
        <ele>1265.8620322255</ele>
        <time>2025-05-30T16:58:19.000Z</time>
      </trkpt>
      <trkpt lat="48.01892" lon="7.01033">
        <ele>1267.4395032863</ele>
        <time>2025-05-30T16:58:40.000Z</time>
      </trkpt>
      <trkpt lat="48.01905" lon="7.0104">
        <ele>1270.2036682666</ele>
        <time>2025-05-30T16:58:51.000Z</time>
      </trkpt>
      <trkpt lat="48.01911" lon="7.01039">
        <ele>1271.8011144164</ele>
        <time>2025-05-30T16:58:58.000Z</time>
      </trkpt>
      <trkpt lat="48.0192" lon="7.01039">
        <ele>1273.8110451441</ele>
        <time>2025-05-30T16:59:04.000Z</time>
      </trkpt>
      <trkpt lat="48.01924" lon="7.01042">
        <ele>1274.5695501923</ele>
        <time>2025-05-30T16:59:08.000Z</time>
      </trkpt>
      <trkpt lat="48.01934" lon="7.01043">
        <ele>1277.2657857422</ele>
        <time>2025-05-30T16:59:15.000Z</time>
      </trkpt>
      <trkpt lat="48.01937" lon="7.01045">
        <ele>1277.0327688534</ele>
        <time>2025-05-30T16:59:20.000Z</time>
      </trkpt>
      <trkpt lat="48.01947" lon="7.01047">
        <ele>1278.1535238873</ele>
        <time>2025-05-30T16:59:30.000Z</time>
      </trkpt>
      <trkpt lat="48.0197" lon="7.0104">
        <ele>1279.6494143901</ele>
        <time>2025-05-30T16:59:47.000Z</time>
      </trkpt>
      <trkpt lat="48.01976" lon="7.01041">
        <ele>1279.4409161493</ele>
        <time>2025-05-30T16:59:51.000Z</time>
      </trkpt>
      <trkpt lat="48.0198" lon="7.01039">
        <ele>1279.4922287414</ele>
        <time>2025-05-30T16:59:56.000Z</time>
      </trkpt>
      <trkpt lat="48.01997" lon="7.01024">
        <ele>1280.3498397941</ele>
        <time>2025-05-30T17:00:11.000Z</time>
      </trkpt>
      <trkpt lat="48.02001" lon="7.01021">
        <ele>1280.1612436109</ele>
        <time>2025-05-30T17:00:16.000Z</time>
      </trkpt>
      <trkpt lat="48.02005" lon="7.01014">
        <ele>1280.5822058559</ele>
        <time>2025-05-30T17:00:22.000Z</time>
      </trkpt>
      <trkpt lat="48.0201" lon="7.00992">
        <ele>1282.8295676933</ele>
        <time>2025-05-30T17:00:38.000Z</time>
      </trkpt>
      <trkpt lat="48.02012" lon="7.00985">
        <ele>1283.1771179581</ele>
        <time>2025-05-30T17:00:43.000Z</time>
      </trkpt>
      <trkpt lat="48.02021" lon="7.0098">
        <ele>1282.4477507881</ele>
        <time>2025-05-30T17:01:08.000Z</time>
      </trkpt>
      <trkpt lat="48.02021" lon="7.00972">
        <ele>1283.4400061699</ele>
        <time>2025-05-30T17:01:13.000Z</time>
      </trkpt>
      <trkpt lat="48.02027" lon="7.00957">
        <ele>1285.0834495646</ele>
        <time>2025-05-30T17:01:46.000Z</time>
      </trkpt>
      <trkpt lat="48.02031" lon="7.00948">
        <ele>1286.4663220955</ele>
        <time>2025-05-30T17:03:01.000Z</time>
      </trkpt>
      <trkpt lat="48.0205" lon="7.00907">
        <ele>1295.19825233</ele>
        <time>2025-05-30T17:05:59.000Z</time>
      </trkpt>
      <trkpt lat="48.02053" lon="7.00898">
        <ele>1297.2971996895</ele>
        <time>2025-05-30T17:06:06.000Z</time>
      </trkpt>
      <trkpt lat="48.02061" lon="7.00887">
        <ele>1298.388276909</ele>
        <time>2025-05-30T17:06:18.000Z</time>
      </trkpt>
      <trkpt lat="48.02065" lon="7.00882">
        <ele>1298.6115235572</ele>
        <time>2025-05-30T17:06:25.000Z</time>
      </trkpt>
      <trkpt lat="48.02079" lon="7.00846">
        <ele>1301.4867917768</ele>
        <time>2025-05-30T17:06:52.000Z</time>
      </trkpt>
      <trkpt lat="48.02087" lon="7.00837">
        <ele>1301.2242373122</ele>
        <time>2025-05-30T17:07:01.000Z</time>
      </trkpt>
      <trkpt lat="48.021" lon="7.00814">
        <ele>1302.8301049718</ele>
        <time>2025-05-30T17:07:20.000Z</time>
      </trkpt>
      <trkpt lat="48.02104" lon="7.00802">
        <ele>1304.592451969</ele>
        <time>2025-05-30T17:07:27.000Z</time>
      </trkpt>
      <trkpt lat="48.02119" lon="7.0078">
        <ele>1306.7522412541</ele>
        <time>2025-05-30T17:07:48.000Z</time>
      </trkpt>
      <trkpt lat="48.0212" lon="7.00774">
        <ele>1307.4539347837</ele>
        <time>2025-05-30T17:07:51.000Z</time>
      </trkpt>
      <trkpt lat="48.02125" lon="7.00761">
        <ele>1308.0778934686</ele>
        <time>2025-05-30T17:07:59.000Z</time>
      </trkpt>
      <trkpt lat="48.02142" lon="7.00736">
        <ele>1309.3833154056</ele>
        <time>2025-05-30T17:08:20.000Z</time>
      </trkpt>
      <trkpt lat="48.02145" lon="7.0073">
        <ele>1309.7275252377</ele>
        <time>2025-05-30T17:08:24.000Z</time>
      </trkpt>
      <trkpt lat="48.02149" lon="7.00724">
        <ele>1309.6471385817</ele>
        <time>2025-05-30T17:08:28.000Z</time>
      </trkpt>
      <trkpt lat="48.02153" lon="7.0072">
        <ele>1309.5259547795</ele>
        <time>2025-05-30T17:08:33.000Z</time>
      </trkpt>
      <trkpt lat="48.02156" lon="7.00714">
        <ele>1309.7344348292</ele>
        <time>2025-05-30T17:08:37.000Z</time>
      </trkpt>
      <trkpt lat="48.02158" lon="7.00709">
        <ele>1309.9558481171</ele>
        <time>2025-05-30T17:08:41.000Z</time>
      </trkpt>
      <trkpt lat="48.02163" lon="7.00703">
        <ele>1310.051343317</ele>
        <time>2025-05-30T17:08:45.000Z</time>
      </trkpt>
      <trkpt lat="48.02167" lon="7.00702">
        <ele>1309.5822103547</ele>
        <time>2025-05-30T17:08:49.000Z</time>
      </trkpt>
      <trkpt lat="48.02171" lon="7.00701">
        <ele>1308.9924557549</ele>
        <time>2025-05-30T17:08:54.000Z</time>
      </trkpt>
      <trkpt lat="48.02176" lon="7.00699">
        <ele>1308.3704927465</ele>
        <time>2025-05-30T17:08:57.000Z</time>
      </trkpt>
      <trkpt lat="48.02179" lon="7.00693">
        <ele>1308.415228451</ele>
        <time>2025-05-30T17:09:17.000Z</time>
      </trkpt>
      <trkpt lat="48.02187" lon="7.00685">
        <ele>1307.9625371696</ele>
        <time>2025-05-30T17:09:55.000Z</time>
      </trkpt>
      <trkpt lat="48.02191" lon="7.00681">
        <ele>1307.6563372241</ele>
        <time>2025-05-30T17:10:01.000Z</time>
      </trkpt>
      <trkpt lat="48.02201" lon="7.00679">
        <ele>1305.9402658983</ele>
        <time>2025-05-30T17:10:09.000Z</time>
      </trkpt>
      <trkpt lat="48.02207" lon="7.00679">
        <ele>1304.8104156339</ele>
        <time>2025-05-30T17:10:13.000Z</time>
      </trkpt>
      <trkpt lat="48.02217" lon="7.00675">
        <ele>1303.0593555795</ele>
        <time>2025-05-30T17:10:21.000Z</time>
      </trkpt>
      <trkpt lat="48.02255" lon="7.00678">
        <ele>1296.6811428793</ele>
        <time>2025-05-30T17:10:53.000Z</time>
      </trkpt>
      <trkpt lat="48.02283" lon="7.00673">
        <ele>1295.0131856096</ele>
        <time>2025-05-30T17:11:15.000Z</time>
      </trkpt>
      <trkpt lat="48.02298" lon="7.00667">
        <ele>1294.3959981945</ele>
        <time>2025-05-30T17:11:27.000Z</time>
      </trkpt>
      <trkpt lat="48.02318" lon="7.00662">
        <ele>1293.4086260489</ele>
        <time>2025-05-30T17:11:44.000Z</time>
      </trkpt>
      <trkpt lat="48.02323" lon="7.00659">
        <ele>1293.8620400527</ele>
        <time>2025-05-30T17:11:48.000Z</time>
      </trkpt>
      <trkpt lat="48.02329" lon="7.00664">
        <ele>1292.3857063154</ele>
        <time>2025-05-30T17:11:55.000Z</time>
      </trkpt>
      <trkpt lat="48.02334" lon="7.00664">
        <ele>1292.0492446195</ele>
        <time>2025-05-30T17:11:59.000Z</time>
      </trkpt>
      <trkpt lat="48.02341" lon="7.00661">
        <ele>1292.5045959904</ele>
        <time>2025-05-30T17:12:05.000Z</time>
      </trkpt>
      <trkpt lat="48.02346" lon="7.00662">
        <ele>1292.1346913663</ele>
        <time>2025-05-30T17:12:09.000Z</time>
      </trkpt>
      <trkpt lat="48.02355" lon="7.00667">
        <ele>1290.3201998289</ele>
        <time>2025-05-30T17:12:18.000Z</time>
      </trkpt>
      <trkpt lat="48.02359" lon="7.00669">
        <ele>1289.6150784013</ele>
        <time>2025-05-30T17:12:21.000Z</time>
      </trkpt>
      <trkpt lat="48.02381" lon="7.00685">
        <ele>1285.6380435995</ele>
        <time>2025-05-30T17:12:41.000Z</time>
      </trkpt>
      <trkpt lat="48.0239" lon="7.0069">
        <ele>1285.4902993295</ele>
        <time>2025-05-30T17:12:48.000Z</time>
      </trkpt>
      <trkpt lat="48.02394" lon="7.00694">
        <ele>1285.4896198187</ele>
        <time>2025-05-30T17:12:51.000Z</time>
      </trkpt>
      <trkpt lat="48.02399" lon="7.00696">
        <ele>1285.6937745892</ele>
        <time>2025-05-30T17:12:54.000Z</time>
      </trkpt>
      <trkpt lat="48.02403" lon="7.00698">
        <ele>1285.9188068055</ele>
        <time>2025-05-30T17:12:57.000Z</time>
      </trkpt>
      <trkpt lat="48.02407" lon="7.00702">
        <ele>1285.8574439994</ele>
        <time>2025-05-30T17:13:01.000Z</time>
      </trkpt>
      <trkpt lat="48.02416" lon="7.00711">
        <ele>1285.5118242204</ele>
        <time>2025-05-30T17:13:09.000Z</time>
      </trkpt>
      <trkpt lat="48.02421" lon="7.00711">
        <ele>1285.7310258545</ele>
        <time>2025-05-30T17:13:12.000Z</time>
      </trkpt>
      <trkpt lat="48.02425" lon="7.00716">
        <ele>1285.3417054059</ele>
        <time>2025-05-30T17:13:16.000Z</time>
      </trkpt>
      <trkpt lat="48.02434" lon="7.00722">
        <ele>1284.9160896485</ele>
        <time>2025-05-30T17:13:24.000Z</time>
      </trkpt>
      <trkpt lat="48.02438" lon="7.00725">
        <ele>1284.5840998571</ele>
        <time>2025-05-30T17:13:28.000Z</time>
      </trkpt>
      <trkpt lat="48.02442" lon="7.00725">
        <ele>1284.6407064375</ele>
        <time>2025-05-30T17:13:32.000Z</time>
      </trkpt>
      <trkpt lat="48.02447" lon="7.00727">
        <ele>1284.630891367</ele>
        <time>2025-05-30T17:13:36.000Z</time>
      </trkpt>
      <trkpt lat="48.0245" lon="7.00733">
        <ele>1283.9912126546</ele>
        <time>2025-05-30T17:13:40.000Z</time>
      </trkpt>
      <trkpt lat="48.02453" lon="7.00738">
        <ele>1283.4747213723</ele>
        <time>2025-05-30T17:13:44.000Z</time>
      </trkpt>
      <trkpt lat="48.02461" lon="7.00747">
        <ele>1282.7803474922</ele>
        <time>2025-05-30T17:13:51.000Z</time>
      </trkpt>
      <trkpt lat="48.02464" lon="7.00752">
        <ele>1282.8000294875</ele>
        <time>2025-05-30T17:13:55.000Z</time>
      </trkpt>
      <trkpt lat="48.02468" lon="7.00757">
        <ele>1283.0828045336</ele>
        <time>2025-05-30T17:13:59.000Z</time>
      </trkpt>
      <trkpt lat="48.02478" lon="7.00762">
        <ele>1284.0693256612</ele>
        <time>2025-05-30T17:14:07.000Z</time>
      </trkpt>
      <trkpt lat="48.02495" lon="7.00779">
        <ele>1285.833521718</ele>
        <time>2025-05-30T17:14:24.000Z</time>
      </trkpt>
      <trkpt lat="48.02497" lon="7.00785">
        <ele>1285.1363326551</ele>
        <time>2025-05-30T17:14:28.000Z</time>
      </trkpt>
      <trkpt lat="48.02509" lon="7.00799">
        <ele>1285.0103312548</ele>
        <time>2025-05-30T17:14:41.000Z</time>
      </trkpt>
      <trkpt lat="48.02512" lon="7.00804">
        <ele>1284.7944510057</ele>
        <time>2025-05-30T17:14:44.000Z</time>
      </trkpt>
      <trkpt lat="48.02517" lon="7.00808">
        <ele>1284.884261179</ele>
        <time>2025-05-30T17:14:48.000Z</time>
      </trkpt>
      <trkpt lat="48.02527" lon="7.00812">
        <ele>1285.8875317454</ele>
        <time>2025-05-30T17:14:56.000Z</time>
      </trkpt>
      <trkpt lat="48.02531" lon="7.00817">
        <ele>1285.7184986206</ele>
        <time>2025-05-30T17:15:00.000Z</time>
      </trkpt>
      <trkpt lat="48.0254" lon="7.00825">
        <ele>1285.9286346723</ele>
        <time>2025-05-30T17:15:06.000Z</time>
      </trkpt>
      <trkpt lat="48.02557" lon="7.00844">
        <ele>1283.4319314911</ele>
        <time>2025-05-30T17:15:22.000Z</time>
      </trkpt>
      <trkpt lat="48.02559" lon="7.0085">
        <ele>1281.4989939715</ele>
        <time>2025-05-30T17:15:27.000Z</time>
      </trkpt>
      <trkpt lat="48.02564" lon="7.00855">
        <ele>1279.9801398061</ele>
        <time>2025-05-30T17:15:30.000Z</time>
      </trkpt>
      <trkpt lat="48.02569" lon="7.00857">
        <ele>1279.0917260784</ele>
        <time>2025-05-30T17:15:33.000Z</time>
      </trkpt>
      <trkpt lat="48.02573" lon="7.00862">
        <ele>1277.1986888801</ele>
        <time>2025-05-30T17:15:37.000Z</time>
      </trkpt>
      <trkpt lat="48.02578" lon="7.00863">
        <ele>1276.5387776075</ele>
        <time>2025-05-30T17:15:41.000Z</time>
      </trkpt>
      <trkpt lat="48.02582" lon="7.00864">
        <ele>1275.9543146537</ele>
        <time>2025-05-30T17:15:44.000Z</time>
      </trkpt>
      <trkpt lat="48.02587" lon="7.00864">
        <ele>1275.9467815022</ele>
        <time>2025-05-30T17:15:48.000Z</time>
      </trkpt>
      <trkpt lat="48.02593" lon="7.00863">
        <ele>1276.7047914699</ele>
        <time>2025-05-30T17:15:51.000Z</time>
      </trkpt>
      <trkpt lat="48.02601" lon="7.00866">
        <ele>1276.5560514121</ele>
        <time>2025-05-30T17:15:57.000Z</time>
      </trkpt>
      <trkpt lat="48.02606" lon="7.00864">
        <ele>1277.3621930813</ele>
        <time>2025-05-30T17:16:00.000Z</time>
      </trkpt>
      <trkpt lat="48.02626" lon="7.00867">
        <ele>1278.7916923029</ele>
        <time>2025-05-30T17:16:16.000Z</time>
      </trkpt>
      <trkpt lat="48.02631" lon="7.00867">
        <ele>1279.3747932527</ele>
        <time>2025-05-30T17:16:20.000Z</time>
      </trkpt>
      <trkpt lat="48.02636" lon="7.00867">
        <ele>1279.7120385093</ele>
        <time>2025-05-30T17:16:25.000Z</time>
      </trkpt>
      <trkpt lat="48.02641" lon="7.00866">
        <ele>1280.1897598589</ele>
        <time>2025-05-30T17:16:30.000Z</time>
      </trkpt>
      <trkpt lat="48.02647" lon="7.00866">
        <ele>1280.6186269151</ele>
        <time>2025-05-30T17:16:37.000Z</time>
      </trkpt>
      <trkpt lat="48.02652" lon="7.00868">
        <ele>1280.4990619235</ele>
        <time>2025-05-30T17:16:41.000Z</time>
      </trkpt>
      <trkpt lat="48.02658" lon="7.00867">
        <ele>1280.5045983495</ele>
        <time>2025-05-30T17:16:46.000Z</time>
      </trkpt>
      <trkpt lat="48.02667" lon="7.0087">
        <ele>1279.2677630876</ele>
        <time>2025-05-30T17:16:54.000Z</time>
      </trkpt>
      <trkpt lat="48.02672" lon="7.00875">
        <ele>1277.6629708805</ele>
        <time>2025-05-30T17:17:00.000Z</time>
      </trkpt>
      <trkpt lat="48.02678" lon="7.00876">
        <ele>1277.5085277481</ele>
        <time>2025-05-30T17:17:04.000Z</time>
      </trkpt>
      <trkpt lat="48.02687" lon="7.00878">
        <ele>1277.0747406306</ele>
        <time>2025-05-30T17:17:12.000Z</time>
      </trkpt>
      <trkpt lat="48.02697" lon="7.00879">
        <ele>1276.9899669585</ele>
        <time>2025-05-30T17:17:20.000Z</time>
      </trkpt>
      <trkpt lat="48.02701" lon="7.00879">
        <ele>1277.123541058</ele>
        <time>2025-05-30T17:17:24.000Z</time>
      </trkpt>
      <trkpt lat="48.02711" lon="7.00879">
        <ele>1277.5963603809</ele>
        <time>2025-05-30T17:17:32.000Z</time>
      </trkpt>
      <trkpt lat="48.02717" lon="7.00879">
        <ele>1277.8928498659</ele>
        <time>2025-05-30T17:17:36.000Z</time>
      </trkpt>
      <trkpt lat="48.02723" lon="7.00878">
        <ele>1278.2986855336</ele>
        <time>2025-05-30T17:17:41.000Z</time>
      </trkpt>
      <trkpt lat="48.02736" lon="7.00881">
        <ele>1277.6186564558</ele>
        <time>2025-05-30T17:17:51.000Z</time>
      </trkpt>
      <trkpt lat="48.0274" lon="7.00883">
        <ele>1276.8320199528</ele>
        <time>2025-05-30T17:17:55.000Z</time>
      </trkpt>
      <trkpt lat="48.02745" lon="7.00883">
        <ele>1276.4621714103</ele>
        <time>2025-05-30T17:17:58.000Z</time>
      </trkpt>
      <trkpt lat="48.02754" lon="7.00888">
        <ele>1274.8006658399</ele>
        <time>2025-05-30T17:18:06.000Z</time>
      </trkpt>
      <trkpt lat="48.02758" lon="7.00889">
        <ele>1274.6508330647</ele>
        <time>2025-05-30T17:18:09.000Z</time>
      </trkpt>
      <trkpt lat="48.02763" lon="7.00891">
        <ele>1274.5033189163</ele>
        <time>2025-05-30T17:18:13.000Z</time>
      </trkpt>
      <trkpt lat="48.02773" lon="7.00892">
        <ele>1274.6597315062</ele>
        <time>2025-05-30T17:18:19.000Z</time>
      </trkpt>
      <trkpt lat="48.02777" lon="7.00893">
        <ele>1274.8407897993</ele>
        <time>2025-05-30T17:18:24.000Z</time>
      </trkpt>
      <trkpt lat="48.02795" lon="7.00893">
        <ele>1276.3430693182</ele>
        <time>2025-05-30T17:18:36.000Z</time>
      </trkpt>
      <trkpt lat="48.02799" lon="7.00892">
        <ele>1276.9307841117</ele>
        <time>2025-05-30T17:18:40.000Z</time>
      </trkpt>
      <trkpt lat="48.02814" lon="7.00894">
        <ele>1277.7572562226</ele>
        <time>2025-05-30T17:18:52.000Z</time>
      </trkpt>
      <trkpt lat="48.02823" lon="7.00896">
        <ele>1277.3143202099</ele>
        <time>2025-05-30T17:19:00.000Z</time>
      </trkpt>
      <trkpt lat="48.02828" lon="7.00897">
        <ele>1276.879302109</ele>
        <time>2025-05-30T17:19:04.000Z</time>
      </trkpt>
      <trkpt lat="48.02843" lon="7.009">
        <ele>1275.2572927603</ele>
        <time>2025-05-30T17:19:16.000Z</time>
      </trkpt>
      <trkpt lat="48.0286" lon="7.00899">
        <ele>1274.1815683776</ele>
        <time>2025-05-30T17:19:29.000Z</time>
      </trkpt>
      <trkpt lat="48.02868" lon="7.00901">
        <ele>1274.0897055356</ele>
        <time>2025-05-30T17:19:38.000Z</time>
      </trkpt>
      <trkpt lat="48.02874" lon="7.00906">
        <ele>1273.571235247</ele>
        <time>2025-05-30T17:19:41.000Z</time>
      </trkpt>
      <trkpt lat="48.02876" lon="7.00913">
        <ele>1272.7748477103</ele>
        <time>2025-05-30T17:19:45.000Z</time>
      </trkpt>
      <trkpt lat="48.02884" lon="7.00932">
        <ele>1272.1514804762</ele>
        <time>2025-05-30T17:19:57.000Z</time>
      </trkpt>
      <trkpt lat="48.02891" lon="7.0094">
        <ele>1273.4371709044</ele>
        <time>2025-05-30T17:20:04.000Z</time>
      </trkpt>
      <trkpt lat="48.02898" lon="7.00958">
        <ele>1274.8432802706</ele>
        <time>2025-05-30T17:20:15.000Z</time>
      </trkpt>
      <trkpt lat="48.02901" lon="7.00968">
        <ele>1275.5661348781</ele>
        <time>2025-05-30T17:20:21.000Z</time>
      </trkpt>
      <trkpt lat="48.02901" lon="7.00975">
        <ele>1274.8546530763</ele>
        <time>2025-05-30T17:20:25.000Z</time>
      </trkpt>
      <trkpt lat="48.02903" lon="7.00982">
        <ele>1275.6595797454</ele>
        <time>2025-05-30T17:20:29.000Z</time>
      </trkpt>
      <trkpt lat="48.02905" lon="7.00998">
        <ele>1275.6623775902</ele>
        <time>2025-05-30T17:20:39.000Z</time>
      </trkpt>
      <trkpt lat="48.02909" lon="7.01012">
        <ele>1276.1614890827</ele>
        <time>2025-05-30T17:20:48.000Z</time>
      </trkpt>
      <trkpt lat="48.02908" lon="7.01021">
        <ele>1275.0947919822</ele>
        <time>2025-05-30T17:20:53.000Z</time>
      </trkpt>
      <trkpt lat="48.02909" lon="7.01028">
        <ele>1275.5571239362</ele>
        <time>2025-05-30T17:20:57.000Z</time>
      </trkpt>
      <trkpt lat="48.0291" lon="7.01037">
        <ele>1275.8706626131</ele>
        <time>2025-05-30T17:21:18.000Z</time>
      </trkpt>
      <trkpt lat="48.02914" lon="7.01059">
        <ele>1277.8301492838</ele>
        <time>2025-05-30T17:21:36.000Z</time>
      </trkpt>
      <trkpt lat="48.02918" lon="7.01065">
        <ele>1279.5543537677</ele>
        <time>2025-05-30T17:21:40.000Z</time>
      </trkpt>
      <trkpt lat="48.02922" lon="7.01077">
        <ele>1281.052605921</ele>
        <time>2025-05-30T17:21:48.000Z</time>
      </trkpt>
      <trkpt lat="48.02926" lon="7.01081">
        <ele>1282.2614212783</ele>
        <time>2025-05-30T17:21:52.000Z</time>
      </trkpt>
      <trkpt lat="48.02936" lon="7.01098">
        <ele>1284.5789575868</ele>
        <time>2025-05-30T17:22:05.000Z</time>
      </trkpt>
      <trkpt lat="48.0294" lon="7.01103">
        <ele>1285.4361833941</ele>
        <time>2025-05-30T17:22:08.000Z</time>
      </trkpt>
      <trkpt lat="48.02948" lon="7.01113">
        <ele>1287.400697568</ele>
        <time>2025-05-30T17:22:15.000Z</time>
      </trkpt>
      <trkpt lat="48.02953" lon="7.01113">
        <ele>1288.7371335373</ele>
        <time>2025-05-30T17:22:18.000Z</time>
      </trkpt>
      <trkpt lat="48.02958" lon="7.01117">
        <ele>1289.6099657108</ele>
        <time>2025-05-30T17:22:22.000Z</time>
      </trkpt>
      <trkpt lat="48.02961" lon="7.01124">
        <ele>1289.3515058455</ele>
        <time>2025-05-30T17:22:26.000Z</time>
      </trkpt>
      <trkpt lat="48.02965" lon="7.01129">
        <ele>1289.3077842565</ele>
        <time>2025-05-30T17:22:29.000Z</time>
      </trkpt>
      <trkpt lat="48.02969" lon="7.01132">
        <ele>1289.329634896</ele>
        <time>2025-05-30T17:22:32.000Z</time>
      </trkpt>
      <trkpt lat="48.02973" lon="7.01135">
        <ele>1289.471032103</ele>
        <time>2025-05-30T17:22:35.000Z</time>
      </trkpt>
      <trkpt lat="48.03013" lon="7.01168">
        <ele>1287.9484258408</ele>
        <time>2025-05-30T17:23:08.000Z</time>
      </trkpt>
      <trkpt lat="48.03033" lon="7.01186">
        <ele>1284.9942847874</ele>
        <time>2025-05-30T17:23:31.000Z</time>
      </trkpt>
      <trkpt lat="48.03045" lon="7.01199">
        <ele>1283.0561942488</ele>
        <time>2025-05-30T17:23:43.000Z</time>
      </trkpt>
      <trkpt lat="48.03059" lon="7.01231">
        <ele>1278.9525634825</ele>
        <time>2025-05-30T17:24:04.000Z</time>
      </trkpt>
      <trkpt lat="48.0308" lon="7.01285">
        <ele>1275.1343050515</ele>
        <time>2025-05-30T17:24:35.000Z</time>
      </trkpt>
      <trkpt lat="48.03087" lon="7.01304">
        <ele>1273.7339548437</ele>
        <time>2025-05-30T17:24:45.000Z</time>
      </trkpt>
      <trkpt lat="48.03091" lon="7.01311">
        <ele>1273.3250869261</ele>
        <time>2025-05-30T17:24:49.000Z</time>
      </trkpt>
      <trkpt lat="48.03097" lon="7.01323">
        <ele>1271.8963008915</ele>
        <time>2025-05-30T17:24:57.000Z</time>
      </trkpt>
      <trkpt lat="48.03111" lon="7.01338">
        <ele>1272.2724401587</ele>
        <time>2025-05-30T17:25:11.000Z</time>
      </trkpt>
      <trkpt lat="48.03119" lon="7.01347">
        <ele>1273.2715687851</ele>
        <time>2025-05-30T17:25:18.000Z</time>
      </trkpt>
      <trkpt lat="48.03123" lon="7.0135">
        <ele>1274.4406758341</ele>
        <time>2025-05-30T17:25:21.000Z</time>
      </trkpt>
      <trkpt lat="48.03127" lon="7.01353">
        <ele>1275.5285544153</ele>
        <time>2025-05-30T17:25:26.000Z</time>
      </trkpt>
      <trkpt lat="48.03133" lon="7.01355">
        <ele>1277.3035549931</ele>
        <time>2025-05-30T17:25:30.000Z</time>
      </trkpt>
      <trkpt lat="48.03138" lon="7.01352">
        <ele>1279.1961835312</ele>
        <time>2025-05-30T17:25:47.000Z</time>
      </trkpt>
      <trkpt lat="48.03141" lon="7.01348">
        <ele>1280.7994479656</ele>
        <time>2025-05-30T17:25:52.000Z</time>
      </trkpt>
      <trkpt lat="48.03145" lon="7.01342">
        <ele>1282.8988502634</ele>
        <time>2025-05-30T17:25:57.000Z</time>
      </trkpt>
      <trkpt lat="48.03146" lon="7.01335">
        <ele>1285.0219364008</ele>
        <time>2025-05-30T17:25:59.000Z</time>
      </trkpt>
      <trkpt lat="48.0315" lon="7.01331">
        <ele>1287.2922573384</ele>
        <time>2025-05-30T17:26:04.000Z</time>
      </trkpt>
      <trkpt lat="48.03154" lon="7.01322">
        <ele>1291.0447137282</ele>
        <time>2025-05-30T17:26:11.000Z</time>
      </trkpt>
      <trkpt lat="48.03157" lon="7.01316">
        <ele>1293.0185048549</ele>
        <time>2025-05-30T17:26:15.000Z</time>
      </trkpt>
      <trkpt lat="48.03163" lon="7.01299">
        <ele>1296.8030141402</ele>
        <time>2025-05-30T17:26:28.000Z</time>
      </trkpt>
      <trkpt lat="48.03166" lon="7.01293">
        <ele>1297.7044675172</ele>
        <time>2025-05-30T17:26:32.000Z</time>
      </trkpt>
      <trkpt lat="48.03167" lon="7.01286">
        <ele>1298.676087418</ele>
        <time>2025-05-30T17:26:35.000Z</time>
      </trkpt>
      <trkpt lat="48.0317" lon="7.01281">
        <ele>1299.6176558128</ele>
        <time>2025-05-30T17:26:39.000Z</time>
      </trkpt>
      <trkpt lat="48.03172" lon="7.01275">
        <ele>1300.2369650831</ele>
        <time>2025-05-30T17:26:43.000Z</time>
      </trkpt>
      <trkpt lat="48.03176" lon="7.01271">
        <ele>1300.4457985741</ele>
        <time>2025-05-30T17:26:47.000Z</time>
      </trkpt>
      <trkpt lat="48.03178" lon="7.01263">
        <ele>1300.919428966</ele>
        <time>2025-05-30T17:26:51.000Z</time>
      </trkpt>
      <trkpt lat="48.03184" lon="7.01256">
        <ele>1301.0535679261</ele>
        <time>2025-05-30T17:27:01.000Z</time>
      </trkpt>
      <trkpt lat="48.03192" lon="7.01243">
        <ele>1301.7113223505</ele>
        <time>2025-05-30T17:27:11.000Z</time>
      </trkpt>
      <trkpt lat="48.03197" lon="7.0124">
        <ele>1301.3197593602</ele>
        <time>2025-05-30T17:27:15.000Z</time>
      </trkpt>
      <trkpt lat="48.03212" lon="7.01237">
        <ele>1299.2300946559</ele>
        <time>2025-05-30T17:27:30.000Z</time>
      </trkpt>
      <trkpt lat="48.03217" lon="7.01236">
        <ele>1298.6631144064</ele>
        <time>2025-05-30T17:27:34.000Z</time>
      </trkpt>
      <trkpt lat="48.03225" lon="7.01231">
        <ele>1297.2978129512</ele>
        <time>2025-05-30T17:27:41.000Z</time>
      </trkpt>
      <trkpt lat="48.03229" lon="7.01226">
        <ele>1297.0584677157</ele>
        <time>2025-05-30T17:27:44.000Z</time>
      </trkpt>
      <trkpt lat="48.0325" lon="7.01189">
        <ele>1297.1699000986</ele>
        <time>2025-05-30T17:28:12.000Z</time>
      </trkpt>
      <trkpt lat="48.03251" lon="7.01182">
        <ele>1297.4431150568</ele>
        <time>2025-05-30T17:28:15.000Z</time>
      </trkpt>
      <trkpt lat="48.03255" lon="7.01169">
        <ele>1296.8644732487</ele>
        <time>2025-05-30T17:28:23.000Z</time>
      </trkpt>
      <trkpt lat="48.03259" lon="7.01164">
        <ele>1296.194125766</ele>
        <time>2025-05-30T17:28:27.000Z</time>
      </trkpt>
      <trkpt lat="48.0326" lon="7.01157">
        <ele>1295.6875797141</ele>
        <time>2025-05-30T17:28:30.000Z</time>
      </trkpt>
      <trkpt lat="48.03263" lon="7.01151">
        <ele>1294.9882490178</ele>
        <time>2025-05-30T17:28:34.000Z</time>
      </trkpt>
      <trkpt lat="48.03264" lon="7.01144">
        <ele>1295.0441444535</ele>
        <time>2025-05-30T17:28:38.000Z</time>
      </trkpt>
      <trkpt lat="48.03267" lon="7.01139">
        <ele>1293.8988778261</ele>
        <time>2025-05-30T17:28:42.000Z</time>
      </trkpt>
      <trkpt lat="48.03272" lon="7.01126">
        <ele>1293.2231270113</ele>
        <time>2025-05-30T17:28:51.000Z</time>
      </trkpt>
      <trkpt lat="48.03272" lon="7.01118">
        <ele>1293.4337828662</ele>
        <time>2025-05-30T17:28:54.000Z</time>
      </trkpt>
      <trkpt lat="48.03276" lon="7.01113">
        <ele>1292.8651332638</ele>
        <time>2025-05-30T17:28:58.000Z</time>
      </trkpt>
      <trkpt lat="48.03277" lon="7.01106">
        <ele>1293.1122238942</ele>
        <time>2025-05-30T17:29:01.000Z</time>
      </trkpt>
      <trkpt lat="48.0328" lon="7.01101">
        <ele>1292.6215359228</ele>
        <time>2025-05-30T17:29:05.000Z</time>
      </trkpt>
      <trkpt lat="48.03284" lon="7.01097">
        <ele>1292.0267425206</ele>
        <time>2025-05-30T17:29:09.000Z</time>
      </trkpt>
      <trkpt lat="48.03287" lon="7.01088">
        <ele>1292.1946439384</ele>
        <time>2025-05-30T17:29:14.000Z</time>
      </trkpt>
      <trkpt lat="48.0329" lon="7.01083">
        <ele>1292.1566283538</ele>
        <time>2025-05-30T17:29:18.000Z</time>
      </trkpt>
      <trkpt lat="48.03294" lon="7.01079">
        <ele>1292.0063576418</ele>
        <time>2025-05-30T17:29:22.000Z</time>
      </trkpt>
      <trkpt lat="48.03298" lon="7.01077">
        <ele>1291.4504716117</ele>
        <time>2025-05-30T17:29:26.000Z</time>
      </trkpt>
      <trkpt lat="48.03301" lon="7.01072">
        <ele>1291.5797244715</ele>
        <time>2025-05-30T17:29:31.000Z</time>
      </trkpt>
      <trkpt lat="48.03308" lon="7.01058">
        <ele>1292.2011125132</ele>
        <time>2025-05-30T17:29:39.000Z</time>
      </trkpt>
      <trkpt lat="48.03317" lon="7.01048">
        <ele>1292.6692463673</ele>
        <time>2025-05-30T17:29:49.000Z</time>
      </trkpt>
      <trkpt lat="48.03334" lon="7.01035">
        <ele>1294.08708584</ele>
        <time>2025-05-30T17:30:07.000Z</time>
      </trkpt>
      <trkpt lat="48.0334" lon="7.0103">
        <ele>1294.9277866666</ele>
        <time>2025-05-30T17:30:13.000Z</time>
      </trkpt>
      <trkpt lat="48.03358" lon="7.0103">
        <ele>1294.298905099</ele>
        <time>2025-05-30T17:30:29.000Z</time>
      </trkpt>
      <trkpt lat="48.03362" lon="7.01031">
        <ele>1293.9358664125</ele>
        <time>2025-05-30T17:30:33.000Z</time>
      </trkpt>
      <trkpt lat="48.03372" lon="7.0103">
        <ele>1293.1651155884</ele>
        <time>2025-05-30T17:30:41.000Z</time>
      </trkpt>
      <trkpt lat="48.03377" lon="7.01029">
        <ele>1292.7850516675</ele>
        <time>2025-05-30T17:30:45.000Z</time>
      </trkpt>
      <trkpt lat="48.03382" lon="7.0103">
        <ele>1292.0330852146</ele>
        <time>2025-05-30T17:30:49.000Z</time>
      </trkpt>
      <trkpt lat="48.03393" lon="7.0103">
        <ele>1290.0167795845</ele>
        <time>2025-05-30T17:30:58.000Z</time>
      </trkpt>
      <trkpt lat="48.03403" lon="7.01039">
        <ele>1286.5585182054</ele>
        <time>2025-05-30T17:31:09.000Z</time>
      </trkpt>
      <trkpt lat="48.03423" lon="7.0105">
        <ele>1280.3723350674</ele>
        <time>2025-05-30T17:31:27.000Z</time>
      </trkpt>
      <trkpt lat="48.03426" lon="7.01054">
        <ele>1279.3449029688</ele>
        <time>2025-05-30T17:31:30.000Z</time>
      </trkpt>
      <trkpt lat="48.03433" lon="7.01053">
        <ele>1278.1320131265</ele>
        <time>2025-05-30T17:31:34.000Z</time>
      </trkpt>
      <trkpt lat="48.03437" lon="7.01051">
        <ele>1277.5433725653</ele>
        <time>2025-05-30T17:31:37.000Z</time>
      </trkpt>
      <trkpt lat="48.03469" lon="7.01069">
        <ele>1270.8987042782</ele>
        <time>2025-05-30T17:32:05.000Z</time>
      </trkpt>
      <trkpt lat="48.03481" lon="7.01083">
        <ele>1269.2661061782</ele>
        <time>2025-05-30T17:32:17.000Z</time>
      </trkpt>
      <trkpt lat="48.03489" lon="7.01091">
        <ele>1269.2105168364</ele>
        <time>2025-05-30T17:32:26.000Z</time>
      </trkpt>
      <trkpt lat="48.0351" lon="7.01115">
        <ele>1272.2151033293</ele>
        <time>2025-05-30T17:32:50.000Z</time>
      </trkpt>
      <trkpt lat="48.03522" lon="7.01139">
        <ele>1274.8809972511</ele>
        <time>2025-05-30T17:33:07.000Z</time>
      </trkpt>
      <trkpt lat="48.03544" lon="7.01137">
        <ele>1278.3542717852</ele>
        <time>2025-05-30T17:33:33.000Z</time>
      </trkpt>
      <trkpt lat="48.03564" lon="7.01129">
        <ele>1280.2697669869</ele>
        <time>2025-05-30T17:33:51.000Z</time>
      </trkpt>
      <trkpt lat="48.0356" lon="7.01145">
        <ele>1281.5688899113</ele>
        <time>2025-05-30T17:34:02.000Z</time>
      </trkpt>
      <trkpt lat="48.03554" lon="7.01165">
        <ele>1282.022400514</ele>
        <time>2025-05-30T17:34:20.000Z</time>
      </trkpt>
      <trkpt lat="48.03553" lon="7.01172">
        <ele>1282.2964059454</ele>
        <time>2025-05-30T17:34:24.000Z</time>
      </trkpt>
      <trkpt lat="48.03551" lon="7.01179">
        <ele>1282.1284267713</ele>
        <time>2025-05-30T17:34:28.000Z</time>
      </trkpt>
      <trkpt lat="48.03549" lon="7.01186">
        <ele>1282.0861281319</ele>
        <time>2025-05-30T17:34:32.000Z</time>
      </trkpt>
      <trkpt lat="48.03552" lon="7.01222">
        <ele>1281.7070625887</ele>
        <time>2025-05-30T17:34:56.000Z</time>
      </trkpt>
      <trkpt lat="48.03555" lon="7.01229">
        <ele>1282.0061998394</ele>
        <time>2025-05-30T17:35:01.000Z</time>
      </trkpt>
      <trkpt lat="48.03555" lon="7.01235">
        <ele>1281.4220317327</ele>
        <time>2025-05-30T17:35:05.000Z</time>
      </trkpt>
      <trkpt lat="48.03556" lon="7.01242">
        <ele>1281.2910402937</ele>
        <time>2025-05-30T17:35:09.000Z</time>
      </trkpt>
      <trkpt lat="48.03573" lon="7.01259">
        <ele>1287.4062016697</ele>
        <time>2025-05-30T17:35:35.000Z</time>
      </trkpt>
      <trkpt lat="48.03583" lon="7.01269">
        <ele>1290.9667603837</ele>
        <time>2025-05-30T17:35:48.000Z</time>
      </trkpt>
      <trkpt lat="48.03588" lon="7.01267">
        <ele>1292.9747841423</ele>
        <time>2025-05-30T17:35:52.000Z</time>
      </trkpt>
      <trkpt lat="48.03595" lon="7.01247">
        <ele>1296.5608558047</ele>
        <time>2025-05-30T17:36:37.000Z</time>
      </trkpt>
      <trkpt lat="48.036" lon="7.01251">
        <ele>1297.3171064399</ele>
        <time>2025-05-30T17:37:23.000Z</time>
      </trkpt>
      <trkpt lat="48.03605" lon="7.01247">
        <ele>1298.1067722757</ele>
        <time>2025-05-30T17:37:27.000Z</time>
      </trkpt>
      <trkpt lat="48.03633" lon="7.01241">
        <ele>1302.1229116147</ele>
        <time>2025-05-30T17:37:55.000Z</time>
      </trkpt>
      <trkpt lat="48.03642" lon="7.01236">
        <ele>1302.877084317</ele>
        <time>2025-05-30T17:38:02.000Z</time>
      </trkpt>
      <trkpt lat="48.0364" lon="7.01245">
        <ele>1304.0625083104</ele>
        <time>2025-05-30T17:38:14.000Z</time>
      </trkpt>
      <trkpt lat="48.0364" lon="7.01257">
        <ele>1304.5191001377</ele>
        <time>2025-05-30T17:38:23.000Z</time>
      </trkpt>
      <trkpt lat="48.03642" lon="7.01262">
        <ele>1305.1616686317</ele>
        <time>2025-05-30T17:38:31.000Z</time>
      </trkpt>
      <trkpt lat="48.03642" lon="7.01274">
        <ele>1305.5179521857</ele>
        <time>2025-05-30T17:38:40.000Z</time>
      </trkpt>
      <trkpt lat="48.03646" lon="7.01274">
        <ele>1306.870906254</ele>
        <time>2025-05-30T17:38:45.000Z</time>
      </trkpt>
      <trkpt lat="48.03652" lon="7.01274">
        <ele>1308.3139357209</ele>
        <time>2025-05-30T17:38:49.000Z</time>
      </trkpt>
      <trkpt lat="48.03673" lon="7.01279">
        <ele>1313.4582740333</ele>
        <time>2025-05-30T17:39:14.000Z</time>
      </trkpt>
      <trkpt lat="48.03677" lon="7.01281">
        <ele>1314.4314229829</ele>
        <time>2025-05-30T17:39:19.000Z</time>
      </trkpt>
      <trkpt lat="48.03682" lon="7.01289">
        <ele>1315.6718341095</ele>
        <time>2025-05-30T17:39:31.000Z</time>
      </trkpt>
      <trkpt lat="48.03676" lon="7.0132">
        <ele>1314.3302894597</ele>
        <time>2025-05-30T17:39:54.000Z</time>
      </trkpt>
      <trkpt lat="48.03676" lon="7.01327">
        <ele>1314.169173209</ele>
        <time>2025-05-30T17:40:00.000Z</time>
      </trkpt>
      <trkpt lat="48.03678" lon="7.01338">
        <ele>1314.5479334979</ele>
        <time>2025-05-30T17:40:10.000Z</time>
      </trkpt>
      <trkpt lat="48.03682" lon="7.01342">
        <ele>1315.9412669746</ele>
        <time>2025-05-30T17:40:28.000Z</time>
      </trkpt>
      <trkpt lat="48.03682" lon="7.01352">
        <ele>1315.2140391947</ele>
        <time>2025-05-30T17:40:41.000Z</time>
      </trkpt>
      <trkpt lat="48.03681" lon="7.0136">
        <ele>1314.4740181651</ele>
        <time>2025-05-30T17:40:47.000Z</time>
      </trkpt>
      <trkpt lat="48.03686" lon="7.01367">
        <ele>1316.4689854463</ele>
        <time>2025-05-30T17:40:53.000Z</time>
      </trkpt>
      <trkpt lat="48.03693" lon="7.01365">
        <ele>1319.3404217351</ele>
        <time>2025-05-30T17:41:01.000Z</time>
      </trkpt>
      <trkpt lat="48.03708" lon="7.01363">
        <ele>1325.2202882429</ele>
        <time>2025-05-30T17:41:17.000Z</time>
      </trkpt>
      <trkpt lat="48.03708" lon="7.01374">
        <ele>1325.648146477</ele>
        <time>2025-05-30T17:41:25.000Z</time>
      </trkpt>
      <trkpt lat="48.03697" lon="7.01414">
        <ele>1317.5243978591</ele>
        <time>2025-05-30T17:41:53.000Z</time>
      </trkpt>
      <trkpt lat="48.03696" lon="7.01421">
        <ele>1316.0098586218</ele>
        <time>2025-05-30T17:41:58.000Z</time>
      </trkpt>
      <trkpt lat="48.03697" lon="7.01427">
        <ele>1316.0275020359</ele>
        <time>2025-05-30T17:42:03.000Z</time>
      </trkpt>
      <trkpt lat="48.03699" lon="7.01437">
        <ele>1316.6709340323</ele>
        <time>2025-05-30T17:42:34.000Z</time>
      </trkpt>
      <trkpt lat="48.03701" lon="7.01451">
        <ele>1316.5650984297</ele>
        <time>2025-05-30T17:42:44.000Z</time>
      </trkpt>
      <trkpt lat="48.03701" lon="7.0146">
        <ele>1315.7674277375</ele>
        <time>2025-05-30T17:42:53.000Z</time>
      </trkpt>
      <trkpt lat="48.03705" lon="7.01464">
        <ele>1317.5541451648</ele>
        <time>2025-05-30T17:42:58.000Z</time>
      </trkpt>
      <trkpt lat="48.03716" lon="7.01473">
        <ele>1323.1831921534</ele>
        <time>2025-05-30T17:43:13.000Z</time>
      </trkpt>
      <trkpt lat="48.0372" lon="7.01478">
        <ele>1325.2501886076</ele>
        <time>2025-05-30T17:43:17.000Z</time>
      </trkpt>
      <trkpt lat="48.03723" lon="7.01502">
        <ele>1327.5327353311</ele>
        <time>2025-05-30T17:43:34.000Z</time>
      </trkpt>
      <trkpt lat="48.03728" lon="7.01514">
        <ele>1329.8232940076</ele>
        <time>2025-05-30T17:43:45.000Z</time>
      </trkpt>
      <trkpt lat="48.03737" lon="7.01529">
        <ele>1334.9492019965</ele>
        <time>2025-05-30T17:43:57.000Z</time>
      </trkpt>
      <trkpt lat="48.03742" lon="7.01545">
        <ele>1340.8507460272</ele>
        <time>2025-05-30T17:44:09.000Z</time>
      </trkpt>
      <trkpt lat="48.03742" lon="7.01554">
        <ele>1343.1311452425</ele>
        <time>2025-05-30T17:44:15.000Z</time>
      </trkpt>
      <trkpt lat="48.03739" lon="7.01558">
        <ele>1342.460304907</ele>
        <time>2025-05-30T17:44:20.000Z</time>
      </trkpt>
      <trkpt lat="48.03745" lon="7.01561">
        <ele>1345.9029596632</ele>
        <time>2025-05-30T17:44:24.000Z</time>
      </trkpt>
      <trkpt lat="48.03747" lon="7.01572">
        <ele>1347.6159670282</ele>
        <time>2025-05-30T17:44:32.000Z</time>
      </trkpt>
    </trkseg>
  </trk>
</gpx>